<?xml version="1.0" encoding="UTF-8" standalone="no" ?>
<gpx xmlns="http://www.topografix.com/GPX/1/1" xmlns:xsi="http://www.w3.org/2001/XMLSchema-instance" xsi:schemaLocation="http://www.topografix.com/GPX/1/1 http://www.topografix.com/GPX/1/1/gpx.xsd" version="1.1" creator="VisuGPX - https://www.visugpx.com">
  <metadata>
    <name>Aups-Tourtour</name>
    <desc><![CDATA[Au départ du gîte, randonnée très agréable, vue dominante, sans difficultés. Halte à Tourtour, un des plus beaux village de France.]]></desc>
  </metadata>
  <trk>
    <name><![CDATA[PL CROIX TOURTOUR]]></name>
    <trkseg>
      <trkpt lat="43.59898" lon="6.25024">
        <ele>453.4</ele>
        <time>2015-10-13T11:05:40Z</time>
      </trkpt>
      <trkpt lat="43.59897" lon="6.25025">
        <ele>453.4</ele>
        <time>2015-10-13T11:06:00Z</time>
      </trkpt>
      <trkpt lat="43.59897" lon="6.25025">
        <ele>453.4</ele>
        <time>2015-10-13T11:06:17Z</time>
      </trkpt>
      <trkpt lat="43.59897" lon="6.25026">
        <ele>453.88</ele>
        <time>2015-10-13T11:06:35Z</time>
      </trkpt>
      <trkpt lat="43.59896" lon="6.25027">
        <ele>454.36</ele>
        <time>2015-10-13T11:07:10Z</time>
      </trkpt>
      <trkpt lat="43.59897" lon="6.25027">
        <ele>453.88</ele>
        <time>2015-10-13T11:07:41Z</time>
      </trkpt>
      <trkpt lat="43.59897" lon="6.25027">
        <ele>454.84</ele>
        <time>2015-10-13T11:08:00Z</time>
      </trkpt>
      <trkpt lat="43.59898" lon="6.25027">
        <ele>454.84</ele>
        <time>2015-10-13T11:08:26Z</time>
      </trkpt>
      <trkpt lat="43.59898" lon="6.25027">
        <ele>454.84</ele>
        <time>2015-10-13T11:08:37Z</time>
      </trkpt>
      <trkpt lat="43.60255" lon="6.24014">
        <ele>365.92</ele>
        <time>2015-10-17T07:54:26Z</time>
      </trkpt>
      <trkpt lat="43.60257" lon="6.24009">
        <ele>366.4</ele>
        <time>2015-10-17T07:54:29Z</time>
      </trkpt>
      <trkpt lat="43.60257" lon="6.24009">
        <ele>366.4</ele>
        <time>2015-10-17T07:54:31Z</time>
      </trkpt>
      <trkpt lat="43.60268" lon="6.23984">
        <ele>367.84</ele>
        <time>2015-10-17T07:54:48Z</time>
      </trkpt>
      <trkpt lat="43.60281" lon="6.23979">
        <ele>368.8</ele>
        <time>2015-10-17T07:55:00Z</time>
      </trkpt>
      <trkpt lat="43.60289" lon="6.23978">
        <ele>368.8</ele>
        <time>2015-10-17T07:55:06Z</time>
      </trkpt>
      <trkpt lat="43.60292" lon="6.23972">
        <ele>367.84</ele>
        <time>2015-10-17T07:55:10Z</time>
      </trkpt>
      <trkpt lat="43.60297" lon="6.23964">
        <ele>367.36</ele>
        <time>2015-10-17T07:55:16Z</time>
      </trkpt>
      <trkpt lat="43.60303" lon="6.23954">
        <ele>366.4</ele>
        <time>2015-10-17T07:55:22Z</time>
      </trkpt>
      <trkpt lat="43.6031" lon="6.2395">
        <ele>365.92</ele>
        <time>2015-10-17T07:55:28Z</time>
      </trkpt>
      <trkpt lat="43.60315" lon="6.2395">
        <ele>366.4</ele>
        <time>2015-10-17T07:55:31Z</time>
      </trkpt>
      <trkpt lat="43.60327" lon="6.23947">
        <ele>366.88</ele>
        <time>2015-10-17T07:55:42Z</time>
      </trkpt>
      <trkpt lat="43.60334" lon="6.23949">
        <ele>367.36</ele>
        <time>2015-10-17T07:55:49Z</time>
      </trkpt>
      <trkpt lat="43.60347" lon="6.23959">
        <ele>367.84</ele>
        <time>2015-10-17T07:56:03Z</time>
      </trkpt>
      <trkpt lat="43.6035" lon="6.23963">
        <ele>368.32</ele>
        <time>2015-10-17T07:56:07Z</time>
      </trkpt>
      <trkpt lat="43.6036" lon="6.2398">
        <ele>368.32</ele>
        <time>2015-10-17T07:56:12Z</time>
      </trkpt>
      <trkpt lat="43.60377" lon="6.24012">
        <ele>368.32</ele>
        <time>2015-10-17T07:56:27Z</time>
      </trkpt>
      <trkpt lat="43.60384" lon="6.24023">
        <ele>369.28</ele>
        <time>2015-10-17T07:56:35Z</time>
      </trkpt>
      <trkpt lat="43.60391" lon="6.24027">
        <ele>369.76</ele>
        <time>2015-10-17T07:56:39Z</time>
      </trkpt>
      <trkpt lat="43.60399" lon="6.24035">
        <ele>370.73</ele>
        <time>2015-10-17T07:56:48Z</time>
      </trkpt>
      <trkpt lat="43.60408" lon="6.24044">
        <ele>371.21</ele>
        <time>2015-10-17T07:57:02Z</time>
      </trkpt>
      <trkpt lat="43.60423" lon="6.24045">
        <ele>372.65</ele>
        <time>2015-10-17T07:57:17Z</time>
      </trkpt>
      <trkpt lat="43.60441" lon="6.24053">
        <ele>375.05</ele>
        <time>2015-10-17T07:57:33Z</time>
      </trkpt>
      <trkpt lat="43.60444" lon="6.24058">
        <ele>376.01</ele>
        <time>2015-10-17T07:57:39Z</time>
      </trkpt>
      <trkpt lat="43.60452" lon="6.2406">
        <ele>376.01</ele>
        <time>2015-10-17T07:57:51Z</time>
      </trkpt>
      <trkpt lat="43.60458" lon="6.24056">
        <ele>375.05</ele>
        <time>2015-10-17T07:57:56Z</time>
      </trkpt>
      <trkpt lat="43.60483" lon="6.24065">
        <ele>375.53</ele>
        <time>2015-10-17T07:58:09Z</time>
      </trkpt>
      <trkpt lat="43.60486" lon="6.24065">
        <ele>375.05</ele>
        <time>2015-10-17T07:58:11Z</time>
      </trkpt>
      <trkpt lat="43.60497" lon="6.24074">
        <ele>376.01</ele>
        <time>2015-10-17T07:58:25Z</time>
      </trkpt>
      <trkpt lat="43.60497" lon="6.24075">
        <ele>376.01</ele>
        <time>2015-10-17T07:58:44Z</time>
      </trkpt>
      <trkpt lat="43.60512" lon="6.24062">
        <ele>377.94</ele>
        <time>2015-10-17T07:59:02Z</time>
      </trkpt>
      <trkpt lat="43.60517" lon="6.24056">
        <ele>381.3</ele>
        <time>2015-10-17T07:59:08Z</time>
      </trkpt>
      <trkpt lat="43.60523" lon="6.24051">
        <ele>384.18</ele>
        <time>2015-10-17T07:59:13Z</time>
      </trkpt>
      <trkpt lat="43.60527" lon="6.24046">
        <ele>387.07</ele>
        <time>2015-10-17T07:59:18Z</time>
      </trkpt>
      <trkpt lat="43.60528" lon="6.24044">
        <ele>386.11</ele>
        <time>2015-10-17T07:59:22Z</time>
      </trkpt>
      <trkpt lat="43.6053" lon="6.24043">
        <ele>387.55</ele>
        <time>2015-10-17T07:59:24Z</time>
      </trkpt>
      <trkpt lat="43.60534" lon="6.24038">
        <ele>390.43</ele>
        <time>2015-10-17T07:59:27Z</time>
      </trkpt>
      <trkpt lat="43.6054" lon="6.24034">
        <ele>395.24</ele>
        <time>2015-10-17T07:59:31Z</time>
      </trkpt>
      <trkpt lat="43.60544" lon="6.24036">
        <ele>396.68</ele>
        <time>2015-10-17T07:59:33Z</time>
      </trkpt>
      <trkpt lat="43.60548" lon="6.24039">
        <ele>397.16</ele>
        <time>2015-10-17T07:59:35Z</time>
      </trkpt>
      <trkpt lat="43.60549" lon="6.24044">
        <ele>398.12</ele>
        <time>2015-10-17T07:59:39Z</time>
      </trkpt>
      <trkpt lat="43.60549" lon="6.24045">
        <ele>398.6</ele>
        <time>2015-10-17T07:59:40Z</time>
      </trkpt>
      <trkpt lat="43.60549" lon="6.24045">
        <ele>401.97</ele>
        <time>2015-10-17T07:59:48Z</time>
      </trkpt>
      <trkpt lat="43.6055" lon="6.24044">
        <ele>405.33</ele>
        <time>2015-10-17T07:59:54Z</time>
      </trkpt>
      <trkpt lat="43.6055" lon="6.24042">
        <ele>408.22</ele>
        <time>2015-10-17T08:00:02Z</time>
      </trkpt>
      <trkpt lat="43.60549" lon="6.24041">
        <ele>411.58</ele>
        <time>2015-10-17T08:00:14Z</time>
      </trkpt>
      <trkpt lat="43.60549" lon="6.24041">
        <ele>414.47</ele>
        <time>2015-10-17T08:00:25Z</time>
      </trkpt>
      <trkpt lat="43.60549" lon="6.2404">
        <ele>415.91</ele>
        <time>2015-10-17T08:00:31Z</time>
      </trkpt>
      <trkpt lat="43.60556" lon="6.24053">
        <ele>417.83</ele>
        <time>2015-10-17T08:00:39Z</time>
      </trkpt>
      <trkpt lat="43.60563" lon="6.24063">
        <ele>419.27</ele>
        <time>2015-10-17T08:00:46Z</time>
      </trkpt>
      <trkpt lat="43.6058" lon="6.24082">
        <ele>420.23</ele>
        <time>2015-10-17T08:00:59Z</time>
      </trkpt>
      <trkpt lat="43.6058" lon="6.24084">
        <ele>420.71</ele>
        <time>2015-10-17T08:01:00Z</time>
      </trkpt>
      <trkpt lat="43.6059" lon="6.24104">
        <ele>421.68</ele>
        <time>2015-10-17T08:01:13Z</time>
      </trkpt>
      <trkpt lat="43.60592" lon="6.24107">
        <ele>421.68</ele>
        <time>2015-10-17T08:01:15Z</time>
      </trkpt>
      <trkpt lat="43.60599" lon="6.24131">
        <ele>422.64</ele>
        <time>2015-10-17T08:01:28Z</time>
      </trkpt>
      <trkpt lat="43.60603" lon="6.24137">
        <ele>424.56</ele>
        <time>2015-10-17T08:01:33Z</time>
      </trkpt>
      <trkpt lat="43.60616" lon="6.24146">
        <ele>427.44</ele>
        <time>2015-10-17T08:01:46Z</time>
      </trkpt>
      <trkpt lat="43.60622" lon="6.24148">
        <ele>426.48</ele>
        <time>2015-10-17T08:01:51Z</time>
      </trkpt>
      <trkpt lat="43.60631" lon="6.24169">
        <ele>426.48</ele>
        <time>2015-10-17T08:02:03Z</time>
      </trkpt>
      <trkpt lat="43.60633" lon="6.24173">
        <ele>427.44</ele>
        <time>2015-10-17T08:02:05Z</time>
      </trkpt>
      <trkpt lat="43.60647" lon="6.24192">
        <ele>427.44</ele>
        <time>2015-10-17T08:02:18Z</time>
      </trkpt>
      <trkpt lat="43.6065" lon="6.24198">
        <ele>427.44</ele>
        <time>2015-10-17T08:02:21Z</time>
      </trkpt>
      <trkpt lat="43.60655" lon="6.24206">
        <ele>427.92</ele>
        <time>2015-10-17T08:02:26Z</time>
      </trkpt>
      <trkpt lat="43.60657" lon="6.24218">
        <ele>428.4</ele>
        <time>2015-10-17T08:02:32Z</time>
      </trkpt>
      <trkpt lat="43.60656" lon="6.24232">
        <ele>429.37</ele>
        <time>2015-10-17T08:02:40Z</time>
      </trkpt>
      <trkpt lat="43.60659" lon="6.24257">
        <ele>429.37</ele>
        <time>2015-10-17T08:02:52Z</time>
      </trkpt>
      <trkpt lat="43.60659" lon="6.24259">
        <ele>429.37</ele>
        <time>2015-10-17T08:02:53Z</time>
      </trkpt>
      <trkpt lat="43.60665" lon="6.24282">
        <ele>430.81</ele>
        <time>2015-10-17T08:03:05Z</time>
      </trkpt>
      <trkpt lat="43.60677" lon="6.24291">
        <ele>430.33</ele>
        <time>2015-10-17T08:03:14Z</time>
      </trkpt>
      <trkpt lat="43.60684" lon="6.24301">
        <ele>429.85</ele>
        <time>2015-10-17T08:03:20Z</time>
      </trkpt>
      <trkpt lat="43.6069" lon="6.24303">
        <ele>430.81</ele>
        <time>2015-10-17T08:03:24Z</time>
      </trkpt>
      <trkpt lat="43.60706" lon="6.24316">
        <ele>428.89</ele>
        <time>2015-10-17T08:03:35Z</time>
      </trkpt>
      <trkpt lat="43.60715" lon="6.24332">
        <ele>430.33</ele>
        <time>2015-10-17T08:03:44Z</time>
      </trkpt>
      <trkpt lat="43.60715" lon="6.24336">
        <ele>431.29</ele>
        <time>2015-10-17T08:03:46Z</time>
      </trkpt>
      <trkpt lat="43.60718" lon="6.24341">
        <ele>431.77</ele>
        <time>2015-10-17T08:03:49Z</time>
      </trkpt>
      <trkpt lat="43.60738" lon="6.24354">
        <ele>433.21</ele>
        <time>2015-10-17T08:04:02Z</time>
      </trkpt>
      <trkpt lat="43.60758" lon="6.24367">
        <ele>434.17</ele>
        <time>2015-10-17T08:04:14Z</time>
      </trkpt>
      <trkpt lat="43.60773" lon="6.24383">
        <ele>435.13</ele>
        <time>2015-10-17T08:04:26Z</time>
      </trkpt>
      <trkpt lat="43.60785" lon="6.24399">
        <ele>435.61</ele>
        <time>2015-10-17T08:04:35Z</time>
      </trkpt>
      <trkpt lat="43.60799" lon="6.24425">
        <ele>436.58</ele>
        <time>2015-10-17T08:04:49Z</time>
      </trkpt>
      <trkpt lat="43.60802" lon="6.24433">
        <ele>436.58</ele>
        <time>2015-10-17T08:04:54Z</time>
      </trkpt>
      <trkpt lat="43.60809" lon="6.24453">
        <ele>436.1</ele>
        <time>2015-10-17T08:05:06Z</time>
      </trkpt>
      <trkpt lat="43.60811" lon="6.24457">
        <ele>436.58</ele>
        <time>2015-10-17T08:05:08Z</time>
      </trkpt>
      <trkpt lat="43.60822" lon="6.24488">
        <ele>439.46</ele>
        <time>2015-10-17T08:05:20Z</time>
      </trkpt>
      <trkpt lat="43.6083" lon="6.24504">
        <ele>441.38</ele>
        <time>2015-10-17T08:05:28Z</time>
      </trkpt>
      <trkpt lat="43.60853" lon="6.2452">
        <ele>444.75</ele>
        <time>2015-10-17T08:05:41Z</time>
      </trkpt>
      <trkpt lat="43.60868" lon="6.24541">
        <ele>447.63</ele>
        <time>2015-10-17T08:05:53Z</time>
      </trkpt>
      <trkpt lat="43.60872" lon="6.24555">
        <ele>448.59</ele>
        <time>2015-10-17T08:06:00Z</time>
      </trkpt>
      <trkpt lat="43.60877" lon="6.24573">
        <ele>449.07</ele>
        <time>2015-10-17T08:06:05Z</time>
      </trkpt>
      <trkpt lat="43.60883" lon="6.24608">
        <ele>449.07</ele>
        <time>2015-10-17T08:06:21Z</time>
      </trkpt>
      <trkpt lat="43.60889" lon="6.24639">
        <ele>449.55</ele>
        <time>2015-10-17T08:06:35Z</time>
      </trkpt>
      <trkpt lat="43.60897" lon="6.24667">
        <ele>451</ele>
        <time>2015-10-17T08:06:49Z</time>
      </trkpt>
      <trkpt lat="43.60898" lon="6.24671">
        <ele>451.48</ele>
        <time>2015-10-17T08:06:51Z</time>
      </trkpt>
      <trkpt lat="43.60901" lon="6.24687">
        <ele>451.96</ele>
        <time>2015-10-17T08:06:59Z</time>
      </trkpt>
      <trkpt lat="43.60907" lon="6.24718">
        <ele>453.4</ele>
        <time>2015-10-17T08:07:15Z</time>
      </trkpt>
      <trkpt lat="43.60908" lon="6.24744">
        <ele>455.8</ele>
        <time>2015-10-17T08:07:27Z</time>
      </trkpt>
      <trkpt lat="43.60908" lon="6.24777">
        <ele>456.28</ele>
        <time>2015-10-17T08:07:41Z</time>
      </trkpt>
      <trkpt lat="43.60907" lon="6.2478">
        <ele>456.28</ele>
        <time>2015-10-17T08:07:43Z</time>
      </trkpt>
      <trkpt lat="43.60906" lon="6.24814">
        <ele>457.24</ele>
        <time>2015-10-17T08:07:57Z</time>
      </trkpt>
      <trkpt lat="43.60905" lon="6.24846">
        <ele>458.69</ele>
        <time>2015-10-17T08:08:13Z</time>
      </trkpt>
      <trkpt lat="43.60892" lon="6.2487">
        <ele>460.61</ele>
        <time>2015-10-17T08:08:26Z</time>
      </trkpt>
      <trkpt lat="43.60877" lon="6.24895">
        <ele>462.05</ele>
        <time>2015-10-17T08:08:41Z</time>
      </trkpt>
      <trkpt lat="43.60868" lon="6.24925">
        <ele>463.01</ele>
        <time>2015-10-17T08:08:57Z</time>
      </trkpt>
      <trkpt lat="43.60862" lon="6.24946">
        <ele>462.05</ele>
        <time>2015-10-17T08:09:07Z</time>
      </trkpt>
      <trkpt lat="43.60859" lon="6.24955">
        <ele>461.09</ele>
        <time>2015-10-17T08:09:11Z</time>
      </trkpt>
      <trkpt lat="43.6085" lon="6.24987">
        <ele>460.13</ele>
        <time>2015-10-17T08:09:26Z</time>
      </trkpt>
      <trkpt lat="43.6084" lon="6.25011">
        <ele>459.17</ele>
        <time>2015-10-17T08:09:39Z</time>
      </trkpt>
      <trkpt lat="43.60841" lon="6.2502">
        <ele>459.65</ele>
        <time>2015-10-17T08:09:43Z</time>
      </trkpt>
      <trkpt lat="43.60855" lon="6.25032">
        <ele>460.61</ele>
        <time>2015-10-17T08:09:56Z</time>
      </trkpt>
      <trkpt lat="43.60873" lon="6.2504">
        <ele>460.61</ele>
        <time>2015-10-17T08:10:11Z</time>
      </trkpt>
      <trkpt lat="43.60883" lon="6.25042">
        <ele>460.61</ele>
        <time>2015-10-17T08:10:18Z</time>
      </trkpt>
      <trkpt lat="43.60899" lon="6.25051">
        <ele>461.57</ele>
        <time>2015-10-17T08:10:33Z</time>
      </trkpt>
      <trkpt lat="43.60904" lon="6.25054">
        <ele>461.57</ele>
        <time>2015-10-17T08:10:43Z</time>
      </trkpt>
      <trkpt lat="43.60923" lon="6.25078">
        <ele>463.49</ele>
        <time>2015-10-17T08:10:58Z</time>
      </trkpt>
      <trkpt lat="43.60934" lon="6.25103">
        <ele>463.01</ele>
        <time>2015-10-17T08:11:12Z</time>
      </trkpt>
      <trkpt lat="43.60937" lon="6.25119">
        <ele>464.93</ele>
        <time>2015-10-17T08:11:20Z</time>
      </trkpt>
      <trkpt lat="43.60938" lon="6.25127">
        <ele>465.42</ele>
        <time>2015-10-17T08:11:24Z</time>
      </trkpt>
      <trkpt lat="43.60938" lon="6.25159">
        <ele>465.9</ele>
        <time>2015-10-17T08:11:39Z</time>
      </trkpt>
      <trkpt lat="43.60934" lon="6.25191">
        <ele>466.38</ele>
        <time>2015-10-17T08:11:54Z</time>
      </trkpt>
      <trkpt lat="43.60932" lon="6.25226">
        <ele>467.82</ele>
        <time>2015-10-17T08:12:10Z</time>
      </trkpt>
      <trkpt lat="43.60937" lon="6.25258">
        <ele>469.74</ele>
        <time>2015-10-17T08:12:24Z</time>
      </trkpt>
      <trkpt lat="43.6094" lon="6.25277">
        <ele>471.66</ele>
        <time>2015-10-17T08:12:33Z</time>
      </trkpt>
      <trkpt lat="43.60946" lon="6.25296">
        <ele>473.59</ele>
        <time>2015-10-17T08:12:46Z</time>
      </trkpt>
      <trkpt lat="43.60951" lon="6.2531">
        <ele>475.51</ele>
        <time>2015-10-17T08:12:57Z</time>
      </trkpt>
      <trkpt lat="43.60953" lon="6.25312">
        <ele>475.51</ele>
        <time>2015-10-17T08:12:59Z</time>
      </trkpt>
      <trkpt lat="43.60975" lon="6.25342">
        <ele>478.39</ele>
        <time>2015-10-17T08:13:15Z</time>
      </trkpt>
      <trkpt lat="43.6098" lon="6.25368">
        <ele>480.32</ele>
        <time>2015-10-17T08:13:28Z</time>
      </trkpt>
      <trkpt lat="43.60982" lon="6.25397">
        <ele>482.72</ele>
        <time>2015-10-17T08:13:42Z</time>
      </trkpt>
      <trkpt lat="43.6098" lon="6.25414">
        <ele>484.64</ele>
        <time>2015-10-17T08:13:51Z</time>
      </trkpt>
      <trkpt lat="43.60972" lon="6.25438">
        <ele>488.01</ele>
        <time>2015-10-17T08:14:05Z</time>
      </trkpt>
      <trkpt lat="43.6097" lon="6.25443">
        <ele>488.97</ele>
        <time>2015-10-17T08:14:08Z</time>
      </trkpt>
      <trkpt lat="43.60961" lon="6.2546">
        <ele>492.33</ele>
        <time>2015-10-17T08:14:20Z</time>
      </trkpt>
      <trkpt lat="43.6096" lon="6.25468">
        <ele>491.85</ele>
        <time>2015-10-17T08:14:24Z</time>
      </trkpt>
      <trkpt lat="43.60962" lon="6.25496">
        <ele>494.26</ele>
        <time>2015-10-17T08:14:37Z</time>
      </trkpt>
      <trkpt lat="43.6096" lon="6.25513">
        <ele>496.18</ele>
        <time>2015-10-17T08:14:46Z</time>
      </trkpt>
      <trkpt lat="43.60965" lon="6.25526">
        <ele>497.62</ele>
        <time>2015-10-17T08:14:53Z</time>
      </trkpt>
      <trkpt lat="43.60967" lon="6.25553">
        <ele>500.98</ele>
        <time>2015-10-17T08:15:06Z</time>
      </trkpt>
      <trkpt lat="43.60961" lon="6.25584">
        <ele>503.87</ele>
        <time>2015-10-17T08:15:21Z</time>
      </trkpt>
      <trkpt lat="43.60955" lon="6.25611">
        <ele>504.83</ele>
        <time>2015-10-17T08:15:35Z</time>
      </trkpt>
      <trkpt lat="43.60949" lon="6.25634">
        <ele>504.83</ele>
        <time>2015-10-17T08:15:46Z</time>
      </trkpt>
      <trkpt lat="43.60942" lon="6.2566">
        <ele>503.39</ele>
        <time>2015-10-17T08:15:59Z</time>
      </trkpt>
      <trkpt lat="43.60941" lon="6.25668">
        <ele>502.91</ele>
        <time>2015-10-17T08:16:03Z</time>
      </trkpt>
      <trkpt lat="43.60936" lon="6.25699">
        <ele>500.5</ele>
        <time>2015-10-17T08:16:18Z</time>
      </trkpt>
      <trkpt lat="43.60936" lon="6.25709">
        <ele>500.02</ele>
        <time>2015-10-17T08:16:23Z</time>
      </trkpt>
      <trkpt lat="43.60932" lon="6.25721">
        <ele>499.54</ele>
        <time>2015-10-17T08:16:29Z</time>
      </trkpt>
      <trkpt lat="43.60928" lon="6.25748">
        <ele>499.54</ele>
        <time>2015-10-17T08:16:42Z</time>
      </trkpt>
      <trkpt lat="43.60931" lon="6.25784">
        <ele>499.54</ele>
        <time>2015-10-17T08:16:58Z</time>
      </trkpt>
      <trkpt lat="43.60945" lon="6.25811">
        <ele>500.02</ele>
        <time>2015-10-17T08:17:13Z</time>
      </trkpt>
      <trkpt lat="43.60946" lon="6.25813">
        <ele>500.02</ele>
        <time>2015-10-17T08:17:14Z</time>
      </trkpt>
      <trkpt lat="43.60956" lon="6.25837">
        <ele>500.98</ele>
        <time>2015-10-17T08:17:29Z</time>
      </trkpt>
      <trkpt lat="43.60957" lon="6.25839">
        <ele>500.98</ele>
        <time>2015-10-17T08:17:30Z</time>
      </trkpt>
      <trkpt lat="43.60968" lon="6.25859">
        <ele>500.98</ele>
        <time>2015-10-17T08:17:41Z</time>
      </trkpt>
      <trkpt lat="43.6098" lon="6.25895">
        <ele>502.43</ele>
        <time>2015-10-17T08:17:54Z</time>
      </trkpt>
      <trkpt lat="43.60993" lon="6.25922">
        <ele>503.87</ele>
        <time>2015-10-17T08:18:06Z</time>
      </trkpt>
      <trkpt lat="43.61007" lon="6.25952">
        <ele>503.39</ele>
        <time>2015-10-17T08:18:22Z</time>
      </trkpt>
      <trkpt lat="43.61021" lon="6.25986">
        <ele>501.95</ele>
        <time>2015-10-17T08:18:39Z</time>
      </trkpt>
      <trkpt lat="43.61022" lon="6.25988">
        <ele>501.46</ele>
        <time>2015-10-17T08:18:40Z</time>
      </trkpt>
      <trkpt lat="43.61044" lon="6.26012">
        <ele>501.95</ele>
        <time>2015-10-17T08:18:57Z</time>
      </trkpt>
      <trkpt lat="43.6106" lon="6.26049">
        <ele>503.39</ele>
        <time>2015-10-17T08:19:16Z</time>
      </trkpt>
      <trkpt lat="43.61078" lon="6.26068">
        <ele>503.87</ele>
        <time>2015-10-17T08:19:30Z</time>
      </trkpt>
      <trkpt lat="43.61084" lon="6.26073">
        <ele>503.39</ele>
        <time>2015-10-17T08:19:34Z</time>
      </trkpt>
      <trkpt lat="43.61095" lon="6.26082">
        <ele>503.87</ele>
        <time>2015-10-17T08:19:42Z</time>
      </trkpt>
      <trkpt lat="43.61098" lon="6.26084">
        <ele>503.87</ele>
        <time>2015-10-17T08:19:45Z</time>
      </trkpt>
      <trkpt lat="43.61104" lon="6.26084">
        <ele>503.87</ele>
        <time>2015-10-17T08:19:49Z</time>
      </trkpt>
      <trkpt lat="43.61131" lon="6.26085">
        <ele>503.87</ele>
        <time>2015-10-17T08:20:05Z</time>
      </trkpt>
      <trkpt lat="43.61155" lon="6.26106">
        <ele>503.39</ele>
        <time>2015-10-17T08:20:21Z</time>
      </trkpt>
      <trkpt lat="43.61175" lon="6.26102">
        <ele>502.43</ele>
        <time>2015-10-17T08:20:34Z</time>
      </trkpt>
      <trkpt lat="43.61202" lon="6.26088">
        <ele>501.95</ele>
        <time>2015-10-17T08:20:51Z</time>
      </trkpt>
      <trkpt lat="43.61223" lon="6.26078">
        <ele>502.43</ele>
        <time>2015-10-17T08:21:05Z</time>
      </trkpt>
      <trkpt lat="43.61246" lon="6.26068">
        <ele>502.91</ele>
        <time>2015-10-17T08:21:19Z</time>
      </trkpt>
      <trkpt lat="43.61247" lon="6.26068">
        <ele>502.91</ele>
        <time>2015-10-17T08:21:20Z</time>
      </trkpt>
      <trkpt lat="43.61268" lon="6.26068">
        <ele>503.39</ele>
        <time>2015-10-17T08:21:35Z</time>
      </trkpt>
      <trkpt lat="43.61276" lon="6.2606">
        <ele>503.87</ele>
        <time>2015-10-17T08:21:41Z</time>
      </trkpt>
      <trkpt lat="43.61291" lon="6.26023">
        <ele>504.83</ele>
        <time>2015-10-17T08:22:00Z</time>
      </trkpt>
      <trkpt lat="43.6131" lon="6.26002">
        <ele>505.79</ele>
        <time>2015-10-17T08:22:15Z</time>
      </trkpt>
      <trkpt lat="43.6133" lon="6.25996">
        <ele>507.23</ele>
        <time>2015-10-17T08:22:30Z</time>
      </trkpt>
      <trkpt lat="43.61349" lon="6.25983">
        <ele>507.23</ele>
        <time>2015-10-17T08:22:43Z</time>
      </trkpt>
      <trkpt lat="43.61355" lon="6.25978">
        <ele>507.23</ele>
        <time>2015-10-17T08:22:47Z</time>
      </trkpt>
      <trkpt lat="43.6138" lon="6.25976">
        <ele>507.71</ele>
        <time>2015-10-17T08:23:02Z</time>
      </trkpt>
      <trkpt lat="43.61405" lon="6.25971">
        <ele>508.19</ele>
        <time>2015-10-17T08:23:19Z</time>
      </trkpt>
      <trkpt lat="43.61431" lon="6.25973">
        <ele>508.67</ele>
        <time>2015-10-17T08:23:35Z</time>
      </trkpt>
      <trkpt lat="43.61437" lon="6.25974">
        <ele>509.16</ele>
        <time>2015-10-17T08:23:40Z</time>
      </trkpt>
      <trkpt lat="43.61455" lon="6.25984">
        <ele>505.79</ele>
        <time>2015-10-17T08:23:54Z</time>
      </trkpt>
      <trkpt lat="43.6147" lon="6.25986">
        <ele>502.91</ele>
        <time>2015-10-17T08:24:09Z</time>
      </trkpt>
      <trkpt lat="43.61479" lon="6.25985">
        <ele>501.46</ele>
        <time>2015-10-17T08:24:16Z</time>
      </trkpt>
      <trkpt lat="43.61483" lon="6.25983">
        <ele>500.98</ele>
        <time>2015-10-17T08:24:18Z</time>
      </trkpt>
      <trkpt lat="43.61491" lon="6.25977">
        <ele>499.54</ele>
        <time>2015-10-17T08:24:24Z</time>
      </trkpt>
      <trkpt lat="43.61493" lon="6.25976">
        <ele>499.06</ele>
        <time>2015-10-17T08:24:25Z</time>
      </trkpt>
      <trkpt lat="43.61494" lon="6.25973">
        <ele>498.58</ele>
        <time>2015-10-17T08:24:27Z</time>
      </trkpt>
      <trkpt lat="43.61501" lon="6.25962">
        <ele>497.14</ele>
        <time>2015-10-17T08:24:33Z</time>
      </trkpt>
      <trkpt lat="43.61509" lon="6.25947">
        <ele>494.26</ele>
        <time>2015-10-17T08:24:44Z</time>
      </trkpt>
      <trkpt lat="43.61518" lon="6.25933">
        <ele>492.81</ele>
        <time>2015-10-17T08:24:52Z</time>
      </trkpt>
      <trkpt lat="43.61528" lon="6.25914">
        <ele>489.45</ele>
        <time>2015-10-17T08:25:00Z</time>
      </trkpt>
      <trkpt lat="43.61528" lon="6.25912">
        <ele>489.45</ele>
        <time>2015-10-17T08:25:01Z</time>
      </trkpt>
      <trkpt lat="43.61533" lon="6.25903">
        <ele>488.49</ele>
        <time>2015-10-17T08:25:06Z</time>
      </trkpt>
      <trkpt lat="43.61542" lon="6.25895">
        <ele>487.53</ele>
        <time>2015-10-17T08:25:11Z</time>
      </trkpt>
      <trkpt lat="43.61552" lon="6.25879">
        <ele>489.45</ele>
        <time>2015-10-17T08:25:20Z</time>
      </trkpt>
      <trkpt lat="43.61556" lon="6.25869">
        <ele>491.37</ele>
        <time>2015-10-17T08:25:25Z</time>
      </trkpt>
      <trkpt lat="43.61552" lon="6.25852">
        <ele>492.33</ele>
        <time>2015-10-17T08:25:35Z</time>
      </trkpt>
      <trkpt lat="43.6157" lon="6.25836">
        <ele>493.77</ele>
        <time>2015-10-17T08:25:51Z</time>
      </trkpt>
      <trkpt lat="43.61585" lon="6.2584">
        <ele>495.7</ele>
        <time>2015-10-17T08:26:02Z</time>
      </trkpt>
      <trkpt lat="43.61602" lon="6.25844">
        <ele>497.14</ele>
        <time>2015-10-17T08:26:12Z</time>
      </trkpt>
      <trkpt lat="43.61623" lon="6.25847">
        <ele>498.58</ele>
        <time>2015-10-17T08:26:25Z</time>
      </trkpt>
      <trkpt lat="43.6164" lon="6.25846">
        <ele>500.02</ele>
        <time>2015-10-17T08:26:38Z</time>
      </trkpt>
      <trkpt lat="43.61652" lon="6.25849">
        <ele>501.46</ele>
        <time>2015-10-17T08:26:48Z</time>
      </trkpt>
      <trkpt lat="43.61656" lon="6.25849">
        <ele>501.95</ele>
        <time>2015-10-17T08:26:50Z</time>
      </trkpt>
      <trkpt lat="43.61674" lon="6.25854">
        <ele>503.87</ele>
        <time>2015-10-17T08:27:04Z</time>
      </trkpt>
      <trkpt lat="43.61689" lon="6.25861">
        <ele>504.83</ele>
        <time>2015-10-17T08:27:15Z</time>
      </trkpt>
      <trkpt lat="43.61711" lon="6.25866">
        <ele>507.71</ele>
        <time>2015-10-17T08:27:31Z</time>
      </trkpt>
      <trkpt lat="43.61716" lon="6.2587">
        <ele>508.19</ele>
        <time>2015-10-17T08:27:35Z</time>
      </trkpt>
      <trkpt lat="43.61725" lon="6.25884">
        <ele>509.64</ele>
        <time>2015-10-17T08:27:45Z</time>
      </trkpt>
      <trkpt lat="43.61739" lon="6.25894">
        <ele>510.6</ele>
        <time>2015-10-17T08:27:56Z</time>
      </trkpt>
      <trkpt lat="43.6175" lon="6.259">
        <ele>512.52</ele>
        <time>2015-10-17T08:28:04Z</time>
      </trkpt>
      <trkpt lat="43.61759" lon="6.25899">
        <ele>513</ele>
        <time>2015-10-17T08:28:10Z</time>
      </trkpt>
      <trkpt lat="43.61778" lon="6.25893">
        <ele>514.44</ele>
        <time>2015-10-17T08:28:25Z</time>
      </trkpt>
      <trkpt lat="43.61785" lon="6.25893">
        <ele>514.92</ele>
        <time>2015-10-17T08:28:30Z</time>
      </trkpt>
      <trkpt lat="43.61809" lon="6.25892">
        <ele>516.37</ele>
        <time>2015-10-17T08:28:44Z</time>
      </trkpt>
      <trkpt lat="43.61814" lon="6.25887">
        <ele>516.37</ele>
        <time>2015-10-17T08:28:49Z</time>
      </trkpt>
      <trkpt lat="43.61815" lon="6.25883">
        <ele>516.37</ele>
        <time>2015-10-17T08:28:52Z</time>
      </trkpt>
      <trkpt lat="43.61827" lon="6.25869">
        <ele>515.4</ele>
        <time>2015-10-17T08:29:03Z</time>
      </trkpt>
      <trkpt lat="43.61846" lon="6.25851">
        <ele>515.4</ele>
        <time>2015-10-17T08:29:16Z</time>
      </trkpt>
      <trkpt lat="43.61855" lon="6.25836">
        <ele>515.4</ele>
        <time>2015-10-17T08:29:28Z</time>
      </trkpt>
      <trkpt lat="43.61861" lon="6.25827">
        <ele>515.88</ele>
        <time>2015-10-17T08:29:35Z</time>
      </trkpt>
      <trkpt lat="43.61887" lon="6.25798">
        <ele>517.81</ele>
        <time>2015-10-17T08:29:56Z</time>
      </trkpt>
      <trkpt lat="43.61905" lon="6.25772">
        <ele>519.73</ele>
        <time>2015-10-17T08:30:13Z</time>
      </trkpt>
      <trkpt lat="43.61921" lon="6.25747">
        <ele>521.65</ele>
        <time>2015-10-17T08:30:30Z</time>
      </trkpt>
      <trkpt lat="43.6195" lon="6.25717">
        <ele>523.58</ele>
        <time>2015-10-17T08:30:46Z</time>
      </trkpt>
      <trkpt lat="43.61953" lon="6.25714">
        <ele>523.58</ele>
        <time>2015-10-17T08:30:49Z</time>
      </trkpt>
      <trkpt lat="43.61964" lon="6.25694">
        <ele>525.5</ele>
        <time>2015-10-17T08:31:06Z</time>
      </trkpt>
      <trkpt lat="43.61973" lon="6.25674">
        <ele>526.94</ele>
        <time>2015-10-17T08:31:18Z</time>
      </trkpt>
      <trkpt lat="43.61984" lon="6.25655">
        <ele>529.34</ele>
        <time>2015-10-17T08:31:27Z</time>
      </trkpt>
      <trkpt lat="43.61993" lon="6.25639">
        <ele>532.23</ele>
        <time>2015-10-17T08:31:39Z</time>
      </trkpt>
      <trkpt lat="43.61996" lon="6.25635">
        <ele>532.23</ele>
        <time>2015-10-17T08:31:41Z</time>
      </trkpt>
      <trkpt lat="43.62008" lon="6.25622">
        <ele>533.19</ele>
        <time>2015-10-17T08:31:48Z</time>
      </trkpt>
      <trkpt lat="43.6201" lon="6.25607">
        <ele>534.15</ele>
        <time>2015-10-17T08:31:56Z</time>
      </trkpt>
      <trkpt lat="43.62013" lon="6.256">
        <ele>534.63</ele>
        <time>2015-10-17T08:32:00Z</time>
      </trkpt>
      <trkpt lat="43.62014" lon="6.25592">
        <ele>535.11</ele>
        <time>2015-10-17T08:32:04Z</time>
      </trkpt>
      <trkpt lat="43.62017" lon="6.25586">
        <ele>535.11</ele>
        <time>2015-10-17T08:32:07Z</time>
      </trkpt>
      <trkpt lat="43.62021" lon="6.25565">
        <ele>536.07</ele>
        <time>2015-10-17T08:32:15Z</time>
      </trkpt>
      <trkpt lat="43.62031" lon="6.2554">
        <ele>537.03</ele>
        <time>2015-10-17T08:32:30Z</time>
      </trkpt>
      <trkpt lat="43.62043" lon="6.25523">
        <ele>538.48</ele>
        <time>2015-10-17T08:32:42Z</time>
      </trkpt>
      <trkpt lat="43.6206" lon="6.25503">
        <ele>539.44</ele>
        <time>2015-10-17T08:32:57Z</time>
      </trkpt>
      <trkpt lat="43.62062" lon="6.25497">
        <ele>539.92</ele>
        <time>2015-10-17T08:33:00Z</time>
      </trkpt>
      <trkpt lat="43.62068" lon="6.25476">
        <ele>540.88</ele>
        <time>2015-10-17T08:33:11Z</time>
      </trkpt>
      <trkpt lat="43.62073" lon="6.25457">
        <ele>541.84</ele>
        <time>2015-10-17T08:33:20Z</time>
      </trkpt>
      <trkpt lat="43.62082" lon="6.25435">
        <ele>543.28</ele>
        <time>2015-10-17T08:33:33Z</time>
      </trkpt>
      <trkpt lat="43.62083" lon="6.25431">
        <ele>543.28</ele>
        <time>2015-10-17T08:33:35Z</time>
      </trkpt>
      <trkpt lat="43.62087" lon="6.25418">
        <ele>543.76</ele>
        <time>2015-10-17T08:33:42Z</time>
      </trkpt>
      <trkpt lat="43.62088" lon="6.25409">
        <ele>544.72</ele>
        <time>2015-10-17T08:33:48Z</time>
      </trkpt>
      <trkpt lat="43.62092" lon="6.25404">
        <ele>545.69</ele>
        <time>2015-10-17T08:33:56Z</time>
      </trkpt>
      <trkpt lat="43.62094" lon="6.25399">
        <ele>545.69</ele>
        <time>2015-10-17T08:33:59Z</time>
      </trkpt>
      <trkpt lat="43.62106" lon="6.25376">
        <ele>545.2</ele>
        <time>2015-10-17T08:34:13Z</time>
      </trkpt>
      <trkpt lat="43.62116" lon="6.25354">
        <ele>546.17</ele>
        <time>2015-10-17T08:34:26Z</time>
      </trkpt>
      <trkpt lat="43.6212" lon="6.25348">
        <ele>546.17</ele>
        <time>2015-10-17T08:34:30Z</time>
      </trkpt>
      <trkpt lat="43.62126" lon="6.25334">
        <ele>546.65</ele>
        <time>2015-10-17T08:34:38Z</time>
      </trkpt>
      <trkpt lat="43.62139" lon="6.25309">
        <ele>547.13</ele>
        <time>2015-10-17T08:34:54Z</time>
      </trkpt>
      <trkpt lat="43.62147" lon="6.25288">
        <ele>548.09</ele>
        <time>2015-10-17T08:35:07Z</time>
      </trkpt>
      <trkpt lat="43.62162" lon="6.25291">
        <ele>549.53</ele>
        <time>2015-10-17T08:35:20Z</time>
      </trkpt>
      <trkpt lat="43.62172" lon="6.25305">
        <ele>552.41</ele>
        <time>2015-10-17T08:35:29Z</time>
      </trkpt>
      <trkpt lat="43.62176" lon="6.25308">
        <ele>554.34</ele>
        <time>2015-10-17T08:35:34Z</time>
      </trkpt>
      <trkpt lat="43.62182" lon="6.25313">
        <ele>555.78</ele>
        <time>2015-10-17T08:35:39Z</time>
      </trkpt>
      <trkpt lat="43.62195" lon="6.25306">
        <ele>559.14</ele>
        <time>2015-10-17T08:35:48Z</time>
      </trkpt>
      <trkpt lat="43.62202" lon="6.253">
        <ele>560.59</ele>
        <time>2015-10-17T08:35:52Z</time>
      </trkpt>
      <trkpt lat="43.62204" lon="6.25297">
        <ele>561.55</ele>
        <time>2015-10-17T08:35:54Z</time>
      </trkpt>
      <trkpt lat="43.62222" lon="6.25304">
        <ele>564.91</ele>
        <time>2015-10-17T08:36:05Z</time>
      </trkpt>
      <trkpt lat="43.62227" lon="6.25305">
        <ele>565.87</ele>
        <time>2015-10-17T08:36:09Z</time>
      </trkpt>
      <trkpt lat="43.62231" lon="6.25301">
        <ele>566.83</ele>
        <time>2015-10-17T08:36:12Z</time>
      </trkpt>
      <trkpt lat="43.62235" lon="6.2529">
        <ele>567.8</ele>
        <time>2015-10-17T08:36:16Z</time>
      </trkpt>
      <trkpt lat="43.62241" lon="6.25277">
        <ele>569.72</ele>
        <time>2015-10-17T08:36:23Z</time>
      </trkpt>
      <trkpt lat="43.62247" lon="6.25281">
        <ele>570.68</ele>
        <time>2015-10-17T08:36:27Z</time>
      </trkpt>
      <trkpt lat="43.62256" lon="6.25306">
        <ele>574.04</ele>
        <time>2015-10-17T08:36:41Z</time>
      </trkpt>
      <trkpt lat="43.6227" lon="6.25327">
        <ele>576.45</ele>
        <time>2015-10-17T08:36:54Z</time>
      </trkpt>
      <trkpt lat="43.62284" lon="6.25341">
        <ele>579.33</ele>
        <time>2015-10-17T08:37:04Z</time>
      </trkpt>
      <trkpt lat="43.62286" lon="6.25341">
        <ele>579.81</ele>
        <time>2015-10-17T08:37:05Z</time>
      </trkpt>
      <trkpt lat="43.623" lon="6.25365">
        <ele>583.66</ele>
        <time>2015-10-17T08:37:17Z</time>
      </trkpt>
      <trkpt lat="43.62305" lon="6.25372">
        <ele>584.62</ele>
        <time>2015-10-17T08:37:21Z</time>
      </trkpt>
      <trkpt lat="43.62321" lon="6.25385">
        <ele>587.98</ele>
        <time>2015-10-17T08:37:34Z</time>
      </trkpt>
      <trkpt lat="43.62335" lon="6.25398">
        <ele>591.35</ele>
        <time>2015-10-17T08:37:44Z</time>
      </trkpt>
      <trkpt lat="43.62351" lon="6.2542">
        <ele>594.71</ele>
        <time>2015-10-17T08:37:57Z</time>
      </trkpt>
      <trkpt lat="43.62369" lon="6.25449">
        <ele>597.6</ele>
        <time>2015-10-17T08:38:13Z</time>
      </trkpt>
      <trkpt lat="43.62383" lon="6.25479">
        <ele>600.48</ele>
        <time>2015-10-17T08:38:29Z</time>
      </trkpt>
      <trkpt lat="43.62396" lon="6.25507">
        <ele>602.88</ele>
        <time>2015-10-17T08:38:44Z</time>
      </trkpt>
      <trkpt lat="43.62408" lon="6.25537">
        <ele>605.77</ele>
        <time>2015-10-17T08:38:59Z</time>
      </trkpt>
      <trkpt lat="43.62423" lon="6.25568">
        <ele>608.65</ele>
        <time>2015-10-17T08:39:16Z</time>
      </trkpt>
      <trkpt lat="43.62432" lon="6.25589">
        <ele>611.06</ele>
        <time>2015-10-17T08:39:30Z</time>
      </trkpt>
      <trkpt lat="43.62446" lon="6.25607">
        <ele>614.42</ele>
        <time>2015-10-17T08:39:43Z</time>
      </trkpt>
      <trkpt lat="43.62461" lon="6.25625">
        <ele>616.82</ele>
        <time>2015-10-17T08:39:55Z</time>
      </trkpt>
      <trkpt lat="43.62462" lon="6.25617">
        <ele>617.3</ele>
        <time>2015-10-17T08:40:00Z</time>
      </trkpt>
      <trkpt lat="43.62457" lon="6.25585">
        <ele>619.23</ele>
        <time>2015-10-17T08:40:14Z</time>
      </trkpt>
      <trkpt lat="43.62457" lon="6.25558">
        <ele>621.63</ele>
        <time>2015-10-17T08:40:27Z</time>
      </trkpt>
      <trkpt lat="43.62469" lon="6.25531">
        <ele>624.03</ele>
        <time>2015-10-17T08:40:41Z</time>
      </trkpt>
      <trkpt lat="43.62482" lon="6.25509">
        <ele>625.47</ele>
        <time>2015-10-17T08:40:55Z</time>
      </trkpt>
      <trkpt lat="43.6249" lon="6.25502">
        <ele>626.44</ele>
        <time>2015-10-17T08:41:01Z</time>
      </trkpt>
      <trkpt lat="43.62499" lon="6.25497">
        <ele>627.88</ele>
        <time>2015-10-17T08:41:07Z</time>
      </trkpt>
      <trkpt lat="43.62511" lon="6.25484">
        <ele>629.8</ele>
        <time>2015-10-17T08:41:16Z</time>
      </trkpt>
      <trkpt lat="43.62513" lon="6.25479">
        <ele>629.8</ele>
        <time>2015-10-17T08:41:19Z</time>
      </trkpt>
      <trkpt lat="43.62525" lon="6.25454">
        <ele>631.24</ele>
        <time>2015-10-17T08:41:33Z</time>
      </trkpt>
      <trkpt lat="43.62533" lon="6.25417">
        <ele>630.76</ele>
        <time>2015-10-17T08:41:49Z</time>
      </trkpt>
      <trkpt lat="43.62542" lon="6.25391">
        <ele>631.24</ele>
        <time>2015-10-17T08:42:00Z</time>
      </trkpt>
      <trkpt lat="43.62547" lon="6.2537">
        <ele>632.2</ele>
        <time>2015-10-17T08:42:10Z</time>
      </trkpt>
      <trkpt lat="43.62539" lon="6.25342">
        <ele>634.13</ele>
        <time>2015-10-17T08:42:23Z</time>
      </trkpt>
      <trkpt lat="43.62537" lon="6.25337">
        <ele>634.13</ele>
        <time>2015-10-17T08:42:26Z</time>
      </trkpt>
      <trkpt lat="43.62534" lon="6.25328">
        <ele>634.13</ele>
        <time>2015-10-17T08:42:30Z</time>
      </trkpt>
      <trkpt lat="43.62526" lon="6.25294">
        <ele>633.65</ele>
        <time>2015-10-17T08:42:47Z</time>
      </trkpt>
      <trkpt lat="43.62536" lon="6.25266">
        <ele>633.17</ele>
        <time>2015-10-17T08:43:00Z</time>
      </trkpt>
      <trkpt lat="43.62545" lon="6.25257">
        <ele>633.65</ele>
        <time>2015-10-17T08:43:06Z</time>
      </trkpt>
      <trkpt lat="43.62548" lon="6.25254">
        <ele>633.65</ele>
        <time>2015-10-17T08:43:08Z</time>
      </trkpt>
      <trkpt lat="43.62552" lon="6.25248">
        <ele>633.65</ele>
        <time>2015-10-17T08:43:12Z</time>
      </trkpt>
      <trkpt lat="43.62565" lon="6.25239">
        <ele>634.61</ele>
        <time>2015-10-17T08:43:27Z</time>
      </trkpt>
      <trkpt lat="43.62579" lon="6.25232">
        <ele>636.05</ele>
        <time>2015-10-17T08:43:39Z</time>
      </trkpt>
      <trkpt lat="43.62591" lon="6.25225">
        <ele>636.53</ele>
        <time>2015-10-17T08:43:52Z</time>
      </trkpt>
      <trkpt lat="43.62609" lon="6.2521">
        <ele>637.49</ele>
        <time>2015-10-17T08:44:04Z</time>
      </trkpt>
      <trkpt lat="43.6261" lon="6.25206">
        <ele>637.49</ele>
        <time>2015-10-17T08:44:07Z</time>
      </trkpt>
      <trkpt lat="43.62608" lon="6.25193">
        <ele>638.45</ele>
        <time>2015-10-17T08:44:15Z</time>
      </trkpt>
      <trkpt lat="43.62608" lon="6.25191">
        <ele>638.45</ele>
        <time>2015-10-17T08:44:16Z</time>
      </trkpt>
      <trkpt lat="43.62599" lon="6.25158">
        <ele>639.41</ele>
        <time>2015-10-17T08:44:31Z</time>
      </trkpt>
      <trkpt lat="43.62588" lon="6.25123">
        <ele>639.89</ele>
        <time>2015-10-17T08:44:43Z</time>
      </trkpt>
      <trkpt lat="43.62581" lon="6.251">
        <ele>640.86</ele>
        <time>2015-10-17T08:44:53Z</time>
      </trkpt>
      <trkpt lat="43.62582" lon="6.2508">
        <ele>641.34</ele>
        <time>2015-10-17T08:45:03Z</time>
      </trkpt>
      <trkpt lat="43.62588" lon="6.25074">
        <ele>642.3</ele>
        <time>2015-10-17T08:45:09Z</time>
      </trkpt>
      <trkpt lat="43.62593" lon="6.25072">
        <ele>642.3</ele>
        <time>2015-10-17T08:45:13Z</time>
      </trkpt>
      <trkpt lat="43.62612" lon="6.25069">
        <ele>643.26</ele>
        <time>2015-10-17T08:45:24Z</time>
      </trkpt>
      <trkpt lat="43.62624" lon="6.25065">
        <ele>643.26</ele>
        <time>2015-10-17T08:45:32Z</time>
      </trkpt>
      <trkpt lat="43.62637" lon="6.25063">
        <ele>644.22</ele>
        <time>2015-10-17T08:45:40Z</time>
      </trkpt>
      <trkpt lat="43.62657" lon="6.25052">
        <ele>645.18</ele>
        <time>2015-10-17T08:45:55Z</time>
      </trkpt>
      <trkpt lat="43.62673" lon="6.25046">
        <ele>644.7</ele>
        <time>2015-10-17T08:46:07Z</time>
      </trkpt>
      <trkpt lat="43.62688" lon="6.25041">
        <ele>644.22</ele>
        <time>2015-10-17T08:46:16Z</time>
      </trkpt>
      <trkpt lat="43.62702" lon="6.2501">
        <ele>643.74</ele>
        <time>2015-10-17T08:46:30Z</time>
      </trkpt>
      <trkpt lat="43.62686" lon="6.24973">
        <ele>643.74</ele>
        <time>2015-10-17T08:46:47Z</time>
      </trkpt>
      <trkpt lat="43.62669" lon="6.24938">
        <ele>643.74</ele>
        <time>2015-10-17T08:47:07Z</time>
      </trkpt>
      <trkpt lat="43.62667" lon="6.24933">
        <ele>643.74</ele>
        <time>2015-10-17T08:47:10Z</time>
      </trkpt>
      <trkpt lat="43.6266" lon="6.24904">
        <ele>643.26</ele>
        <time>2015-10-17T08:47:23Z</time>
      </trkpt>
      <trkpt lat="43.62666" lon="6.24876">
        <ele>644.22</ele>
        <time>2015-10-17T08:47:37Z</time>
      </trkpt>
      <trkpt lat="43.62675" lon="6.2486">
        <ele>645.18</ele>
        <time>2015-10-17T08:47:48Z</time>
      </trkpt>
      <trkpt lat="43.62681" lon="6.24856">
        <ele>644.7</ele>
        <time>2015-10-17T08:47:52Z</time>
      </trkpt>
      <trkpt lat="43.627" lon="6.24841">
        <ele>644.7</ele>
        <time>2015-10-17T08:48:06Z</time>
      </trkpt>
      <trkpt lat="43.62705" lon="6.24839">
        <ele>645.18</ele>
        <time>2015-10-17T08:48:10Z</time>
      </trkpt>
      <trkpt lat="43.62722" lon="6.24815">
        <ele>645.66</ele>
        <time>2015-10-17T08:48:24Z</time>
      </trkpt>
      <trkpt lat="43.62728" lon="6.24789">
        <ele>645.18</ele>
        <time>2015-10-17T08:48:37Z</time>
      </trkpt>
      <trkpt lat="43.62729" lon="6.24784">
        <ele>645.18</ele>
        <time>2015-10-17T08:48:39Z</time>
      </trkpt>
      <trkpt lat="43.62746" lon="6.24761">
        <ele>645.18</ele>
        <time>2015-10-17T08:48:56Z</time>
      </trkpt>
      <trkpt lat="43.62757" lon="6.24756">
        <ele>644.7</ele>
        <time>2015-10-17T08:49:03Z</time>
      </trkpt>
      <trkpt lat="43.62762" lon="6.24749">
        <ele>644.7</ele>
        <time>2015-10-17T08:49:10Z</time>
      </trkpt>
      <trkpt lat="43.62771" lon="6.2474">
        <ele>644.7</ele>
        <time>2015-10-17T08:49:18Z</time>
      </trkpt>
      <trkpt lat="43.62785" lon="6.24732">
        <ele>644.22</ele>
        <time>2015-10-17T08:49:28Z</time>
      </trkpt>
      <trkpt lat="43.62793" lon="6.24713">
        <ele>644.22</ele>
        <time>2015-10-17T08:49:36Z</time>
      </trkpt>
      <trkpt lat="43.62789" lon="6.24669">
        <ele>643.26</ele>
        <time>2015-10-17T08:49:53Z</time>
      </trkpt>
      <trkpt lat="43.62789" lon="6.24638">
        <ele>642.78</ele>
        <time>2015-10-17T08:50:07Z</time>
      </trkpt>
      <trkpt lat="43.62788" lon="6.24597">
        <ele>643.74</ele>
        <time>2015-10-17T08:50:24Z</time>
      </trkpt>
      <trkpt lat="43.62787" lon="6.2459">
        <ele>644.7</ele>
        <time>2015-10-17T08:50:27Z</time>
      </trkpt>
      <trkpt lat="43.62765" lon="6.24572">
        <ele>643.74</ele>
        <time>2015-10-17T08:50:43Z</time>
      </trkpt>
      <trkpt lat="43.6274" lon="6.24568">
        <ele>642.3</ele>
        <time>2015-10-17T08:50:59Z</time>
      </trkpt>
      <trkpt lat="43.62726" lon="6.24553">
        <ele>641.34</ele>
        <time>2015-10-17T08:51:11Z</time>
      </trkpt>
      <trkpt lat="43.62709" lon="6.24534">
        <ele>641.82</ele>
        <time>2015-10-17T08:51:24Z</time>
      </trkpt>
      <trkpt lat="43.62688" lon="6.24521">
        <ele>641.82</ele>
        <time>2015-10-17T08:51:37Z</time>
      </trkpt>
      <trkpt lat="43.62671" lon="6.24508">
        <ele>640.86</ele>
        <time>2015-10-17T08:51:48Z</time>
      </trkpt>
      <trkpt lat="43.62658" lon="6.2449">
        <ele>640.38</ele>
        <time>2015-10-17T08:52:00Z</time>
      </trkpt>
      <trkpt lat="43.62653" lon="6.24484">
        <ele>640.38</ele>
        <time>2015-10-17T08:52:04Z</time>
      </trkpt>
      <trkpt lat="43.62633" lon="6.24459">
        <ele>639.41</ele>
        <time>2015-10-17T08:52:19Z</time>
      </trkpt>
      <trkpt lat="43.62618" lon="6.24438">
        <ele>638.45</ele>
        <time>2015-10-17T08:52:33Z</time>
      </trkpt>
      <trkpt lat="43.62618" lon="6.24437">
        <ele>638.45</ele>
        <time>2015-10-17T08:52:34Z</time>
      </trkpt>
      <trkpt lat="43.62605" lon="6.24411">
        <ele>638.45</ele>
        <time>2015-10-17T08:52:50Z</time>
      </trkpt>
      <trkpt lat="43.6259" lon="6.24386">
        <ele>638.45</ele>
        <time>2015-10-17T08:53:03Z</time>
      </trkpt>
      <trkpt lat="43.6258" lon="6.24365">
        <ele>638.93</ele>
        <time>2015-10-17T08:53:14Z</time>
      </trkpt>
      <trkpt lat="43.62577" lon="6.24341">
        <ele>638.93</ele>
        <time>2015-10-17T08:53:28Z</time>
      </trkpt>
      <trkpt lat="43.62576" lon="6.24337">
        <ele>638.93</ele>
        <time>2015-10-17T08:53:30Z</time>
      </trkpt>
      <trkpt lat="43.62573" lon="6.24321">
        <ele>639.41</ele>
        <time>2015-10-17T08:53:37Z</time>
      </trkpt>
      <trkpt lat="43.62581" lon="6.24288">
        <ele>639.41</ele>
        <time>2015-10-17T08:53:52Z</time>
      </trkpt>
      <trkpt lat="43.6259" lon="6.24265">
        <ele>639.41</ele>
        <time>2015-10-17T08:54:04Z</time>
      </trkpt>
      <trkpt lat="43.62604" lon="6.2424">
        <ele>638.45</ele>
        <time>2015-10-17T08:54:18Z</time>
      </trkpt>
      <trkpt lat="43.62605" lon="6.24238">
        <ele>638.45</ele>
        <time>2015-10-17T08:54:19Z</time>
      </trkpt>
      <trkpt lat="43.62615" lon="6.24228">
        <ele>637.49</ele>
        <time>2015-10-17T08:54:26Z</time>
      </trkpt>
      <trkpt lat="43.62619" lon="6.24225">
        <ele>637.01</ele>
        <time>2015-10-17T08:54:29Z</time>
      </trkpt>
      <trkpt lat="43.62643" lon="6.24212">
        <ele>636.05</ele>
        <time>2015-10-17T08:54:45Z</time>
      </trkpt>
      <trkpt lat="43.6266" lon="6.24203">
        <ele>635.09</ele>
        <time>2015-10-17T08:54:58Z</time>
      </trkpt>
      <trkpt lat="43.62683" lon="6.24199">
        <ele>634.13</ele>
        <time>2015-10-17T08:55:12Z</time>
      </trkpt>
      <trkpt lat="43.62706" lon="6.24196">
        <ele>634.13</ele>
        <time>2015-10-17T08:55:26Z</time>
      </trkpt>
      <trkpt lat="43.62727" lon="6.24199">
        <ele>635.57</ele>
        <time>2015-10-17T08:55:37Z</time>
      </trkpt>
      <trkpt lat="43.62732" lon="6.242">
        <ele>635.57</ele>
        <time>2015-10-17T08:55:39Z</time>
      </trkpt>
      <trkpt lat="43.62741" lon="6.24203">
        <ele>635.57</ele>
        <time>2015-10-17T08:55:45Z</time>
      </trkpt>
      <trkpt lat="43.62765" lon="6.24214">
        <ele>634.61</ele>
        <time>2015-10-17T08:56:01Z</time>
      </trkpt>
      <trkpt lat="43.62789" lon="6.24217">
        <ele>634.13</ele>
        <time>2015-10-17T08:56:13Z</time>
      </trkpt>
      <trkpt lat="43.6279" lon="6.24216">
        <ele>634.13</ele>
        <time>2015-10-17T08:56:14Z</time>
      </trkpt>
      <trkpt lat="43.62796" lon="6.24217">
        <ele>633.65</ele>
        <time>2015-10-17T08:56:18Z</time>
      </trkpt>
      <trkpt lat="43.62819" lon="6.24218">
        <ele>633.17</ele>
        <time>2015-10-17T08:56:31Z</time>
      </trkpt>
      <trkpt lat="43.62828" lon="6.24212">
        <ele>633.17</ele>
        <time>2015-10-17T08:56:37Z</time>
      </trkpt>
      <trkpt lat="43.6284" lon="6.24203">
        <ele>633.65</ele>
        <time>2015-10-17T08:56:45Z</time>
      </trkpt>
      <trkpt lat="43.62847" lon="6.24198">
        <ele>633.17</ele>
        <time>2015-10-17T08:56:51Z</time>
      </trkpt>
      <trkpt lat="43.62832" lon="6.2417">
        <ele>633.17</ele>
        <time>2015-10-17T08:57:03Z</time>
      </trkpt>
      <trkpt lat="43.62821" lon="6.24145">
        <ele>633.17</ele>
        <time>2015-10-17T08:57:15Z</time>
      </trkpt>
      <trkpt lat="43.62817" lon="6.24126">
        <ele>632.68</ele>
        <time>2015-10-17T08:57:24Z</time>
      </trkpt>
      <trkpt lat="43.62814" lon="6.24095">
        <ele>632.68</ele>
        <time>2015-10-17T08:57:38Z</time>
      </trkpt>
      <trkpt lat="43.62807" lon="6.24066">
        <ele>632.68</ele>
        <time>2015-10-17T08:57:51Z</time>
      </trkpt>
      <trkpt lat="43.62797" lon="6.24038">
        <ele>632.68</ele>
        <time>2015-10-17T08:58:04Z</time>
      </trkpt>
      <trkpt lat="43.6279" lon="6.24012">
        <ele>632.68</ele>
        <time>2015-10-17T08:58:16Z</time>
      </trkpt>
      <trkpt lat="43.62789" lon="6.23986">
        <ele>632.2</ele>
        <time>2015-10-17T08:58:29Z</time>
      </trkpt>
      <trkpt lat="43.62796" lon="6.2396">
        <ele>632.68</ele>
        <time>2015-10-17T08:58:42Z</time>
      </trkpt>
      <trkpt lat="43.62809" lon="6.23938">
        <ele>632.68</ele>
        <time>2015-10-17T08:58:55Z</time>
      </trkpt>
      <trkpt lat="43.62828" lon="6.2392">
        <ele>633.17</ele>
        <time>2015-10-17T08:59:10Z</time>
      </trkpt>
      <trkpt lat="43.62849" lon="6.23906">
        <ele>633.17</ele>
        <time>2015-10-17T08:59:24Z</time>
      </trkpt>
      <trkpt lat="43.62873" lon="6.239">
        <ele>633.65</ele>
        <time>2015-10-17T08:59:40Z</time>
      </trkpt>
      <trkpt lat="43.62894" lon="6.23908">
        <ele>633.65</ele>
        <time>2015-10-17T08:59:52Z</time>
      </trkpt>
      <trkpt lat="43.62915" lon="6.23922">
        <ele>633.65</ele>
        <time>2015-10-17T09:00:05Z</time>
      </trkpt>
      <trkpt lat="43.62924" lon="6.23927">
        <ele>633.65</ele>
        <time>2015-10-17T09:00:11Z</time>
      </trkpt>
      <trkpt lat="43.62932" lon="6.23924">
        <ele>633.65</ele>
        <time>2015-10-17T09:00:16Z</time>
      </trkpt>
      <trkpt lat="43.62938" lon="6.23919">
        <ele>633.65</ele>
        <time>2015-10-17T09:00:21Z</time>
      </trkpt>
      <trkpt lat="43.62961" lon="6.23907">
        <ele>633.65</ele>
        <time>2015-10-17T09:00:35Z</time>
      </trkpt>
      <trkpt lat="43.62986" lon="6.23906">
        <ele>634.13</ele>
        <time>2015-10-17T09:00:49Z</time>
      </trkpt>
      <trkpt lat="43.62995" lon="6.23904">
        <ele>633.65</ele>
        <time>2015-10-17T09:00:54Z</time>
      </trkpt>
      <trkpt lat="43.62997" lon="6.2389">
        <ele>633.17</ele>
        <time>2015-10-17T09:01:01Z</time>
      </trkpt>
      <trkpt lat="43.62984" lon="6.23866">
        <ele>633.65</ele>
        <time>2015-10-17T09:01:14Z</time>
      </trkpt>
      <trkpt lat="43.6297" lon="6.23843">
        <ele>633.17</ele>
        <time>2015-10-17T09:01:26Z</time>
      </trkpt>
      <trkpt lat="43.62964" lon="6.23813">
        <ele>633.17</ele>
        <time>2015-10-17T09:01:40Z</time>
      </trkpt>
      <trkpt lat="43.62966" lon="6.23785">
        <ele>633.65</ele>
        <time>2015-10-17T09:01:52Z</time>
      </trkpt>
      <trkpt lat="43.6298" lon="6.23761">
        <ele>633.65</ele>
        <time>2015-10-17T09:02:05Z</time>
      </trkpt>
      <trkpt lat="43.62996" lon="6.23743">
        <ele>633.65</ele>
        <time>2015-10-17T09:02:18Z</time>
      </trkpt>
      <trkpt lat="43.63015" lon="6.23725">
        <ele>634.61</ele>
        <time>2015-10-17T09:02:31Z</time>
      </trkpt>
      <trkpt lat="43.6302" lon="6.23723">
        <ele>634.61</ele>
        <time>2015-10-17T09:02:35Z</time>
      </trkpt>
      <trkpt lat="43.63035" lon="6.2372">
        <ele>634.61</ele>
        <time>2015-10-17T09:02:44Z</time>
      </trkpt>
      <trkpt lat="43.63053" lon="6.23721">
        <ele>634.61</ele>
        <time>2015-10-17T09:02:55Z</time>
      </trkpt>
      <trkpt lat="43.63069" lon="6.2372">
        <ele>634.61</ele>
        <time>2015-10-17T09:03:04Z</time>
      </trkpt>
      <trkpt lat="43.63076" lon="6.23721">
        <ele>635.09</ele>
        <time>2015-10-17T09:03:08Z</time>
      </trkpt>
      <trkpt lat="43.63091" lon="6.23725">
        <ele>634.61</ele>
        <time>2015-10-17T09:03:18Z</time>
      </trkpt>
      <trkpt lat="43.63103" lon="6.23731">
        <ele>634.61</ele>
        <time>2015-10-17T09:03:27Z</time>
      </trkpt>
      <trkpt lat="43.63113" lon="6.23737">
        <ele>635.09</ele>
        <time>2015-10-17T09:03:34Z</time>
      </trkpt>
      <trkpt lat="43.63132" lon="6.23745">
        <ele>634.61</ele>
        <time>2015-10-17T09:03:46Z</time>
      </trkpt>
      <trkpt lat="43.63144" lon="6.23743">
        <ele>634.61</ele>
        <time>2015-10-17T09:03:53Z</time>
      </trkpt>
      <trkpt lat="43.63148" lon="6.23739">
        <ele>634.61</ele>
        <time>2015-10-17T09:03:56Z</time>
      </trkpt>
      <trkpt lat="43.63152" lon="6.23719">
        <ele>635.09</ele>
        <time>2015-10-17T09:04:06Z</time>
      </trkpt>
      <trkpt lat="43.63153" lon="6.23684">
        <ele>635.09</ele>
        <time>2015-10-17T09:04:21Z</time>
      </trkpt>
      <trkpt lat="43.63148" lon="6.23668">
        <ele>634.61</ele>
        <time>2015-10-17T09:04:29Z</time>
      </trkpt>
      <trkpt lat="43.63145" lon="6.23657">
        <ele>634.61</ele>
        <time>2015-10-17T09:04:34Z</time>
      </trkpt>
      <trkpt lat="43.63137" lon="6.23643">
        <ele>634.61</ele>
        <time>2015-10-17T09:04:41Z</time>
      </trkpt>
      <trkpt lat="43.63125" lon="6.23614">
        <ele>634.61</ele>
        <time>2015-10-17T09:04:55Z</time>
      </trkpt>
      <trkpt lat="43.63123" lon="6.23609">
        <ele>634.61</ele>
        <time>2015-10-17T09:04:59Z</time>
      </trkpt>
      <trkpt lat="43.63122" lon="6.23605">
        <ele>634.61</ele>
        <time>2015-10-17T09:05:01Z</time>
      </trkpt>
      <trkpt lat="43.63118" lon="6.23594">
        <ele>634.61</ele>
        <time>2015-10-17T09:05:06Z</time>
      </trkpt>
      <trkpt lat="43.63116" lon="6.23588">
        <ele>634.61</ele>
        <time>2015-10-17T09:05:09Z</time>
      </trkpt>
      <trkpt lat="43.63115" lon="6.23581">
        <ele>635.09</ele>
        <time>2015-10-17T09:05:12Z</time>
      </trkpt>
      <trkpt lat="43.63116" lon="6.23574">
        <ele>635.09</ele>
        <time>2015-10-17T09:05:16Z</time>
      </trkpt>
      <trkpt lat="43.63125" lon="6.2354">
        <ele>635.09</ele>
        <time>2015-10-17T09:05:30Z</time>
      </trkpt>
      <trkpt lat="43.63133" lon="6.23527">
        <ele>635.57</ele>
        <time>2015-10-17T09:05:38Z</time>
      </trkpt>
      <trkpt lat="43.63138" lon="6.23516">
        <ele>635.57</ele>
        <time>2015-10-17T09:05:44Z</time>
      </trkpt>
      <trkpt lat="43.63149" lon="6.23488">
        <ele>635.57</ele>
        <time>2015-10-17T09:05:57Z</time>
      </trkpt>
      <trkpt lat="43.63157" lon="6.23456">
        <ele>636.05</ele>
        <time>2015-10-17T09:06:12Z</time>
      </trkpt>
      <trkpt lat="43.63167" lon="6.23431">
        <ele>636.53</ele>
        <time>2015-10-17T09:06:25Z</time>
      </trkpt>
      <trkpt lat="43.63182" lon="6.2341">
        <ele>636.53</ele>
        <time>2015-10-17T09:06:38Z</time>
      </trkpt>
      <trkpt lat="43.63184" lon="6.23408">
        <ele>636.53</ele>
        <time>2015-10-17T09:06:40Z</time>
      </trkpt>
      <trkpt lat="43.63194" lon="6.23403">
        <ele>636.53</ele>
        <time>2015-10-17T09:06:46Z</time>
      </trkpt>
      <trkpt lat="43.63219" lon="6.23398">
        <ele>636.53</ele>
        <time>2015-10-17T09:07:01Z</time>
      </trkpt>
      <trkpt lat="43.63239" lon="6.23398">
        <ele>636.53</ele>
        <time>2015-10-17T09:07:13Z</time>
      </trkpt>
      <trkpt lat="43.63262" lon="6.23402">
        <ele>636.53</ele>
        <time>2015-10-17T09:07:26Z</time>
      </trkpt>
      <trkpt lat="43.63281" lon="6.23402">
        <ele>636.05</ele>
        <time>2015-10-17T09:07:36Z</time>
      </trkpt>
      <trkpt lat="43.63292" lon="6.23396">
        <ele>636.05</ele>
        <time>2015-10-17T09:07:44Z</time>
      </trkpt>
      <trkpt lat="43.63292" lon="6.23379">
        <ele>636.05</ele>
        <time>2015-10-17T09:07:52Z</time>
      </trkpt>
      <trkpt lat="43.63289" lon="6.23361">
        <ele>636.53</ele>
        <time>2015-10-17T09:08:01Z</time>
      </trkpt>
      <trkpt lat="43.63286" lon="6.23352">
        <ele>636.53</ele>
        <time>2015-10-17T09:08:05Z</time>
      </trkpt>
      <trkpt lat="43.63276" lon="6.23323">
        <ele>636.05</ele>
        <time>2015-10-17T09:08:18Z</time>
      </trkpt>
      <trkpt lat="43.63275" lon="6.23311">
        <ele>635.57</ele>
        <time>2015-10-17T09:08:24Z</time>
      </trkpt>
      <trkpt lat="43.63276" lon="6.23282">
        <ele>635.57</ele>
        <time>2015-10-17T09:08:35Z</time>
      </trkpt>
      <trkpt lat="43.63278" lon="6.23274">
        <ele>635.57</ele>
        <time>2015-10-17T09:08:39Z</time>
      </trkpt>
      <trkpt lat="43.63282" lon="6.23241">
        <ele>634.61</ele>
        <time>2015-10-17T09:08:53Z</time>
      </trkpt>
      <trkpt lat="43.63291" lon="6.23223">
        <ele>633.65</ele>
        <time>2015-10-17T09:09:03Z</time>
      </trkpt>
      <trkpt lat="43.63309" lon="6.23215">
        <ele>632.68</ele>
        <time>2015-10-17T09:09:14Z</time>
      </trkpt>
      <trkpt lat="43.63312" lon="6.23214">
        <ele>632.2</ele>
        <time>2015-10-17T09:09:16Z</time>
      </trkpt>
      <trkpt lat="43.63318" lon="6.23212">
        <ele>631.72</ele>
        <time>2015-10-17T09:09:20Z</time>
      </trkpt>
      <trkpt lat="43.63327" lon="6.23208">
        <ele>631.24</ele>
        <time>2015-10-17T09:09:28Z</time>
      </trkpt>
      <trkpt lat="43.63333" lon="6.23207">
        <ele>630.76</ele>
        <time>2015-10-17T09:09:32Z</time>
      </trkpt>
      <trkpt lat="43.63359" lon="6.23211">
        <ele>630.28</ele>
        <time>2015-10-17T09:09:46Z</time>
      </trkpt>
      <trkpt lat="43.63371" lon="6.23218">
        <ele>630.28</ele>
        <time>2015-10-17T09:09:53Z</time>
      </trkpt>
      <trkpt lat="43.63378" lon="6.23217">
        <ele>629.8</ele>
        <time>2015-10-17T09:09:57Z</time>
      </trkpt>
      <trkpt lat="43.63388" lon="6.2322">
        <ele>629.8</ele>
        <time>2015-10-17T09:10:10Z</time>
      </trkpt>
      <trkpt lat="43.63387" lon="6.23218">
        <ele>629.8</ele>
        <time>2015-10-17T09:10:21Z</time>
      </trkpt>
      <trkpt lat="43.63385" lon="6.23218">
        <ele>630.28</ele>
        <time>2015-10-17T09:10:34Z</time>
      </trkpt>
      <trkpt lat="43.63383" lon="6.23216">
        <ele>630.28</ele>
        <time>2015-10-17T09:10:46Z</time>
      </trkpt>
      <trkpt lat="43.63383" lon="6.23217">
        <ele>630.28</ele>
        <time>2015-10-17T09:10:58Z</time>
      </trkpt>
      <trkpt lat="43.63378" lon="6.23216">
        <ele>630.28</ele>
        <time>2015-10-17T09:11:11Z</time>
      </trkpt>
      <trkpt lat="43.63374" lon="6.23214">
        <ele>629.8</ele>
        <time>2015-10-17T09:11:20Z</time>
      </trkpt>
      <trkpt lat="43.63376" lon="6.23215">
        <ele>630.28</ele>
        <time>2015-10-17T09:11:33Z</time>
      </trkpt>
      <trkpt lat="43.63375" lon="6.23214">
        <ele>630.28</ele>
        <time>2015-10-17T09:11:40Z</time>
      </trkpt>
      <trkpt lat="43.63374" lon="6.23214">
        <ele>630.28</ele>
        <time>2015-10-17T09:11:51Z</time>
      </trkpt>
      <trkpt lat="43.63375" lon="6.23215">
        <ele>630.28</ele>
        <time>2015-10-17T09:12:13Z</time>
      </trkpt>
      <trkpt lat="43.63375" lon="6.23216">
        <ele>630.76</ele>
        <time>2015-10-17T09:12:25Z</time>
      </trkpt>
      <trkpt lat="43.63376" lon="6.23217">
        <ele>630.76</ele>
        <time>2015-10-17T09:12:38Z</time>
      </trkpt>
      <trkpt lat="43.6338" lon="6.23217">
        <ele>631.24</ele>
        <time>2015-10-17T09:12:53Z</time>
      </trkpt>
      <trkpt lat="43.63379" lon="6.23219">
        <ele>631.24</ele>
        <time>2015-10-17T09:13:04Z</time>
      </trkpt>
      <trkpt lat="43.63379" lon="6.23218">
        <ele>631.24</ele>
        <time>2015-10-17T09:13:25Z</time>
      </trkpt>
      <trkpt lat="43.63381" lon="6.23217">
        <ele>631.72</ele>
        <time>2015-10-17T09:13:43Z</time>
      </trkpt>
      <trkpt lat="43.63382" lon="6.23218">
        <ele>631.72</ele>
        <time>2015-10-17T09:13:45Z</time>
      </trkpt>
      <trkpt lat="43.63384" lon="6.2322">
        <ele>632.2</ele>
        <time>2015-10-17T09:14:03Z</time>
      </trkpt>
      <trkpt lat="43.63383" lon="6.23218">
        <ele>633.65</ele>
        <time>2015-10-17T09:14:23Z</time>
      </trkpt>
      <trkpt lat="43.63382" lon="6.23222">
        <ele>632.2</ele>
        <time>2015-10-17T09:14:36Z</time>
      </trkpt>
      <trkpt lat="43.63382" lon="6.23221">
        <ele>632.68</ele>
        <time>2015-10-17T09:14:57Z</time>
      </trkpt>
      <trkpt lat="43.63381" lon="6.23221">
        <ele>632.68</ele>
        <time>2015-10-17T09:15:21Z</time>
      </trkpt>
      <trkpt lat="43.63381" lon="6.2322">
        <ele>633.17</ele>
        <time>2015-10-17T09:15:47Z</time>
      </trkpt>
      <trkpt lat="43.63382" lon="6.2322">
        <ele>633.17</ele>
        <time>2015-10-17T09:16:05Z</time>
      </trkpt>
      <trkpt lat="43.63382" lon="6.2322">
        <ele>633.65</ele>
        <time>2015-10-17T09:16:33Z</time>
      </trkpt>
      <trkpt lat="43.63382" lon="6.2322">
        <ele>633.65</ele>
        <time>2015-10-17T09:17:03Z</time>
      </trkpt>
      <trkpt lat="43.63383" lon="6.23221">
        <ele>634.13</ele>
        <time>2015-10-17T09:17:29Z</time>
      </trkpt>
      <trkpt lat="43.63383" lon="6.23221">
        <ele>634.13</ele>
        <time>2015-10-17T09:17:55Z</time>
      </trkpt>
      <trkpt lat="43.63384" lon="6.2322">
        <ele>634.13</ele>
        <time>2015-10-17T09:18:26Z</time>
      </trkpt>
      <trkpt lat="43.63384" lon="6.2322">
        <ele>634.61</ele>
        <time>2015-10-17T09:18:56Z</time>
      </trkpt>
      <trkpt lat="43.63384" lon="6.2322">
        <ele>634.61</ele>
        <time>2015-10-17T09:19:14Z</time>
      </trkpt>
      <trkpt lat="43.63384" lon="6.2322">
        <ele>634.61</ele>
        <time>2015-10-17T09:19:38Z</time>
      </trkpt>
      <trkpt lat="43.63384" lon="6.2322">
        <ele>635.09</ele>
        <time>2015-10-17T09:20:09Z</time>
      </trkpt>
      <trkpt lat="43.63387" lon="6.23217">
        <ele>634.61</ele>
        <time>2015-10-17T09:20:19Z</time>
      </trkpt>
      <trkpt lat="43.63395" lon="6.23227">
        <ele>635.09</ele>
        <time>2015-10-17T09:20:32Z</time>
      </trkpt>
      <trkpt lat="43.63396" lon="6.23231">
        <ele>635.09</ele>
        <time>2015-10-17T09:20:50Z</time>
      </trkpt>
      <trkpt lat="43.63402" lon="6.23236">
        <ele>635.09</ele>
        <time>2015-10-17T09:20:56Z</time>
      </trkpt>
      <trkpt lat="43.63412" lon="6.2325">
        <ele>634.61</ele>
        <time>2015-10-17T09:21:06Z</time>
      </trkpt>
      <trkpt lat="43.63424" lon="6.23275">
        <ele>634.13</ele>
        <time>2015-10-17T09:21:21Z</time>
      </trkpt>
      <trkpt lat="43.63433" lon="6.23314">
        <ele>634.61</ele>
        <time>2015-10-17T09:21:37Z</time>
      </trkpt>
      <trkpt lat="43.6344" lon="6.23327">
        <ele>635.57</ele>
        <time>2015-10-17T09:21:47Z</time>
      </trkpt>
      <trkpt lat="43.63464" lon="6.23308">
        <ele>636.53</ele>
        <time>2015-10-17T09:22:04Z</time>
      </trkpt>
      <trkpt lat="43.6347" lon="6.23299">
        <ele>636.53</ele>
        <time>2015-10-17T09:22:09Z</time>
      </trkpt>
      <trkpt lat="43.63491" lon="6.2328">
        <ele>636.05</ele>
        <time>2015-10-17T09:22:26Z</time>
      </trkpt>
      <trkpt lat="43.6352" lon="6.23277">
        <ele>635.57</ele>
        <time>2015-10-17T09:22:45Z</time>
      </trkpt>
      <trkpt lat="43.63543" lon="6.23285">
        <ele>635.09</ele>
        <time>2015-10-17T09:23:01Z</time>
      </trkpt>
      <trkpt lat="43.63552" lon="6.23288">
        <ele>635.09</ele>
        <time>2015-10-17T09:23:07Z</time>
      </trkpt>
      <trkpt lat="43.63585" lon="6.23293">
        <ele>633.65</ele>
        <time>2015-10-17T09:23:25Z</time>
      </trkpt>
      <trkpt lat="43.63611" lon="6.23292">
        <ele>632.2</ele>
        <time>2015-10-17T09:23:40Z</time>
      </trkpt>
      <trkpt lat="43.6363" lon="6.23287">
        <ele>632.2</ele>
        <time>2015-10-17T09:23:54Z</time>
      </trkpt>
      <trkpt lat="43.63632" lon="6.23288">
        <ele>631.72</ele>
        <time>2015-10-17T09:23:56Z</time>
      </trkpt>
      <trkpt lat="43.63637" lon="6.23296">
        <ele>631.72</ele>
        <time>2015-10-17T09:24:02Z</time>
      </trkpt>
      <trkpt lat="43.63639" lon="6.23299">
        <ele>629.8</ele>
        <time>2015-10-17T09:24:04Z</time>
      </trkpt>
      <trkpt lat="43.63654" lon="6.23329">
        <ele>629.8</ele>
        <time>2015-10-17T09:24:21Z</time>
      </trkpt>
      <trkpt lat="43.63662" lon="6.2333">
        <ele>629.8</ele>
        <time>2015-10-17T09:24:26Z</time>
      </trkpt>
      <trkpt lat="43.63671" lon="6.23315">
        <ele>627.4</ele>
        <time>2015-10-17T09:24:38Z</time>
      </trkpt>
      <trkpt lat="43.63665" lon="6.23305">
        <ele>625.96</ele>
        <time>2015-10-17T09:24:44Z</time>
      </trkpt>
      <trkpt lat="43.63661" lon="6.23297">
        <ele>623.07</ele>
        <time>2015-10-17T09:24:49Z</time>
      </trkpt>
      <trkpt lat="43.63662" lon="6.23294">
        <ele>622.11</ele>
        <time>2015-10-17T09:24:51Z</time>
      </trkpt>
      <trkpt lat="43.63663" lon="6.23292">
        <ele>625.96</ele>
        <time>2015-10-17T09:24:52Z</time>
      </trkpt>
      <trkpt lat="43.63663" lon="6.23286">
        <ele>623.07</ele>
        <time>2015-10-17T09:25:00Z</time>
      </trkpt>
      <trkpt lat="43.63683" lon="6.23257">
        <ele>620.19</ele>
        <time>2015-10-17T09:25:17Z</time>
      </trkpt>
      <trkpt lat="43.63697" lon="6.2324">
        <ele>618.26</ele>
        <time>2015-10-17T09:25:28Z</time>
      </trkpt>
      <trkpt lat="43.6371" lon="6.2322">
        <ele>616.82</ele>
        <time>2015-10-17T09:25:39Z</time>
      </trkpt>
      <trkpt lat="43.63733" lon="6.23214">
        <ele>615.38</ele>
        <time>2015-10-17T09:25:55Z</time>
      </trkpt>
      <trkpt lat="43.6376" lon="6.23216">
        <ele>615.38</ele>
        <time>2015-10-17T09:26:12Z</time>
      </trkpt>
      <trkpt lat="43.63786" lon="6.2321">
        <ele>614.9</ele>
        <time>2015-10-17T09:26:27Z</time>
      </trkpt>
      <trkpt lat="43.63813" lon="6.23205">
        <ele>615.38</ele>
        <time>2015-10-17T09:26:44Z</time>
      </trkpt>
      <trkpt lat="43.63828" lon="6.23206">
        <ele>614.42</ele>
        <time>2015-10-17T09:26:52Z</time>
      </trkpt>
      <trkpt lat="43.63846" lon="6.23203">
        <ele>613.94</ele>
        <time>2015-10-17T09:27:03Z</time>
      </trkpt>
      <trkpt lat="43.63868" lon="6.23199">
        <ele>613.46</ele>
        <time>2015-10-17T09:27:17Z</time>
      </trkpt>
      <trkpt lat="43.6388" lon="6.232">
        <ele>612.98</ele>
        <time>2015-10-17T09:27:24Z</time>
      </trkpt>
      <trkpt lat="43.63886" lon="6.23198">
        <ele>612.98</ele>
        <time>2015-10-17T09:27:28Z</time>
      </trkpt>
      <trkpt lat="43.63899" lon="6.23194">
        <ele>612.98</ele>
        <time>2015-10-17T09:27:37Z</time>
      </trkpt>
      <trkpt lat="43.6391" lon="6.23191">
        <ele>612.98</ele>
        <time>2015-10-17T09:27:44Z</time>
      </trkpt>
      <trkpt lat="43.63933" lon="6.23192">
        <ele>613.94</ele>
        <time>2015-10-17T09:27:59Z</time>
      </trkpt>
      <trkpt lat="43.6395" lon="6.23196">
        <ele>613.94</ele>
        <time>2015-10-17T09:28:13Z</time>
      </trkpt>
      <trkpt lat="43.63971" lon="6.23203">
        <ele>614.42</ele>
        <time>2015-10-17T09:28:27Z</time>
      </trkpt>
      <trkpt lat="43.63992" lon="6.23208">
        <ele>615.38</ele>
        <time>2015-10-17T09:28:39Z</time>
      </trkpt>
      <trkpt lat="43.64016" lon="6.23214">
        <ele>615.38</ele>
        <time>2015-10-17T09:28:54Z</time>
      </trkpt>
      <trkpt lat="43.64024" lon="6.23216">
        <ele>615.86</ele>
        <time>2015-10-17T09:29:00Z</time>
      </trkpt>
      <trkpt lat="43.6403" lon="6.23217">
        <ele>615.86</ele>
        <time>2015-10-17T09:29:06Z</time>
      </trkpt>
      <trkpt lat="43.64052" lon="6.23222">
        <ele>615.38</ele>
        <time>2015-10-17T09:29:21Z</time>
      </trkpt>
      <trkpt lat="43.64069" lon="6.23217">
        <ele>614.9</ele>
        <time>2015-10-17T09:29:34Z</time>
      </trkpt>
      <trkpt lat="43.64084" lon="6.23208">
        <ele>613.94</ele>
        <time>2015-10-17T09:29:46Z</time>
      </trkpt>
      <trkpt lat="43.64086" lon="6.23207">
        <ele>613.94</ele>
        <time>2015-10-17T09:29:48Z</time>
      </trkpt>
      <trkpt lat="43.64115" lon="6.23202">
        <ele>613.46</ele>
        <time>2015-10-17T09:30:03Z</time>
      </trkpt>
      <trkpt lat="43.64126" lon="6.23203">
        <ele>613.46</ele>
        <time>2015-10-17T09:30:10Z</time>
      </trkpt>
      <trkpt lat="43.64133" lon="6.23206">
        <ele>613.94</ele>
        <time>2015-10-17T09:30:14Z</time>
      </trkpt>
      <trkpt lat="43.64157" lon="6.23222">
        <ele>614.9</ele>
        <time>2015-10-17T09:30:29Z</time>
      </trkpt>
      <trkpt lat="43.64176" lon="6.23246">
        <ele>615.38</ele>
        <time>2015-10-17T09:30:44Z</time>
      </trkpt>
      <trkpt lat="43.64192" lon="6.23268">
        <ele>616.34</ele>
        <time>2015-10-17T09:30:59Z</time>
      </trkpt>
      <trkpt lat="43.6421" lon="6.23286">
        <ele>616.34</ele>
        <time>2015-10-17T09:31:13Z</time>
      </trkpt>
      <trkpt lat="43.64232" lon="6.23297">
        <ele>615.38</ele>
        <time>2015-10-17T09:31:27Z</time>
      </trkpt>
      <trkpt lat="43.64248" lon="6.23306">
        <ele>614.42</ele>
        <time>2015-10-17T09:31:40Z</time>
      </trkpt>
      <trkpt lat="43.6425" lon="6.23306">
        <ele>614.42</ele>
        <time>2015-10-17T09:31:42Z</time>
      </trkpt>
      <trkpt lat="43.64267" lon="6.23325">
        <ele>612.98</ele>
        <time>2015-10-17T09:31:53Z</time>
      </trkpt>
      <trkpt lat="43.64277" lon="6.2334">
        <ele>612.02</ele>
        <time>2015-10-17T09:32:02Z</time>
      </trkpt>
      <trkpt lat="43.64289" lon="6.23365">
        <ele>610.57</ele>
        <time>2015-10-17T09:32:14Z</time>
      </trkpt>
      <trkpt lat="43.64303" lon="6.23388">
        <ele>609.61</ele>
        <time>2015-10-17T09:32:26Z</time>
      </trkpt>
      <trkpt lat="43.64307" lon="6.2341">
        <ele>608.17</ele>
        <time>2015-10-17T09:32:37Z</time>
      </trkpt>
      <trkpt lat="43.64308" lon="6.23421">
        <ele>607.69</ele>
        <time>2015-10-17T09:32:42Z</time>
      </trkpt>
      <trkpt lat="43.6431" lon="6.23451">
        <ele>605.29</ele>
        <time>2015-10-17T09:32:55Z</time>
      </trkpt>
      <trkpt lat="43.6431" lon="6.23461">
        <ele>605.29</ele>
        <time>2015-10-17T09:32:59Z</time>
      </trkpt>
      <trkpt lat="43.64315" lon="6.23492">
        <ele>603.85</ele>
        <time>2015-10-17T09:33:11Z</time>
      </trkpt>
      <trkpt lat="43.64317" lon="6.23504">
        <ele>602.88</ele>
        <time>2015-10-17T09:33:16Z</time>
      </trkpt>
      <trkpt lat="43.64319" lon="6.23518">
        <ele>602.88</ele>
        <time>2015-10-17T09:33:22Z</time>
      </trkpt>
      <trkpt lat="43.64321" lon="6.23546">
        <ele>601.44</ele>
        <time>2015-10-17T09:33:35Z</time>
      </trkpt>
      <trkpt lat="43.64324" lon="6.2358">
        <ele>600.48</ele>
        <time>2015-10-17T09:33:48Z</time>
      </trkpt>
      <trkpt lat="43.64328" lon="6.23611">
        <ele>600.48</ele>
        <time>2015-10-17T09:34:03Z</time>
      </trkpt>
      <trkpt lat="43.64329" lon="6.23617">
        <ele>600.48</ele>
        <time>2015-10-17T09:34:06Z</time>
      </trkpt>
      <trkpt lat="43.64334" lon="6.23641">
        <ele>600.96</ele>
        <time>2015-10-17T09:34:17Z</time>
      </trkpt>
      <trkpt lat="43.64355" lon="6.23667">
        <ele>601.44</ele>
        <time>2015-10-17T09:34:33Z</time>
      </trkpt>
      <trkpt lat="43.64375" lon="6.23681">
        <ele>601.44</ele>
        <time>2015-10-17T09:34:48Z</time>
      </trkpt>
      <trkpt lat="43.64392" lon="6.23684">
        <ele>600.96</ele>
        <time>2015-10-17T09:35:00Z</time>
      </trkpt>
      <trkpt lat="43.64413" lon="6.23691">
        <ele>600.48</ele>
        <time>2015-10-17T09:35:15Z</time>
      </trkpt>
      <trkpt lat="43.64418" lon="6.23693">
        <ele>600</ele>
        <time>2015-10-17T09:35:18Z</time>
      </trkpt>
      <trkpt lat="43.64441" lon="6.23712">
        <ele>599.04</ele>
        <time>2015-10-17T09:35:32Z</time>
      </trkpt>
      <trkpt lat="43.64459" lon="6.23737">
        <ele>599.52</ele>
        <time>2015-10-17T09:35:46Z</time>
      </trkpt>
      <trkpt lat="43.64461" lon="6.23738">
        <ele>599.52</ele>
        <time>2015-10-17T09:35:47Z</time>
      </trkpt>
      <trkpt lat="43.64481" lon="6.23753">
        <ele>600.96</ele>
        <time>2015-10-17T09:36:02Z</time>
      </trkpt>
      <trkpt lat="43.64491" lon="6.23773">
        <ele>602.88</ele>
        <time>2015-10-17T09:36:12Z</time>
      </trkpt>
      <trkpt lat="43.64492" lon="6.23787">
        <ele>603.36</ele>
        <time>2015-10-17T09:36:18Z</time>
      </trkpt>
      <trkpt lat="43.64477" lon="6.23808">
        <ele>605.29</ele>
        <time>2015-10-17T09:36:30Z</time>
      </trkpt>
      <trkpt lat="43.64469" lon="6.23807">
        <ele>605.77</ele>
        <time>2015-10-17T09:36:34Z</time>
      </trkpt>
      <trkpt lat="43.64457" lon="6.23801">
        <ele>606.25</ele>
        <time>2015-10-17T09:36:40Z</time>
      </trkpt>
      <trkpt lat="43.64435" lon="6.23801">
        <ele>606.25</ele>
        <time>2015-10-17T09:36:51Z</time>
      </trkpt>
      <trkpt lat="43.64434" lon="6.23801">
        <ele>606.73</ele>
        <time>2015-10-17T09:36:52Z</time>
      </trkpt>
      <trkpt lat="43.64426" lon="6.23804">
        <ele>607.21</ele>
        <time>2015-10-17T09:36:58Z</time>
      </trkpt>
      <trkpt lat="43.64424" lon="6.23803">
        <ele>607.21</ele>
        <time>2015-10-17T09:37:00Z</time>
      </trkpt>
      <trkpt lat="43.64406" lon="6.23817">
        <ele>608.17</ele>
        <time>2015-10-17T09:37:13Z</time>
      </trkpt>
      <trkpt lat="43.64386" lon="6.23841">
        <ele>608.65</ele>
        <time>2015-10-17T09:37:30Z</time>
      </trkpt>
      <trkpt lat="43.6437" lon="6.23859">
        <ele>609.61</ele>
        <time>2015-10-17T09:37:43Z</time>
      </trkpt>
      <trkpt lat="43.64352" lon="6.23873">
        <ele>610.57</ele>
        <time>2015-10-17T09:37:55Z</time>
      </trkpt>
      <trkpt lat="43.64338" lon="6.23884">
        <ele>611.54</ele>
        <time>2015-10-17T09:38:06Z</time>
      </trkpt>
      <trkpt lat="43.64329" lon="6.23902">
        <ele>612.02</ele>
        <time>2015-10-17T09:38:14Z</time>
      </trkpt>
      <trkpt lat="43.64317" lon="6.2393">
        <ele>612.98</ele>
        <time>2015-10-17T09:38:28Z</time>
      </trkpt>
      <trkpt lat="43.64299" lon="6.23947">
        <ele>613.94</ele>
        <time>2015-10-17T09:38:40Z</time>
      </trkpt>
      <trkpt lat="43.64294" lon="6.23951">
        <ele>613.94</ele>
        <time>2015-10-17T09:38:50Z</time>
      </trkpt>
      <trkpt lat="43.64293" lon="6.23953">
        <ele>614.42</ele>
        <time>2015-10-17T09:39:02Z</time>
      </trkpt>
      <trkpt lat="43.6429" lon="6.23951">
        <ele>614.42</ele>
        <time>2015-10-17T09:39:14Z</time>
      </trkpt>
      <trkpt lat="43.6429" lon="6.23951">
        <ele>614.42</ele>
        <time>2015-10-17T09:39:15Z</time>
      </trkpt>
      <trkpt lat="43.64291" lon="6.23952">
        <ele>614.42</ele>
        <time>2015-10-17T09:39:20Z</time>
      </trkpt>
      <trkpt lat="43.64287" lon="6.23956">
        <ele>614.42</ele>
        <time>2015-10-17T09:39:33Z</time>
      </trkpt>
      <trkpt lat="43.64286" lon="6.23956">
        <ele>614.9</ele>
        <time>2015-10-17T09:39:45Z</time>
      </trkpt>
      <trkpt lat="43.64282" lon="6.23954">
        <ele>614.9</ele>
        <time>2015-10-17T09:39:59Z</time>
      </trkpt>
      <trkpt lat="43.6428" lon="6.23958">
        <ele>615.38</ele>
        <time>2015-10-17T09:40:04Z</time>
      </trkpt>
      <trkpt lat="43.64277" lon="6.23962">
        <ele>615.38</ele>
        <time>2015-10-17T09:40:07Z</time>
      </trkpt>
      <trkpt lat="43.64255" lon="6.23978">
        <ele>615.86</ele>
        <time>2015-10-17T09:40:22Z</time>
      </trkpt>
      <trkpt lat="43.64241" lon="6.23994">
        <ele>616.82</ele>
        <time>2015-10-17T09:40:33Z</time>
      </trkpt>
      <trkpt lat="43.64231" lon="6.24003">
        <ele>617.3</ele>
        <time>2015-10-17T09:40:40Z</time>
      </trkpt>
      <trkpt lat="43.64216" lon="6.24022">
        <ele>618.26</ele>
        <time>2015-10-17T09:40:52Z</time>
      </trkpt>
      <trkpt lat="43.64196" lon="6.24042">
        <ele>619.23</ele>
        <time>2015-10-17T09:41:04Z</time>
      </trkpt>
      <trkpt lat="43.64183" lon="6.24057">
        <ele>620.19</ele>
        <time>2015-10-17T09:41:13Z</time>
      </trkpt>
      <trkpt lat="43.64176" lon="6.24071">
        <ele>621.15</ele>
        <time>2015-10-17T09:41:20Z</time>
      </trkpt>
      <trkpt lat="43.64166" lon="6.24102">
        <ele>622.11</ele>
        <time>2015-10-17T09:41:34Z</time>
      </trkpt>
      <trkpt lat="43.64161" lon="6.24138">
        <ele>622.59</ele>
        <time>2015-10-17T09:41:44Z</time>
      </trkpt>
      <trkpt lat="43.64165" lon="6.24161">
        <ele>623.55</ele>
        <time>2015-10-17T09:41:48Z</time>
      </trkpt>
      <trkpt lat="43.64166" lon="6.24167">
        <ele>624.03</ele>
        <time>2015-10-17T09:41:49Z</time>
      </trkpt>
      <trkpt lat="43.64169" lon="6.24174">
        <ele>624.03</ele>
        <time>2015-10-17T09:41:50Z</time>
      </trkpt>
      <trkpt lat="43.64171" lon="6.24181">
        <ele>624.03</ele>
        <time>2015-10-17T09:41:51Z</time>
      </trkpt>
      <trkpt lat="43.64174" lon="6.24187">
        <ele>624.51</ele>
        <time>2015-10-17T09:41:52Z</time>
      </trkpt>
      <trkpt lat="43.64177" lon="6.24194">
        <ele>624.51</ele>
        <time>2015-10-17T09:41:53Z</time>
      </trkpt>
      <trkpt lat="43.6418" lon="6.242">
        <ele>624.99</ele>
        <time>2015-10-17T09:41:54Z</time>
      </trkpt>
      <trkpt lat="43.64183" lon="6.24207">
        <ele>625.47</ele>
        <time>2015-10-17T09:41:55Z</time>
      </trkpt>
      <trkpt lat="43.64184" lon="6.24215">
        <ele>625.47</ele>
        <time>2015-10-17T09:41:56Z</time>
      </trkpt>
      <trkpt lat="43.64185" lon="6.24223">
        <ele>625.96</ele>
        <time>2015-10-17T09:41:57Z</time>
      </trkpt>
      <trkpt lat="43.64183" lon="6.2423">
        <ele>625.96</ele>
        <time>2015-10-17T09:41:58Z</time>
      </trkpt>
      <trkpt lat="43.6418" lon="6.24236">
        <ele>626.44</ele>
        <time>2015-10-17T09:41:59Z</time>
      </trkpt>
      <trkpt lat="43.64177" lon="6.24241">
        <ele>626.92</ele>
        <time>2015-10-17T09:42:00Z</time>
      </trkpt>
      <trkpt lat="43.64173" lon="6.24245">
        <ele>626.92</ele>
        <time>2015-10-17T09:42:01Z</time>
      </trkpt>
      <trkpt lat="43.64169" lon="6.24249">
        <ele>627.4</ele>
        <time>2015-10-17T09:42:02Z</time>
      </trkpt>
      <trkpt lat="43.64165" lon="6.24253">
        <ele>627.4</ele>
        <time>2015-10-17T09:42:03Z</time>
      </trkpt>
      <trkpt lat="43.64163" lon="6.24259">
        <ele>627.4</ele>
        <time>2015-10-17T09:42:04Z</time>
      </trkpt>
      <trkpt lat="43.64162" lon="6.24266">
        <ele>627.88</ele>
        <time>2015-10-17T09:42:05Z</time>
      </trkpt>
      <trkpt lat="43.64161" lon="6.24273">
        <ele>627.88</ele>
        <time>2015-10-17T09:42:06Z</time>
      </trkpt>
      <trkpt lat="43.6416" lon="6.24289">
        <ele>628.84</ele>
        <time>2015-10-17T09:42:08Z</time>
      </trkpt>
      <trkpt lat="43.64162" lon="6.24311">
        <ele>629.8</ele>
        <time>2015-10-17T09:42:11Z</time>
      </trkpt>
      <trkpt lat="43.64164" lon="6.24317">
        <ele>629.8</ele>
        <time>2015-10-17T09:42:12Z</time>
      </trkpt>
      <trkpt lat="43.64166" lon="6.24323">
        <ele>629.8</ele>
        <time>2015-10-17T09:42:13Z</time>
      </trkpt>
      <trkpt lat="43.64169" lon="6.24326">
        <ele>630.28</ele>
        <time>2015-10-17T09:42:14Z</time>
      </trkpt>
      <trkpt lat="43.64173" lon="6.24326">
        <ele>630.76</ele>
        <time>2015-10-17T09:42:15Z</time>
      </trkpt>
      <trkpt lat="43.64178" lon="6.24324">
        <ele>631.72</ele>
        <time>2015-10-17T09:42:16Z</time>
      </trkpt>
      <trkpt lat="43.64183" lon="6.24321">
        <ele>631.72</ele>
        <time>2015-10-17T09:42:17Z</time>
      </trkpt>
      <trkpt lat="43.64187" lon="6.24318">
        <ele>631.72</ele>
        <time>2015-10-17T09:42:18Z</time>
      </trkpt>
      <trkpt lat="43.64193" lon="6.24315">
        <ele>631.72</ele>
        <time>2015-10-17T09:42:19Z</time>
      </trkpt>
      <trkpt lat="43.642" lon="6.24313">
        <ele>631.72</ele>
        <time>2015-10-17T09:42:20Z</time>
      </trkpt>
      <trkpt lat="43.64206" lon="6.24312">
        <ele>632.2</ele>
        <time>2015-10-17T09:42:21Z</time>
      </trkpt>
      <trkpt lat="43.64212" lon="6.24312">
        <ele>633.17</ele>
        <time>2015-10-17T09:42:22Z</time>
      </trkpt>
      <trkpt lat="43.64217" lon="6.24312">
        <ele>633.65</ele>
        <time>2015-10-17T09:42:23Z</time>
      </trkpt>
      <trkpt lat="43.64222" lon="6.24313">
        <ele>633.65</ele>
        <time>2015-10-17T09:42:24Z</time>
      </trkpt>
      <trkpt lat="43.64228" lon="6.24315">
        <ele>633.65</ele>
        <time>2015-10-17T09:42:25Z</time>
      </trkpt>
      <trkpt lat="43.64233" lon="6.24318">
        <ele>635.09</ele>
        <time>2015-10-17T09:42:26Z</time>
      </trkpt>
      <trkpt lat="43.64238" lon="6.2432">
        <ele>634.61</ele>
        <time>2015-10-17T09:42:27Z</time>
      </trkpt>
      <trkpt lat="43.64242" lon="6.24323">
        <ele>634.61</ele>
        <time>2015-10-17T09:42:28Z</time>
      </trkpt>
      <trkpt lat="43.64244" lon="6.24326">
        <ele>634.61</ele>
        <time>2015-10-17T09:42:29Z</time>
      </trkpt>
      <trkpt lat="43.64247" lon="6.24331">
        <ele>635.09</ele>
        <time>2015-10-17T09:42:30Z</time>
      </trkpt>
      <trkpt lat="43.64247" lon="6.24337">
        <ele>635.09</ele>
        <time>2015-10-17T09:42:31Z</time>
      </trkpt>
      <trkpt lat="43.64246" lon="6.24344">
        <ele>635.09</ele>
        <time>2015-10-17T09:42:32Z</time>
      </trkpt>
      <trkpt lat="43.64244" lon="6.24352">
        <ele>635.57</ele>
        <time>2015-10-17T09:42:33Z</time>
      </trkpt>
      <trkpt lat="43.64241" lon="6.24362">
        <ele>636.53</ele>
        <time>2015-10-17T09:42:34Z</time>
      </trkpt>
      <trkpt lat="43.64237" lon="6.24372">
        <ele>636.05</ele>
        <time>2015-10-17T09:42:35Z</time>
      </trkpt>
      <trkpt lat="43.64214" lon="6.24438">
        <ele>638.93</ele>
        <time>2015-10-17T09:42:42Z</time>
      </trkpt>
      <trkpt lat="43.64212" lon="6.24449">
        <ele>638.45</ele>
        <time>2015-10-17T09:42:43Z</time>
      </trkpt>
      <trkpt lat="43.64211" lon="6.24459">
        <ele>640.38</ele>
        <time>2015-10-17T09:42:44Z</time>
      </trkpt>
      <trkpt lat="43.64209" lon="6.24469">
        <ele>640.38</ele>
        <time>2015-10-17T09:42:45Z</time>
      </trkpt>
      <trkpt lat="43.64208" lon="6.24478">
        <ele>641.34</ele>
        <time>2015-10-17T09:42:46Z</time>
      </trkpt>
      <trkpt lat="43.64206" lon="6.24486">
        <ele>641.34</ele>
        <time>2015-10-17T09:42:47Z</time>
      </trkpt>
      <trkpt lat="43.64199" lon="6.2451">
        <ele>640.86</ele>
        <time>2015-10-17T09:42:50Z</time>
      </trkpt>
      <trkpt lat="43.64196" lon="6.24517">
        <ele>641.82</ele>
        <time>2015-10-17T09:42:51Z</time>
      </trkpt>
      <trkpt lat="43.64193" lon="6.24522">
        <ele>642.3</ele>
        <time>2015-10-17T09:42:52Z</time>
      </trkpt>
      <trkpt lat="43.64189" lon="6.24526">
        <ele>642.3</ele>
        <time>2015-10-17T09:42:53Z</time>
      </trkpt>
      <trkpt lat="43.64185" lon="6.24528">
        <ele>641.34</ele>
        <time>2015-10-17T09:42:54Z</time>
      </trkpt>
      <trkpt lat="43.6418" lon="6.24529">
        <ele>642.3</ele>
        <time>2015-10-17T09:42:55Z</time>
      </trkpt>
      <trkpt lat="43.64175" lon="6.24528">
        <ele>641.82</ele>
        <time>2015-10-17T09:42:56Z</time>
      </trkpt>
      <trkpt lat="43.64171" lon="6.24527">
        <ele>642.3</ele>
        <time>2015-10-17T09:42:57Z</time>
      </trkpt>
      <trkpt lat="43.64152" lon="6.24522">
        <ele>643.26</ele>
        <time>2015-10-17T09:43:01Z</time>
      </trkpt>
      <trkpt lat="43.64144" lon="6.24522">
        <ele>643.26</ele>
        <time>2015-10-17T09:43:03Z</time>
      </trkpt>
      <trkpt lat="43.6414" lon="6.24524">
        <ele>643.26</ele>
        <time>2015-10-17T09:43:04Z</time>
      </trkpt>
      <trkpt lat="43.64137" lon="6.24527">
        <ele>643.74</ele>
        <time>2015-10-17T09:43:05Z</time>
      </trkpt>
      <trkpt lat="43.64136" lon="6.24532">
        <ele>643.74</ele>
        <time>2015-10-17T09:43:06Z</time>
      </trkpt>
      <trkpt lat="43.64137" lon="6.2454">
        <ele>644.22</ele>
        <time>2015-10-17T09:43:07Z</time>
      </trkpt>
      <trkpt lat="43.64138" lon="6.24547">
        <ele>644.7</ele>
        <time>2015-10-17T09:43:08Z</time>
      </trkpt>
      <trkpt lat="43.6414" lon="6.24554">
        <ele>645.18</ele>
        <time>2015-10-17T09:43:09Z</time>
      </trkpt>
      <trkpt lat="43.64141" lon="6.24562">
        <ele>645.18</ele>
        <time>2015-10-17T09:43:10Z</time>
      </trkpt>
      <trkpt lat="43.64145" lon="6.24578">
        <ele>645.18</ele>
        <time>2015-10-17T09:43:12Z</time>
      </trkpt>
      <trkpt lat="43.64145" lon="6.24588">
        <ele>646.14</ele>
        <time>2015-10-17T09:43:13Z</time>
      </trkpt>
      <trkpt lat="43.64144" lon="6.24596">
        <ele>646.14</ele>
        <time>2015-10-17T09:43:14Z</time>
      </trkpt>
      <trkpt lat="43.64142" lon="6.24604">
        <ele>645.66</ele>
        <time>2015-10-17T09:43:15Z</time>
      </trkpt>
      <trkpt lat="43.6414" lon="6.2461">
        <ele>647.1</ele>
        <time>2015-10-17T09:43:16Z</time>
      </trkpt>
      <trkpt lat="43.64138" lon="6.24616">
        <ele>646.62</ele>
        <time>2015-10-17T09:43:17Z</time>
      </trkpt>
      <trkpt lat="43.64136" lon="6.2462">
        <ele>647.1</ele>
        <time>2015-10-17T09:43:18Z</time>
      </trkpt>
      <trkpt lat="43.64127" lon="6.24639">
        <ele>647.59</ele>
        <time>2015-10-17T09:43:29Z</time>
      </trkpt>
      <trkpt lat="43.64127" lon="6.24641">
        <ele>647.59</ele>
        <time>2015-10-17T09:43:30Z</time>
      </trkpt>
      <trkpt lat="43.64125" lon="6.24645">
        <ele>647.59</ele>
        <time>2015-10-17T09:43:32Z</time>
      </trkpt>
      <trkpt lat="43.64124" lon="6.24646">
        <ele>648.07</ele>
        <time>2015-10-17T09:43:33Z</time>
      </trkpt>
      <trkpt lat="43.64124" lon="6.24648">
        <ele>647.59</ele>
        <time>2015-10-17T09:43:34Z</time>
      </trkpt>
      <trkpt lat="43.64112" lon="6.24669">
        <ele>648.55</ele>
        <time>2015-10-17T09:43:46Z</time>
      </trkpt>
      <trkpt lat="43.64107" lon="6.24678">
        <ele>649.03</ele>
        <time>2015-10-17T09:43:52Z</time>
      </trkpt>
      <trkpt lat="43.64106" lon="6.2468">
        <ele>649.03</ele>
        <time>2015-10-17T09:43:53Z</time>
      </trkpt>
      <trkpt lat="43.64105" lon="6.24681">
        <ele>649.03</ele>
        <time>2015-10-17T09:43:54Z</time>
      </trkpt>
      <trkpt lat="43.64104" lon="6.24682">
        <ele>649.03</ele>
        <time>2015-10-17T09:43:55Z</time>
      </trkpt>
      <trkpt lat="43.64094" lon="6.24699">
        <ele>649.51</ele>
        <time>2015-10-17T09:44:05Z</time>
      </trkpt>
      <trkpt lat="43.64093" lon="6.24701">
        <ele>649.51</ele>
        <time>2015-10-17T09:44:06Z</time>
      </trkpt>
      <trkpt lat="43.64091" lon="6.24703">
        <ele>649.51</ele>
        <time>2015-10-17T09:44:07Z</time>
      </trkpt>
      <trkpt lat="43.64078" lon="6.24718">
        <ele>649.99</ele>
        <time>2015-10-17T09:44:12Z</time>
      </trkpt>
      <trkpt lat="43.64074" lon="6.24722">
        <ele>649.99</ele>
        <time>2015-10-17T09:44:13Z</time>
      </trkpt>
      <trkpt lat="43.64071" lon="6.24726">
        <ele>649.51</ele>
        <time>2015-10-17T09:44:14Z</time>
      </trkpt>
      <trkpt lat="43.64068" lon="6.24731">
        <ele>649.99</ele>
        <time>2015-10-17T09:44:15Z</time>
      </trkpt>
      <trkpt lat="43.64066" lon="6.24738">
        <ele>649.99</ele>
        <time>2015-10-17T09:44:16Z</time>
      </trkpt>
      <trkpt lat="43.64057" lon="6.24759">
        <ele>650.47</ele>
        <time>2015-10-17T09:44:19Z</time>
      </trkpt>
      <trkpt lat="43.64052" lon="6.24784">
        <ele>651.43</ele>
        <time>2015-10-17T09:44:22Z</time>
      </trkpt>
      <trkpt lat="43.64051" lon="6.24792">
        <ele>650.95</ele>
        <time>2015-10-17T09:44:23Z</time>
      </trkpt>
      <trkpt lat="43.64043" lon="6.24842">
        <ele>652.87</ele>
        <time>2015-10-17T09:44:29Z</time>
      </trkpt>
      <trkpt lat="43.64023" lon="6.24896">
        <ele>654.8</ele>
        <time>2015-10-17T09:44:36Z</time>
      </trkpt>
      <trkpt lat="43.64018" lon="6.24902">
        <ele>654.31</ele>
        <time>2015-10-17T09:44:37Z</time>
      </trkpt>
      <trkpt lat="43.64013" lon="6.24907">
        <ele>655.28</ele>
        <time>2015-10-17T09:44:38Z</time>
      </trkpt>
      <trkpt lat="43.64007" lon="6.24911">
        <ele>655.28</ele>
        <time>2015-10-17T09:44:39Z</time>
      </trkpt>
      <trkpt lat="43.64001" lon="6.24914">
        <ele>655.28</ele>
        <time>2015-10-17T09:44:40Z</time>
      </trkpt>
      <trkpt lat="43.63994" lon="6.24915">
        <ele>655.76</ele>
        <time>2015-10-17T09:44:41Z</time>
      </trkpt>
      <trkpt lat="43.63988" lon="6.24916">
        <ele>656.24</ele>
        <time>2015-10-17T09:44:42Z</time>
      </trkpt>
      <trkpt lat="43.63982" lon="6.24917">
        <ele>655.76</ele>
        <time>2015-10-17T09:44:43Z</time>
      </trkpt>
      <trkpt lat="43.63952" lon="6.24919">
        <ele>658.16</ele>
        <time>2015-10-17T09:44:48Z</time>
      </trkpt>
      <trkpt lat="43.63948" lon="6.24921">
        <ele>658.16</ele>
        <time>2015-10-17T09:44:49Z</time>
      </trkpt>
      <trkpt lat="43.63944" lon="6.24924">
        <ele>657.68</ele>
        <time>2015-10-17T09:44:50Z</time>
      </trkpt>
      <trkpt lat="43.63941" lon="6.24928">
        <ele>657.68</ele>
        <time>2015-10-17T09:44:51Z</time>
      </trkpt>
      <trkpt lat="43.63939" lon="6.24933">
        <ele>657.68</ele>
        <time>2015-10-17T09:44:52Z</time>
      </trkpt>
      <trkpt lat="43.63937" lon="6.24939">
        <ele>657.68</ele>
        <time>2015-10-17T09:44:53Z</time>
      </trkpt>
      <trkpt lat="43.63936" lon="6.24946">
        <ele>657.68</ele>
        <time>2015-10-17T09:44:54Z</time>
      </trkpt>
      <trkpt lat="43.63936" lon="6.24953">
        <ele>658.16</ele>
        <time>2015-10-17T09:44:55Z</time>
      </trkpt>
      <trkpt lat="43.63937" lon="6.2496">
        <ele>658.64</ele>
        <time>2015-10-17T09:44:56Z</time>
      </trkpt>
      <trkpt lat="43.63936" lon="6.24984">
        <ele>659.6</ele>
        <time>2015-10-17T09:44:59Z</time>
      </trkpt>
      <trkpt lat="43.63937" lon="6.24998">
        <ele>660.56</ele>
        <time>2015-10-17T09:45:01Z</time>
      </trkpt>
      <trkpt lat="43.63938" lon="6.2502">
        <ele>661.04</ele>
        <time>2015-10-17T09:45:04Z</time>
      </trkpt>
      <trkpt lat="43.63938" lon="6.25028">
        <ele>661.04</ele>
        <time>2015-10-17T09:45:05Z</time>
      </trkpt>
      <trkpt lat="43.63938" lon="6.25061">
        <ele>661.52</ele>
        <time>2015-10-17T09:45:09Z</time>
      </trkpt>
      <trkpt lat="43.63935" lon="6.25069">
        <ele>661.04</ele>
        <time>2015-10-17T09:45:10Z</time>
      </trkpt>
      <trkpt lat="43.63931" lon="6.25075">
        <ele>661.04</ele>
        <time>2015-10-17T09:45:11Z</time>
      </trkpt>
      <trkpt lat="43.63927" lon="6.25081">
        <ele>662.01</ele>
        <time>2015-10-17T09:45:12Z</time>
      </trkpt>
      <trkpt lat="43.63923" lon="6.25087">
        <ele>662.97</ele>
        <time>2015-10-17T09:45:13Z</time>
      </trkpt>
      <trkpt lat="43.63918" lon="6.25093">
        <ele>663.93</ele>
        <time>2015-10-17T09:45:14Z</time>
      </trkpt>
      <trkpt lat="43.63913" lon="6.25099">
        <ele>663.93</ele>
        <time>2015-10-17T09:45:15Z</time>
      </trkpt>
      <trkpt lat="43.63908" lon="6.25104">
        <ele>662.97</ele>
        <time>2015-10-17T09:45:16Z</time>
      </trkpt>
      <trkpt lat="43.63894" lon="6.25122">
        <ele>664.89</ele>
        <time>2015-10-17T09:45:19Z</time>
      </trkpt>
      <trkpt lat="43.63891" lon="6.25129">
        <ele>664.41</ele>
        <time>2015-10-17T09:45:20Z</time>
      </trkpt>
      <trkpt lat="43.63888" lon="6.25138">
        <ele>664.89</ele>
        <time>2015-10-17T09:45:21Z</time>
      </trkpt>
      <trkpt lat="43.63878" lon="6.25178">
        <ele>666.33</ele>
        <time>2015-10-17T09:45:25Z</time>
      </trkpt>
      <trkpt lat="43.63865" lon="6.25203">
        <ele>667.77</ele>
        <time>2015-10-17T09:45:28Z</time>
      </trkpt>
      <trkpt lat="43.6386" lon="6.2521">
        <ele>668.25</ele>
        <time>2015-10-17T09:45:29Z</time>
      </trkpt>
      <trkpt lat="43.63854" lon="6.25215">
        <ele>668.73</ele>
        <time>2015-10-17T09:45:30Z</time>
      </trkpt>
      <trkpt lat="43.63847" lon="6.25219">
        <ele>667.77</ele>
        <time>2015-10-17T09:45:31Z</time>
      </trkpt>
      <trkpt lat="43.6384" lon="6.25222">
        <ele>668.73</ele>
        <time>2015-10-17T09:45:32Z</time>
      </trkpt>
      <trkpt lat="43.63828" lon="6.2523">
        <ele>669.7</ele>
        <time>2015-10-17T09:45:34Z</time>
      </trkpt>
      <trkpt lat="43.63798" lon="6.25252">
        <ele>668.73</ele>
        <time>2015-10-17T09:45:39Z</time>
      </trkpt>
      <trkpt lat="43.63793" lon="6.25259">
        <ele>670.66</ele>
        <time>2015-10-17T09:45:40Z</time>
      </trkpt>
      <trkpt lat="43.63778" lon="6.25283">
        <ele>670.66</ele>
        <time>2015-10-17T09:45:43Z</time>
      </trkpt>
      <trkpt lat="43.6376" lon="6.25323">
        <ele>670.66</ele>
        <time>2015-10-17T09:45:47Z</time>
      </trkpt>
      <trkpt lat="43.63747" lon="6.25374">
        <ele>675.94</ele>
        <time>2015-10-17T09:45:52Z</time>
      </trkpt>
      <trkpt lat="43.63745" lon="6.25383">
        <ele>676.42</ele>
        <time>2015-10-17T09:45:53Z</time>
      </trkpt>
      <trkpt lat="43.63744" lon="6.25401">
        <ele>676.91</ele>
        <time>2015-10-17T09:45:55Z</time>
      </trkpt>
      <trkpt lat="43.6374" lon="6.25418">
        <ele>676.42</ele>
        <time>2015-10-17T09:45:57Z</time>
      </trkpt>
      <trkpt lat="43.63738" lon="6.25426">
        <ele>676.91</ele>
        <time>2015-10-17T09:45:58Z</time>
      </trkpt>
      <trkpt lat="43.63734" lon="6.25434">
        <ele>677.39</ele>
        <time>2015-10-17T09:45:59Z</time>
      </trkpt>
      <trkpt lat="43.63729" lon="6.25442">
        <ele>678.35</ele>
        <time>2015-10-17T09:46:00Z</time>
      </trkpt>
      <trkpt lat="43.63723" lon="6.25449">
        <ele>677.87</ele>
        <time>2015-10-17T09:46:01Z</time>
      </trkpt>
      <trkpt lat="43.63717" lon="6.25455">
        <ele>678.83</ele>
        <time>2015-10-17T09:46:02Z</time>
      </trkpt>
      <trkpt lat="43.63712" lon="6.25462">
        <ele>679.31</ele>
        <time>2015-10-17T09:46:03Z</time>
      </trkpt>
      <trkpt lat="43.63706" lon="6.25467">
        <ele>679.31</ele>
        <time>2015-10-17T09:46:04Z</time>
      </trkpt>
      <trkpt lat="43.637" lon="6.25471">
        <ele>680.27</ele>
        <time>2015-10-17T09:46:05Z</time>
      </trkpt>
      <trkpt lat="43.63694" lon="6.25474">
        <ele>680.27</ele>
        <time>2015-10-17T09:46:06Z</time>
      </trkpt>
      <trkpt lat="43.63683" lon="6.25482">
        <ele>679.79</ele>
        <time>2015-10-17T09:46:08Z</time>
      </trkpt>
      <trkpt lat="43.63679" lon="6.25488">
        <ele>680.75</ele>
        <time>2015-10-17T09:46:09Z</time>
      </trkpt>
      <trkpt lat="43.63674" lon="6.25495">
        <ele>681.23</ele>
        <time>2015-10-17T09:46:10Z</time>
      </trkpt>
      <trkpt lat="43.63669" lon="6.25502">
        <ele>681.71</ele>
        <time>2015-10-17T09:46:11Z</time>
      </trkpt>
      <trkpt lat="43.6366" lon="6.25517">
        <ele>683.15</ele>
        <time>2015-10-17T09:46:13Z</time>
      </trkpt>
      <trkpt lat="43.63657" lon="6.25525">
        <ele>683.63</ele>
        <time>2015-10-17T09:46:14Z</time>
      </trkpt>
      <trkpt lat="43.63654" lon="6.25533">
        <ele>683.63</ele>
        <time>2015-10-17T09:46:15Z</time>
      </trkpt>
      <trkpt lat="43.63652" lon="6.25543">
        <ele>684.12</ele>
        <time>2015-10-17T09:46:16Z</time>
      </trkpt>
      <trkpt lat="43.63646" lon="6.2557">
        <ele>684.12</ele>
        <time>2015-10-17T09:46:19Z</time>
      </trkpt>
      <trkpt lat="43.6364" lon="6.25587">
        <ele>684.6</ele>
        <time>2015-10-17T09:46:21Z</time>
      </trkpt>
      <trkpt lat="43.63629" lon="6.25611">
        <ele>686.52</ele>
        <time>2015-10-17T09:46:24Z</time>
      </trkpt>
      <trkpt lat="43.63616" lon="6.25633">
        <ele>688.44</ele>
        <time>2015-10-17T09:46:27Z</time>
      </trkpt>
      <trkpt lat="43.63603" lon="6.25657">
        <ele>690.84</ele>
        <time>2015-10-17T09:46:30Z</time>
      </trkpt>
      <trkpt lat="43.63595" lon="6.25675">
        <ele>691.81</ele>
        <time>2015-10-17T09:46:32Z</time>
      </trkpt>
      <trkpt lat="43.63565" lon="6.25737">
        <ele>695.17</ele>
        <time>2015-10-17T09:46:39Z</time>
      </trkpt>
      <trkpt lat="43.63549" lon="6.25757">
        <ele>696.61</ele>
        <time>2015-10-17T09:46:42Z</time>
      </trkpt>
      <trkpt lat="43.63543" lon="6.25763">
        <ele>697.09</ele>
        <time>2015-10-17T09:46:43Z</time>
      </trkpt>
      <trkpt lat="43.63508" lon="6.25791">
        <ele>697.57</ele>
        <time>2015-10-17T09:46:48Z</time>
      </trkpt>
      <trkpt lat="43.63503" lon="6.25798">
        <ele>698.53</ele>
        <time>2015-10-17T09:46:49Z</time>
      </trkpt>
      <trkpt lat="43.63497" lon="6.25805">
        <ele>699.02</ele>
        <time>2015-10-17T09:46:50Z</time>
      </trkpt>
      <trkpt lat="43.63491" lon="6.25811">
        <ele>699.5</ele>
        <time>2015-10-17T09:46:51Z</time>
      </trkpt>
      <trkpt lat="43.63484" lon="6.25817">
        <ele>699.5</ele>
        <time>2015-10-17T09:46:52Z</time>
      </trkpt>
      <trkpt lat="43.63477" lon="6.25822">
        <ele>700.46</ele>
        <time>2015-10-17T09:46:53Z</time>
      </trkpt>
      <trkpt lat="43.6347" lon="6.25826">
        <ele>700.46</ele>
        <time>2015-10-17T09:46:54Z</time>
      </trkpt>
      <trkpt lat="43.63462" lon="6.25828">
        <ele>700.94</ele>
        <time>2015-10-17T09:46:55Z</time>
      </trkpt>
      <trkpt lat="43.63454" lon="6.25829">
        <ele>700.46</ele>
        <time>2015-10-17T09:46:56Z</time>
      </trkpt>
      <trkpt lat="43.63441" lon="6.2583">
        <ele>699.5</ele>
        <time>2015-10-17T09:46:58Z</time>
      </trkpt>
      <trkpt lat="43.63428" lon="6.25835">
        <ele>700.94</ele>
        <time>2015-10-17T09:47:00Z</time>
      </trkpt>
      <trkpt lat="43.63422" lon="6.25839">
        <ele>702.38</ele>
        <time>2015-10-17T09:47:01Z</time>
      </trkpt>
      <trkpt lat="43.63417" lon="6.25844">
        <ele>702.38</ele>
        <time>2015-10-17T09:47:02Z</time>
      </trkpt>
      <trkpt lat="43.63402" lon="6.25859">
        <ele>702.38</ele>
        <time>2015-10-17T09:47:05Z</time>
      </trkpt>
      <trkpt lat="43.63396" lon="6.25863">
        <ele>703.82</ele>
        <time>2015-10-17T09:47:06Z</time>
      </trkpt>
      <trkpt lat="43.63391" lon="6.25868">
        <ele>704.3</ele>
        <time>2015-10-17T09:47:07Z</time>
      </trkpt>
      <trkpt lat="43.63387" lon="6.25873">
        <ele>704.3</ele>
        <time>2015-10-17T09:47:08Z</time>
      </trkpt>
      <trkpt lat="43.63383" lon="6.25879">
        <ele>704.78</ele>
        <time>2015-10-17T09:47:09Z</time>
      </trkpt>
      <trkpt lat="43.63378" lon="6.25886">
        <ele>704.3</ele>
        <time>2015-10-17T09:47:10Z</time>
      </trkpt>
      <trkpt lat="43.63375" lon="6.25894">
        <ele>704.3</ele>
        <time>2015-10-17T09:47:11Z</time>
      </trkpt>
      <trkpt lat="43.63372" lon="6.25902">
        <ele>703.82</ele>
        <time>2015-10-17T09:47:12Z</time>
      </trkpt>
      <trkpt lat="43.63365" lon="6.25918">
        <ele>706.23</ele>
        <time>2015-10-17T09:47:14Z</time>
      </trkpt>
      <trkpt lat="43.63362" lon="6.25925">
        <ele>706.71</ele>
        <time>2015-10-17T09:47:15Z</time>
      </trkpt>
      <trkpt lat="43.63359" lon="6.2593">
        <ele>707.19</ele>
        <time>2015-10-17T09:47:16Z</time>
      </trkpt>
      <trkpt lat="43.6335" lon="6.25939">
        <ele>709.11</ele>
        <time>2015-10-17T09:47:18Z</time>
      </trkpt>
      <trkpt lat="43.63345" lon="6.25942">
        <ele>708.63</ele>
        <time>2015-10-17T09:47:19Z</time>
      </trkpt>
      <trkpt lat="43.63335" lon="6.25945">
        <ele>708.63</ele>
        <time>2015-10-17T09:47:21Z</time>
      </trkpt>
      <trkpt lat="43.6333" lon="6.25946">
        <ele>708.63</ele>
        <time>2015-10-17T09:47:22Z</time>
      </trkpt>
      <trkpt lat="43.63325" lon="6.25946">
        <ele>709.11</ele>
        <time>2015-10-17T09:47:23Z</time>
      </trkpt>
      <trkpt lat="43.63321" lon="6.25947">
        <ele>708.15</ele>
        <time>2015-10-17T09:47:24Z</time>
      </trkpt>
      <trkpt lat="43.63316" lon="6.25947">
        <ele>709.11</ele>
        <time>2015-10-17T09:47:25Z</time>
      </trkpt>
      <trkpt lat="43.63312" lon="6.25948">
        <ele>709.59</ele>
        <time>2015-10-17T09:47:26Z</time>
      </trkpt>
      <trkpt lat="43.63307" lon="6.25951">
        <ele>710.07</ele>
        <time>2015-10-17T09:47:27Z</time>
      </trkpt>
      <trkpt lat="43.63302" lon="6.25954">
        <ele>710.07</ele>
        <time>2015-10-17T09:47:28Z</time>
      </trkpt>
      <trkpt lat="43.63297" lon="6.25958">
        <ele>710.55</ele>
        <time>2015-10-17T09:47:29Z</time>
      </trkpt>
      <trkpt lat="43.63292" lon="6.25962">
        <ele>711.03</ele>
        <time>2015-10-17T09:47:30Z</time>
      </trkpt>
      <trkpt lat="43.63288" lon="6.25968">
        <ele>710.55</ele>
        <time>2015-10-17T09:47:31Z</time>
      </trkpt>
      <trkpt lat="43.63284" lon="6.25976">
        <ele>710.55</ele>
        <time>2015-10-17T09:47:32Z</time>
      </trkpt>
      <trkpt lat="43.63281" lon="6.25984">
        <ele>712.47</ele>
        <time>2015-10-17T09:47:33Z</time>
      </trkpt>
      <trkpt lat="43.63278" lon="6.25993">
        <ele>712.47</ele>
        <time>2015-10-17T09:47:34Z</time>
      </trkpt>
      <trkpt lat="43.63268" lon="6.26017">
        <ele>713.44</ele>
        <time>2015-10-17T09:47:37Z</time>
      </trkpt>
      <trkpt lat="43.63259" lon="6.2603">
        <ele>712.95</ele>
        <time>2015-10-17T09:47:39Z</time>
      </trkpt>
      <trkpt lat="43.63254" lon="6.26036">
        <ele>713.92</ele>
        <time>2015-10-17T09:47:40Z</time>
      </trkpt>
      <trkpt lat="43.63249" lon="6.2604">
        <ele>713.44</ele>
        <time>2015-10-17T09:47:41Z</time>
      </trkpt>
      <trkpt lat="43.63244" lon="6.26044">
        <ele>713.92</ele>
        <time>2015-10-17T09:47:42Z</time>
      </trkpt>
      <trkpt lat="43.63238" lon="6.26046">
        <ele>714.88</ele>
        <time>2015-10-17T09:47:43Z</time>
      </trkpt>
      <trkpt lat="43.63233" lon="6.26047">
        <ele>715.36</ele>
        <time>2015-10-17T09:47:44Z</time>
      </trkpt>
      <trkpt lat="43.63226" lon="6.26048">
        <ele>715.36</ele>
        <time>2015-10-17T09:47:45Z</time>
      </trkpt>
      <trkpt lat="43.6321" lon="6.26051">
        <ele>715.36</ele>
        <time>2015-10-17T09:47:48Z</time>
      </trkpt>
      <trkpt lat="43.63206" lon="6.26055">
        <ele>715.84</ele>
        <time>2015-10-17T09:47:49Z</time>
      </trkpt>
      <trkpt lat="43.63202" lon="6.2606">
        <ele>716.8</ele>
        <time>2015-10-17T09:47:50Z</time>
      </trkpt>
      <trkpt lat="43.63199" lon="6.26067">
        <ele>717.76</ele>
        <time>2015-10-17T09:47:51Z</time>
      </trkpt>
      <trkpt lat="43.63196" lon="6.26076">
        <ele>717.28</ele>
        <time>2015-10-17T09:47:52Z</time>
      </trkpt>
      <trkpt lat="43.63184" lon="6.26107">
        <ele>719.68</ele>
        <time>2015-10-17T09:47:56Z</time>
      </trkpt>
      <trkpt lat="43.63178" lon="6.26124">
        <ele>719.2</ele>
        <time>2015-10-17T09:47:58Z</time>
      </trkpt>
      <trkpt lat="43.63169" lon="6.26139">
        <ele>720.65</ele>
        <time>2015-10-17T09:48:00Z</time>
      </trkpt>
      <trkpt lat="43.63164" lon="6.26146">
        <ele>721.13</ele>
        <time>2015-10-17T09:48:01Z</time>
      </trkpt>
      <trkpt lat="43.63158" lon="6.26152">
        <ele>721.13</ele>
        <time>2015-10-17T09:48:02Z</time>
      </trkpt>
      <trkpt lat="43.63147" lon="6.26165">
        <ele>720.65</ele>
        <time>2015-10-17T09:48:04Z</time>
      </trkpt>
      <trkpt lat="43.63136" lon="6.26178">
        <ele>722.57</ele>
        <time>2015-10-17T09:48:06Z</time>
      </trkpt>
      <trkpt lat="43.63131" lon="6.26185">
        <ele>722.57</ele>
        <time>2015-10-17T09:48:07Z</time>
      </trkpt>
      <trkpt lat="43.63126" lon="6.26192">
        <ele>722.09</ele>
        <time>2015-10-17T09:48:08Z</time>
      </trkpt>
      <trkpt lat="43.63117" lon="6.26208">
        <ele>722.57</ele>
        <time>2015-10-17T09:48:10Z</time>
      </trkpt>
      <trkpt lat="43.63113" lon="6.26216">
        <ele>722.57</ele>
        <time>2015-10-17T09:48:11Z</time>
      </trkpt>
      <trkpt lat="43.63109" lon="6.26225">
        <ele>722.57</ele>
        <time>2015-10-17T09:48:12Z</time>
      </trkpt>
      <trkpt lat="43.63106" lon="6.26234">
        <ele>724.01</ele>
        <time>2015-10-17T09:48:13Z</time>
      </trkpt>
      <trkpt lat="43.63104" lon="6.26242">
        <ele>724.01</ele>
        <time>2015-10-17T09:48:14Z</time>
      </trkpt>
      <trkpt lat="43.63102" lon="6.26251">
        <ele>724.01</ele>
        <time>2015-10-17T09:48:15Z</time>
      </trkpt>
      <trkpt lat="43.631" lon="6.2626">
        <ele>724.97</ele>
        <time>2015-10-17T09:48:16Z</time>
      </trkpt>
      <trkpt lat="43.63096" lon="6.26267">
        <ele>724.49</ele>
        <time>2015-10-17T09:48:17Z</time>
      </trkpt>
      <trkpt lat="43.63092" lon="6.26273">
        <ele>725.93</ele>
        <time>2015-10-17T09:48:18Z</time>
      </trkpt>
      <trkpt lat="43.63087" lon="6.26277">
        <ele>725.93</ele>
        <time>2015-10-17T09:48:19Z</time>
      </trkpt>
      <trkpt lat="43.6308" lon="6.26279">
        <ele>726.41</ele>
        <time>2015-10-17T09:48:20Z</time>
      </trkpt>
      <trkpt lat="43.63074" lon="6.2628">
        <ele>726.89</ele>
        <time>2015-10-17T09:48:21Z</time>
      </trkpt>
      <trkpt lat="43.63055" lon="6.26281">
        <ele>727.37</ele>
        <time>2015-10-17T09:48:24Z</time>
      </trkpt>
      <trkpt lat="43.6305" lon="6.26284">
        <ele>727.37</ele>
        <time>2015-10-17T09:48:25Z</time>
      </trkpt>
      <trkpt lat="43.63045" lon="6.26287">
        <ele>727.37</ele>
        <time>2015-10-17T09:48:26Z</time>
      </trkpt>
      <trkpt lat="43.63041" lon="6.26293">
        <ele>728.34</ele>
        <time>2015-10-17T09:48:27Z</time>
      </trkpt>
      <trkpt lat="43.63037" lon="6.263">
        <ele>728.82</ele>
        <time>2015-10-17T09:48:28Z</time>
      </trkpt>
      <trkpt lat="43.63032" lon="6.26307">
        <ele>728.82</ele>
        <time>2015-10-17T09:48:29Z</time>
      </trkpt>
      <trkpt lat="43.63023" lon="6.26322">
        <ele>730.74</ele>
        <time>2015-10-17T09:48:31Z</time>
      </trkpt>
      <trkpt lat="43.63018" lon="6.26328">
        <ele>730.74</ele>
        <time>2015-10-17T09:48:32Z</time>
      </trkpt>
      <trkpt lat="43.63007" lon="6.26339">
        <ele>730.74</ele>
        <time>2015-10-17T09:48:34Z</time>
      </trkpt>
      <trkpt lat="43.62984" lon="6.26356">
        <ele>732.66</ele>
        <time>2015-10-17T09:48:38Z</time>
      </trkpt>
      <trkpt lat="43.62979" lon="6.26359">
        <ele>733.14</ele>
        <time>2015-10-17T09:48:39Z</time>
      </trkpt>
      <trkpt lat="43.62973" lon="6.26362">
        <ele>732.66</ele>
        <time>2015-10-17T09:48:40Z</time>
      </trkpt>
      <trkpt lat="43.62959" lon="6.26369">
        <ele>734.1</ele>
        <time>2015-10-17T09:48:43Z</time>
      </trkpt>
      <trkpt lat="43.62943" lon="6.26381">
        <ele>734.58</ele>
        <time>2015-10-17T09:48:47Z</time>
      </trkpt>
      <trkpt lat="43.62939" lon="6.26384">
        <ele>735.07</ele>
        <time>2015-10-17T09:48:48Z</time>
      </trkpt>
      <trkpt lat="43.62935" lon="6.26387">
        <ele>735.55</ele>
        <time>2015-10-17T09:48:49Z</time>
      </trkpt>
      <trkpt lat="43.62908" lon="6.26412">
        <ele>736.99</ele>
        <time>2015-10-17T09:48:55Z</time>
      </trkpt>
      <trkpt lat="43.62895" lon="6.26429">
        <ele>737.47</ele>
        <time>2015-10-17T09:48:58Z</time>
      </trkpt>
      <trkpt lat="43.62887" lon="6.26445">
        <ele>738.43</ele>
        <time>2015-10-17T09:49:00Z</time>
      </trkpt>
      <trkpt lat="43.62884" lon="6.26453">
        <ele>737.95</ele>
        <time>2015-10-17T09:49:01Z</time>
      </trkpt>
      <trkpt lat="43.62876" lon="6.26496">
        <ele>739.87</ele>
        <time>2015-10-17T09:49:06Z</time>
      </trkpt>
      <trkpt lat="43.62872" lon="6.26503">
        <ele>740.35</ele>
        <time>2015-10-17T09:49:07Z</time>
      </trkpt>
      <trkpt lat="43.62867" lon="6.26509">
        <ele>740.83</ele>
        <time>2015-10-17T09:49:08Z</time>
      </trkpt>
      <trkpt lat="43.62863" lon="6.26513">
        <ele>740.83</ele>
        <time>2015-10-17T09:49:09Z</time>
      </trkpt>
      <trkpt lat="43.62858" lon="6.26517">
        <ele>741.31</ele>
        <time>2015-10-17T09:49:10Z</time>
      </trkpt>
      <trkpt lat="43.62854" lon="6.26522">
        <ele>741.31</ele>
        <time>2015-10-17T09:49:11Z</time>
      </trkpt>
      <trkpt lat="43.62849" lon="6.26527">
        <ele>741.31</ele>
        <time>2015-10-17T09:49:12Z</time>
      </trkpt>
      <trkpt lat="43.62844" lon="6.26533">
        <ele>740.35</ele>
        <time>2015-10-17T09:49:13Z</time>
      </trkpt>
      <trkpt lat="43.6284" lon="6.26539">
        <ele>741.79</ele>
        <time>2015-10-17T09:49:14Z</time>
      </trkpt>
      <trkpt lat="43.62837" lon="6.26544">
        <ele>741.79</ele>
        <time>2015-10-17T09:49:15Z</time>
      </trkpt>
      <trkpt lat="43.62834" lon="6.2655">
        <ele>742.76</ele>
        <time>2015-10-17T09:49:16Z</time>
      </trkpt>
      <trkpt lat="43.62829" lon="6.26567">
        <ele>743.72</ele>
        <time>2015-10-17T09:49:21Z</time>
      </trkpt>
      <trkpt lat="43.62829" lon="6.26569">
        <ele>743.72</ele>
        <time>2015-10-17T09:49:22Z</time>
      </trkpt>
      <trkpt lat="43.62832" lon="6.26571">
        <ele>743.24</ele>
        <time>2015-10-17T09:49:27Z</time>
      </trkpt>
      <trkpt lat="43.62833" lon="6.26571">
        <ele>743.24</ele>
        <time>2015-10-17T09:49:28Z</time>
      </trkpt>
      <trkpt lat="43.62834" lon="6.26571">
        <ele>743.24</ele>
        <time>2015-10-17T09:49:29Z</time>
      </trkpt>
      <trkpt lat="43.62852" lon="6.26567">
        <ele>742.76</ele>
        <time>2015-10-17T09:49:41Z</time>
      </trkpt>
      <trkpt lat="43.62858" lon="6.26566">
        <ele>742.76</ele>
        <time>2015-10-17T09:49:45Z</time>
      </trkpt>
      <trkpt lat="43.62864" lon="6.26558">
        <ele>742.28</ele>
        <time>2015-10-17T09:49:51Z</time>
      </trkpt>
      <trkpt lat="43.62858" lon="6.26535">
        <ele>741.79</ele>
        <time>2015-10-17T09:50:01Z</time>
      </trkpt>
      <trkpt lat="43.62845" lon="6.26532">
        <ele>741.31</ele>
        <time>2015-10-17T09:50:09Z</time>
      </trkpt>
      <trkpt lat="43.62836" lon="6.26547">
        <ele>742.28</ele>
        <time>2015-10-17T09:50:18Z</time>
      </trkpt>
      <trkpt lat="43.62831" lon="6.26566">
        <ele>743.72</ele>
        <time>2015-10-17T09:50:30Z</time>
      </trkpt>
      <trkpt lat="43.62846" lon="6.26569">
        <ele>743.72</ele>
        <time>2015-10-17T09:50:43Z</time>
      </trkpt>
      <trkpt lat="43.62852" lon="6.26566">
        <ele>743.24</ele>
        <time>2015-10-17T09:50:47Z</time>
      </trkpt>
      <trkpt lat="43.62865" lon="6.26552">
        <ele>742.28</ele>
        <time>2015-10-17T09:50:59Z</time>
      </trkpt>
      <trkpt lat="43.62857" lon="6.26531">
        <ele>741.79</ele>
        <time>2015-10-17T09:51:08Z</time>
      </trkpt>
      <trkpt lat="43.62851" lon="6.26527">
        <ele>741.79</ele>
        <time>2015-10-17T09:51:12Z</time>
      </trkpt>
      <trkpt lat="43.6284" lon="6.26536">
        <ele>741.79</ele>
        <time>2015-10-17T09:51:20Z</time>
      </trkpt>
      <trkpt lat="43.62836" lon="6.26542">
        <ele>742.76</ele>
        <time>2015-10-17T09:51:24Z</time>
      </trkpt>
      <trkpt lat="43.62834" lon="6.2655">
        <ele>743.24</ele>
        <time>2015-10-17T09:51:28Z</time>
      </trkpt>
      <trkpt lat="43.62831" lon="6.26564">
        <ele>743.72</ele>
        <time>2015-10-17T09:51:35Z</time>
      </trkpt>
      <trkpt lat="43.62838" lon="6.26569">
        <ele>743.72</ele>
        <time>2015-10-17T09:51:48Z</time>
      </trkpt>
      <trkpt lat="43.62856" lon="6.26565">
        <ele>743.24</ele>
        <time>2015-10-17T09:52:02Z</time>
      </trkpt>
      <trkpt lat="43.62861" lon="6.26547">
        <ele>742.76</ele>
        <time>2015-10-17T09:52:13Z</time>
      </trkpt>
      <trkpt lat="43.62853" lon="6.26528">
        <ele>741.79</ele>
        <time>2015-10-17T09:52:22Z</time>
      </trkpt>
      <trkpt lat="43.62843" lon="6.26537">
        <ele>742.28</ele>
        <time>2015-10-17T09:52:30Z</time>
      </trkpt>
      <trkpt lat="43.62831" lon="6.26555">
        <ele>743.24</ele>
        <time>2015-10-17T09:52:41Z</time>
      </trkpt>
      <trkpt lat="43.62832" lon="6.26564">
        <ele>743.72</ele>
        <time>2015-10-17T09:52:49Z</time>
      </trkpt>
      <trkpt lat="43.62835" lon="6.26566">
        <ele>743.72</ele>
        <time>2015-10-17T09:52:53Z</time>
      </trkpt>
      <trkpt lat="43.62835" lon="6.2657">
        <ele>744.2</ele>
        <time>2015-10-17T09:52:55Z</time>
      </trkpt>
      <trkpt lat="43.62832" lon="6.26573">
        <ele>744.2</ele>
        <time>2015-10-17T09:52:58Z</time>
      </trkpt>
      <trkpt lat="43.62826" lon="6.26571">
        <ele>744.68</ele>
        <time>2015-10-17T09:53:02Z</time>
      </trkpt>
      <trkpt lat="43.62824" lon="6.26569">
        <ele>744.2</ele>
        <time>2015-10-17T09:53:04Z</time>
      </trkpt>
      <trkpt lat="43.62819" lon="6.26575">
        <ele>744.68</ele>
        <time>2015-10-17T09:53:10Z</time>
      </trkpt>
      <trkpt lat="43.62802" lon="6.26581">
        <ele>745.64</ele>
        <time>2015-10-17T09:53:21Z</time>
      </trkpt>
      <trkpt lat="43.628" lon="6.26578">
        <ele>746.12</ele>
        <time>2015-10-17T09:53:27Z</time>
      </trkpt>
      <trkpt lat="43.62799" lon="6.26582">
        <ele>745.64</ele>
        <time>2015-10-17T09:53:32Z</time>
      </trkpt>
      <trkpt lat="43.62792" lon="6.26584">
        <ele>746.12</ele>
        <time>2015-10-17T09:53:42Z</time>
      </trkpt>
      <trkpt lat="43.62793" lon="6.26582">
        <ele>746.12</ele>
        <time>2015-10-17T09:53:53Z</time>
      </trkpt>
      <trkpt lat="43.62791" lon="6.26582">
        <ele>746.6</ele>
        <time>2015-10-17T09:53:56Z</time>
      </trkpt>
      <trkpt lat="43.62784" lon="6.26583">
        <ele>746.6</ele>
        <time>2015-10-17T09:54:06Z</time>
      </trkpt>
      <trkpt lat="43.62784" lon="6.26583">
        <ele>746.6</ele>
        <time>2015-10-17T09:54:07Z</time>
      </trkpt>
      <trkpt lat="43.62778" lon="6.26598">
        <ele>747.08</ele>
        <time>2015-10-17T09:54:18Z</time>
      </trkpt>
      <trkpt lat="43.62779" lon="6.26601">
        <ele>747.08</ele>
        <time>2015-10-17T09:54:24Z</time>
      </trkpt>
      <trkpt lat="43.62783" lon="6.26594">
        <ele>747.08</ele>
        <time>2015-10-17T09:54:29Z</time>
      </trkpt>
      <trkpt lat="43.62798" lon="6.26584">
        <ele>746.12</ele>
        <time>2015-10-17T09:54:40Z</time>
      </trkpt>
      <trkpt lat="43.62812" lon="6.26574">
        <ele>745.64</ele>
        <time>2015-10-17T09:54:51Z</time>
      </trkpt>
      <trkpt lat="43.62815" lon="6.26574">
        <ele>745.64</ele>
        <time>2015-10-17T09:54:53Z</time>
      </trkpt>
      <trkpt lat="43.62817" lon="6.26573">
        <ele>745.64</ele>
        <time>2015-10-17T09:55:05Z</time>
      </trkpt>
      <trkpt lat="43.62817" lon="6.26573">
        <ele>745.64</ele>
        <time>2015-10-17T09:55:22Z</time>
      </trkpt>
      <trkpt lat="43.62817" lon="6.26573">
        <ele>746.12</ele>
        <time>2015-10-17T09:55:41Z</time>
      </trkpt>
      <trkpt lat="43.62815" lon="6.26574">
        <ele>746.12</ele>
        <time>2015-10-17T09:55:59Z</time>
      </trkpt>
      <trkpt lat="43.62814" lon="6.26574">
        <ele>746.12</ele>
        <time>2015-10-17T09:56:01Z</time>
      </trkpt>
      <trkpt lat="43.62813" lon="6.26577">
        <ele>746.12</ele>
        <time>2015-10-17T09:56:12Z</time>
      </trkpt>
      <trkpt lat="43.6281" lon="6.26579">
        <ele>746.6</ele>
        <time>2015-10-17T09:56:29Z</time>
      </trkpt>
      <trkpt lat="43.62809" lon="6.26576">
        <ele>746.12</ele>
        <time>2015-10-17T09:56:37Z</time>
      </trkpt>
      <trkpt lat="43.62808" lon="6.26578">
        <ele>746.6</ele>
        <time>2015-10-17T09:56:43Z</time>
      </trkpt>
      <trkpt lat="43.62803" lon="6.26584">
        <ele>747.08</ele>
        <time>2015-10-17T09:56:54Z</time>
      </trkpt>
      <trkpt lat="43.62803" lon="6.26584">
        <ele>747.08</ele>
        <time>2015-10-17T09:56:55Z</time>
      </trkpt>
      <trkpt lat="43.628" lon="6.26587">
        <ele>747.08</ele>
        <time>2015-10-17T09:57:00Z</time>
      </trkpt>
      <trkpt lat="43.62806" lon="6.26589">
        <ele>747.08</ele>
        <time>2015-10-17T09:57:08Z</time>
      </trkpt>
      <trkpt lat="43.62801" lon="6.2659">
        <ele>747.56</ele>
        <time>2015-10-17T09:57:18Z</time>
      </trkpt>
      <trkpt lat="43.628" lon="6.26584">
        <ele>747.56</ele>
        <time>2015-10-17T09:57:29Z</time>
      </trkpt>
      <trkpt lat="43.62797" lon="6.26585">
        <ele>747.56</ele>
        <time>2015-10-17T09:57:40Z</time>
      </trkpt>
      <trkpt lat="43.62792" lon="6.26587">
        <ele>748.04</ele>
        <time>2015-10-17T09:57:48Z</time>
      </trkpt>
      <trkpt lat="43.62787" lon="6.26585">
        <ele>748.52</ele>
        <time>2015-10-17T09:58:00Z</time>
      </trkpt>
      <trkpt lat="43.62789" lon="6.26585">
        <ele>748.04</ele>
        <time>2015-10-17T09:58:13Z</time>
      </trkpt>
      <trkpt lat="43.62789" lon="6.26585">
        <ele>748.04</ele>
        <time>2015-10-17T09:58:15Z</time>
      </trkpt>
      <trkpt lat="43.62789" lon="6.2659">
        <ele>748.52</ele>
        <time>2015-10-17T09:58:26Z</time>
      </trkpt>
      <trkpt lat="43.62786" lon="6.26587">
        <ele>748.52</ele>
        <time>2015-10-17T09:58:39Z</time>
      </trkpt>
      <trkpt lat="43.62786" lon="6.26589">
        <ele>748.04</ele>
        <time>2015-10-17T09:58:49Z</time>
      </trkpt>
      <trkpt lat="43.62786" lon="6.26588">
        <ele>748.04</ele>
        <time>2015-10-17T09:58:53Z</time>
      </trkpt>
      <trkpt lat="43.62793" lon="6.26587">
        <ele>747.56</ele>
        <time>2015-10-17T09:59:09Z</time>
      </trkpt>
      <trkpt lat="43.62794" lon="6.26586">
        <ele>748.04</ele>
        <time>2015-10-17T09:59:22Z</time>
      </trkpt>
      <trkpt lat="43.62795" lon="6.26587">
        <ele>747.56</ele>
        <time>2015-10-17T09:59:33Z</time>
      </trkpt>
      <trkpt lat="43.62795" lon="6.26586">
        <ele>748.04</ele>
        <time>2015-10-17T09:59:49Z</time>
      </trkpt>
      <trkpt lat="43.62793" lon="6.26584">
        <ele>748.04</ele>
        <time>2015-10-17T10:00:03Z</time>
      </trkpt>
      <trkpt lat="43.62792" lon="6.26584">
        <ele>748.04</ele>
        <time>2015-10-17T10:00:18Z</time>
      </trkpt>
      <trkpt lat="43.62786" lon="6.26586">
        <ele>748.52</ele>
        <time>2015-10-17T10:00:33Z</time>
      </trkpt>
      <trkpt lat="43.62784" lon="6.26586">
        <ele>748.52</ele>
        <time>2015-10-17T10:00:47Z</time>
      </trkpt>
      <trkpt lat="43.62783" lon="6.26586">
        <ele>748.52</ele>
        <time>2015-10-17T10:01:01Z</time>
      </trkpt>
      <trkpt lat="43.62782" lon="6.26587">
        <ele>748.52</ele>
        <time>2015-10-17T10:01:23Z</time>
      </trkpt>
      <trkpt lat="43.62782" lon="6.26588">
        <ele>749</ele>
        <time>2015-10-17T10:01:46Z</time>
      </trkpt>
      <trkpt lat="43.62782" lon="6.26587">
        <ele>749</ele>
        <time>2015-10-17T10:01:58Z</time>
      </trkpt>
      <trkpt lat="43.62783" lon="6.26587">
        <ele>749</ele>
        <time>2015-10-17T10:02:10Z</time>
      </trkpt>
      <trkpt lat="43.62782" lon="6.26587">
        <ele>749</ele>
        <time>2015-10-17T10:02:27Z</time>
      </trkpt>
      <trkpt lat="43.6278" lon="6.26591">
        <ele>749</ele>
        <time>2015-10-17T10:02:40Z</time>
      </trkpt>
      <trkpt lat="43.62776" lon="6.26602">
        <ele>749.49</ele>
        <time>2015-10-17T10:02:55Z</time>
      </trkpt>
      <trkpt lat="43.62773" lon="6.26608">
        <ele>749.49</ele>
        <time>2015-10-17T10:03:06Z</time>
      </trkpt>
      <trkpt lat="43.6276" lon="6.26621">
        <ele>749.97</ele>
        <time>2015-10-17T10:03:23Z</time>
      </trkpt>
      <trkpt lat="43.62754" lon="6.2662">
        <ele>749.97</ele>
        <time>2015-10-17T10:03:36Z</time>
      </trkpt>
      <trkpt lat="43.62752" lon="6.26622">
        <ele>750.45</ele>
        <time>2015-10-17T10:03:47Z</time>
      </trkpt>
      <trkpt lat="43.62752" lon="6.26621">
        <ele>749.97</ele>
        <time>2015-10-17T10:04:04Z</time>
      </trkpt>
      <trkpt lat="43.62751" lon="6.26622">
        <ele>750.45</ele>
        <time>2015-10-17T10:04:19Z</time>
      </trkpt>
      <trkpt lat="43.62752" lon="6.26621">
        <ele>750.45</ele>
        <time>2015-10-17T10:04:37Z</time>
      </trkpt>
      <trkpt lat="43.6275" lon="6.26618">
        <ele>750.45</ele>
        <time>2015-10-17T10:04:54Z</time>
      </trkpt>
      <trkpt lat="43.62748" lon="6.26616">
        <ele>749.97</ele>
        <time>2015-10-17T10:05:10Z</time>
      </trkpt>
      <trkpt lat="43.62746" lon="6.26613">
        <ele>749.97</ele>
        <time>2015-10-17T10:05:22Z</time>
      </trkpt>
      <trkpt lat="43.62745" lon="6.26612">
        <ele>749.97</ele>
        <time>2015-10-17T10:05:38Z</time>
      </trkpt>
      <trkpt lat="43.62745" lon="6.26611">
        <ele>749.97</ele>
        <time>2015-10-17T10:05:42Z</time>
      </trkpt>
      <trkpt lat="43.62745" lon="6.26605">
        <ele>749.97</ele>
        <time>2015-10-17T10:05:47Z</time>
      </trkpt>
      <trkpt lat="43.62747" lon="6.26597">
        <ele>749.49</ele>
        <time>2015-10-17T10:06:01Z</time>
      </trkpt>
      <trkpt lat="43.62744" lon="6.26594">
        <ele>749.49</ele>
        <time>2015-10-17T10:06:17Z</time>
      </trkpt>
      <trkpt lat="43.62742" lon="6.26592">
        <ele>749.49</ele>
        <time>2015-10-17T10:06:27Z</time>
      </trkpt>
      <trkpt lat="43.62736" lon="6.26587">
        <ele>749.49</ele>
        <time>2015-10-17T10:06:40Z</time>
      </trkpt>
      <trkpt lat="43.62735" lon="6.26588">
        <ele>749</ele>
        <time>2015-10-17T10:06:56Z</time>
      </trkpt>
      <trkpt lat="43.62736" lon="6.26589">
        <ele>749.49</ele>
        <time>2015-10-17T10:07:09Z</time>
      </trkpt>
      <trkpt lat="43.62736" lon="6.26591">
        <ele>749.49</ele>
        <time>2015-10-17T10:07:10Z</time>
      </trkpt>
      <trkpt lat="43.62742" lon="6.26597">
        <ele>749.49</ele>
        <time>2015-10-17T10:07:21Z</time>
      </trkpt>
      <trkpt lat="43.62747" lon="6.26599">
        <ele>749.49</ele>
        <time>2015-10-17T10:07:26Z</time>
      </trkpt>
      <trkpt lat="43.62751" lon="6.26602">
        <ele>749.49</ele>
        <time>2015-10-17T10:07:30Z</time>
      </trkpt>
      <trkpt lat="43.6277" lon="6.26601">
        <ele>749.97</ele>
        <time>2015-10-17T10:07:45Z</time>
      </trkpt>
      <trkpt lat="43.62771" lon="6.266">
        <ele>749.97</ele>
        <time>2015-10-17T10:07:46Z</time>
      </trkpt>
      <trkpt lat="43.62777" lon="6.26594">
        <ele>749.97</ele>
        <time>2015-10-17T10:07:52Z</time>
      </trkpt>
      <trkpt lat="43.6278" lon="6.26592">
        <ele>749.49</ele>
        <time>2015-10-17T10:07:54Z</time>
      </trkpt>
      <trkpt lat="43.62782" lon="6.2659">
        <ele>749.97</ele>
        <time>2015-10-17T10:07:56Z</time>
      </trkpt>
      <trkpt lat="43.62788" lon="6.26588">
        <ele>749.49</ele>
        <time>2015-10-17T10:08:09Z</time>
      </trkpt>
      <trkpt lat="43.62791" lon="6.26586">
        <ele>749.49</ele>
        <time>2015-10-17T10:08:27Z</time>
      </trkpt>
      <trkpt lat="43.62799" lon="6.26583">
        <ele>749</ele>
        <time>2015-10-17T10:08:39Z</time>
      </trkpt>
      <trkpt lat="43.62816" lon="6.26576">
        <ele>748.04</ele>
        <time>2015-10-17T10:08:55Z</time>
      </trkpt>
      <trkpt lat="43.62817" lon="6.26576">
        <ele>748.52</ele>
        <time>2015-10-17T10:09:14Z</time>
      </trkpt>
      <trkpt lat="43.62817" lon="6.26576">
        <ele>748.52</ele>
        <time>2015-10-17T10:09:27Z</time>
      </trkpt>
      <trkpt lat="43.62817" lon="6.26577">
        <ele>748.52</ele>
        <time>2015-10-17T10:09:44Z</time>
      </trkpt>
      <trkpt lat="43.62817" lon="6.26577">
        <ele>749</ele>
        <time>2015-10-17T10:10:02Z</time>
      </trkpt>
      <trkpt lat="43.62817" lon="6.2658">
        <ele>749</ele>
        <time>2015-10-17T10:10:21Z</time>
      </trkpt>
      <trkpt lat="43.62817" lon="6.26583">
        <ele>749.49</ele>
        <time>2015-10-17T10:10:35Z</time>
      </trkpt>
      <trkpt lat="43.62815" lon="6.26584">
        <ele>749</ele>
        <time>2015-10-17T10:10:48Z</time>
      </trkpt>
      <trkpt lat="43.62815" lon="6.26584">
        <ele>749.49</ele>
        <time>2015-10-17T10:11:03Z</time>
      </trkpt>
      <trkpt lat="43.62814" lon="6.26585">
        <ele>749.49</ele>
        <time>2015-10-17T10:11:21Z</time>
      </trkpt>
      <trkpt lat="43.62813" lon="6.26584">
        <ele>750.45</ele>
        <time>2015-10-17T10:11:34Z</time>
      </trkpt>
      <trkpt lat="43.62818" lon="6.2658">
        <ele>749.97</ele>
        <time>2015-10-17T10:11:44Z</time>
      </trkpt>
      <trkpt lat="43.62821" lon="6.26583">
        <ele>749.97</ele>
        <time>2015-10-17T10:11:49Z</time>
      </trkpt>
      <trkpt lat="43.62825" lon="6.26591">
        <ele>750.45</ele>
        <time>2015-10-17T10:11:54Z</time>
      </trkpt>
      <trkpt lat="43.62843" lon="6.26589">
        <ele>749.97</ele>
        <time>2015-10-17T10:12:07Z</time>
      </trkpt>
      <trkpt lat="43.62844" lon="6.26588">
        <ele>749.97</ele>
        <time>2015-10-17T10:12:08Z</time>
      </trkpt>
      <trkpt lat="43.62847" lon="6.26587">
        <ele>749.49</ele>
        <time>2015-10-17T10:12:10Z</time>
      </trkpt>
      <trkpt lat="43.62852" lon="6.26591">
        <ele>749.49</ele>
        <time>2015-10-17T10:12:14Z</time>
      </trkpt>
      <trkpt lat="43.62864" lon="6.26591">
        <ele>749</ele>
        <time>2015-10-17T10:12:21Z</time>
      </trkpt>
      <trkpt lat="43.62866" lon="6.26593">
        <ele>749</ele>
        <time>2015-10-17T10:12:23Z</time>
      </trkpt>
      <trkpt lat="43.62867" lon="6.26601">
        <ele>749.49</ele>
        <time>2015-10-17T10:12:27Z</time>
      </trkpt>
      <trkpt lat="43.62865" lon="6.26623">
        <ele>749.97</ele>
        <time>2015-10-17T10:12:40Z</time>
      </trkpt>
      <trkpt lat="43.62856" lon="6.26641">
        <ele>750.93</ele>
        <time>2015-10-17T10:12:52Z</time>
      </trkpt>
      <trkpt lat="43.62853" lon="6.26667">
        <ele>751.41</ele>
        <time>2015-10-17T10:13:05Z</time>
      </trkpt>
      <trkpt lat="43.62853" lon="6.26669">
        <ele>751.41</ele>
        <time>2015-10-17T10:13:06Z</time>
      </trkpt>
      <trkpt lat="43.6286" lon="6.267">
        <ele>752.37</ele>
        <time>2015-10-17T10:13:20Z</time>
      </trkpt>
      <trkpt lat="43.62866" lon="6.26729">
        <ele>753.81</ele>
        <time>2015-10-17T10:13:34Z</time>
      </trkpt>
      <trkpt lat="43.62872" lon="6.26762">
        <ele>754.77</ele>
        <time>2015-10-17T10:13:49Z</time>
      </trkpt>
      <trkpt lat="43.62868" lon="6.26784">
        <ele>755.25</ele>
        <time>2015-10-17T10:13:58Z</time>
      </trkpt>
      <trkpt lat="43.62859" lon="6.26817">
        <ele>757.18</ele>
        <time>2015-10-17T10:14:13Z</time>
      </trkpt>
      <trkpt lat="43.62847" lon="6.26842">
        <ele>759.1</ele>
        <time>2015-10-17T10:14:27Z</time>
      </trkpt>
      <trkpt lat="43.62841" lon="6.26876">
        <ele>761.02</ele>
        <time>2015-10-17T10:14:41Z</time>
      </trkpt>
      <trkpt lat="43.62847" lon="6.26909">
        <ele>763.9</ele>
        <time>2015-10-17T10:14:54Z</time>
      </trkpt>
      <trkpt lat="43.62865" lon="6.26942">
        <ele>765.35</ele>
        <time>2015-10-17T10:15:04Z</time>
      </trkpt>
      <trkpt lat="43.62884" lon="6.26984">
        <ele>768.23</ele>
        <time>2015-10-17T10:15:14Z</time>
      </trkpt>
      <trkpt lat="43.62885" lon="6.26989">
        <ele>768.71</ele>
        <time>2015-10-17T10:15:15Z</time>
      </trkpt>
      <trkpt lat="43.62885" lon="6.26995">
        <ele>768.71</ele>
        <time>2015-10-17T10:15:16Z</time>
      </trkpt>
      <trkpt lat="43.62885" lon="6.27001">
        <ele>768.71</ele>
        <time>2015-10-17T10:15:17Z</time>
      </trkpt>
      <trkpt lat="43.62884" lon="6.27008">
        <ele>769.67</ele>
        <time>2015-10-17T10:15:18Z</time>
      </trkpt>
      <trkpt lat="43.62885" lon="6.27015">
        <ele>769.67</ele>
        <time>2015-10-17T10:15:19Z</time>
      </trkpt>
      <trkpt lat="43.62886" lon="6.27023">
        <ele>770.15</ele>
        <time>2015-10-17T10:15:20Z</time>
      </trkpt>
      <trkpt lat="43.62887" lon="6.27032">
        <ele>770.63</ele>
        <time>2015-10-17T10:15:21Z</time>
      </trkpt>
      <trkpt lat="43.62894" lon="6.27065">
        <ele>773.52</ele>
        <time>2015-10-17T10:15:25Z</time>
      </trkpt>
      <trkpt lat="43.62898" lon="6.27083">
        <ele>774.48</ele>
        <time>2015-10-17T10:15:27Z</time>
      </trkpt>
      <trkpt lat="43.62909" lon="6.27129">
        <ele>778.32</ele>
        <time>2015-10-17T10:15:32Z</time>
      </trkpt>
      <trkpt lat="43.62912" lon="6.27149">
        <ele>778.81</ele>
        <time>2015-10-17T10:15:34Z</time>
      </trkpt>
      <trkpt lat="43.62917" lon="6.27169">
        <ele>780.73</ele>
        <time>2015-10-17T10:15:36Z</time>
      </trkpt>
      <trkpt lat="43.62922" lon="6.27189">
        <ele>782.65</ele>
        <time>2015-10-17T10:15:38Z</time>
      </trkpt>
      <trkpt lat="43.62924" lon="6.272">
        <ele>782.65</ele>
        <time>2015-10-17T10:15:39Z</time>
      </trkpt>
      <trkpt lat="43.62925" lon="6.2721">
        <ele>782.17</ele>
        <time>2015-10-17T10:15:40Z</time>
      </trkpt>
      <trkpt lat="43.62925" lon="6.27221">
        <ele>786.5</ele>
        <time>2015-10-17T10:15:41Z</time>
      </trkpt>
      <trkpt lat="43.62924" lon="6.2723">
        <ele>786.02</ele>
        <time>2015-10-17T10:15:42Z</time>
      </trkpt>
      <trkpt lat="43.62923" lon="6.27249">
        <ele>788.42</ele>
        <time>2015-10-17T10:15:44Z</time>
      </trkpt>
      <trkpt lat="43.62924" lon="6.27258">
        <ele>788.9</ele>
        <time>2015-10-17T10:15:45Z</time>
      </trkpt>
      <trkpt lat="43.62925" lon="6.27266">
        <ele>788.9</ele>
        <time>2015-10-17T10:15:46Z</time>
      </trkpt>
      <trkpt lat="43.62927" lon="6.27273">
        <ele>789.38</ele>
        <time>2015-10-17T10:15:47Z</time>
      </trkpt>
      <trkpt lat="43.62929" lon="6.2728">
        <ele>789.38</ele>
        <time>2015-10-17T10:15:48Z</time>
      </trkpt>
      <trkpt lat="43.62936" lon="6.273">
        <ele>792.26</ele>
        <time>2015-10-17T10:15:51Z</time>
      </trkpt>
      <trkpt lat="43.62937" lon="6.27306">
        <ele>792.74</ele>
        <time>2015-10-17T10:15:52Z</time>
      </trkpt>
      <trkpt lat="43.62937" lon="6.27313">
        <ele>793.71</ele>
        <time>2015-10-17T10:15:53Z</time>
      </trkpt>
      <trkpt lat="43.62937" lon="6.27321">
        <ele>795.15</ele>
        <time>2015-10-17T10:15:54Z</time>
      </trkpt>
      <trkpt lat="43.62936" lon="6.27345">
        <ele>798.99</ele>
        <time>2015-10-17T10:15:57Z</time>
      </trkpt>
      <trkpt lat="43.62936" lon="6.27353">
        <ele>799.95</ele>
        <time>2015-10-17T10:15:58Z</time>
      </trkpt>
      <trkpt lat="43.62936" lon="6.27361">
        <ele>800.92</ele>
        <time>2015-10-17T10:15:59Z</time>
      </trkpt>
      <trkpt lat="43.62937" lon="6.27376">
        <ele>801.88</ele>
        <time>2015-10-17T10:16:01Z</time>
      </trkpt>
      <trkpt lat="43.62937" lon="6.27384">
        <ele>803.32</ele>
        <time>2015-10-17T10:16:02Z</time>
      </trkpt>
      <trkpt lat="43.62936" lon="6.27391">
        <ele>803.32</ele>
        <time>2015-10-17T10:16:03Z</time>
      </trkpt>
      <trkpt lat="43.62934" lon="6.27399">
        <ele>804.28</ele>
        <time>2015-10-17T10:16:04Z</time>
      </trkpt>
      <trkpt lat="43.62933" lon="6.27406">
        <ele>805.24</ele>
        <time>2015-10-17T10:16:05Z</time>
      </trkpt>
      <trkpt lat="43.62927" lon="6.2743">
        <ele>809.09</ele>
        <time>2015-10-17T10:16:08Z</time>
      </trkpt>
      <trkpt lat="43.62922" lon="6.27452">
        <ele>812.93</ele>
        <time>2015-10-17T10:16:11Z</time>
      </trkpt>
      <trkpt lat="43.6292" lon="6.27459">
        <ele>813.41</ele>
        <time>2015-10-17T10:16:12Z</time>
      </trkpt>
      <trkpt lat="43.62918" lon="6.27465">
        <ele>814.37</ele>
        <time>2015-10-17T10:16:13Z</time>
      </trkpt>
      <trkpt lat="43.6291" lon="6.27483">
        <ele>816.78</ele>
        <time>2015-10-17T10:16:16Z</time>
      </trkpt>
      <trkpt lat="43.62908" lon="6.27489">
        <ele>817.74</ele>
        <time>2015-10-17T10:16:17Z</time>
      </trkpt>
      <trkpt lat="43.62901" lon="6.27512">
        <ele>821.1</ele>
        <time>2015-10-17T10:16:21Z</time>
      </trkpt>
      <trkpt lat="43.62895" lon="6.2753">
        <ele>822.55</ele>
        <time>2015-10-17T10:16:24Z</time>
      </trkpt>
      <trkpt lat="43.62891" lon="6.27554">
        <ele>826.39</ele>
        <time>2015-10-17T10:16:28Z</time>
      </trkpt>
      <trkpt lat="43.6289" lon="6.27558">
        <ele>826.39</ele>
        <time>2015-10-17T10:16:29Z</time>
      </trkpt>
      <trkpt lat="43.62883" lon="6.27585">
        <ele>829.27</ele>
        <time>2015-10-17T10:16:39Z</time>
      </trkpt>
      <trkpt lat="43.62876" lon="6.27613">
        <ele>832.64</ele>
        <time>2015-10-17T10:16:52Z</time>
      </trkpt>
      <trkpt lat="43.62876" lon="6.27616">
        <ele>833.12</ele>
        <time>2015-10-17T10:16:53Z</time>
      </trkpt>
      <trkpt lat="43.62869" lon="6.27639">
        <ele>836.48</ele>
        <time>2015-10-17T10:17:01Z</time>
      </trkpt>
      <trkpt lat="43.62863" lon="6.27659">
        <ele>839.85</ele>
        <time>2015-10-17T10:17:07Z</time>
      </trkpt>
      <trkpt lat="43.62861" lon="6.27681">
        <ele>843.69</ele>
        <time>2015-10-17T10:17:13Z</time>
      </trkpt>
      <trkpt lat="43.62862" lon="6.27704">
        <ele>845.14</ele>
        <time>2015-10-17T10:17:17Z</time>
      </trkpt>
      <trkpt lat="43.62862" lon="6.27711">
        <ele>846.58</ele>
        <time>2015-10-17T10:17:18Z</time>
      </trkpt>
      <trkpt lat="43.62861" lon="6.27719">
        <ele>847.06</ele>
        <time>2015-10-17T10:17:19Z</time>
      </trkpt>
      <trkpt lat="43.62858" lon="6.27735">
        <ele>850.42</ele>
        <time>2015-10-17T10:17:21Z</time>
      </trkpt>
      <trkpt lat="43.62856" lon="6.27742">
        <ele>852.35</ele>
        <time>2015-10-17T10:17:22Z</time>
      </trkpt>
      <trkpt lat="43.6285" lon="6.27755">
        <ele>854.27</ele>
        <time>2015-10-17T10:17:24Z</time>
      </trkpt>
      <trkpt lat="43.62844" lon="6.27768">
        <ele>855.23</ele>
        <time>2015-10-17T10:17:26Z</time>
      </trkpt>
      <trkpt lat="43.62839" lon="6.27786">
        <ele>857.63</ele>
        <time>2015-10-17T10:17:29Z</time>
      </trkpt>
      <trkpt lat="43.62837" lon="6.27791">
        <ele>857.63</ele>
        <time>2015-10-17T10:17:30Z</time>
      </trkpt>
      <trkpt lat="43.62835" lon="6.27798">
        <ele>858.11</ele>
        <time>2015-10-17T10:17:31Z</time>
      </trkpt>
      <trkpt lat="43.62832" lon="6.27804">
        <ele>859.08</ele>
        <time>2015-10-17T10:17:32Z</time>
      </trkpt>
      <trkpt lat="43.6283" lon="6.2781">
        <ele>859.56</ele>
        <time>2015-10-17T10:17:33Z</time>
      </trkpt>
      <trkpt lat="43.62827" lon="6.27817">
        <ele>860.52</ele>
        <time>2015-10-17T10:17:34Z</time>
      </trkpt>
      <trkpt lat="43.62823" lon="6.27823">
        <ele>861</ele>
        <time>2015-10-17T10:17:35Z</time>
      </trkpt>
      <trkpt lat="43.62819" lon="6.2783">
        <ele>862.92</ele>
        <time>2015-10-17T10:17:36Z</time>
      </trkpt>
      <trkpt lat="43.62814" lon="6.27837">
        <ele>863.4</ele>
        <time>2015-10-17T10:17:37Z</time>
      </trkpt>
      <trkpt lat="43.62806" lon="6.2785">
        <ele>863.88</ele>
        <time>2015-10-17T10:17:39Z</time>
      </trkpt>
      <trkpt lat="43.62802" lon="6.27859">
        <ele>864.84</ele>
        <time>2015-10-17T10:17:40Z</time>
      </trkpt>
      <trkpt lat="43.62791" lon="6.27886">
        <ele>867.73</ele>
        <time>2015-10-17T10:17:43Z</time>
      </trkpt>
      <trkpt lat="43.62787" lon="6.27904">
        <ele>870.61</ele>
        <time>2015-10-17T10:17:45Z</time>
      </trkpt>
      <trkpt lat="43.62787" lon="6.27911">
        <ele>872.05</ele>
        <time>2015-10-17T10:17:46Z</time>
      </trkpt>
      <trkpt lat="43.62788" lon="6.27919">
        <ele>873.5</ele>
        <time>2015-10-17T10:17:47Z</time>
      </trkpt>
      <trkpt lat="43.62789" lon="6.27925">
        <ele>874.94</ele>
        <time>2015-10-17T10:17:48Z</time>
      </trkpt>
      <trkpt lat="43.6279" lon="6.27932">
        <ele>875.9</ele>
        <time>2015-10-17T10:17:49Z</time>
      </trkpt>
      <trkpt lat="43.62791" lon="6.27938">
        <ele>878.78</ele>
        <time>2015-10-17T10:17:50Z</time>
      </trkpt>
      <trkpt lat="43.62792" lon="6.27945">
        <ele>879.26</ele>
        <time>2015-10-17T10:17:51Z</time>
      </trkpt>
      <trkpt lat="43.62791" lon="6.27951">
        <ele>880.22</ele>
        <time>2015-10-17T10:17:52Z</time>
      </trkpt>
      <trkpt lat="43.6279" lon="6.27957">
        <ele>880.71</ele>
        <time>2015-10-17T10:17:53Z</time>
      </trkpt>
      <trkpt lat="43.62783" lon="6.2798">
        <ele>883.59</ele>
        <time>2015-10-17T10:17:57Z</time>
      </trkpt>
      <trkpt lat="43.6278" lon="6.27984">
        <ele>884.07</ele>
        <time>2015-10-17T10:17:58Z</time>
      </trkpt>
      <trkpt lat="43.62778" lon="6.27987">
        <ele>883.59</ele>
        <time>2015-10-17T10:17:59Z</time>
      </trkpt>
      <trkpt lat="43.62775" lon="6.2799">
        <ele>884.55</ele>
        <time>2015-10-17T10:18:00Z</time>
      </trkpt>
      <trkpt lat="43.62771" lon="6.27993">
        <ele>884.55</ele>
        <time>2015-10-17T10:18:01Z</time>
      </trkpt>
      <trkpt lat="43.62747" lon="6.28006">
        <ele>885.03</ele>
        <time>2015-10-17T10:18:08Z</time>
      </trkpt>
      <trkpt lat="43.62744" lon="6.28005">
        <ele>885.03</ele>
        <time>2015-10-17T10:18:09Z</time>
      </trkpt>
      <trkpt lat="43.62742" lon="6.28003">
        <ele>885.51</ele>
        <time>2015-10-17T10:18:10Z</time>
      </trkpt>
      <trkpt lat="43.62738" lon="6.27998">
        <ele>885.03</ele>
        <time>2015-10-17T10:18:16Z</time>
      </trkpt>
      <trkpt lat="43.62737" lon="6.27997">
        <ele>884.55</ele>
        <time>2015-10-17T10:18:17Z</time>
      </trkpt>
      <trkpt lat="43.62736" lon="6.27996">
        <ele>885.03</ele>
        <time>2015-10-17T10:18:18Z</time>
      </trkpt>
      <trkpt lat="43.62735" lon="6.27996">
        <ele>885.03</ele>
        <time>2015-10-17T10:18:19Z</time>
      </trkpt>
      <trkpt lat="43.62733" lon="6.27996">
        <ele>884.55</ele>
        <time>2015-10-17T10:18:20Z</time>
      </trkpt>
      <trkpt lat="43.62732" lon="6.27997">
        <ele>884.55</ele>
        <time>2015-10-17T10:18:21Z</time>
      </trkpt>
      <trkpt lat="43.62732" lon="6.27998">
        <ele>885.03</ele>
        <time>2015-10-17T10:18:22Z</time>
      </trkpt>
      <trkpt lat="43.62735" lon="6.28003">
        <ele>885.51</ele>
        <time>2015-10-17T10:18:32Z</time>
      </trkpt>
      <trkpt lat="43.62735" lon="6.28003">
        <ele>885.51</ele>
        <time>2015-10-17T10:18:33Z</time>
      </trkpt>
      <trkpt lat="43.62731" lon="6.28001">
        <ele>885.03</ele>
        <time>2015-10-17T10:18:38Z</time>
      </trkpt>
      <trkpt lat="43.62737" lon="6.28">
        <ele>885.03</ele>
        <time>2015-10-17T10:18:49Z</time>
      </trkpt>
      <trkpt lat="43.62738" lon="6.28002">
        <ele>884.55</ele>
        <time>2015-10-17T10:19:07Z</time>
      </trkpt>
      <trkpt lat="43.62739" lon="6.28005">
        <ele>885.99</ele>
        <time>2015-10-17T10:19:14Z</time>
      </trkpt>
      <trkpt lat="43.62738" lon="6.28006">
        <ele>885.03</ele>
        <time>2015-10-17T10:19:22Z</time>
      </trkpt>
      <trkpt lat="43.62738" lon="6.28006">
        <ele>885.51</ele>
        <time>2015-10-17T10:19:27Z</time>
      </trkpt>
      <trkpt lat="43.62737" lon="6.28006">
        <ele>885.51</ele>
        <time>2015-10-17T10:19:33Z</time>
      </trkpt>
      <trkpt lat="43.62738" lon="6.28001">
        <ele>885.03</ele>
        <time>2015-10-17T10:19:38Z</time>
      </trkpt>
      <trkpt lat="43.62738" lon="6.28003">
        <ele>885.03</ele>
        <time>2015-10-17T10:19:45Z</time>
      </trkpt>
      <trkpt lat="43.62737" lon="6.28002">
        <ele>885.03</ele>
        <time>2015-10-17T10:19:47Z</time>
      </trkpt>
      <trkpt lat="43.62737" lon="6.27999">
        <ele>884.55</ele>
        <time>2015-10-17T10:19:51Z</time>
      </trkpt>
      <trkpt lat="43.62737" lon="6.28001">
        <ele>884.07</ele>
        <time>2015-10-17T10:19:55Z</time>
      </trkpt>
      <trkpt lat="43.62728" lon="6.28">
        <ele>884.55</ele>
        <time>2015-10-17T10:20:01Z</time>
      </trkpt>
      <trkpt lat="43.62726" lon="6.27996">
        <ele>884.07</ele>
        <time>2015-10-17T10:20:08Z</time>
      </trkpt>
      <trkpt lat="43.6272" lon="6.27992">
        <ele>884.07</ele>
        <time>2015-10-17T10:20:17Z</time>
      </trkpt>
      <trkpt lat="43.62722" lon="6.27992">
        <ele>884.07</ele>
        <time>2015-10-17T10:20:19Z</time>
      </trkpt>
      <trkpt lat="43.62723" lon="6.27993">
        <ele>884.07</ele>
        <time>2015-10-17T10:20:21Z</time>
      </trkpt>
      <trkpt lat="43.62736" lon="6.28004">
        <ele>885.03</ele>
        <time>2015-10-17T10:20:35Z</time>
      </trkpt>
      <trkpt lat="43.62735" lon="6.28004">
        <ele>884.55</ele>
        <time>2015-10-17T10:20:46Z</time>
      </trkpt>
      <trkpt lat="43.62736" lon="6.28004">
        <ele>885.03</ele>
        <time>2015-10-17T10:20:58Z</time>
      </trkpt>
      <trkpt lat="43.62736" lon="6.28004">
        <ele>885.51</ele>
        <time>2015-10-17T10:21:01Z</time>
      </trkpt>
      <trkpt lat="43.62739" lon="6.28004">
        <ele>885.03</ele>
        <time>2015-10-17T10:21:11Z</time>
      </trkpt>
      <trkpt lat="43.62739" lon="6.28004">
        <ele>885.03</ele>
        <time>2015-10-17T10:21:12Z</time>
      </trkpt>
      <trkpt lat="43.62737" lon="6.27998">
        <ele>884.55</ele>
        <time>2015-10-17T10:21:21Z</time>
      </trkpt>
      <trkpt lat="43.62736" lon="6.27998">
        <ele>884.55</ele>
        <time>2015-10-17T10:21:22Z</time>
      </trkpt>
      <trkpt lat="43.62735" lon="6.28006">
        <ele>885.03</ele>
        <time>2015-10-17T10:21:35Z</time>
      </trkpt>
      <trkpt lat="43.62735" lon="6.28006">
        <ele>885.03</ele>
        <time>2015-10-17T10:21:52Z</time>
      </trkpt>
      <trkpt lat="43.62735" lon="6.28005">
        <ele>885.03</ele>
        <time>2015-10-17T10:21:55Z</time>
      </trkpt>
      <trkpt lat="43.62734" lon="6.27997">
        <ele>884.55</ele>
        <time>2015-10-17T10:22:05Z</time>
      </trkpt>
      <trkpt lat="43.62733" lon="6.27996">
        <ele>884.55</ele>
        <time>2015-10-17T10:22:18Z</time>
      </trkpt>
      <trkpt lat="43.62731" lon="6.27995">
        <ele>884.55</ele>
        <time>2015-10-17T10:22:29Z</time>
      </trkpt>
      <trkpt lat="43.62731" lon="6.27994">
        <ele>884.55</ele>
        <time>2015-10-17T10:22:40Z</time>
      </trkpt>
      <trkpt lat="43.62728" lon="6.27994">
        <ele>884.07</ele>
        <time>2015-10-17T10:22:52Z</time>
      </trkpt>
      <trkpt lat="43.62727" lon="6.27994">
        <ele>884.55</ele>
        <time>2015-10-17T10:23:12Z</time>
      </trkpt>
      <trkpt lat="43.62726" lon="6.27994">
        <ele>884.07</ele>
        <time>2015-10-17T10:23:35Z</time>
      </trkpt>
      <trkpt lat="43.62726" lon="6.27994">
        <ele>885.03</ele>
        <time>2015-10-17T10:23:53Z</time>
      </trkpt>
      <trkpt lat="43.62725" lon="6.27994">
        <ele>884.55</ele>
        <time>2015-10-17T10:24:06Z</time>
      </trkpt>
      <trkpt lat="43.62725" lon="6.27994">
        <ele>884.07</ele>
        <time>2015-10-17T10:24:20Z</time>
      </trkpt>
      <trkpt lat="43.62722" lon="6.27994">
        <ele>884.55</ele>
        <time>2015-10-17T10:24:29Z</time>
      </trkpt>
      <trkpt lat="43.6271" lon="6.27996">
        <ele>884.07</ele>
        <time>2015-10-17T10:24:38Z</time>
      </trkpt>
      <trkpt lat="43.62685" lon="6.27995">
        <ele>883.11</ele>
        <time>2015-10-17T10:24:54Z</time>
      </trkpt>
      <trkpt lat="43.62653" lon="6.28001">
        <ele>883.11</ele>
        <time>2015-10-17T10:25:14Z</time>
      </trkpt>
      <trkpt lat="43.62626" lon="6.28018">
        <ele>882.63</ele>
        <time>2015-10-17T10:25:30Z</time>
      </trkpt>
      <trkpt lat="43.62603" lon="6.28022">
        <ele>885.03</ele>
        <time>2015-10-17T10:25:46Z</time>
      </trkpt>
      <trkpt lat="43.62578" lon="6.28036">
        <ele>885.51</ele>
        <time>2015-10-17T10:26:04Z</time>
      </trkpt>
      <trkpt lat="43.62557" lon="6.28061">
        <ele>885.51</ele>
        <time>2015-10-17T10:26:20Z</time>
      </trkpt>
      <trkpt lat="43.62536" lon="6.28063">
        <ele>887.43</ele>
        <time>2015-10-17T10:26:34Z</time>
      </trkpt>
      <trkpt lat="43.62529" lon="6.28065">
        <ele>888.4</ele>
        <time>2015-10-17T10:26:39Z</time>
      </trkpt>
      <trkpt lat="43.62519" lon="6.28062">
        <ele>888.88</ele>
        <time>2015-10-17T10:26:46Z</time>
      </trkpt>
      <trkpt lat="43.62493" lon="6.28058">
        <ele>889.36</ele>
        <time>2015-10-17T10:27:03Z</time>
      </trkpt>
      <trkpt lat="43.62475" lon="6.28039">
        <ele>889.84</ele>
        <time>2015-10-17T10:27:19Z</time>
      </trkpt>
      <trkpt lat="43.62468" lon="6.28013">
        <ele>889.84</ele>
        <time>2015-10-17T10:27:33Z</time>
      </trkpt>
      <trkpt lat="43.62465" lon="6.28009">
        <ele>889.84</ele>
        <time>2015-10-17T10:27:36Z</time>
      </trkpt>
      <trkpt lat="43.62459" lon="6.28006">
        <ele>889.84</ele>
        <time>2015-10-17T10:27:40Z</time>
      </trkpt>
      <trkpt lat="43.62436" lon="6.28004">
        <ele>890.32</ele>
        <time>2015-10-17T10:27:55Z</time>
      </trkpt>
      <trkpt lat="43.62434" lon="6.28005">
        <ele>890.8</ele>
        <time>2015-10-17T10:27:57Z</time>
      </trkpt>
      <trkpt lat="43.62419" lon="6.28013">
        <ele>890.32</ele>
        <time>2015-10-17T10:28:06Z</time>
      </trkpt>
      <trkpt lat="43.62395" lon="6.28017">
        <ele>888.88</ele>
        <time>2015-10-17T10:28:20Z</time>
      </trkpt>
      <trkpt lat="43.62378" lon="6.28023">
        <ele>887.91</ele>
        <time>2015-10-17T10:28:33Z</time>
      </trkpt>
      <trkpt lat="43.62371" lon="6.28024">
        <ele>887.43</ele>
        <time>2015-10-17T10:28:37Z</time>
      </trkpt>
      <trkpt lat="43.6235" lon="6.28023">
        <ele>885.99</ele>
        <time>2015-10-17T10:28:52Z</time>
      </trkpt>
      <trkpt lat="43.62348" lon="6.28026">
        <ele>885.03</ele>
        <time>2015-10-17T10:28:56Z</time>
      </trkpt>
      <trkpt lat="43.62335" lon="6.28048">
        <ele>882.63</ele>
        <time>2015-10-17T10:29:12Z</time>
      </trkpt>
      <trkpt lat="43.6233" lon="6.28051">
        <ele>881.67</ele>
        <time>2015-10-17T10:29:16Z</time>
      </trkpt>
      <trkpt lat="43.62311" lon="6.28073">
        <ele>880.71</ele>
        <time>2015-10-17T10:29:29Z</time>
      </trkpt>
      <trkpt lat="43.623" lon="6.28097">
        <ele>879.26</ele>
        <time>2015-10-17T10:29:39Z</time>
      </trkpt>
      <trkpt lat="43.62288" lon="6.28111">
        <ele>878.3</ele>
        <time>2015-10-17T10:29:49Z</time>
      </trkpt>
      <trkpt lat="43.62267" lon="6.28131">
        <ele>875.9</ele>
        <time>2015-10-17T10:30:04Z</time>
      </trkpt>
      <trkpt lat="43.62264" lon="6.28138">
        <ele>874.94</ele>
        <time>2015-10-17T10:30:08Z</time>
      </trkpt>
      <trkpt lat="43.62254" lon="6.28161">
        <ele>872.53</ele>
        <time>2015-10-17T10:30:18Z</time>
      </trkpt>
      <trkpt lat="43.62243" lon="6.28192">
        <ele>870.61</ele>
        <time>2015-10-17T10:30:32Z</time>
      </trkpt>
      <trkpt lat="43.62242" lon="6.28196">
        <ele>870.13</ele>
        <time>2015-10-17T10:30:34Z</time>
      </trkpt>
      <trkpt lat="43.62243" lon="6.28199">
        <ele>870.13</ele>
        <time>2015-10-17T10:30:36Z</time>
      </trkpt>
      <trkpt lat="43.62235" lon="6.28218">
        <ele>869.17</ele>
        <time>2015-10-17T10:30:44Z</time>
      </trkpt>
      <trkpt lat="43.62209" lon="6.28231">
        <ele>868.21</ele>
        <time>2015-10-17T10:30:59Z</time>
      </trkpt>
      <trkpt lat="43.62184" lon="6.28233">
        <ele>866.77</ele>
        <time>2015-10-17T10:31:14Z</time>
      </trkpt>
      <trkpt lat="43.62162" lon="6.28242">
        <ele>865.32</ele>
        <time>2015-10-17T10:31:28Z</time>
      </trkpt>
      <trkpt lat="43.62155" lon="6.28248">
        <ele>864.84</ele>
        <time>2015-10-17T10:31:33Z</time>
      </trkpt>
      <trkpt lat="43.62137" lon="6.28256">
        <ele>864.84</ele>
        <time>2015-10-17T10:31:47Z</time>
      </trkpt>
      <trkpt lat="43.62119" lon="6.2825">
        <ele>863.88</ele>
        <time>2015-10-17T10:32:02Z</time>
      </trkpt>
      <trkpt lat="43.62108" lon="6.28251">
        <ele>861</ele>
        <time>2015-10-17T10:32:13Z</time>
      </trkpt>
      <trkpt lat="43.62102" lon="6.28256">
        <ele>857.63</ele>
        <time>2015-10-17T10:32:22Z</time>
      </trkpt>
      <trkpt lat="43.62102" lon="6.28258">
        <ele>857.15</ele>
        <time>2015-10-17T10:32:24Z</time>
      </trkpt>
      <trkpt lat="43.62101" lon="6.2827">
        <ele>853.31</ele>
        <time>2015-10-17T10:32:33Z</time>
      </trkpt>
      <trkpt lat="43.62099" lon="6.28274">
        <ele>852.35</ele>
        <time>2015-10-17T10:32:36Z</time>
      </trkpt>
      <trkpt lat="43.62082" lon="6.28287">
        <ele>850.9</ele>
        <time>2015-10-17T10:32:46Z</time>
      </trkpt>
      <trkpt lat="43.62057" lon="6.28304">
        <ele>851.87</ele>
        <time>2015-10-17T10:33:02Z</time>
      </trkpt>
      <trkpt lat="43.62033" lon="6.28314">
        <ele>848.5</ele>
        <time>2015-10-17T10:33:18Z</time>
      </trkpt>
      <trkpt lat="43.62016" lon="6.28306">
        <ele>845.62</ele>
        <time>2015-10-17T10:33:29Z</time>
      </trkpt>
      <trkpt lat="43.62" lon="6.28295">
        <ele>842.73</ele>
        <time>2015-10-17T10:33:41Z</time>
      </trkpt>
      <trkpt lat="43.61995" lon="6.2829">
        <ele>842.25</ele>
        <time>2015-10-17T10:33:45Z</time>
      </trkpt>
      <trkpt lat="43.61977" lon="6.28274">
        <ele>838.41</ele>
        <time>2015-10-17T10:33:59Z</time>
      </trkpt>
      <trkpt lat="43.61962" lon="6.28259">
        <ele>836</ele>
        <time>2015-10-17T10:34:10Z</time>
      </trkpt>
      <trkpt lat="43.61955" lon="6.2826">
        <ele>835.04</ele>
        <time>2015-10-17T10:34:14Z</time>
      </trkpt>
      <trkpt lat="43.61933" lon="6.28276">
        <ele>833.6</ele>
        <time>2015-10-17T10:34:28Z</time>
      </trkpt>
      <trkpt lat="43.61915" lon="6.28289">
        <ele>832.16</ele>
        <time>2015-10-17T10:34:39Z</time>
      </trkpt>
      <trkpt lat="43.61914" lon="6.28302">
        <ele>831.2</ele>
        <time>2015-10-17T10:34:45Z</time>
      </trkpt>
      <trkpt lat="43.61906" lon="6.28335">
        <ele>827.83</ele>
        <time>2015-10-17T10:35:00Z</time>
      </trkpt>
      <trkpt lat="43.61901" lon="6.28346">
        <ele>824.95</ele>
        <time>2015-10-17T10:35:11Z</time>
      </trkpt>
      <trkpt lat="43.61897" lon="6.28354">
        <ele>822.55</ele>
        <time>2015-10-17T10:35:18Z</time>
      </trkpt>
      <trkpt lat="43.61896" lon="6.28362">
        <ele>822.06</ele>
        <time>2015-10-17T10:35:20Z</time>
      </trkpt>
      <trkpt lat="43.619" lon="6.28368">
        <ele>821.1</ele>
        <time>2015-10-17T10:35:24Z</time>
      </trkpt>
      <trkpt lat="43.61916" lon="6.28358">
        <ele>817.74</ele>
        <time>2015-10-17T10:35:37Z</time>
      </trkpt>
      <trkpt lat="43.61934" lon="6.28349">
        <ele>814.37</ele>
        <time>2015-10-17T10:35:52Z</time>
      </trkpt>
      <trkpt lat="43.61939" lon="6.28351">
        <ele>813.89</ele>
        <time>2015-10-17T10:35:55Z</time>
      </trkpt>
      <trkpt lat="43.61946" lon="6.28354">
        <ele>812.93</ele>
        <time>2015-10-17T10:35:58Z</time>
      </trkpt>
      <trkpt lat="43.6195" lon="6.28357">
        <ele>812.45</ele>
        <time>2015-10-17T10:36:01Z</time>
      </trkpt>
      <trkpt lat="43.61964" lon="6.28377">
        <ele>809.57</ele>
        <time>2015-10-17T10:36:16Z</time>
      </trkpt>
      <trkpt lat="43.61978" lon="6.28394">
        <ele>806.68</ele>
        <time>2015-10-17T10:36:29Z</time>
      </trkpt>
      <trkpt lat="43.61972" lon="6.28406">
        <ele>803.8</ele>
        <time>2015-10-17T10:36:39Z</time>
      </trkpt>
      <trkpt lat="43.6195" lon="6.28421">
        <ele>800.44</ele>
        <time>2015-10-17T10:36:50Z</time>
      </trkpt>
      <trkpt lat="43.6193" lon="6.28427">
        <ele>797.55</ele>
        <time>2015-10-17T10:37:02Z</time>
      </trkpt>
      <trkpt lat="43.61916" lon="6.28434">
        <ele>794.19</ele>
        <time>2015-10-17T10:37:12Z</time>
      </trkpt>
      <trkpt lat="43.61893" lon="6.28467">
        <ele>791.78</ele>
        <time>2015-10-17T10:37:33Z</time>
      </trkpt>
      <trkpt lat="43.61887" lon="6.28484">
        <ele>792.26</ele>
        <time>2015-10-17T10:37:42Z</time>
      </trkpt>
      <trkpt lat="43.61877" lon="6.28526">
        <ele>792.26</ele>
        <time>2015-10-17T10:37:59Z</time>
      </trkpt>
      <trkpt lat="43.61864" lon="6.28555">
        <ele>793.71</ele>
        <time>2015-10-17T10:38:13Z</time>
      </trkpt>
      <trkpt lat="43.61861" lon="6.28561">
        <ele>794.19</ele>
        <time>2015-10-17T10:38:18Z</time>
      </trkpt>
      <trkpt lat="43.6186" lon="6.28567">
        <ele>793.71</ele>
        <time>2015-10-17T10:38:22Z</time>
      </trkpt>
      <trkpt lat="43.61846" lon="6.28581">
        <ele>793.22</ele>
        <time>2015-10-17T10:38:37Z</time>
      </trkpt>
      <trkpt lat="43.61824" lon="6.28596">
        <ele>790.82</ele>
        <time>2015-10-17T10:38:53Z</time>
      </trkpt>
      <trkpt lat="43.61804" lon="6.28601">
        <ele>788.42</ele>
        <time>2015-10-17T10:39:05Z</time>
      </trkpt>
      <trkpt lat="43.61781" lon="6.286">
        <ele>785.05</ele>
        <time>2015-10-17T10:39:17Z</time>
      </trkpt>
      <trkpt lat="43.61753" lon="6.28605">
        <ele>785.53</ele>
        <time>2015-10-17T10:39:34Z</time>
      </trkpt>
      <trkpt lat="43.61725" lon="6.28615">
        <ele>784.09</ele>
        <time>2015-10-17T10:39:50Z</time>
      </trkpt>
      <trkpt lat="43.61703" lon="6.28623">
        <ele>782.65</ele>
        <time>2015-10-17T10:40:04Z</time>
      </trkpt>
      <trkpt lat="43.61685" lon="6.28641">
        <ele>779.29</ele>
        <time>2015-10-17T10:40:18Z</time>
      </trkpt>
      <trkpt lat="43.61656" lon="6.2866">
        <ele>776.4</ele>
        <time>2015-10-17T10:40:35Z</time>
      </trkpt>
      <trkpt lat="43.61631" lon="6.28667">
        <ele>774.48</ele>
        <time>2015-10-17T10:40:50Z</time>
      </trkpt>
      <trkpt lat="43.616" lon="6.28674">
        <ele>771.11</ele>
        <time>2015-10-17T10:41:08Z</time>
      </trkpt>
      <trkpt lat="43.61568" lon="6.28675">
        <ele>768.71</ele>
        <time>2015-10-17T10:41:26Z</time>
      </trkpt>
      <trkpt lat="43.61541" lon="6.28669">
        <ele>766.31</ele>
        <time>2015-10-17T10:41:42Z</time>
      </trkpt>
      <trkpt lat="43.61516" lon="6.2865">
        <ele>765.35</ele>
        <time>2015-10-17T10:42:00Z</time>
      </trkpt>
      <trkpt lat="43.615" lon="6.28622">
        <ele>762.94</ele>
        <time>2015-10-17T10:42:15Z</time>
      </trkpt>
      <trkpt lat="43.61499" lon="6.28584">
        <ele>761.5</ele>
        <time>2015-10-17T10:42:31Z</time>
      </trkpt>
      <trkpt lat="43.61508" lon="6.28552">
        <ele>761.02</ele>
        <time>2015-10-17T10:42:46Z</time>
      </trkpt>
      <trkpt lat="43.61494" lon="6.28533">
        <ele>759.1</ele>
        <time>2015-10-17T10:42:57Z</time>
      </trkpt>
      <trkpt lat="43.61476" lon="6.28522">
        <ele>755.73</ele>
        <time>2015-10-17T10:43:09Z</time>
      </trkpt>
      <trkpt lat="43.61456" lon="6.28519">
        <ele>752.85</ele>
        <time>2015-10-17T10:43:22Z</time>
      </trkpt>
      <trkpt lat="43.61448" lon="6.28519">
        <ele>750.93</ele>
        <time>2015-10-17T10:43:27Z</time>
      </trkpt>
      <trkpt lat="43.61444" lon="6.2852">
        <ele>749.49</ele>
        <time>2015-10-17T10:43:30Z</time>
      </trkpt>
      <trkpt lat="43.61429" lon="6.28519">
        <ele>747.08</ele>
        <time>2015-10-17T10:43:41Z</time>
      </trkpt>
      <trkpt lat="43.6142" lon="6.28519">
        <ele>744.68</ele>
        <time>2015-10-17T10:43:48Z</time>
      </trkpt>
      <trkpt lat="43.61407" lon="6.28518">
        <ele>742.28</ele>
        <time>2015-10-17T10:43:57Z</time>
      </trkpt>
      <trkpt lat="43.61385" lon="6.28513">
        <ele>739.87</ele>
        <time>2015-10-17T10:44:10Z</time>
      </trkpt>
      <trkpt lat="43.6136" lon="6.2851">
        <ele>736.99</ele>
        <time>2015-10-17T10:44:26Z</time>
      </trkpt>
      <trkpt lat="43.61341" lon="6.28521">
        <ele>733.62</ele>
        <time>2015-10-17T10:44:40Z</time>
      </trkpt>
      <trkpt lat="43.61324" lon="6.28532">
        <ele>730.26</ele>
        <time>2015-10-17T10:44:52Z</time>
      </trkpt>
      <trkpt lat="43.61305" lon="6.28554">
        <ele>726.89</ele>
        <time>2015-10-17T10:45:07Z</time>
      </trkpt>
      <trkpt lat="43.61287" lon="6.28577">
        <ele>723.53</ele>
        <time>2015-10-17T10:45:21Z</time>
      </trkpt>
      <trkpt lat="43.61268" lon="6.28598">
        <ele>720.65</ele>
        <time>2015-10-17T10:45:35Z</time>
      </trkpt>
      <trkpt lat="43.61247" lon="6.28624">
        <ele>719.2</ele>
        <time>2015-10-17T10:45:51Z</time>
      </trkpt>
      <trkpt lat="43.61235" lon="6.28661">
        <ele>717.76</ele>
        <time>2015-10-17T10:46:09Z</time>
      </trkpt>
      <trkpt lat="43.61229" lon="6.28691">
        <ele>715.36</ele>
        <time>2015-10-17T10:46:24Z</time>
      </trkpt>
      <trkpt lat="43.61221" lon="6.28729">
        <ele>711.99</ele>
        <time>2015-10-17T10:46:41Z</time>
      </trkpt>
      <trkpt lat="43.61197" lon="6.28762">
        <ele>710.07</ele>
        <time>2015-10-17T10:46:59Z</time>
      </trkpt>
      <trkpt lat="43.61173" lon="6.28776">
        <ele>708.63</ele>
        <time>2015-10-17T10:47:14Z</time>
      </trkpt>
      <trkpt lat="43.61149" lon="6.28795">
        <ele>706.23</ele>
        <time>2015-10-17T10:47:30Z</time>
      </trkpt>
      <trkpt lat="43.61149" lon="6.28814">
        <ele>704.3</ele>
        <time>2015-10-17T10:47:37Z</time>
      </trkpt>
      <trkpt lat="43.61155" lon="6.28817">
        <ele>703.82</ele>
        <time>2015-10-17T10:47:41Z</time>
      </trkpt>
      <trkpt lat="43.61185" lon="6.28817">
        <ele>702.86</ele>
        <time>2015-10-17T10:48:00Z</time>
      </trkpt>
      <trkpt lat="43.61207" lon="6.28828">
        <ele>701.42</ele>
        <time>2015-10-17T10:48:14Z</time>
      </trkpt>
      <trkpt lat="43.6121" lon="6.28834">
        <ele>701.42</ele>
        <time>2015-10-17T10:48:17Z</time>
      </trkpt>
      <trkpt lat="43.61211" lon="6.2885">
        <ele>701.42</ele>
        <time>2015-10-17T10:48:23Z</time>
      </trkpt>
      <trkpt lat="43.61203" lon="6.28895">
        <ele>702.38</ele>
        <time>2015-10-17T10:48:43Z</time>
      </trkpt>
      <trkpt lat="43.61186" lon="6.2893">
        <ele>703.34</ele>
        <time>2015-10-17T10:48:58Z</time>
      </trkpt>
      <trkpt lat="43.61172" lon="6.28952">
        <ele>701.9</ele>
        <time>2015-10-17T10:49:11Z</time>
      </trkpt>
      <trkpt lat="43.61178" lon="6.28974">
        <ele>702.86</ele>
        <time>2015-10-17T10:49:24Z</time>
      </trkpt>
      <trkpt lat="43.61179" lon="6.28975">
        <ele>699.02</ele>
        <time>2015-10-17T10:49:25Z</time>
      </trkpt>
      <trkpt lat="43.61181" lon="6.28975">
        <ele>703.82</ele>
        <time>2015-10-17T10:49:26Z</time>
      </trkpt>
      <trkpt lat="43.61182" lon="6.28976">
        <ele>700.46</ele>
        <time>2015-10-17T10:49:27Z</time>
      </trkpt>
      <trkpt lat="43.61191" lon="6.28975">
        <ele>703.82</ele>
        <time>2015-10-17T10:49:33Z</time>
      </trkpt>
      <trkpt lat="43.61199" lon="6.28965">
        <ele>700.46</ele>
        <time>2015-10-17T10:49:41Z</time>
      </trkpt>
      <trkpt lat="43.61216" lon="6.28966">
        <ele>699.02</ele>
        <time>2015-10-17T10:49:53Z</time>
      </trkpt>
      <trkpt lat="43.61227" lon="6.28969">
        <ele>698.53</ele>
        <time>2015-10-17T10:50:02Z</time>
      </trkpt>
      <trkpt lat="43.61252" lon="6.28952">
        <ele>698.53</ele>
        <time>2015-10-17T10:50:16Z</time>
      </trkpt>
      <trkpt lat="43.61262" lon="6.28941">
        <ele>699.5</ele>
        <time>2015-10-17T10:50:25Z</time>
      </trkpt>
      <trkpt lat="43.6127" lon="6.2894">
        <ele>699.98</ele>
        <time>2015-10-17T10:50:31Z</time>
      </trkpt>
      <trkpt lat="43.61284" lon="6.28948">
        <ele>701.42</ele>
        <time>2015-10-17T10:50:40Z</time>
      </trkpt>
      <trkpt lat="43.61276" lon="6.28989">
        <ele>702.38</ele>
        <time>2015-10-17T10:50:56Z</time>
      </trkpt>
      <trkpt lat="43.61261" lon="6.2902">
        <ele>702.86</ele>
        <time>2015-10-17T10:51:13Z</time>
      </trkpt>
      <trkpt lat="43.61241" lon="6.29044">
        <ele>702.38</ele>
        <time>2015-10-17T10:51:30Z</time>
      </trkpt>
      <trkpt lat="43.61231" lon="6.29058">
        <ele>702.38</ele>
        <time>2015-10-17T10:51:43Z</time>
      </trkpt>
      <trkpt lat="43.6123" lon="6.29059">
        <ele>701.9</ele>
        <time>2015-10-17T10:52:01Z</time>
      </trkpt>
      <trkpt lat="43.6123" lon="6.2906">
        <ele>702.38</ele>
        <time>2015-10-17T10:52:03Z</time>
      </trkpt>
      <trkpt lat="43.61216" lon="6.29096">
        <ele>704.3</ele>
        <time>2015-10-17T10:52:19Z</time>
      </trkpt>
      <trkpt lat="43.6121" lon="6.29119">
        <ele>706.23</ele>
        <time>2015-10-17T10:52:29Z</time>
      </trkpt>
      <trkpt lat="43.6122" lon="6.29135">
        <ele>707.67</ele>
        <time>2015-10-17T10:52:40Z</time>
      </trkpt>
      <trkpt lat="43.61248" lon="6.29157">
        <ele>706.71</ele>
        <time>2015-10-17T10:53:00Z</time>
      </trkpt>
      <trkpt lat="43.61274" lon="6.29176">
        <ele>707.19</ele>
        <time>2015-10-17T10:53:16Z</time>
      </trkpt>
      <trkpt lat="43.61276" lon="6.29184">
        <ele>707.19</ele>
        <time>2015-10-17T10:53:22Z</time>
      </trkpt>
      <trkpt lat="43.61252" lon="6.292">
        <ele>707.19</ele>
        <time>2015-10-17T10:53:37Z</time>
      </trkpt>
      <trkpt lat="43.6123" lon="6.29204">
        <ele>705.75</ele>
        <time>2015-10-17T10:53:52Z</time>
      </trkpt>
      <trkpt lat="43.61207" lon="6.2921">
        <ele>704.3</ele>
        <time>2015-10-17T10:54:07Z</time>
      </trkpt>
      <trkpt lat="43.61179" lon="6.29219">
        <ele>702.38</ele>
        <time>2015-10-17T10:54:24Z</time>
      </trkpt>
      <trkpt lat="43.61153" lon="6.29227">
        <ele>700.94</ele>
        <time>2015-10-17T10:54:40Z</time>
      </trkpt>
      <trkpt lat="43.61128" lon="6.29237">
        <ele>699.5</ele>
        <time>2015-10-17T10:54:54Z</time>
      </trkpt>
      <trkpt lat="43.61113" lon="6.29242">
        <ele>698.05</ele>
        <time>2015-10-17T10:55:03Z</time>
      </trkpt>
      <trkpt lat="43.61083" lon="6.29243">
        <ele>695.17</ele>
        <time>2015-10-17T10:55:21Z</time>
      </trkpt>
      <trkpt lat="43.61056" lon="6.29251">
        <ele>692.77</ele>
        <time>2015-10-17T10:55:37Z</time>
      </trkpt>
      <trkpt lat="43.61028" lon="6.29258">
        <ele>691.33</ele>
        <time>2015-10-17T10:55:53Z</time>
      </trkpt>
      <trkpt lat="43.60996" lon="6.29267">
        <ele>689.88</ele>
        <time>2015-10-17T10:56:11Z</time>
      </trkpt>
      <trkpt lat="43.60972" lon="6.29281">
        <ele>687.96</ele>
        <time>2015-10-17T10:56:26Z</time>
      </trkpt>
      <trkpt lat="43.60957" lon="6.29281">
        <ele>686.52</ele>
        <time>2015-10-17T10:56:36Z</time>
      </trkpt>
      <trkpt lat="43.60934" lon="6.29277">
        <ele>684.6</ele>
        <time>2015-10-17T10:56:51Z</time>
      </trkpt>
      <trkpt lat="43.60932" lon="6.29277">
        <ele>683.63</ele>
        <time>2015-10-17T10:56:53Z</time>
      </trkpt>
      <trkpt lat="43.60903" lon="6.29279">
        <ele>681.23</ele>
        <time>2015-10-17T10:57:13Z</time>
      </trkpt>
      <trkpt lat="43.6088" lon="6.29271">
        <ele>680.27</ele>
        <time>2015-10-17T10:57:27Z</time>
      </trkpt>
      <trkpt lat="43.60858" lon="6.29261">
        <ele>678.83</ele>
        <time>2015-10-17T10:57:41Z</time>
      </trkpt>
      <trkpt lat="43.60828" lon="6.29267">
        <ele>677.87</ele>
        <time>2015-10-17T10:57:57Z</time>
      </trkpt>
      <trkpt lat="43.60806" lon="6.29285">
        <ele>675.46</ele>
        <time>2015-10-17T10:58:14Z</time>
      </trkpt>
      <trkpt lat="43.60802" lon="6.29288">
        <ele>675.46</ele>
        <time>2015-10-17T10:58:17Z</time>
      </trkpt>
      <trkpt lat="43.60796" lon="6.29289">
        <ele>675.46</ele>
        <time>2015-10-17T10:58:21Z</time>
      </trkpt>
      <trkpt lat="43.60771" lon="6.29296">
        <ele>675.46</ele>
        <time>2015-10-17T10:58:36Z</time>
      </trkpt>
      <trkpt lat="43.60749" lon="6.29318">
        <ele>673.06</ele>
        <time>2015-10-17T10:58:52Z</time>
      </trkpt>
      <trkpt lat="43.60725" lon="6.29333">
        <ele>670.66</ele>
        <time>2015-10-17T10:59:08Z</time>
      </trkpt>
      <trkpt lat="43.60702" lon="6.29335">
        <ele>667.77</ele>
        <time>2015-10-17T10:59:22Z</time>
      </trkpt>
      <trkpt lat="43.60695" lon="6.29316">
        <ele>664.89</ele>
        <time>2015-10-17T10:59:33Z</time>
      </trkpt>
      <trkpt lat="43.60701" lon="6.29295">
        <ele>662.01</ele>
        <time>2015-10-17T10:59:44Z</time>
      </trkpt>
      <trkpt lat="43.60704" lon="6.29278">
        <ele>658.64</ele>
        <time>2015-10-17T10:59:56Z</time>
      </trkpt>
      <trkpt lat="43.60706" lon="6.29273">
        <ele>658.16</ele>
        <time>2015-10-17T10:59:59Z</time>
      </trkpt>
      <trkpt lat="43.60695" lon="6.29272">
        <ele>656.24</ele>
        <time>2015-10-17T11:00:14Z</time>
      </trkpt>
      <trkpt lat="43.60683" lon="6.2928">
        <ele>655.76</ele>
        <time>2015-10-17T11:00:27Z</time>
      </trkpt>
      <trkpt lat="43.60675" lon="6.29292">
        <ele>654.8</ele>
        <time>2015-10-17T11:00:43Z</time>
      </trkpt>
      <trkpt lat="43.60655" lon="6.293">
        <ele>653.83</ele>
        <time>2015-10-17T11:00:57Z</time>
      </trkpt>
      <trkpt lat="43.60639" lon="6.29316">
        <ele>651.91</ele>
        <time>2015-10-17T11:01:14Z</time>
      </trkpt>
      <trkpt lat="43.60632" lon="6.29322">
        <ele>651.91</ele>
        <time>2015-10-17T11:01:19Z</time>
      </trkpt>
      <trkpt lat="43.60609" lon="6.2934">
        <ele>650.47</ele>
        <time>2015-10-17T11:01:35Z</time>
      </trkpt>
      <trkpt lat="43.60579" lon="6.29364">
        <ele>648.55</ele>
        <time>2015-10-17T11:01:54Z</time>
      </trkpt>
      <trkpt lat="43.60571" lon="6.29366">
        <ele>648.07</ele>
        <time>2015-10-17T11:01:59Z</time>
      </trkpt>
      <trkpt lat="43.60556" lon="6.2935">
        <ele>647.59</ele>
        <time>2015-10-17T11:02:15Z</time>
      </trkpt>
      <trkpt lat="43.6055" lon="6.29332">
        <ele>647.1</ele>
        <time>2015-10-17T11:02:27Z</time>
      </trkpt>
      <trkpt lat="43.60545" lon="6.29321">
        <ele>646.62</ele>
        <time>2015-10-17T11:02:49Z</time>
      </trkpt>
      <trkpt lat="43.60542" lon="6.2932">
        <ele>647.1</ele>
        <time>2015-10-17T11:03:09Z</time>
      </trkpt>
      <trkpt lat="43.6054" lon="6.29321">
        <ele>646.62</ele>
        <time>2015-10-17T11:03:17Z</time>
      </trkpt>
      <trkpt lat="43.60533" lon="6.29318">
        <ele>646.62</ele>
        <time>2015-10-17T11:03:22Z</time>
      </trkpt>
      <trkpt lat="43.60526" lon="6.29302">
        <ele>647.1</ele>
        <time>2015-10-17T11:03:40Z</time>
      </trkpt>
      <trkpt lat="43.60525" lon="6.29298">
        <ele>647.1</ele>
        <time>2015-10-17T11:03:55Z</time>
      </trkpt>
      <trkpt lat="43.60524" lon="6.29296">
        <ele>647.1</ele>
        <time>2015-10-17T11:04:10Z</time>
      </trkpt>
      <trkpt lat="43.60524" lon="6.29298">
        <ele>647.1</ele>
        <time>2015-10-17T11:04:26Z</time>
      </trkpt>
      <trkpt lat="43.6052" lon="6.29303">
        <ele>646.62</ele>
        <time>2015-10-17T11:04:41Z</time>
      </trkpt>
      <trkpt lat="43.60519" lon="6.29301">
        <ele>647.1</ele>
        <time>2015-10-17T11:04:58Z</time>
      </trkpt>
      <trkpt lat="43.60522" lon="6.29308">
        <ele>646.62</ele>
        <time>2015-10-17T11:05:10Z</time>
      </trkpt>
      <trkpt lat="43.60527" lon="6.29315">
        <ele>646.62</ele>
        <time>2015-10-17T11:05:18Z</time>
      </trkpt>
      <trkpt lat="43.60539" lon="6.29331">
        <ele>647.1</ele>
        <time>2015-10-17T11:05:33Z</time>
      </trkpt>
      <trkpt lat="43.60553" lon="6.29348">
        <ele>647.59</ele>
        <time>2015-10-17T11:05:49Z</time>
      </trkpt>
      <trkpt lat="43.60558" lon="6.29361">
        <ele>647.59</ele>
        <time>2015-10-17T11:06:04Z</time>
      </trkpt>
      <trkpt lat="43.60559" lon="6.29361">
        <ele>647.59</ele>
        <time>2015-10-17T11:06:18Z</time>
      </trkpt>
      <trkpt lat="43.60563" lon="6.29362">
        <ele>649.51</ele>
        <time>2015-10-17T11:06:33Z</time>
      </trkpt>
      <trkpt lat="43.60576" lon="6.29364">
        <ele>650.47</ele>
        <time>2015-10-17T11:06:44Z</time>
      </trkpt>
      <trkpt lat="43.60586" lon="6.29366">
        <ele>650.95</ele>
        <time>2015-10-17T11:06:53Z</time>
      </trkpt>
      <trkpt lat="43.60594" lon="6.29367">
        <ele>650.95</ele>
        <time>2015-10-17T11:06:59Z</time>
      </trkpt>
      <trkpt lat="43.6062" lon="6.29365">
        <ele>650.95</ele>
        <time>2015-10-17T11:07:15Z</time>
      </trkpt>
      <trkpt lat="43.60631" lon="6.29364">
        <ele>650.47</ele>
        <time>2015-10-17T11:07:20Z</time>
      </trkpt>
      <trkpt lat="43.60648" lon="6.29372">
        <ele>649.51</ele>
        <time>2015-10-17T11:07:31Z</time>
      </trkpt>
      <trkpt lat="43.60656" lon="6.29391">
        <ele>648.55</ele>
        <time>2015-10-17T11:07:47Z</time>
      </trkpt>
      <trkpt lat="43.60657" lon="6.29395">
        <ele>648.07</ele>
        <time>2015-10-17T11:08:01Z</time>
      </trkpt>
      <trkpt lat="43.60657" lon="6.29403">
        <ele>648.07</ele>
        <time>2015-10-17T11:08:25Z</time>
      </trkpt>
      <trkpt lat="43.60658" lon="6.29402">
        <ele>648.07</ele>
        <time>2015-10-17T11:08:40Z</time>
      </trkpt>
      <trkpt lat="43.60658" lon="6.29401">
        <ele>648.07</ele>
        <time>2015-10-17T11:09:02Z</time>
      </trkpt>
      <trkpt lat="43.60658" lon="6.29399">
        <ele>647.59</ele>
        <time>2015-10-17T11:09:19Z</time>
      </trkpt>
      <trkpt lat="43.60658" lon="6.29399">
        <ele>647.59</ele>
        <time>2015-10-17T11:09:37Z</time>
      </trkpt>
      <trkpt lat="43.60658" lon="6.29398">
        <ele>648.07</ele>
        <time>2015-10-17T11:09:50Z</time>
      </trkpt>
      <trkpt lat="43.60658" lon="6.29398">
        <ele>648.55</ele>
        <time>2015-10-17T11:10:09Z</time>
      </trkpt>
      <trkpt lat="43.60659" lon="6.29397">
        <ele>649.03</ele>
        <time>2015-10-17T11:10:24Z</time>
      </trkpt>
      <trkpt lat="43.60657" lon="6.29394">
        <ele>649.51</ele>
        <time>2015-10-17T11:10:30Z</time>
      </trkpt>
      <trkpt lat="43.60632" lon="6.29379">
        <ele>650.47</ele>
        <time>2015-10-17T11:10:50Z</time>
      </trkpt>
      <trkpt lat="43.60619" lon="6.29381">
        <ele>649.99</ele>
        <time>2015-10-17T11:11:01Z</time>
      </trkpt>
      <trkpt lat="43.60615" lon="6.29381">
        <ele>649.51</ele>
        <time>2015-10-17T11:11:04Z</time>
      </trkpt>
      <trkpt lat="43.60595" lon="6.29373">
        <ele>648.07</ele>
        <time>2015-10-17T11:11:20Z</time>
      </trkpt>
      <trkpt lat="43.6059" lon="6.29371">
        <ele>648.07</ele>
        <time>2015-10-17T11:11:24Z</time>
      </trkpt>
      <trkpt lat="43.60574" lon="6.29374">
        <ele>646.62</ele>
        <time>2015-10-17T11:11:35Z</time>
      </trkpt>
      <trkpt lat="43.60571" lon="6.29372">
        <ele>645.66</ele>
        <time>2015-10-17T11:11:37Z</time>
      </trkpt>
      <trkpt lat="43.60564" lon="6.29362">
        <ele>645.66</ele>
        <time>2015-10-17T11:11:46Z</time>
      </trkpt>
      <trkpt lat="43.60554" lon="6.29345">
        <ele>645.66</ele>
        <time>2015-10-17T11:11:58Z</time>
      </trkpt>
      <trkpt lat="43.60534" lon="6.29316">
        <ele>645.18</ele>
        <time>2015-10-17T11:12:17Z</time>
      </trkpt>
      <trkpt lat="43.60526" lon="6.29299">
        <ele>644.7</ele>
        <time>2015-10-17T11:12:31Z</time>
      </trkpt>
      <trkpt lat="43.60524" lon="6.29297">
        <ele>644.7</ele>
        <time>2015-10-17T11:12:46Z</time>
      </trkpt>
      <trkpt lat="43.60523" lon="6.29297">
        <ele>644.7</ele>
        <time>2015-10-17T11:13:08Z</time>
      </trkpt>
      <trkpt lat="43.60522" lon="6.29297">
        <ele>644.7</ele>
        <time>2015-10-17T11:13:27Z</time>
      </trkpt>
      <trkpt lat="43.60522" lon="6.29297">
        <ele>644.7</ele>
        <time>2015-10-17T11:13:39Z</time>
      </trkpt>
      <trkpt lat="43.6052" lon="6.29296">
        <ele>645.18</ele>
        <time>2015-10-17T11:13:54Z</time>
      </trkpt>
      <trkpt lat="43.60519" lon="6.29296">
        <ele>645.18</ele>
        <time>2015-10-17T11:14:12Z</time>
      </trkpt>
      <trkpt lat="43.60518" lon="6.29295">
        <ele>645.18</ele>
        <time>2015-10-17T11:14:32Z</time>
      </trkpt>
      <trkpt lat="43.60518" lon="6.29295">
        <ele>645.18</ele>
        <time>2015-10-17T11:14:42Z</time>
      </trkpt>
      <trkpt lat="43.60523" lon="6.29292">
        <ele>646.14</ele>
        <time>2015-10-17T11:14:59Z</time>
      </trkpt>
      <trkpt lat="43.60524" lon="6.29292">
        <ele>645.66</ele>
        <time>2015-10-17T11:15:17Z</time>
      </trkpt>
      <trkpt lat="43.60524" lon="6.29293">
        <ele>645.66</ele>
        <time>2015-10-17T11:15:34Z</time>
      </trkpt>
      <trkpt lat="43.60527" lon="6.29294">
        <ele>645.66</ele>
        <time>2015-10-17T11:15:51Z</time>
      </trkpt>
      <trkpt lat="43.60525" lon="6.29295">
        <ele>645.18</ele>
        <time>2015-10-17T11:16:09Z</time>
      </trkpt>
      <trkpt lat="43.60525" lon="6.29293">
        <ele>645.18</ele>
        <time>2015-10-17T11:16:30Z</time>
      </trkpt>
      <trkpt lat="43.60523" lon="6.29293">
        <ele>645.18</ele>
        <time>2015-10-17T11:17:05Z</time>
      </trkpt>
      <trkpt lat="43.60522" lon="6.29294">
        <ele>645.66</ele>
        <time>2015-10-17T11:17:38Z</time>
      </trkpt>
      <trkpt lat="43.60521" lon="6.29294">
        <ele>645.66</ele>
        <time>2015-10-17T11:18:02Z</time>
      </trkpt>
      <trkpt lat="43.60521" lon="6.29296">
        <ele>645.66</ele>
        <time>2015-10-17T11:18:35Z</time>
      </trkpt>
      <trkpt lat="43.60521" lon="6.29296">
        <ele>646.14</ele>
        <time>2015-10-17T11:19:04Z</time>
      </trkpt>
      <trkpt lat="43.60522" lon="6.29297">
        <ele>646.62</ele>
        <time>2015-10-17T11:19:29Z</time>
      </trkpt>
      <trkpt lat="43.60523" lon="6.29296">
        <ele>647.1</ele>
        <time>2015-10-17T11:19:39Z</time>
      </trkpt>
      <trkpt lat="43.60522" lon="6.29295">
        <ele>648.07</ele>
        <time>2015-10-17T11:19:48Z</time>
      </trkpt>
      <trkpt lat="43.60522" lon="6.29296">
        <ele>646.62</ele>
        <time>2015-10-17T11:19:59Z</time>
      </trkpt>
      <trkpt lat="43.60523" lon="6.29295">
        <ele>646.62</ele>
        <time>2015-10-17T11:20:24Z</time>
      </trkpt>
      <trkpt lat="43.60523" lon="6.29295">
        <ele>646.62</ele>
        <time>2015-10-17T11:20:50Z</time>
      </trkpt>
      <trkpt lat="43.60523" lon="6.29296">
        <ele>647.1</ele>
        <time>2015-10-17T11:21:19Z</time>
      </trkpt>
      <trkpt lat="43.60524" lon="6.29297">
        <ele>647.1</ele>
        <time>2015-10-17T11:21:47Z</time>
      </trkpt>
      <trkpt lat="43.60524" lon="6.29299">
        <ele>647.1</ele>
        <time>2015-10-17T11:22:17Z</time>
      </trkpt>
      <trkpt lat="43.60524" lon="6.29298">
        <ele>647.59</ele>
        <time>2015-10-17T11:22:45Z</time>
      </trkpt>
      <trkpt lat="43.60523" lon="6.29298">
        <ele>647.59</ele>
        <time>2015-10-17T11:23:16Z</time>
      </trkpt>
      <trkpt lat="43.60523" lon="6.29298">
        <ele>647.59</ele>
        <time>2015-10-17T11:23:44Z</time>
      </trkpt>
      <trkpt lat="43.60524" lon="6.29299">
        <ele>648.07</ele>
        <time>2015-10-17T11:24:11Z</time>
      </trkpt>
      <trkpt lat="43.60524" lon="6.293">
        <ele>648.07</ele>
        <time>2015-10-17T11:24:41Z</time>
      </trkpt>
      <trkpt lat="43.60523" lon="6.29299">
        <ele>648.07</ele>
        <time>2015-10-17T11:25:09Z</time>
      </trkpt>
      <trkpt lat="43.60523" lon="6.29298">
        <ele>648.07</ele>
        <time>2015-10-17T11:25:37Z</time>
      </trkpt>
      <trkpt lat="43.60524" lon="6.29298">
        <ele>648.07</ele>
        <time>2015-10-17T11:26:03Z</time>
      </trkpt>
      <trkpt lat="43.60523" lon="6.29298">
        <ele>648.55</ele>
        <time>2015-10-17T11:26:33Z</time>
      </trkpt>
      <trkpt lat="43.60524" lon="6.29297">
        <ele>648.55</ele>
        <time>2015-10-17T11:27:00Z</time>
      </trkpt>
      <trkpt lat="43.60523" lon="6.29299">
        <ele>649.03</ele>
        <time>2015-10-17T11:27:30Z</time>
      </trkpt>
      <trkpt lat="43.60524" lon="6.29299">
        <ele>649.03</ele>
        <time>2015-10-17T11:27:56Z</time>
      </trkpt>
      <trkpt lat="43.60524" lon="6.29299">
        <ele>649.03</ele>
        <time>2015-10-17T11:28:20Z</time>
      </trkpt>
      <trkpt lat="43.60523" lon="6.29299">
        <ele>649.51</ele>
        <time>2015-10-17T11:28:51Z</time>
      </trkpt>
      <trkpt lat="43.60523" lon="6.29299">
        <ele>649.51</ele>
        <time>2015-10-17T11:29:20Z</time>
      </trkpt>
      <trkpt lat="43.60522" lon="6.29298">
        <ele>649.51</ele>
        <time>2015-10-17T11:29:47Z</time>
      </trkpt>
      <trkpt lat="43.60522" lon="6.29299">
        <ele>649.99</ele>
        <time>2015-10-17T11:30:20Z</time>
      </trkpt>
      <trkpt lat="43.60522" lon="6.293">
        <ele>649.99</ele>
        <time>2015-10-17T11:30:51Z</time>
      </trkpt>
      <trkpt lat="43.60522" lon="6.293">
        <ele>650.47</ele>
        <time>2015-10-17T11:31:24Z</time>
      </trkpt>
      <trkpt lat="43.60523" lon="6.29301">
        <ele>650.47</ele>
        <time>2015-10-17T11:31:40Z</time>
      </trkpt>
      <trkpt lat="43.60523" lon="6.293">
        <ele>651.43</ele>
        <time>2015-10-17T11:31:53Z</time>
      </trkpt>
      <trkpt lat="43.60523" lon="6.293">
        <ele>651.43</ele>
        <time>2015-10-17T11:32:14Z</time>
      </trkpt>
      <trkpt lat="43.60523" lon="6.293">
        <ele>651.43</ele>
        <time>2015-10-17T11:32:34Z</time>
      </trkpt>
      <trkpt lat="43.60523" lon="6.29301">
        <ele>651.43</ele>
        <time>2015-10-17T11:32:52Z</time>
      </trkpt>
      <trkpt lat="43.60522" lon="6.293">
        <ele>651.43</ele>
        <time>2015-10-17T11:33:10Z</time>
      </trkpt>
      <trkpt lat="43.60523" lon="6.29299">
        <ele>651.91</ele>
        <time>2015-10-17T11:33:29Z</time>
      </trkpt>
      <trkpt lat="43.60524" lon="6.293">
        <ele>656.24</ele>
        <time>2015-10-17T11:33:46Z</time>
      </trkpt>
      <trkpt lat="43.60524" lon="6.293">
        <ele>651.91</ele>
        <time>2015-10-17T11:33:47Z</time>
      </trkpt>
      <trkpt lat="43.60524" lon="6.293">
        <ele>651.91</ele>
        <time>2015-10-17T11:34:10Z</time>
      </trkpt>
      <trkpt lat="43.60524" lon="6.29301">
        <ele>651.91</ele>
        <time>2015-10-17T11:34:43Z</time>
      </trkpt>
      <trkpt lat="43.60524" lon="6.29301">
        <ele>651.91</ele>
        <time>2015-10-17T11:35:08Z</time>
      </trkpt>
      <trkpt lat="43.60524" lon="6.29301">
        <ele>652.39</ele>
        <time>2015-10-17T11:35:38Z</time>
      </trkpt>
      <trkpt lat="43.60524" lon="6.29301">
        <ele>652.87</ele>
        <time>2015-10-17T11:36:03Z</time>
      </trkpt>
      <trkpt lat="43.60524" lon="6.29301">
        <ele>652.87</ele>
        <time>2015-10-17T11:36:28Z</time>
      </trkpt>
      <trkpt lat="43.60523" lon="6.29301">
        <ele>652.87</ele>
        <time>2015-10-17T11:36:59Z</time>
      </trkpt>
      <trkpt lat="43.60524" lon="6.29301">
        <ele>653.35</ele>
        <time>2015-10-17T11:37:28Z</time>
      </trkpt>
      <trkpt lat="43.60523" lon="6.29301">
        <ele>653.35</ele>
        <time>2015-10-17T11:37:58Z</time>
      </trkpt>
      <trkpt lat="43.60523" lon="6.29302">
        <ele>653.83</ele>
        <time>2015-10-17T11:38:26Z</time>
      </trkpt>
      <trkpt lat="43.60524" lon="6.29302">
        <ele>653.83</ele>
        <time>2015-10-17T11:38:50Z</time>
      </trkpt>
      <trkpt lat="43.60525" lon="6.29303">
        <ele>653.83</ele>
        <time>2015-10-17T11:39:17Z</time>
      </trkpt>
      <trkpt lat="43.60526" lon="6.29301">
        <ele>654.31</ele>
        <time>2015-10-17T11:39:44Z</time>
      </trkpt>
      <trkpt lat="43.60526" lon="6.293">
        <ele>654.31</ele>
        <time>2015-10-17T11:40:11Z</time>
      </trkpt>
      <trkpt lat="43.60526" lon="6.293">
        <ele>654.31</ele>
        <time>2015-10-17T11:40:41Z</time>
      </trkpt>
      <trkpt lat="43.60526" lon="6.293">
        <ele>654.31</ele>
        <time>2015-10-17T11:41:09Z</time>
      </trkpt>
      <trkpt lat="43.60526" lon="6.293">
        <ele>654.8</ele>
        <time>2015-10-17T11:41:38Z</time>
      </trkpt>
      <trkpt lat="43.60526" lon="6.293">
        <ele>654.8</ele>
        <time>2015-10-17T11:42:03Z</time>
      </trkpt>
      <trkpt lat="43.60526" lon="6.29301">
        <ele>654.8</ele>
        <time>2015-10-17T11:42:29Z</time>
      </trkpt>
      <trkpt lat="43.60527" lon="6.293">
        <ele>654.8</ele>
        <time>2015-10-17T11:43:01Z</time>
      </trkpt>
      <trkpt lat="43.60526" lon="6.293">
        <ele>654.8</ele>
        <time>2015-10-17T11:43:34Z</time>
      </trkpt>
      <trkpt lat="43.60526" lon="6.29298">
        <ele>654.8</ele>
        <time>2015-10-17T11:44:05Z</time>
      </trkpt>
      <trkpt lat="43.60526" lon="6.29299">
        <ele>654.8</ele>
        <time>2015-10-17T11:44:35Z</time>
      </trkpt>
      <trkpt lat="43.60526" lon="6.293">
        <ele>654.8</ele>
        <time>2015-10-17T11:45:05Z</time>
      </trkpt>
      <trkpt lat="43.60527" lon="6.293">
        <ele>654.8</ele>
        <time>2015-10-17T11:45:35Z</time>
      </trkpt>
      <trkpt lat="43.60526" lon="6.293">
        <ele>655.28</ele>
        <time>2015-10-17T11:46:08Z</time>
      </trkpt>
      <trkpt lat="43.60526" lon="6.293">
        <ele>655.28</ele>
        <time>2015-10-17T11:46:37Z</time>
      </trkpt>
      <trkpt lat="43.60526" lon="6.29301">
        <ele>655.28</ele>
        <time>2015-10-17T11:47:08Z</time>
      </trkpt>
      <trkpt lat="43.60526" lon="6.293">
        <ele>655.28</ele>
        <time>2015-10-17T11:47:31Z</time>
      </trkpt>
      <trkpt lat="43.60525" lon="6.293">
        <ele>655.28</ele>
        <time>2015-10-17T11:48:08Z</time>
      </trkpt>
      <trkpt lat="43.60525" lon="6.29301">
        <ele>655.28</ele>
        <time>2015-10-17T11:48:36Z</time>
      </trkpt>
      <trkpt lat="43.60525" lon="6.29301">
        <ele>655.76</ele>
        <time>2015-10-17T11:49:00Z</time>
      </trkpt>
      <trkpt lat="43.60524" lon="6.29301">
        <ele>655.76</ele>
        <time>2015-10-17T11:49:26Z</time>
      </trkpt>
      <trkpt lat="43.60524" lon="6.293">
        <ele>655.76</ele>
        <time>2015-10-17T11:49:50Z</time>
      </trkpt>
      <trkpt lat="43.60524" lon="6.29301">
        <ele>656.24</ele>
        <time>2015-10-17T11:50:19Z</time>
      </trkpt>
      <trkpt lat="43.60523" lon="6.29301">
        <ele>656.24</ele>
        <time>2015-10-17T11:50:51Z</time>
      </trkpt>
      <trkpt lat="43.60523" lon="6.293">
        <ele>656.24</ele>
        <time>2015-10-17T11:51:26Z</time>
      </trkpt>
      <trkpt lat="43.60523" lon="6.29302">
        <ele>656.72</ele>
        <time>2015-10-17T11:51:59Z</time>
      </trkpt>
      <trkpt lat="43.60522" lon="6.29302">
        <ele>656.72</ele>
        <time>2015-10-17T11:52:32Z</time>
      </trkpt>
      <trkpt lat="43.60522" lon="6.29302">
        <ele>656.24</ele>
        <time>2015-10-17T11:53:02Z</time>
      </trkpt>
      <trkpt lat="43.60522" lon="6.293">
        <ele>656.72</ele>
        <time>2015-10-17T11:53:35Z</time>
      </trkpt>
      <trkpt lat="43.60523" lon="6.293">
        <ele>656.72</ele>
        <time>2015-10-17T11:54:05Z</time>
      </trkpt>
      <trkpt lat="43.60523" lon="6.293">
        <ele>656.72</ele>
        <time>2015-10-17T11:54:39Z</time>
      </trkpt>
      <trkpt lat="43.60524" lon="6.293">
        <ele>656.72</ele>
        <time>2015-10-17T11:55:10Z</time>
      </trkpt>
      <trkpt lat="43.60524" lon="6.29301">
        <ele>656.72</ele>
        <time>2015-10-17T11:55:47Z</time>
      </trkpt>
      <trkpt lat="43.60523" lon="6.29301">
        <ele>656.72</ele>
        <time>2015-10-17T11:56:21Z</time>
      </trkpt>
      <trkpt lat="43.60523" lon="6.29302">
        <ele>657.2</ele>
        <time>2015-10-17T11:56:52Z</time>
      </trkpt>
      <trkpt lat="43.60523" lon="6.29303">
        <ele>657.2</ele>
        <time>2015-10-17T11:57:29Z</time>
      </trkpt>
      <trkpt lat="43.60522" lon="6.29302">
        <ele>657.2</ele>
        <time>2015-10-17T11:58:03Z</time>
      </trkpt>
      <trkpt lat="43.60522" lon="6.29302">
        <ele>657.68</ele>
        <time>2015-10-17T11:58:36Z</time>
      </trkpt>
      <trkpt lat="43.60523" lon="6.29301">
        <ele>657.68</ele>
        <time>2015-10-17T11:59:11Z</time>
      </trkpt>
      <trkpt lat="43.60523" lon="6.29301">
        <ele>657.68</ele>
        <time>2015-10-17T11:59:37Z</time>
      </trkpt>
      <trkpt lat="43.60523" lon="6.29301">
        <ele>658.16</ele>
        <time>2015-10-17T12:00:10Z</time>
      </trkpt>
      <trkpt lat="43.60523" lon="6.29301">
        <ele>658.16</ele>
        <time>2015-10-17T12:00:48Z</time>
      </trkpt>
      <trkpt lat="43.60524" lon="6.29301">
        <ele>658.16</ele>
        <time>2015-10-17T12:01:26Z</time>
      </trkpt>
      <trkpt lat="43.60524" lon="6.29302">
        <ele>658.64</ele>
        <time>2015-10-17T12:02:02Z</time>
      </trkpt>
      <trkpt lat="43.60523" lon="6.29302">
        <ele>658.64</ele>
        <time>2015-10-17T12:02:31Z</time>
      </trkpt>
      <trkpt lat="43.60523" lon="6.29302">
        <ele>658.64</ele>
        <time>2015-10-17T12:03:01Z</time>
      </trkpt>
      <trkpt lat="43.60523" lon="6.29302">
        <ele>658.64</ele>
        <time>2015-10-17T12:03:33Z</time>
      </trkpt>
      <trkpt lat="43.60524" lon="6.29301">
        <ele>658.64</ele>
        <time>2015-10-17T12:04:06Z</time>
      </trkpt>
      <trkpt lat="43.60524" lon="6.29301">
        <ele>658.64</ele>
        <time>2015-10-17T12:04:40Z</time>
      </trkpt>
      <trkpt lat="43.60524" lon="6.29299">
        <ele>658.64</ele>
        <time>2015-10-17T12:05:15Z</time>
      </trkpt>
      <trkpt lat="43.60524" lon="6.29299">
        <ele>659.12</ele>
        <time>2015-10-17T12:05:51Z</time>
      </trkpt>
      <trkpt lat="43.60524" lon="6.293">
        <ele>659.12</ele>
        <time>2015-10-17T12:06:25Z</time>
      </trkpt>
      <trkpt lat="43.60525" lon="6.293">
        <ele>659.12</ele>
        <time>2015-10-17T12:07:00Z</time>
      </trkpt>
      <trkpt lat="43.60525" lon="6.29299">
        <ele>659.12</ele>
        <time>2015-10-17T12:07:35Z</time>
      </trkpt>
      <trkpt lat="43.60524" lon="6.29299">
        <ele>659.12</ele>
        <time>2015-10-17T12:08:09Z</time>
      </trkpt>
      <trkpt lat="43.60524" lon="6.29301">
        <ele>660.08</ele>
        <time>2015-10-17T12:08:43Z</time>
      </trkpt>
      <trkpt lat="43.60525" lon="6.29301">
        <ele>659.12</ele>
        <time>2015-10-17T12:09:14Z</time>
      </trkpt>
      <trkpt lat="43.60525" lon="6.29301">
        <ele>659.12</ele>
        <time>2015-10-17T12:09:47Z</time>
      </trkpt>
      <trkpt lat="43.60526" lon="6.29301">
        <ele>658.64</ele>
        <time>2015-10-17T12:10:22Z</time>
      </trkpt>
      <trkpt lat="43.60525" lon="6.293">
        <ele>659.12</ele>
        <time>2015-10-17T12:10:53Z</time>
      </trkpt>
      <trkpt lat="43.60524" lon="6.29301">
        <ele>659.12</ele>
        <time>2015-10-17T12:11:25Z</time>
      </trkpt>
      <trkpt lat="43.60524" lon="6.29301">
        <ele>659.12</ele>
        <time>2015-10-17T12:11:55Z</time>
      </trkpt>
      <trkpt lat="43.60522" lon="6.29302">
        <ele>659.12</ele>
        <time>2015-10-17T12:12:29Z</time>
      </trkpt>
      <trkpt lat="43.60522" lon="6.29304">
        <ele>659.12</ele>
        <time>2015-10-17T12:12:59Z</time>
      </trkpt>
      <trkpt lat="43.60523" lon="6.29304">
        <ele>659.6</ele>
        <time>2015-10-17T12:13:30Z</time>
      </trkpt>
      <trkpt lat="43.60522" lon="6.29304">
        <ele>659.6</ele>
        <time>2015-10-17T12:14:10Z</time>
      </trkpt>
      <trkpt lat="43.60522" lon="6.29304">
        <ele>659.6</ele>
        <time>2015-10-17T12:14:49Z</time>
      </trkpt>
      <trkpt lat="43.60523" lon="6.29303">
        <ele>659.6</ele>
        <time>2015-10-17T12:15:22Z</time>
      </trkpt>
      <trkpt lat="43.60522" lon="6.29303">
        <ele>659.6</ele>
        <time>2015-10-17T12:15:57Z</time>
      </trkpt>
      <trkpt lat="43.60522" lon="6.29303">
        <ele>659.6</ele>
        <time>2015-10-17T12:16:29Z</time>
      </trkpt>
      <trkpt lat="43.60522" lon="6.29304">
        <ele>659.12</ele>
        <time>2015-10-17T12:17:01Z</time>
      </trkpt>
      <trkpt lat="43.60522" lon="6.29303">
        <ele>659.12</ele>
        <time>2015-10-17T12:17:32Z</time>
      </trkpt>
      <trkpt lat="43.60521" lon="6.29303">
        <ele>659.6</ele>
        <time>2015-10-17T12:17:59Z</time>
      </trkpt>
      <trkpt lat="43.60521" lon="6.29303">
        <ele>659.6</ele>
        <time>2015-10-17T12:18:30Z</time>
      </trkpt>
      <trkpt lat="43.60521" lon="6.29303">
        <ele>659.6</ele>
        <time>2015-10-17T12:18:54Z</time>
      </trkpt>
      <trkpt lat="43.6052" lon="6.29302">
        <ele>659.6</ele>
        <time>2015-10-17T12:19:23Z</time>
      </trkpt>
      <trkpt lat="43.6052" lon="6.29301">
        <ele>659.6</ele>
        <time>2015-10-17T12:19:51Z</time>
      </trkpt>
      <trkpt lat="43.6052" lon="6.29301">
        <ele>660.08</ele>
        <time>2015-10-17T12:20:16Z</time>
      </trkpt>
      <trkpt lat="43.6052" lon="6.293">
        <ele>660.08</ele>
        <time>2015-10-17T12:20:41Z</time>
      </trkpt>
      <trkpt lat="43.60521" lon="6.293">
        <ele>660.56</ele>
        <time>2015-10-17T12:21:08Z</time>
      </trkpt>
      <trkpt lat="43.60522" lon="6.29299">
        <ele>660.56</ele>
        <time>2015-10-17T12:21:37Z</time>
      </trkpt>
      <trkpt lat="43.60521" lon="6.29299">
        <ele>660.56</ele>
        <time>2015-10-17T12:22:05Z</time>
      </trkpt>
      <trkpt lat="43.60521" lon="6.29299">
        <ele>661.04</ele>
        <time>2015-10-17T12:22:34Z</time>
      </trkpt>
      <trkpt lat="43.60522" lon="6.293">
        <ele>661.04</ele>
        <time>2015-10-17T12:23:02Z</time>
      </trkpt>
      <trkpt lat="43.60522" lon="6.29302">
        <ele>661.52</ele>
        <time>2015-10-17T12:23:33Z</time>
      </trkpt>
      <trkpt lat="43.60523" lon="6.29303">
        <ele>661.04</ele>
        <time>2015-10-17T12:24:10Z</time>
      </trkpt>
      <trkpt lat="43.60523" lon="6.29303">
        <ele>660.56</ele>
        <time>2015-10-17T12:24:47Z</time>
      </trkpt>
      <trkpt lat="43.60523" lon="6.29303">
        <ele>661.04</ele>
        <time>2015-10-17T12:25:18Z</time>
      </trkpt>
      <trkpt lat="43.60523" lon="6.29303">
        <ele>661.04</ele>
        <time>2015-10-17T12:25:49Z</time>
      </trkpt>
      <trkpt lat="43.60523" lon="6.29302">
        <ele>661.04</ele>
        <time>2015-10-17T12:26:23Z</time>
      </trkpt>
      <trkpt lat="43.60523" lon="6.29301">
        <ele>661.04</ele>
        <time>2015-10-17T12:26:59Z</time>
      </trkpt>
      <trkpt lat="43.60523" lon="6.29301">
        <ele>661.04</ele>
        <time>2015-10-17T12:27:32Z</time>
      </trkpt>
      <trkpt lat="43.60523" lon="6.29301">
        <ele>661.04</ele>
        <time>2015-10-17T12:28:03Z</time>
      </trkpt>
      <trkpt lat="43.60524" lon="6.29302">
        <ele>661.52</ele>
        <time>2015-10-17T12:28:30Z</time>
      </trkpt>
      <trkpt lat="43.60524" lon="6.29302">
        <ele>661.52</ele>
        <time>2015-10-17T12:29:02Z</time>
      </trkpt>
      <trkpt lat="43.60524" lon="6.29301">
        <ele>661.52</ele>
        <time>2015-10-17T12:29:32Z</time>
      </trkpt>
      <trkpt lat="43.60524" lon="6.29299">
        <ele>661.52</ele>
        <time>2015-10-17T12:29:59Z</time>
      </trkpt>
      <trkpt lat="43.60524" lon="6.29299">
        <ele>661.52</ele>
        <time>2015-10-17T12:30:31Z</time>
      </trkpt>
      <trkpt lat="43.60524" lon="6.293">
        <ele>661.52</ele>
        <time>2015-10-17T12:31:00Z</time>
      </trkpt>
      <trkpt lat="43.60524" lon="6.29301">
        <ele>661.52</ele>
        <time>2015-10-17T12:31:34Z</time>
      </trkpt>
      <trkpt lat="43.60523" lon="6.29302">
        <ele>661.52</ele>
        <time>2015-10-17T12:32:04Z</time>
      </trkpt>
      <trkpt lat="43.60523" lon="6.29302">
        <ele>661.52</ele>
        <time>2015-10-17T12:32:36Z</time>
      </trkpt>
      <trkpt lat="43.60524" lon="6.29301">
        <ele>661.52</ele>
        <time>2015-10-17T12:33:03Z</time>
      </trkpt>
      <trkpt lat="43.60522" lon="6.29301">
        <ele>661.52</ele>
        <time>2015-10-17T12:33:32Z</time>
      </trkpt>
      <trkpt lat="43.60522" lon="6.29301">
        <ele>661.52</ele>
        <time>2015-10-17T12:34:03Z</time>
      </trkpt>
      <trkpt lat="43.60523" lon="6.29301">
        <ele>662.01</ele>
        <time>2015-10-17T12:34:21Z</time>
      </trkpt>
      <trkpt lat="43.60521" lon="6.29303">
        <ele>661.52</ele>
        <time>2015-10-17T12:34:25Z</time>
      </trkpt>
      <trkpt lat="43.60519" lon="6.29299">
        <ele>661.52</ele>
        <time>2015-10-17T12:34:35Z</time>
      </trkpt>
      <trkpt lat="43.6052" lon="6.293">
        <ele>661.04</ele>
        <time>2015-10-17T12:34:50Z</time>
      </trkpt>
      <trkpt lat="43.60521" lon="6.29301">
        <ele>661.52</ele>
        <time>2015-10-17T12:35:19Z</time>
      </trkpt>
      <trkpt lat="43.60523" lon="6.293">
        <ele>661.52</ele>
        <time>2015-10-17T12:35:47Z</time>
      </trkpt>
      <trkpt lat="43.60523" lon="6.29301">
        <ele>662.01</ele>
        <time>2015-10-17T12:36:12Z</time>
      </trkpt>
      <trkpt lat="43.60524" lon="6.29301">
        <ele>662.01</ele>
        <time>2015-10-17T12:36:40Z</time>
      </trkpt>
      <trkpt lat="43.60525" lon="6.29301">
        <ele>662.01</ele>
        <time>2015-10-17T12:37:10Z</time>
      </trkpt>
      <trkpt lat="43.60522" lon="6.29301">
        <ele>662.01</ele>
        <time>2015-10-17T12:37:52Z</time>
      </trkpt>
      <trkpt lat="43.60522" lon="6.29303">
        <ele>662.01</ele>
        <time>2015-10-17T12:38:25Z</time>
      </trkpt>
      <trkpt lat="43.60523" lon="6.29303">
        <ele>662.49</ele>
        <time>2015-10-17T12:38:40Z</time>
      </trkpt>
      <trkpt lat="43.60523" lon="6.29304">
        <ele>662.97</ele>
        <time>2015-10-17T12:38:52Z</time>
      </trkpt>
      <trkpt lat="43.60523" lon="6.29303">
        <ele>663.45</ele>
        <time>2015-10-17T12:39:04Z</time>
      </trkpt>
      <trkpt lat="43.60523" lon="6.29303">
        <ele>663.45</ele>
        <time>2015-10-17T12:39:30Z</time>
      </trkpt>
      <trkpt lat="43.60523" lon="6.29303">
        <ele>663.45</ele>
        <time>2015-10-17T12:39:42Z</time>
      </trkpt>
      <trkpt lat="43.60521" lon="6.29305">
        <ele>663.45</ele>
        <time>2015-10-17T12:39:57Z</time>
      </trkpt>
      <trkpt lat="43.60521" lon="6.29303">
        <ele>663.45</ele>
        <time>2015-10-17T12:40:15Z</time>
      </trkpt>
      <trkpt lat="43.60512" lon="6.29302">
        <ele>662.97</ele>
        <time>2015-10-17T12:40:26Z</time>
      </trkpt>
      <trkpt lat="43.60516" lon="6.29301">
        <ele>663.45</ele>
        <time>2015-10-17T12:40:35Z</time>
      </trkpt>
      <trkpt lat="43.60521" lon="6.29299">
        <ele>663.93</ele>
        <time>2015-10-17T12:40:46Z</time>
      </trkpt>
      <trkpt lat="43.60521" lon="6.29299">
        <ele>663.93</ele>
        <time>2015-10-17T12:41:06Z</time>
      </trkpt>
      <trkpt lat="43.60521" lon="6.29299">
        <ele>663.93</ele>
        <time>2015-10-17T12:41:27Z</time>
      </trkpt>
      <trkpt lat="43.6052" lon="6.29299">
        <ele>663.93</ele>
        <time>2015-10-17T12:41:51Z</time>
      </trkpt>
      <trkpt lat="43.6052" lon="6.293">
        <ele>663.93</ele>
        <time>2015-10-17T12:42:05Z</time>
      </trkpt>
      <trkpt lat="43.6052" lon="6.293">
        <ele>663.45</ele>
        <time>2015-10-17T12:42:21Z</time>
      </trkpt>
      <trkpt lat="43.6052" lon="6.293">
        <ele>663.93</ele>
        <time>2015-10-17T12:42:38Z</time>
      </trkpt>
      <trkpt lat="43.6052" lon="6.293">
        <ele>663.93</ele>
        <time>2015-10-17T12:43:02Z</time>
      </trkpt>
      <trkpt lat="43.60519" lon="6.29299">
        <ele>663.93</ele>
        <time>2015-10-17T12:43:25Z</time>
      </trkpt>
      <trkpt lat="43.60519" lon="6.29298">
        <ele>663.45</ele>
        <time>2015-10-17T12:43:50Z</time>
      </trkpt>
      <trkpt lat="43.60519" lon="6.29296">
        <ele>663.45</ele>
        <time>2015-10-17T12:44:11Z</time>
      </trkpt>
      <trkpt lat="43.6052" lon="6.29296">
        <ele>663.45</ele>
        <time>2015-10-17T12:44:29Z</time>
      </trkpt>
      <trkpt lat="43.6052" lon="6.29296">
        <ele>663.45</ele>
        <time>2015-10-17T12:44:45Z</time>
      </trkpt>
      <trkpt lat="43.6052" lon="6.29296">
        <ele>663.45</ele>
        <time>2015-10-17T12:45:07Z</time>
      </trkpt>
      <trkpt lat="43.6052" lon="6.29296">
        <ele>663.45</ele>
        <time>2015-10-17T12:45:23Z</time>
      </trkpt>
      <trkpt lat="43.60517" lon="6.29299">
        <ele>663.45</ele>
        <time>2015-10-17T12:45:37Z</time>
      </trkpt>
      <trkpt lat="43.60518" lon="6.29299">
        <ele>662.97</ele>
        <time>2015-10-17T12:45:49Z</time>
      </trkpt>
      <trkpt lat="43.60517" lon="6.293">
        <ele>662.49</ele>
        <time>2015-10-17T12:46:09Z</time>
      </trkpt>
      <trkpt lat="43.60517" lon="6.29299">
        <ele>662.49</ele>
        <time>2015-10-17T12:46:27Z</time>
      </trkpt>
      <trkpt lat="43.60517" lon="6.29301">
        <ele>662.01</ele>
        <time>2015-10-17T12:46:31Z</time>
      </trkpt>
      <trkpt lat="43.60519" lon="6.293">
        <ele>662.49</ele>
        <time>2015-10-17T12:46:41Z</time>
      </trkpt>
      <trkpt lat="43.60519" lon="6.29299">
        <ele>662.49</ele>
        <time>2015-10-17T12:46:55Z</time>
      </trkpt>
      <trkpt lat="43.60517" lon="6.29298">
        <ele>662.49</ele>
        <time>2015-10-17T12:47:07Z</time>
      </trkpt>
      <trkpt lat="43.60517" lon="6.29299">
        <ele>662.49</ele>
        <time>2015-10-17T12:47:21Z</time>
      </trkpt>
      <trkpt lat="43.60514" lon="6.293">
        <ele>662.49</ele>
        <time>2015-10-17T12:47:41Z</time>
      </trkpt>
      <trkpt lat="43.60516" lon="6.29302">
        <ele>662.49</ele>
        <time>2015-10-17T12:47:46Z</time>
      </trkpt>
      <trkpt lat="43.60525" lon="6.29303">
        <ele>662.97</ele>
        <time>2015-10-17T12:47:57Z</time>
      </trkpt>
      <trkpt lat="43.60526" lon="6.29304">
        <ele>662.97</ele>
        <time>2015-10-17T12:47:58Z</time>
      </trkpt>
      <trkpt lat="43.60527" lon="6.29311">
        <ele>662.97</ele>
        <time>2015-10-17T12:48:05Z</time>
      </trkpt>
      <trkpt lat="43.60529" lon="6.29314">
        <ele>662.97</ele>
        <time>2015-10-17T12:48:07Z</time>
      </trkpt>
      <trkpt lat="43.60539" lon="6.29327">
        <ele>662.97</ele>
        <time>2015-10-17T12:48:18Z</time>
      </trkpt>
      <trkpt lat="43.60543" lon="6.29332">
        <ele>662.97</ele>
        <time>2015-10-17T12:48:22Z</time>
      </trkpt>
      <trkpt lat="43.60553" lon="6.2935">
        <ele>662.97</ele>
        <time>2015-10-17T12:48:34Z</time>
      </trkpt>
      <trkpt lat="43.60555" lon="6.29356">
        <ele>663.45</ele>
        <time>2015-10-17T12:48:38Z</time>
      </trkpt>
      <trkpt lat="43.6056" lon="6.29363">
        <ele>663.45</ele>
        <time>2015-10-17T12:48:45Z</time>
      </trkpt>
      <trkpt lat="43.60575" lon="6.29364">
        <ele>664.89</ele>
        <time>2015-10-17T12:48:58Z</time>
      </trkpt>
      <trkpt lat="43.60587" lon="6.29371">
        <ele>666.33</ele>
        <time>2015-10-17T12:49:10Z</time>
      </trkpt>
      <trkpt lat="43.60599" lon="6.29372">
        <ele>666.81</ele>
        <time>2015-10-17T12:49:19Z</time>
      </trkpt>
      <trkpt lat="43.60601" lon="6.29372">
        <ele>666.81</ele>
        <time>2015-10-17T12:49:21Z</time>
      </trkpt>
      <trkpt lat="43.60614" lon="6.2937">
        <ele>667.29</ele>
        <time>2015-10-17T12:49:35Z</time>
      </trkpt>
      <trkpt lat="43.60615" lon="6.2937">
        <ele>666.81</ele>
        <time>2015-10-17T12:49:36Z</time>
      </trkpt>
      <trkpt lat="43.60623" lon="6.29372">
        <ele>666.81</ele>
        <time>2015-10-17T12:49:43Z</time>
      </trkpt>
      <trkpt lat="43.60647" lon="6.29379">
        <ele>666.33</ele>
        <time>2015-10-17T12:49:58Z</time>
      </trkpt>
      <trkpt lat="43.60655" lon="6.29386">
        <ele>665.37</ele>
        <time>2015-10-17T12:50:17Z</time>
      </trkpt>
      <trkpt lat="43.60655" lon="6.29386">
        <ele>665.37</ele>
        <time>2015-10-17T12:50:20Z</time>
      </trkpt>
      <trkpt lat="43.60656" lon="6.2939">
        <ele>664.41</ele>
        <time>2015-10-17T12:50:24Z</time>
      </trkpt>
      <trkpt lat="43.60656" lon="6.29395">
        <ele>663.93</ele>
        <time>2015-10-17T12:50:38Z</time>
      </trkpt>
      <trkpt lat="43.60655" lon="6.29397">
        <ele>663.93</ele>
        <time>2015-10-17T12:50:57Z</time>
      </trkpt>
      <trkpt lat="43.60654" lon="6.29397">
        <ele>663.93</ele>
        <time>2015-10-17T12:51:08Z</time>
      </trkpt>
      <trkpt lat="43.60656" lon="6.29391">
        <ele>664.89</ele>
        <time>2015-10-17T12:51:20Z</time>
      </trkpt>
      <trkpt lat="43.60656" lon="6.29387">
        <ele>664.89</ele>
        <time>2015-10-17T12:51:35Z</time>
      </trkpt>
      <trkpt lat="43.60656" lon="6.29388">
        <ele>664.41</ele>
        <time>2015-10-17T12:52:06Z</time>
      </trkpt>
      <trkpt lat="43.60656" lon="6.29388">
        <ele>663.93</ele>
        <time>2015-10-17T12:52:20Z</time>
      </trkpt>
      <trkpt lat="43.60656" lon="6.29387">
        <ele>663.93</ele>
        <time>2015-10-17T12:52:34Z</time>
      </trkpt>
      <trkpt lat="43.60655" lon="6.29388">
        <ele>663.93</ele>
        <time>2015-10-17T12:52:54Z</time>
      </trkpt>
      <trkpt lat="43.60654" lon="6.29388">
        <ele>663.93</ele>
        <time>2015-10-17T12:53:15Z</time>
      </trkpt>
      <trkpt lat="43.60654" lon="6.29389">
        <ele>664.41</ele>
        <time>2015-10-17T12:53:28Z</time>
      </trkpt>
      <trkpt lat="43.60654" lon="6.29389">
        <ele>664.41</ele>
        <time>2015-10-17T12:53:44Z</time>
      </trkpt>
      <trkpt lat="43.60654" lon="6.29388">
        <ele>664.41</ele>
        <time>2015-10-17T12:54:02Z</time>
      </trkpt>
      <trkpt lat="43.60653" lon="6.29386">
        <ele>664.41</ele>
        <time>2015-10-17T12:54:20Z</time>
      </trkpt>
      <trkpt lat="43.60651" lon="6.29387">
        <ele>664.89</ele>
        <time>2015-10-17T12:54:34Z</time>
      </trkpt>
      <trkpt lat="43.60651" lon="6.29385">
        <ele>664.41</ele>
        <time>2015-10-17T12:55:03Z</time>
      </trkpt>
      <trkpt lat="43.60653" lon="6.29391">
        <ele>663.45</ele>
        <time>2015-10-17T12:55:22Z</time>
      </trkpt>
      <trkpt lat="43.60666" lon="6.29399">
        <ele>663.93</ele>
        <time>2015-10-17T12:55:37Z</time>
      </trkpt>
      <trkpt lat="43.60669" lon="6.294">
        <ele>663.93</ele>
        <time>2015-10-17T12:55:39Z</time>
      </trkpt>
      <trkpt lat="43.60671" lon="6.29402">
        <ele>664.41</ele>
        <time>2015-10-17T12:55:41Z</time>
      </trkpt>
      <trkpt lat="43.60679" lon="6.29405">
        <ele>664.89</ele>
        <time>2015-10-17T12:55:48Z</time>
      </trkpt>
      <trkpt lat="43.60689" lon="6.29412">
        <ele>664.89</ele>
        <time>2015-10-17T12:55:56Z</time>
      </trkpt>
      <trkpt lat="43.60698" lon="6.29423">
        <ele>664.41</ele>
        <time>2015-10-17T12:56:05Z</time>
      </trkpt>
      <trkpt lat="43.607" lon="6.29426">
        <ele>664.89</ele>
        <time>2015-10-17T12:56:07Z</time>
      </trkpt>
      <trkpt lat="43.60703" lon="6.29429">
        <ele>664.89</ele>
        <time>2015-10-17T12:56:10Z</time>
      </trkpt>
      <trkpt lat="43.60711" lon="6.29444">
        <ele>664.89</ele>
        <time>2015-10-17T12:56:19Z</time>
      </trkpt>
      <trkpt lat="43.60724" lon="6.29469">
        <ele>665.37</ele>
        <time>2015-10-17T12:56:35Z</time>
      </trkpt>
      <trkpt lat="43.60728" lon="6.29499">
        <ele>665.37</ele>
        <time>2015-10-17T12:56:51Z</time>
      </trkpt>
      <trkpt lat="43.60728" lon="6.29501">
        <ele>665.85</ele>
        <time>2015-10-17T12:56:52Z</time>
      </trkpt>
      <trkpt lat="43.60735" lon="6.29531">
        <ele>665.85</ele>
        <time>2015-10-17T12:57:07Z</time>
      </trkpt>
      <trkpt lat="43.60738" lon="6.29559">
        <ele>666.81</ele>
        <time>2015-10-17T12:57:24Z</time>
      </trkpt>
      <trkpt lat="43.60743" lon="6.29579">
        <ele>666.81</ele>
        <time>2015-10-17T12:57:37Z</time>
      </trkpt>
      <trkpt lat="43.60752" lon="6.29612">
        <ele>667.77</ele>
        <time>2015-10-17T12:57:52Z</time>
      </trkpt>
      <trkpt lat="43.60757" lon="6.29633">
        <ele>668.25</ele>
        <time>2015-10-17T12:58:03Z</time>
      </trkpt>
      <trkpt lat="43.60767" lon="6.29658">
        <ele>668.25</ele>
        <time>2015-10-17T12:58:17Z</time>
      </trkpt>
      <trkpt lat="43.6078" lon="6.29672">
        <ele>668.73</ele>
        <time>2015-10-17T12:58:29Z</time>
      </trkpt>
      <trkpt lat="43.60785" lon="6.2969">
        <ele>669.22</ele>
        <time>2015-10-17T12:58:38Z</time>
      </trkpt>
      <trkpt lat="43.60786" lon="6.29704">
        <ele>670.18</ele>
        <time>2015-10-17T12:58:45Z</time>
      </trkpt>
      <trkpt lat="43.60788" lon="6.29706">
        <ele>669.7</ele>
        <time>2015-10-17T12:58:47Z</time>
      </trkpt>
      <trkpt lat="43.60803" lon="6.29721">
        <ele>670.66</ele>
        <time>2015-10-17T12:59:00Z</time>
      </trkpt>
      <trkpt lat="43.60808" lon="6.29724">
        <ele>671.14</ele>
        <time>2015-10-17T12:59:03Z</time>
      </trkpt>
      <trkpt lat="43.60815" lon="6.29734">
        <ele>671.14</ele>
        <time>2015-10-17T12:59:09Z</time>
      </trkpt>
      <trkpt lat="43.60816" lon="6.29761">
        <ele>672.1</ele>
        <time>2015-10-17T12:59:24Z</time>
      </trkpt>
      <trkpt lat="43.60815" lon="6.29768">
        <ele>672.58</ele>
        <time>2015-10-17T12:59:29Z</time>
      </trkpt>
      <trkpt lat="43.60814" lon="6.29773">
        <ele>672.58</ele>
        <time>2015-10-17T12:59:31Z</time>
      </trkpt>
      <trkpt lat="43.60812" lon="6.29782">
        <ele>673.06</ele>
        <time>2015-10-17T12:59:35Z</time>
      </trkpt>
      <trkpt lat="43.60821" lon="6.29798">
        <ele>674.02</ele>
        <time>2015-10-17T12:59:48Z</time>
      </trkpt>
      <trkpt lat="43.60833" lon="6.29801">
        <ele>674.5</ele>
        <time>2015-10-17T12:59:54Z</time>
      </trkpt>
      <trkpt lat="43.60847" lon="6.29806">
        <ele>674.98</ele>
        <time>2015-10-17T13:00:04Z</time>
      </trkpt>
      <trkpt lat="43.60851" lon="6.29816">
        <ele>675.46</ele>
        <time>2015-10-17T13:00:09Z</time>
      </trkpt>
      <trkpt lat="43.60856" lon="6.29823">
        <ele>675.46</ele>
        <time>2015-10-17T13:00:14Z</time>
      </trkpt>
      <trkpt lat="43.60862" lon="6.29832">
        <ele>675.94</ele>
        <time>2015-10-17T13:00:19Z</time>
      </trkpt>
      <trkpt lat="43.60865" lon="6.29834">
        <ele>676.42</ele>
        <time>2015-10-17T13:00:21Z</time>
      </trkpt>
      <trkpt lat="43.60873" lon="6.29853">
        <ele>676.91</ele>
        <time>2015-10-17T13:00:30Z</time>
      </trkpt>
      <trkpt lat="43.60881" lon="6.29859">
        <ele>676.91</ele>
        <time>2015-10-17T13:00:36Z</time>
      </trkpt>
      <trkpt lat="43.60886" lon="6.29867">
        <ele>677.39</ele>
        <time>2015-10-17T13:00:41Z</time>
      </trkpt>
      <trkpt lat="43.60902" lon="6.29886">
        <ele>678.35</ele>
        <time>2015-10-17T13:00:54Z</time>
      </trkpt>
      <trkpt lat="43.60913" lon="6.29905">
        <ele>678.83</ele>
        <time>2015-10-17T13:01:05Z</time>
      </trkpt>
      <trkpt lat="43.6091" lon="6.29933">
        <ele>679.31</ele>
        <time>2015-10-17T13:01:20Z</time>
      </trkpt>
      <trkpt lat="43.60911" lon="6.29946">
        <ele>680.27</ele>
        <time>2015-10-17T13:01:27Z</time>
      </trkpt>
      <trkpt lat="43.60917" lon="6.29971">
        <ele>680.75</ele>
        <time>2015-10-17T13:01:40Z</time>
      </trkpt>
      <trkpt lat="43.60918" lon="6.29981">
        <ele>681.23</ele>
        <time>2015-10-17T13:01:45Z</time>
      </trkpt>
      <trkpt lat="43.60924" lon="6.30006">
        <ele>681.71</ele>
        <time>2015-10-17T13:01:56Z</time>
      </trkpt>
      <trkpt lat="43.60921" lon="6.30028">
        <ele>681.71</ele>
        <time>2015-10-17T13:02:07Z</time>
      </trkpt>
      <trkpt lat="43.60903" lon="6.30044">
        <ele>683.15</ele>
        <time>2015-10-17T13:02:19Z</time>
      </trkpt>
      <trkpt lat="43.60901" lon="6.30046">
        <ele>683.15</ele>
        <time>2015-10-17T13:02:21Z</time>
      </trkpt>
      <trkpt lat="43.60887" lon="6.30059">
        <ele>685.08</ele>
        <time>2015-10-17T13:02:33Z</time>
      </trkpt>
      <trkpt lat="43.60884" lon="6.30065">
        <ele>686.04</ele>
        <time>2015-10-17T13:02:37Z</time>
      </trkpt>
      <trkpt lat="43.6088" lon="6.30069">
        <ele>686.04</ele>
        <time>2015-10-17T13:02:40Z</time>
      </trkpt>
      <trkpt lat="43.60868" lon="6.30089">
        <ele>686.52</ele>
        <time>2015-10-17T13:02:50Z</time>
      </trkpt>
      <trkpt lat="43.60858" lon="6.30121">
        <ele>687.48</ele>
        <time>2015-10-17T13:03:04Z</time>
      </trkpt>
      <trkpt lat="43.60857" lon="6.30134">
        <ele>687.48</ele>
        <time>2015-10-17T13:03:09Z</time>
      </trkpt>
      <trkpt lat="43.60854" lon="6.30148">
        <ele>687.48</ele>
        <time>2015-10-17T13:03:16Z</time>
      </trkpt>
      <trkpt lat="43.60851" lon="6.30187">
        <ele>687.96</ele>
        <time>2015-10-17T13:03:32Z</time>
      </trkpt>
      <trkpt lat="43.60851" lon="6.30189">
        <ele>687.96</ele>
        <time>2015-10-17T13:03:33Z</time>
      </trkpt>
      <trkpt lat="43.60852" lon="6.30199">
        <ele>688.44</ele>
        <time>2015-10-17T13:03:38Z</time>
      </trkpt>
      <trkpt lat="43.60849" lon="6.30227">
        <ele>688.92</ele>
        <time>2015-10-17T13:03:51Z</time>
      </trkpt>
      <trkpt lat="43.60849" lon="6.30232">
        <ele>688.92</ele>
        <time>2015-10-17T13:03:53Z</time>
      </trkpt>
      <trkpt lat="43.60848" lon="6.30263">
        <ele>689.4</ele>
        <time>2015-10-17T13:04:07Z</time>
      </trkpt>
      <trkpt lat="43.60847" lon="6.3028">
        <ele>689.4</ele>
        <time>2015-10-17T13:04:15Z</time>
      </trkpt>
      <trkpt lat="43.60838" lon="6.30303">
        <ele>690.84</ele>
        <time>2015-10-17T13:04:27Z</time>
      </trkpt>
      <trkpt lat="43.60826" lon="6.30321">
        <ele>690.84</ele>
        <time>2015-10-17T13:04:39Z</time>
      </trkpt>
      <trkpt lat="43.60823" lon="6.30327">
        <ele>690.84</ele>
        <time>2015-10-17T13:04:42Z</time>
      </trkpt>
      <trkpt lat="43.60807" lon="6.30347">
        <ele>691.81</ele>
        <time>2015-10-17T13:04:55Z</time>
      </trkpt>
      <trkpt lat="43.60799" lon="6.30358">
        <ele>692.77</ele>
        <time>2015-10-17T13:05:02Z</time>
      </trkpt>
      <trkpt lat="43.60791" lon="6.3039">
        <ele>692.77</ele>
        <time>2015-10-17T13:05:14Z</time>
      </trkpt>
      <trkpt lat="43.60788" lon="6.304">
        <ele>692.77</ele>
        <time>2015-10-17T13:05:20Z</time>
      </trkpt>
      <trkpt lat="43.6078" lon="6.30412">
        <ele>693.73</ele>
        <time>2015-10-17T13:05:28Z</time>
      </trkpt>
      <trkpt lat="43.60768" lon="6.30428">
        <ele>693.73</ele>
        <time>2015-10-17T13:05:36Z</time>
      </trkpt>
      <trkpt lat="43.60747" lon="6.30452">
        <ele>694.21</ele>
        <time>2015-10-17T13:05:51Z</time>
      </trkpt>
      <trkpt lat="43.60737" lon="6.30472">
        <ele>694.69</ele>
        <time>2015-10-17T13:06:02Z</time>
      </trkpt>
      <trkpt lat="43.6073" lon="6.30493">
        <ele>695.17</ele>
        <time>2015-10-17T13:06:12Z</time>
      </trkpt>
      <trkpt lat="43.60725" lon="6.30501">
        <ele>695.17</ele>
        <time>2015-10-17T13:06:16Z</time>
      </trkpt>
      <trkpt lat="43.60714" lon="6.30513">
        <ele>695.17</ele>
        <time>2015-10-17T13:06:27Z</time>
      </trkpt>
      <trkpt lat="43.60703" lon="6.30537">
        <ele>695.17</ele>
        <time>2015-10-17T13:06:41Z</time>
      </trkpt>
      <trkpt lat="43.60697" lon="6.30548">
        <ele>695.65</ele>
        <time>2015-10-17T13:06:47Z</time>
      </trkpt>
      <trkpt lat="43.60689" lon="6.3058">
        <ele>696.13</ele>
        <time>2015-10-17T13:07:02Z</time>
      </trkpt>
      <trkpt lat="43.60682" lon="6.30603">
        <ele>696.61</ele>
        <time>2015-10-17T13:07:15Z</time>
      </trkpt>
      <trkpt lat="43.60673" lon="6.30625">
        <ele>697.09</ele>
        <time>2015-10-17T13:07:26Z</time>
      </trkpt>
      <trkpt lat="43.60656" lon="6.30652">
        <ele>698.05</ele>
        <time>2015-10-17T13:07:41Z</time>
      </trkpt>
      <trkpt lat="43.60638" lon="6.30673">
        <ele>698.53</ele>
        <time>2015-10-17T13:07:55Z</time>
      </trkpt>
      <trkpt lat="43.6062" lon="6.30687">
        <ele>699.02</ele>
        <time>2015-10-17T13:08:08Z</time>
      </trkpt>
      <trkpt lat="43.60618" lon="6.30689">
        <ele>699.02</ele>
        <time>2015-10-17T13:08:09Z</time>
      </trkpt>
      <trkpt lat="43.60612" lon="6.30688">
        <ele>699.5</ele>
        <time>2015-10-17T13:08:13Z</time>
      </trkpt>
      <trkpt lat="43.60602" lon="6.30682">
        <ele>700.46</ele>
        <time>2015-10-17T13:08:20Z</time>
      </trkpt>
      <trkpt lat="43.60582" lon="6.30688">
        <ele>701.42</ele>
        <time>2015-10-17T13:08:33Z</time>
      </trkpt>
      <trkpt lat="43.60566" lon="6.30684">
        <ele>702.38</ele>
        <time>2015-10-17T13:08:44Z</time>
      </trkpt>
      <trkpt lat="43.60546" lon="6.30684">
        <ele>704.3</ele>
        <time>2015-10-17T13:08:57Z</time>
      </trkpt>
      <trkpt lat="43.60525" lon="6.30689">
        <ele>705.26</ele>
        <time>2015-10-17T13:09:10Z</time>
      </trkpt>
      <trkpt lat="43.60503" lon="6.30689">
        <ele>706.71</ele>
        <time>2015-10-17T13:09:24Z</time>
      </trkpt>
      <trkpt lat="43.60477" lon="6.30703">
        <ele>708.63</ele>
        <time>2015-10-17T13:09:41Z</time>
      </trkpt>
      <trkpt lat="43.60457" lon="6.30715">
        <ele>710.55</ele>
        <time>2015-10-17T13:09:55Z</time>
      </trkpt>
      <trkpt lat="43.60441" lon="6.30727">
        <ele>711.51</ele>
        <time>2015-10-17T13:10:08Z</time>
      </trkpt>
      <trkpt lat="43.6044" lon="6.30727">
        <ele>711.51</ele>
        <time>2015-10-17T13:10:09Z</time>
      </trkpt>
      <trkpt lat="43.60434" lon="6.30736">
        <ele>712.47</ele>
        <time>2015-10-17T13:10:15Z</time>
      </trkpt>
      <trkpt lat="43.60422" lon="6.30742">
        <ele>712.95</ele>
        <time>2015-10-17T13:10:23Z</time>
      </trkpt>
      <trkpt lat="43.60396" lon="6.30732">
        <ele>714.88</ele>
        <time>2015-10-17T13:10:38Z</time>
      </trkpt>
      <trkpt lat="43.60379" lon="6.30729">
        <ele>717.28</ele>
        <time>2015-10-17T13:10:50Z</time>
      </trkpt>
      <trkpt lat="43.6037" lon="6.30726">
        <ele>718.24</ele>
        <time>2015-10-17T13:10:56Z</time>
      </trkpt>
      <trkpt lat="43.60365" lon="6.30726">
        <ele>718.24</ele>
        <time>2015-10-17T13:11:00Z</time>
      </trkpt>
      <trkpt lat="43.60349" lon="6.30729">
        <ele>719.2</ele>
        <time>2015-10-17T13:11:11Z</time>
      </trkpt>
      <trkpt lat="43.60326" lon="6.30744">
        <ele>720.65</ele>
        <time>2015-10-17T13:11:27Z</time>
      </trkpt>
      <trkpt lat="43.60305" lon="6.30756">
        <ele>721.61</ele>
        <time>2015-10-17T13:11:42Z</time>
      </trkpt>
      <trkpt lat="43.60278" lon="6.30767">
        <ele>722.57</ele>
        <time>2015-10-17T13:12:00Z</time>
      </trkpt>
      <trkpt lat="43.60255" lon="6.30776">
        <ele>723.53</ele>
        <time>2015-10-17T13:12:15Z</time>
      </trkpt>
      <trkpt lat="43.60233" lon="6.30791">
        <ele>724.01</ele>
        <time>2015-10-17T13:12:30Z</time>
      </trkpt>
      <trkpt lat="43.60212" lon="6.30803">
        <ele>725.45</ele>
        <time>2015-10-17T13:12:45Z</time>
      </trkpt>
      <trkpt lat="43.60207" lon="6.30807">
        <ele>725.93</ele>
        <time>2015-10-17T13:12:48Z</time>
      </trkpt>
      <trkpt lat="43.60182" lon="6.30824">
        <ele>725.93</ele>
        <time>2015-10-17T13:13:04Z</time>
      </trkpt>
      <trkpt lat="43.60164" lon="6.30837">
        <ele>726.89</ele>
        <time>2015-10-17T13:13:17Z</time>
      </trkpt>
      <trkpt lat="43.60147" lon="6.3085">
        <ele>727.37</ele>
        <time>2015-10-17T13:13:30Z</time>
      </trkpt>
      <trkpt lat="43.60127" lon="6.30856">
        <ele>730.26</ele>
        <time>2015-10-17T13:13:43Z</time>
      </trkpt>
      <trkpt lat="43.60118" lon="6.30857">
        <ele>731.22</ele>
        <time>2015-10-17T13:13:49Z</time>
      </trkpt>
      <trkpt lat="43.60105" lon="6.30841">
        <ele>732.66</ele>
        <time>2015-10-17T13:14:03Z</time>
      </trkpt>
      <trkpt lat="43.6009" lon="6.30823">
        <ele>734.1</ele>
        <time>2015-10-17T13:14:16Z</time>
      </trkpt>
      <trkpt lat="43.60086" lon="6.30822">
        <ele>734.1</ele>
        <time>2015-10-17T13:14:18Z</time>
      </trkpt>
      <trkpt lat="43.60069" lon="6.30833">
        <ele>732.66</ele>
        <time>2015-10-17T13:14:30Z</time>
      </trkpt>
      <trkpt lat="43.60065" lon="6.30836">
        <ele>732.18</ele>
        <time>2015-10-17T13:14:33Z</time>
      </trkpt>
      <trkpt lat="43.60047" lon="6.30852">
        <ele>732.18</ele>
        <time>2015-10-17T13:14:47Z</time>
      </trkpt>
      <trkpt lat="43.60046" lon="6.30852">
        <ele>732.18</ele>
        <time>2015-10-17T13:14:48Z</time>
      </trkpt>
      <trkpt lat="43.60018" lon="6.30846">
        <ele>731.7</ele>
        <time>2015-10-17T13:15:02Z</time>
      </trkpt>
      <trkpt lat="43.60002" lon="6.30834">
        <ele>731.22</ele>
        <time>2015-10-17T13:15:14Z</time>
      </trkpt>
      <trkpt lat="43.59984" lon="6.30825">
        <ele>729.3</ele>
        <time>2015-10-17T13:15:26Z</time>
      </trkpt>
      <trkpt lat="43.59963" lon="6.30824">
        <ele>728.34</ele>
        <time>2015-10-17T13:15:38Z</time>
      </trkpt>
      <trkpt lat="43.59954" lon="6.30828">
        <ele>728.82</ele>
        <time>2015-10-17T13:15:45Z</time>
      </trkpt>
      <trkpt lat="43.59951" lon="6.30803">
        <ele>728.34</ele>
        <time>2015-10-17T13:15:59Z</time>
      </trkpt>
      <trkpt lat="43.59958" lon="6.3077">
        <ele>728.82</ele>
        <time>2015-10-17T13:16:09Z</time>
      </trkpt>
      <trkpt lat="43.59972" lon="6.30727">
        <ele>730.26</ele>
        <time>2015-10-17T13:16:19Z</time>
      </trkpt>
      <trkpt lat="43.59979" lon="6.3071">
        <ele>729.78</ele>
        <time>2015-10-17T13:16:23Z</time>
      </trkpt>
      <trkpt lat="43.59986" lon="6.30696">
        <ele>730.26</ele>
        <time>2015-10-17T13:16:26Z</time>
      </trkpt>
      <trkpt lat="43.59991" lon="6.30684">
        <ele>731.22</ele>
        <time>2015-10-17T13:16:29Z</time>
      </trkpt>
      <trkpt lat="43.59991" lon="6.30679">
        <ele>730.74</ele>
        <time>2015-10-17T13:16:30Z</time>
      </trkpt>
      <trkpt lat="43.59995" lon="6.30636">
        <ele>730.26</ele>
        <time>2015-10-17T13:16:39Z</time>
      </trkpt>
      <trkpt lat="43.60015" lon="6.30586">
        <ele>729.78</ele>
        <time>2015-10-17T13:16:50Z</time>
      </trkpt>
      <trkpt lat="43.60017" lon="6.30581">
        <ele>729.78</ele>
        <time>2015-10-17T13:16:51Z</time>
      </trkpt>
      <trkpt lat="43.60025" lon="6.30555">
        <ele>728.82</ele>
        <time>2015-10-17T13:16:58Z</time>
      </trkpt>
      <trkpt lat="43.60026" lon="6.3055">
        <ele>728.34</ele>
        <time>2015-10-17T13:17:00Z</time>
      </trkpt>
      <trkpt lat="43.60031" lon="6.30533">
        <ele>727.37</ele>
        <time>2015-10-17T13:17:07Z</time>
      </trkpt>
      <trkpt lat="43.60047" lon="6.30517">
        <ele>725.45</ele>
        <time>2015-10-17T13:17:19Z</time>
      </trkpt>
      <trkpt lat="43.60062" lon="6.30501">
        <ele>724.01</ele>
        <time>2015-10-17T13:17:32Z</time>
      </trkpt>
      <trkpt lat="43.60062" lon="6.30494">
        <ele>723.05</ele>
        <time>2015-10-17T13:17:45Z</time>
      </trkpt>
      <trkpt lat="43.60061" lon="6.3049">
        <ele>723.53</ele>
        <time>2015-10-17T13:17:54Z</time>
      </trkpt>
      <trkpt lat="43.60061" lon="6.30488">
        <ele>723.05</ele>
        <time>2015-10-17T13:17:55Z</time>
      </trkpt>
      <trkpt lat="43.6006" lon="6.30486">
        <ele>722.57</ele>
        <time>2015-10-17T13:17:56Z</time>
      </trkpt>
      <trkpt lat="43.60059" lon="6.30485">
        <ele>722.57</ele>
        <time>2015-10-17T13:17:57Z</time>
      </trkpt>
      <trkpt lat="43.60057" lon="6.30483">
        <ele>723.05</ele>
        <time>2015-10-17T13:17:59Z</time>
      </trkpt>
      <trkpt lat="43.60039" lon="6.30478">
        <ele>719.68</ele>
        <time>2015-10-17T13:18:11Z</time>
      </trkpt>
      <trkpt lat="43.60037" lon="6.30477">
        <ele>719.68</ele>
        <time>2015-10-17T13:18:12Z</time>
      </trkpt>
      <trkpt lat="43.60035" lon="6.30476">
        <ele>719.68</ele>
        <time>2015-10-17T13:18:13Z</time>
      </trkpt>
      <trkpt lat="43.60033" lon="6.30477">
        <ele>719.2</ele>
        <time>2015-10-17T13:18:14Z</time>
      </trkpt>
      <trkpt lat="43.60031" lon="6.30477">
        <ele>719.2</ele>
        <time>2015-10-17T13:18:15Z</time>
      </trkpt>
      <trkpt lat="43.6003" lon="6.30476">
        <ele>719.2</ele>
        <time>2015-10-17T13:18:16Z</time>
      </trkpt>
      <trkpt lat="43.60029" lon="6.30476">
        <ele>718.72</ele>
        <time>2015-10-17T13:18:17Z</time>
      </trkpt>
      <trkpt lat="43.60027" lon="6.30476">
        <ele>718.72</ele>
        <time>2015-10-17T13:18:18Z</time>
      </trkpt>
      <trkpt lat="43.60026" lon="6.30477">
        <ele>718.24</ele>
        <time>2015-10-17T13:18:19Z</time>
      </trkpt>
      <trkpt lat="43.60024" lon="6.30477">
        <ele>718.24</ele>
        <time>2015-10-17T13:18:20Z</time>
      </trkpt>
      <trkpt lat="43.60023" lon="6.30476">
        <ele>718.24</ele>
        <time>2015-10-17T13:18:21Z</time>
      </trkpt>
      <trkpt lat="43.60021" lon="6.30476">
        <ele>718.24</ele>
        <time>2015-10-17T13:18:22Z</time>
      </trkpt>
      <trkpt lat="43.60019" lon="6.30477">
        <ele>718.24</ele>
        <time>2015-10-17T13:18:23Z</time>
      </trkpt>
      <trkpt lat="43.60018" lon="6.30477">
        <ele>717.76</ele>
        <time>2015-10-17T13:18:24Z</time>
      </trkpt>
      <trkpt lat="43.60016" lon="6.30478">
        <ele>717.76</ele>
        <time>2015-10-17T13:18:25Z</time>
      </trkpt>
      <trkpt lat="43.60004" lon="6.30482">
        <ele>715.36</ele>
        <time>2015-10-17T13:18:34Z</time>
      </trkpt>
      <trkpt lat="43.60002" lon="6.30482">
        <ele>714.88</ele>
        <time>2015-10-17T13:18:35Z</time>
      </trkpt>
      <trkpt lat="43.59989" lon="6.3048">
        <ele>713.44</ele>
        <time>2015-10-17T13:18:44Z</time>
      </trkpt>
      <trkpt lat="43.59984" lon="6.3048">
        <ele>712.95</ele>
        <time>2015-10-17T13:18:49Z</time>
      </trkpt>
      <trkpt lat="43.59983" lon="6.3048">
        <ele>711.51</ele>
        <time>2015-10-17T13:18:50Z</time>
      </trkpt>
      <trkpt lat="43.59981" lon="6.30477">
        <ele>710.55</ele>
        <time>2015-10-17T13:18:53Z</time>
      </trkpt>
      <trkpt lat="43.59981" lon="6.30476">
        <ele>711.03</ele>
        <time>2015-10-17T13:18:54Z</time>
      </trkpt>
      <trkpt lat="43.59979" lon="6.30473">
        <ele>710.07</ele>
        <time>2015-10-17T13:18:56Z</time>
      </trkpt>
      <trkpt lat="43.59979" lon="6.30471">
        <ele>710.07</ele>
        <time>2015-10-17T13:18:57Z</time>
      </trkpt>
      <trkpt lat="43.59977" lon="6.30465">
        <ele>708.63</ele>
        <time>2015-10-17T13:19:02Z</time>
      </trkpt>
      <trkpt lat="43.59972" lon="6.30466">
        <ele>708.15</ele>
        <time>2015-10-17T13:19:14Z</time>
      </trkpt>
      <trkpt lat="43.59969" lon="6.30466">
        <ele>707.67</ele>
        <time>2015-10-17T13:19:25Z</time>
      </trkpt>
      <trkpt lat="43.59968" lon="6.30467">
        <ele>707.19</ele>
        <time>2015-10-17T13:19:35Z</time>
      </trkpt>
      <trkpt lat="43.59968" lon="6.30468">
        <ele>707.19</ele>
        <time>2015-10-17T13:19:45Z</time>
      </trkpt>
      <trkpt lat="43.59967" lon="6.30468">
        <ele>707.19</ele>
        <time>2015-10-17T13:19:50Z</time>
      </trkpt>
      <trkpt lat="43.59961" lon="6.30468">
        <ele>706.23</ele>
        <time>2015-10-17T13:20:00Z</time>
      </trkpt>
      <trkpt lat="43.59958" lon="6.30468">
        <ele>706.23</ele>
        <time>2015-10-17T13:20:12Z</time>
      </trkpt>
      <trkpt lat="43.59957" lon="6.30468">
        <ele>706.23</ele>
        <time>2015-10-17T13:20:19Z</time>
      </trkpt>
      <trkpt lat="43.59953" lon="6.30469">
        <ele>706.23</ele>
        <time>2015-10-17T13:20:23Z</time>
      </trkpt>
      <trkpt lat="43.59949" lon="6.3047">
        <ele>705.75</ele>
        <time>2015-10-17T13:20:30Z</time>
      </trkpt>
      <trkpt lat="43.59945" lon="6.30471">
        <ele>705.75</ele>
        <time>2015-10-17T13:20:33Z</time>
      </trkpt>
      <trkpt lat="43.5994" lon="6.30474">
        <ele>705.75</ele>
        <time>2015-10-17T13:20:38Z</time>
      </trkpt>
      <trkpt lat="43.59933" lon="6.30474">
        <ele>704.78</ele>
        <time>2015-10-17T13:20:52Z</time>
      </trkpt>
      <trkpt lat="43.59932" lon="6.30474">
        <ele>704.78</ele>
        <time>2015-10-17T13:21:07Z</time>
      </trkpt>
      <trkpt lat="43.59932" lon="6.30474">
        <ele>704.78</ele>
        <time>2015-10-17T13:21:27Z</time>
      </trkpt>
      <trkpt lat="43.59932" lon="6.30472">
        <ele>704.78</ele>
        <time>2015-10-17T13:21:42Z</time>
      </trkpt>
      <trkpt lat="43.5991" lon="6.30477">
        <ele>703.82</ele>
        <time>2015-10-17T13:21:57Z</time>
      </trkpt>
      <trkpt lat="43.59892" lon="6.30479">
        <ele>702.86</ele>
        <time>2015-10-17T13:22:09Z</time>
      </trkpt>
      <trkpt lat="43.59876" lon="6.30477">
        <ele>700.94</ele>
        <time>2015-10-17T13:22:18Z</time>
      </trkpt>
      <trkpt lat="43.5987" lon="6.30478">
        <ele>700.94</ele>
        <time>2015-10-17T13:22:22Z</time>
      </trkpt>
      <trkpt lat="43.59845" lon="6.3048">
        <ele>698.53</ele>
        <time>2015-10-17T13:22:36Z</time>
      </trkpt>
      <trkpt lat="43.59839" lon="6.30483">
        <ele>698.05</ele>
        <time>2015-10-17T13:22:40Z</time>
      </trkpt>
      <trkpt lat="43.59834" lon="6.30485">
        <ele>697.57</ele>
        <time>2015-10-17T13:22:44Z</time>
      </trkpt>
      <trkpt lat="43.59814" lon="6.305">
        <ele>695.17</ele>
        <time>2015-10-17T13:22:58Z</time>
      </trkpt>
      <trkpt lat="43.59794" lon="6.30509">
        <ele>693.73</ele>
        <time>2015-10-17T13:23:09Z</time>
      </trkpt>
      <trkpt lat="43.59774" lon="6.30517">
        <ele>693.73</ele>
        <time>2015-10-17T13:23:22Z</time>
      </trkpt>
      <trkpt lat="43.59753" lon="6.30521">
        <ele>692.29</ele>
        <time>2015-10-17T13:23:35Z</time>
      </trkpt>
      <trkpt lat="43.59733" lon="6.30526">
        <ele>690.36</ele>
        <time>2015-10-17T13:23:47Z</time>
      </trkpt>
      <trkpt lat="43.59715" lon="6.30531">
        <ele>689.4</ele>
        <time>2015-10-17T13:23:59Z</time>
      </trkpt>
      <trkpt lat="43.59693" lon="6.30533">
        <ele>687.48</ele>
        <time>2015-10-17T13:24:13Z</time>
      </trkpt>
      <trkpt lat="43.59672" lon="6.30542">
        <ele>687</ele>
        <time>2015-10-17T13:24:27Z</time>
      </trkpt>
      <trkpt lat="43.5966" lon="6.30544">
        <ele>686.04</ele>
        <time>2015-10-17T13:24:35Z</time>
      </trkpt>
      <trkpt lat="43.59654" lon="6.30542">
        <ele>685.56</ele>
        <time>2015-10-17T13:24:39Z</time>
      </trkpt>
      <trkpt lat="43.5965" lon="6.30541">
        <ele>685.56</ele>
        <time>2015-10-17T13:24:41Z</time>
      </trkpt>
      <trkpt lat="43.59631" lon="6.30543">
        <ele>684.6</ele>
        <time>2015-10-17T13:24:52Z</time>
      </trkpt>
      <trkpt lat="43.59619" lon="6.30542">
        <ele>683.15</ele>
        <time>2015-10-17T13:25:00Z</time>
      </trkpt>
      <trkpt lat="43.59618" lon="6.30525">
        <ele>682.19</ele>
        <time>2015-10-17T13:25:08Z</time>
      </trkpt>
      <trkpt lat="43.59622" lon="6.30501">
        <ele>680.27</ele>
        <time>2015-10-17T13:25:19Z</time>
      </trkpt>
      <trkpt lat="43.59615" lon="6.3049">
        <ele>678.83</ele>
        <time>2015-10-17T13:25:26Z</time>
      </trkpt>
      <trkpt lat="43.59594" lon="6.30489">
        <ele>675.46</ele>
        <time>2015-10-17T13:25:37Z</time>
      </trkpt>
      <trkpt lat="43.59577" lon="6.30483">
        <ele>673.54</ele>
        <time>2015-10-17T13:25:49Z</time>
      </trkpt>
      <trkpt lat="43.59564" lon="6.3048">
        <ele>671.62</ele>
        <time>2015-10-17T13:25:58Z</time>
      </trkpt>
      <trkpt lat="43.59541" lon="6.30474">
        <ele>669.7</ele>
        <time>2015-10-17T13:26:11Z</time>
      </trkpt>
      <trkpt lat="43.59515" lon="6.30476">
        <ele>668.73</ele>
        <time>2015-10-17T13:26:26Z</time>
      </trkpt>
      <trkpt lat="43.59491" lon="6.30466">
        <ele>666.81</ele>
        <time>2015-10-17T13:26:41Z</time>
      </trkpt>
      <trkpt lat="43.59474" lon="6.30454">
        <ele>665.37</ele>
        <time>2015-10-17T13:26:52Z</time>
      </trkpt>
      <trkpt lat="43.59463" lon="6.30449">
        <ele>664.89</ele>
        <time>2015-10-17T13:26:59Z</time>
      </trkpt>
      <trkpt lat="43.59442" lon="6.30446">
        <ele>664.41</ele>
        <time>2015-10-17T13:27:13Z</time>
      </trkpt>
      <trkpt lat="43.59419" lon="6.30445">
        <ele>663.45</ele>
        <time>2015-10-17T13:27:27Z</time>
      </trkpt>
      <trkpt lat="43.59392" lon="6.30443">
        <ele>662.01</ele>
        <time>2015-10-17T13:27:42Z</time>
      </trkpt>
      <trkpt lat="43.59371" lon="6.30435">
        <ele>661.04</ele>
        <time>2015-10-17T13:27:56Z</time>
      </trkpt>
      <trkpt lat="43.59363" lon="6.30434">
        <ele>661.04</ele>
        <time>2015-10-17T13:28:01Z</time>
      </trkpt>
      <trkpt lat="43.59342" lon="6.3043">
        <ele>660.08</ele>
        <time>2015-10-17T13:28:15Z</time>
      </trkpt>
      <trkpt lat="43.59314" lon="6.30431">
        <ele>659.12</ele>
        <time>2015-10-17T13:28:32Z</time>
      </trkpt>
      <trkpt lat="43.59293" lon="6.30437">
        <ele>658.64</ele>
        <time>2015-10-17T13:28:45Z</time>
      </trkpt>
      <trkpt lat="43.59269" lon="6.30438">
        <ele>657.68</ele>
        <time>2015-10-17T13:29:00Z</time>
      </trkpt>
      <trkpt lat="43.59254" lon="6.30424">
        <ele>657.68</ele>
        <time>2015-10-17T13:29:12Z</time>
      </trkpt>
      <trkpt lat="43.59245" lon="6.30397">
        <ele>658.16</ele>
        <time>2015-10-17T13:29:27Z</time>
      </trkpt>
      <trkpt lat="43.5924" lon="6.30364">
        <ele>656.24</ele>
        <time>2015-10-17T13:29:41Z</time>
      </trkpt>
      <trkpt lat="43.59234" lon="6.30331">
        <ele>654.8</ele>
        <time>2015-10-17T13:29:56Z</time>
      </trkpt>
      <trkpt lat="43.59232" lon="6.30304">
        <ele>654.31</ele>
        <time>2015-10-17T13:30:08Z</time>
      </trkpt>
      <trkpt lat="43.59224" lon="6.30292">
        <ele>653.83</ele>
        <time>2015-10-17T13:30:15Z</time>
      </trkpt>
      <trkpt lat="43.5922" lon="6.30292">
        <ele>653.35</ele>
        <time>2015-10-17T13:30:18Z</time>
      </trkpt>
      <trkpt lat="43.59205" lon="6.30256">
        <ele>652.87</ele>
        <time>2015-10-17T13:30:35Z</time>
      </trkpt>
      <trkpt lat="43.59201" lon="6.30243">
        <ele>652.39</ele>
        <time>2015-10-17T13:30:40Z</time>
      </trkpt>
      <trkpt lat="43.59199" lon="6.30219">
        <ele>653.35</ele>
        <time>2015-10-17T13:30:50Z</time>
      </trkpt>
      <trkpt lat="43.5919" lon="6.30196">
        <ele>653.83</ele>
        <time>2015-10-17T13:31:01Z</time>
      </trkpt>
      <trkpt lat="43.59171" lon="6.30178">
        <ele>655.76</ele>
        <time>2015-10-17T13:31:15Z</time>
      </trkpt>
      <trkpt lat="43.59168" lon="6.30176">
        <ele>655.76</ele>
        <time>2015-10-17T13:31:17Z</time>
      </trkpt>
      <trkpt lat="43.59167" lon="6.30173">
        <ele>655.76</ele>
        <time>2015-10-17T13:31:19Z</time>
      </trkpt>
      <trkpt lat="43.59157" lon="6.30168">
        <ele>656.24</ele>
        <time>2015-10-17T13:31:26Z</time>
      </trkpt>
      <trkpt lat="43.59139" lon="6.30164">
        <ele>655.76</ele>
        <time>2015-10-17T13:31:39Z</time>
      </trkpt>
      <trkpt lat="43.59131" lon="6.3016">
        <ele>655.28</ele>
        <time>2015-10-17T13:31:44Z</time>
      </trkpt>
      <trkpt lat="43.59114" lon="6.30149">
        <ele>653.35</ele>
        <time>2015-10-17T13:31:56Z</time>
      </trkpt>
      <trkpt lat="43.59089" lon="6.30134">
        <ele>652.87</ele>
        <time>2015-10-17T13:32:11Z</time>
      </trkpt>
      <trkpt lat="43.59068" lon="6.30135">
        <ele>650.95</ele>
        <time>2015-10-17T13:32:24Z</time>
      </trkpt>
      <trkpt lat="43.59045" lon="6.30146">
        <ele>648.55</ele>
        <time>2015-10-17T13:32:38Z</time>
      </trkpt>
      <trkpt lat="43.5904" lon="6.30147">
        <ele>648.55</ele>
        <time>2015-10-17T13:32:43Z</time>
      </trkpt>
      <trkpt lat="43.59023" lon="6.30164">
        <ele>647.59</ele>
        <time>2015-10-17T13:32:57Z</time>
      </trkpt>
      <trkpt lat="43.59012" lon="6.30185">
        <ele>646.62</ele>
        <time>2015-10-17T13:33:10Z</time>
      </trkpt>
      <trkpt lat="43.59006" lon="6.30202">
        <ele>644.7</ele>
        <time>2015-10-17T13:33:21Z</time>
      </trkpt>
      <trkpt lat="43.59002" lon="6.3022">
        <ele>642.78</ele>
        <time>2015-10-17T13:33:32Z</time>
      </trkpt>
      <trkpt lat="43.58997" lon="6.30228">
        <ele>641.82</ele>
        <time>2015-10-17T13:33:37Z</time>
      </trkpt>
      <trkpt lat="43.58989" lon="6.30234">
        <ele>641.34</ele>
        <time>2015-10-17T13:33:43Z</time>
      </trkpt>
      <trkpt lat="43.58969" lon="6.30241">
        <ele>640.38</ele>
        <time>2015-10-17T13:33:59Z</time>
      </trkpt>
      <trkpt lat="43.58966" lon="6.30242">
        <ele>639.89</ele>
        <time>2015-10-17T13:34:01Z</time>
      </trkpt>
      <trkpt lat="43.58939" lon="6.30234">
        <ele>639.89</ele>
        <time>2015-10-17T13:34:16Z</time>
      </trkpt>
      <trkpt lat="43.58931" lon="6.30235">
        <ele>639.41</ele>
        <time>2015-10-17T13:34:22Z</time>
      </trkpt>
      <trkpt lat="43.58929" lon="6.30239">
        <ele>639.41</ele>
        <time>2015-10-17T13:34:35Z</time>
      </trkpt>
      <trkpt lat="43.58929" lon="6.30239">
        <ele>639.89</ele>
        <time>2015-10-17T13:34:51Z</time>
      </trkpt>
      <trkpt lat="43.58929" lon="6.30238">
        <ele>639.41</ele>
        <time>2015-10-17T13:35:09Z</time>
      </trkpt>
      <trkpt lat="43.58929" lon="6.30238">
        <ele>639.89</ele>
        <time>2015-10-17T13:35:24Z</time>
      </trkpt>
      <trkpt lat="43.5893" lon="6.3024">
        <ele>639.41</ele>
        <time>2015-10-17T13:35:30Z</time>
      </trkpt>
      <trkpt lat="43.58928" lon="6.30247">
        <ele>639.41</ele>
        <time>2015-10-17T13:35:35Z</time>
      </trkpt>
      <trkpt lat="43.58924" lon="6.30251">
        <ele>639.41</ele>
        <time>2015-10-17T13:35:40Z</time>
      </trkpt>
      <trkpt lat="43.58921" lon="6.30255">
        <ele>639.41</ele>
        <time>2015-10-17T13:35:44Z</time>
      </trkpt>
      <trkpt lat="43.58909" lon="6.30273">
        <ele>638.93</ele>
        <time>2015-10-17T13:35:59Z</time>
      </trkpt>
      <trkpt lat="43.58902" lon="6.30283">
        <ele>638.93</ele>
        <time>2015-10-17T13:36:06Z</time>
      </trkpt>
      <trkpt lat="43.58887" lon="6.30311">
        <ele>640.38</ele>
        <time>2015-10-17T13:36:22Z</time>
      </trkpt>
      <trkpt lat="43.58873" lon="6.30334">
        <ele>642.3</ele>
        <time>2015-10-17T13:36:36Z</time>
      </trkpt>
      <trkpt lat="43.5886" lon="6.30359">
        <ele>644.22</ele>
        <time>2015-10-17T13:36:51Z</time>
      </trkpt>
      <trkpt lat="43.58848" lon="6.30376">
        <ele>646.62</ele>
        <time>2015-10-17T13:37:02Z</time>
      </trkpt>
      <trkpt lat="43.58846" lon="6.30378">
        <ele>646.62</ele>
        <time>2015-10-17T13:37:04Z</time>
      </trkpt>
      <trkpt lat="43.58841" lon="6.30378">
        <ele>647.1</ele>
        <time>2015-10-17T13:37:09Z</time>
      </trkpt>
      <trkpt lat="43.58838" lon="6.3038">
        <ele>647.1</ele>
        <time>2015-10-17T13:37:11Z</time>
      </trkpt>
      <trkpt lat="43.58821" lon="6.304">
        <ele>649.03</ele>
        <time>2015-10-17T13:37:25Z</time>
      </trkpt>
      <trkpt lat="43.58812" lon="6.30416">
        <ele>650.95</ele>
        <time>2015-10-17T13:37:37Z</time>
      </trkpt>
      <trkpt lat="43.58812" lon="6.30416">
        <ele>650.95</ele>
        <time>2015-10-17T13:37:50Z</time>
      </trkpt>
      <trkpt lat="43.58813" lon="6.30416">
        <ele>650.95</ele>
        <time>2015-10-17T13:37:51Z</time>
      </trkpt>
      <trkpt lat="43.58816" lon="6.30415">
        <ele>650.95</ele>
        <time>2015-10-17T13:37:59Z</time>
      </trkpt>
      <trkpt lat="43.58813" lon="6.30425">
        <ele>651.91</ele>
        <time>2015-10-17T13:38:06Z</time>
      </trkpt>
      <trkpt lat="43.58812" lon="6.30426">
        <ele>651.91</ele>
        <time>2015-10-17T13:38:08Z</time>
      </trkpt>
      <trkpt lat="43.58802" lon="6.30454">
        <ele>652.39</ele>
        <time>2015-10-17T13:38:24Z</time>
      </trkpt>
      <trkpt lat="43.58797" lon="6.30452">
        <ele>652.87</ele>
        <time>2015-10-17T13:38:36Z</time>
      </trkpt>
      <trkpt lat="43.58797" lon="6.3045">
        <ele>652.87</ele>
        <time>2015-10-17T13:38:49Z</time>
      </trkpt>
      <trkpt lat="43.58797" lon="6.30447">
        <ele>652.87</ele>
        <time>2015-10-17T13:39:00Z</time>
      </trkpt>
      <trkpt lat="43.58799" lon="6.30447">
        <ele>652.87</ele>
        <time>2015-10-17T13:39:12Z</time>
      </trkpt>
      <trkpt lat="43.588" lon="6.30446">
        <ele>652.87</ele>
        <time>2015-10-17T13:39:23Z</time>
      </trkpt>
      <trkpt lat="43.588" lon="6.30452">
        <ele>652.87</ele>
        <time>2015-10-17T13:39:35Z</time>
      </trkpt>
      <trkpt lat="43.58799" lon="6.30453">
        <ele>652.39</ele>
        <time>2015-10-17T13:39:46Z</time>
      </trkpt>
      <trkpt lat="43.58797" lon="6.30447">
        <ele>652.39</ele>
        <time>2015-10-17T13:39:57Z</time>
      </trkpt>
      <trkpt lat="43.58794" lon="6.30444">
        <ele>651.91</ele>
        <time>2015-10-17T13:40:09Z</time>
      </trkpt>
      <trkpt lat="43.58794" lon="6.30444">
        <ele>651.91</ele>
        <time>2015-10-17T13:40:29Z</time>
      </trkpt>
      <trkpt lat="43.58794" lon="6.30445">
        <ele>652.39</ele>
        <time>2015-10-17T13:40:53Z</time>
      </trkpt>
      <trkpt lat="43.58793" lon="6.30446">
        <ele>651.91</ele>
        <time>2015-10-17T13:41:22Z</time>
      </trkpt>
      <trkpt lat="43.58793" lon="6.30445">
        <ele>652.39</ele>
        <time>2015-10-17T13:41:40Z</time>
      </trkpt>
      <trkpt lat="43.58794" lon="6.30444">
        <ele>652.39</ele>
        <time>2015-10-17T13:42:07Z</time>
      </trkpt>
      <trkpt lat="43.58793" lon="6.30445">
        <ele>651.91</ele>
        <time>2015-10-17T13:42:25Z</time>
      </trkpt>
      <trkpt lat="43.58793" lon="6.30444">
        <ele>652.39</ele>
        <time>2015-10-17T13:42:43Z</time>
      </trkpt>
      <trkpt lat="43.58792" lon="6.30444">
        <ele>652.39</ele>
        <time>2015-10-17T13:43:00Z</time>
      </trkpt>
      <trkpt lat="43.58793" lon="6.30445">
        <ele>652.39</ele>
        <time>2015-10-17T13:43:25Z</time>
      </trkpt>
      <trkpt lat="43.58794" lon="6.30444">
        <ele>652.39</ele>
        <time>2015-10-17T13:43:51Z</time>
      </trkpt>
      <trkpt lat="43.58794" lon="6.30444">
        <ele>652.39</ele>
        <time>2015-10-17T13:44:11Z</time>
      </trkpt>
      <trkpt lat="43.58793" lon="6.30445">
        <ele>652.87</ele>
        <time>2015-10-17T13:44:28Z</time>
      </trkpt>
      <trkpt lat="43.58792" lon="6.30445">
        <ele>652.39</ele>
        <time>2015-10-17T13:44:40Z</time>
      </trkpt>
      <trkpt lat="43.58796" lon="6.30444">
        <ele>652.87</ele>
        <time>2015-10-17T13:44:46Z</time>
      </trkpt>
      <trkpt lat="43.588" lon="6.30453">
        <ele>653.35</ele>
        <time>2015-10-17T13:44:52Z</time>
      </trkpt>
      <trkpt lat="43.58802" lon="6.30457">
        <ele>652.87</ele>
        <time>2015-10-17T13:45:06Z</time>
      </trkpt>
      <trkpt lat="43.58805" lon="6.30452">
        <ele>653.35</ele>
        <time>2015-10-17T13:45:14Z</time>
      </trkpt>
      <trkpt lat="43.58806" lon="6.30444">
        <ele>652.87</ele>
        <time>2015-10-17T13:45:18Z</time>
      </trkpt>
      <trkpt lat="43.58804" lon="6.30427">
        <ele>652.39</ele>
        <time>2015-10-17T13:45:33Z</time>
      </trkpt>
      <trkpt lat="43.58803" lon="6.30426">
        <ele>652.39</ele>
        <time>2015-10-17T13:45:50Z</time>
      </trkpt>
      <trkpt lat="43.58805" lon="6.30421">
        <ele>652.39</ele>
        <time>2015-10-17T13:46:03Z</time>
      </trkpt>
      <trkpt lat="43.58804" lon="6.30421">
        <ele>651.91</ele>
        <time>2015-10-17T13:46:15Z</time>
      </trkpt>
      <trkpt lat="43.58804" lon="6.30421">
        <ele>651.91</ele>
        <time>2015-10-17T13:46:28Z</time>
      </trkpt>
      <trkpt lat="43.58805" lon="6.30418">
        <ele>651.91</ele>
        <time>2015-10-17T13:46:30Z</time>
      </trkpt>
      <trkpt lat="43.58812" lon="6.30409">
        <ele>651.43</ele>
        <time>2015-10-17T13:46:43Z</time>
      </trkpt>
      <trkpt lat="43.58813" lon="6.30407">
        <ele>650.95</ele>
        <time>2015-10-17T13:46:46Z</time>
      </trkpt>
      <trkpt lat="43.58817" lon="6.30399">
        <ele>649.99</ele>
        <time>2015-10-17T13:47:00Z</time>
      </trkpt>
      <trkpt lat="43.58819" lon="6.30397">
        <ele>649.99</ele>
        <time>2015-10-17T13:47:13Z</time>
      </trkpt>
      <trkpt lat="43.5882" lon="6.30396">
        <ele>649.51</ele>
        <time>2015-10-17T13:47:23Z</time>
      </trkpt>
      <trkpt lat="43.58823" lon="6.30388">
        <ele>649.03</ele>
        <time>2015-10-17T13:47:28Z</time>
      </trkpt>
      <trkpt lat="43.58826" lon="6.30382">
        <ele>648.07</ele>
        <time>2015-10-17T13:47:31Z</time>
      </trkpt>
      <trkpt lat="43.58838" lon="6.30375">
        <ele>647.59</ele>
        <time>2015-10-17T13:47:42Z</time>
      </trkpt>
      <trkpt lat="43.58839" lon="6.30374">
        <ele>648.07</ele>
        <time>2015-10-17T13:47:43Z</time>
      </trkpt>
      <trkpt lat="43.58844" lon="6.30375">
        <ele>647.1</ele>
        <time>2015-10-17T13:47:48Z</time>
      </trkpt>
      <trkpt lat="43.58847" lon="6.3037">
        <ele>646.14</ele>
        <time>2015-10-17T13:47:52Z</time>
      </trkpt>
      <trkpt lat="43.58857" lon="6.30355">
        <ele>644.7</ele>
        <time>2015-10-17T13:48:04Z</time>
      </trkpt>
      <trkpt lat="43.58868" lon="6.30332">
        <ele>643.26</ele>
        <time>2015-10-17T13:48:18Z</time>
      </trkpt>
      <trkpt lat="43.58883" lon="6.30305">
        <ele>640.38</ele>
        <time>2015-10-17T13:48:33Z</time>
      </trkpt>
      <trkpt lat="43.5889" lon="6.30292">
        <ele>639.89</ele>
        <time>2015-10-17T13:48:41Z</time>
      </trkpt>
      <trkpt lat="43.58893" lon="6.30285">
        <ele>639.41</ele>
        <time>2015-10-17T13:48:45Z</time>
      </trkpt>
      <trkpt lat="43.589" lon="6.30273">
        <ele>638.93</ele>
        <time>2015-10-17T13:48:55Z</time>
      </trkpt>
      <trkpt lat="43.5889" lon="6.30263">
        <ele>638.93</ele>
        <time>2015-10-17T13:49:09Z</time>
      </trkpt>
      <trkpt lat="43.58885" lon="6.30262">
        <ele>638.93</ele>
        <time>2015-10-17T13:49:14Z</time>
      </trkpt>
      <trkpt lat="43.58871" lon="6.30255">
        <ele>638.93</ele>
        <time>2015-10-17T13:49:29Z</time>
      </trkpt>
      <trkpt lat="43.5887" lon="6.30257">
        <ele>638.93</ele>
        <time>2015-10-17T13:49:39Z</time>
      </trkpt>
      <trkpt lat="43.58872" lon="6.30258">
        <ele>638.93</ele>
        <time>2015-10-17T13:49:51Z</time>
      </trkpt>
      <trkpt lat="43.58873" lon="6.30258">
        <ele>638.93</ele>
        <time>2015-10-17T13:49:53Z</time>
      </trkpt>
      <trkpt lat="43.58877" lon="6.3026">
        <ele>638.93</ele>
        <time>2015-10-17T13:50:08Z</time>
      </trkpt>
      <trkpt lat="43.58879" lon="6.30271">
        <ele>639.41</ele>
        <time>2015-10-17T13:50:21Z</time>
      </trkpt>
      <trkpt lat="43.58877" lon="6.30271">
        <ele>638.93</ele>
        <time>2015-10-17T13:50:36Z</time>
      </trkpt>
      <trkpt lat="43.58877" lon="6.30272">
        <ele>638.93</ele>
        <time>2015-10-17T13:50:56Z</time>
      </trkpt>
      <trkpt lat="43.58876" lon="6.30271">
        <ele>639.41</ele>
        <time>2015-10-17T13:51:25Z</time>
      </trkpt>
      <trkpt lat="43.58877" lon="6.30271">
        <ele>638.93</ele>
        <time>2015-10-17T13:51:48Z</time>
      </trkpt>
      <trkpt lat="43.58878" lon="6.30271">
        <ele>638.93</ele>
        <time>2015-10-17T13:52:17Z</time>
      </trkpt>
      <trkpt lat="43.58878" lon="6.30273">
        <ele>638.93</ele>
        <time>2015-10-17T13:52:49Z</time>
      </trkpt>
      <trkpt lat="43.58878" lon="6.30273">
        <ele>638.93</ele>
        <time>2015-10-17T13:53:23Z</time>
      </trkpt>
      <trkpt lat="43.58878" lon="6.30273">
        <ele>638.93</ele>
        <time>2015-10-17T13:53:57Z</time>
      </trkpt>
      <trkpt lat="43.58877" lon="6.30273">
        <ele>639.41</ele>
        <time>2015-10-17T13:54:25Z</time>
      </trkpt>
      <trkpt lat="43.58877" lon="6.30274">
        <ele>639.41</ele>
        <time>2015-10-17T13:54:54Z</time>
      </trkpt>
      <trkpt lat="43.58877" lon="6.30273">
        <ele>639.89</ele>
        <time>2015-10-17T13:55:15Z</time>
      </trkpt>
      <trkpt lat="43.58875" lon="6.3027">
        <ele>639.41</ele>
        <time>2015-10-17T13:55:27Z</time>
      </trkpt>
      <trkpt lat="43.58876" lon="6.30268">
        <ele>639.89</ele>
        <time>2015-10-17T13:55:43Z</time>
      </trkpt>
      <trkpt lat="43.58876" lon="6.30268">
        <ele>639.89</ele>
        <time>2015-10-17T13:56:02Z</time>
      </trkpt>
      <trkpt lat="43.58877" lon="6.30268">
        <ele>638.93</ele>
        <time>2015-10-17T13:56:16Z</time>
      </trkpt>
      <trkpt lat="43.58877" lon="6.30268">
        <ele>638.93</ele>
        <time>2015-10-17T13:56:37Z</time>
      </trkpt>
      <trkpt lat="43.58878" lon="6.30267">
        <ele>640.38</ele>
        <time>2015-10-17T13:56:58Z</time>
      </trkpt>
      <trkpt lat="43.58878" lon="6.30268">
        <ele>639.89</ele>
        <time>2015-10-17T13:57:10Z</time>
      </trkpt>
      <trkpt lat="43.58879" lon="6.30269">
        <ele>639.41</ele>
        <time>2015-10-17T13:57:25Z</time>
      </trkpt>
      <trkpt lat="43.58878" lon="6.3027">
        <ele>639.89</ele>
        <time>2015-10-17T13:57:37Z</time>
      </trkpt>
      <trkpt lat="43.5888" lon="6.30269">
        <ele>639.41</ele>
        <time>2015-10-17T13:57:55Z</time>
      </trkpt>
      <trkpt lat="43.5888" lon="6.30269">
        <ele>638.93</ele>
        <time>2015-10-17T13:58:11Z</time>
      </trkpt>
      <trkpt lat="43.58879" lon="6.30267">
        <ele>638.93</ele>
        <time>2015-10-17T13:58:25Z</time>
      </trkpt>
      <trkpt lat="43.58878" lon="6.30268">
        <ele>638.45</ele>
        <time>2015-10-17T13:58:42Z</time>
      </trkpt>
      <trkpt lat="43.58878" lon="6.30267">
        <ele>638.93</ele>
        <time>2015-10-17T13:58:59Z</time>
      </trkpt>
      <trkpt lat="43.58879" lon="6.30266">
        <ele>638.93</ele>
        <time>2015-10-17T13:59:15Z</time>
      </trkpt>
      <trkpt lat="43.58879" lon="6.30265">
        <ele>639.41</ele>
        <time>2015-10-17T13:59:34Z</time>
      </trkpt>
      <trkpt lat="43.5888" lon="6.30264">
        <ele>638.93</ele>
        <time>2015-10-17T13:59:54Z</time>
      </trkpt>
      <trkpt lat="43.5888" lon="6.30263">
        <ele>639.41</ele>
        <time>2015-10-17T14:00:17Z</time>
      </trkpt>
      <trkpt lat="43.5888" lon="6.30263">
        <ele>638.93</ele>
        <time>2015-10-17T14:00:31Z</time>
      </trkpt>
      <trkpt lat="43.5888" lon="6.30262">
        <ele>638.93</ele>
        <time>2015-10-17T14:00:58Z</time>
      </trkpt>
      <trkpt lat="43.58881" lon="6.30262">
        <ele>639.41</ele>
        <time>2015-10-17T14:01:17Z</time>
      </trkpt>
      <trkpt lat="43.5888" lon="6.30262">
        <ele>639.41</ele>
        <time>2015-10-17T14:01:43Z</time>
      </trkpt>
      <trkpt lat="43.5888" lon="6.30262">
        <ele>638.93</ele>
        <time>2015-10-17T14:02:02Z</time>
      </trkpt>
      <trkpt lat="43.5888" lon="6.30261">
        <ele>638.93</ele>
        <time>2015-10-17T14:02:23Z</time>
      </trkpt>
      <trkpt lat="43.5888" lon="6.30261">
        <ele>638.93</ele>
        <time>2015-10-17T14:02:46Z</time>
      </trkpt>
      <trkpt lat="43.58881" lon="6.30261">
        <ele>638.93</ele>
        <time>2015-10-17T14:03:01Z</time>
      </trkpt>
      <trkpt lat="43.58881" lon="6.3026">
        <ele>639.41</ele>
        <time>2015-10-17T14:03:16Z</time>
      </trkpt>
      <trkpt lat="43.58882" lon="6.3026">
        <ele>638.45</ele>
        <time>2015-10-17T14:03:30Z</time>
      </trkpt>
      <trkpt lat="43.58882" lon="6.30261">
        <ele>638.93</ele>
        <time>2015-10-17T14:03:48Z</time>
      </trkpt>
      <trkpt lat="43.58882" lon="6.30261">
        <ele>638.45</ele>
        <time>2015-10-17T14:04:07Z</time>
      </trkpt>
      <trkpt lat="43.58882" lon="6.30261">
        <ele>638.45</ele>
        <time>2015-10-17T14:04:31Z</time>
      </trkpt>
      <trkpt lat="43.58881" lon="6.30261">
        <ele>638.93</ele>
        <time>2015-10-17T14:04:50Z</time>
      </trkpt>
      <trkpt lat="43.58881" lon="6.30261">
        <ele>638.45</ele>
        <time>2015-10-17T14:05:13Z</time>
      </trkpt>
      <trkpt lat="43.5888" lon="6.30255">
        <ele>638.93</ele>
        <time>2015-10-17T14:05:25Z</time>
      </trkpt>
      <trkpt lat="43.58879" lon="6.30255">
        <ele>638.93</ele>
        <time>2015-10-17T14:05:45Z</time>
      </trkpt>
      <trkpt lat="43.58881" lon="6.30256">
        <ele>638.93</ele>
        <time>2015-10-17T14:05:58Z</time>
      </trkpt>
      <trkpt lat="43.58881" lon="6.30256">
        <ele>638.93</ele>
        <time>2015-10-17T14:06:19Z</time>
      </trkpt>
      <trkpt lat="43.58881" lon="6.30257">
        <ele>638.93</ele>
        <time>2015-10-17T14:06:46Z</time>
      </trkpt>
      <trkpt lat="43.5888" lon="6.30255">
        <ele>638.93</ele>
        <time>2015-10-17T14:07:02Z</time>
      </trkpt>
      <trkpt lat="43.5888" lon="6.30254">
        <ele>638.45</ele>
        <time>2015-10-17T14:07:21Z</time>
      </trkpt>
      <trkpt lat="43.5888" lon="6.30255">
        <ele>638.93</ele>
        <time>2015-10-17T14:07:52Z</time>
      </trkpt>
      <trkpt lat="43.58879" lon="6.30255">
        <ele>638.93</ele>
        <time>2015-10-17T14:08:13Z</time>
      </trkpt>
      <trkpt lat="43.58879" lon="6.30255">
        <ele>638.93</ele>
        <time>2015-10-17T14:08:41Z</time>
      </trkpt>
      <trkpt lat="43.58879" lon="6.30254">
        <ele>638.93</ele>
        <time>2015-10-17T14:09:11Z</time>
      </trkpt>
      <trkpt lat="43.58879" lon="6.30254">
        <ele>638.93</ele>
        <time>2015-10-17T14:09:15Z</time>
      </trkpt>
      <trkpt lat="43.58881" lon="6.30257">
        <ele>638.93</ele>
        <time>2015-10-17T14:09:17Z</time>
      </trkpt>
      <trkpt lat="43.58887" lon="6.3027">
        <ele>639.41</ele>
        <time>2015-10-17T14:09:33Z</time>
      </trkpt>
      <trkpt lat="43.58888" lon="6.30269">
        <ele>638.93</ele>
        <time>2015-10-17T14:09:45Z</time>
      </trkpt>
      <trkpt lat="43.58888" lon="6.30268">
        <ele>639.41</ele>
        <time>2015-10-17T14:09:59Z</time>
      </trkpt>
      <trkpt lat="43.58887" lon="6.30268">
        <ele>639.41</ele>
        <time>2015-10-17T14:10:06Z</time>
      </trkpt>
      <trkpt lat="43.58886" lon="6.30265">
        <ele>639.41</ele>
        <time>2015-10-17T14:10:09Z</time>
      </trkpt>
      <trkpt lat="43.58885" lon="6.30261">
        <ele>639.41</ele>
        <time>2015-10-17T14:10:17Z</time>
      </trkpt>
      <trkpt lat="43.58883" lon="6.30258">
        <ele>638.93</ele>
        <time>2015-10-17T14:10:20Z</time>
      </trkpt>
      <trkpt lat="43.58881" lon="6.30249">
        <ele>638.45</ele>
        <time>2015-10-17T14:10:34Z</time>
      </trkpt>
      <trkpt lat="43.58882" lon="6.30248">
        <ele>638.45</ele>
        <time>2015-10-17T14:10:46Z</time>
      </trkpt>
      <trkpt lat="43.58881" lon="6.3025">
        <ele>638.93</ele>
        <time>2015-10-17T14:10:58Z</time>
      </trkpt>
      <trkpt lat="43.58878" lon="6.30251">
        <ele>639.41</ele>
        <time>2015-10-17T14:11:01Z</time>
      </trkpt>
      <trkpt lat="43.58874" lon="6.30254">
        <ele>638.93</ele>
        <time>2015-10-17T14:11:15Z</time>
      </trkpt>
      <trkpt lat="43.58874" lon="6.30254">
        <ele>638.93</ele>
        <time>2015-10-17T14:11:22Z</time>
      </trkpt>
      <trkpt lat="43.58876" lon="6.30252">
        <ele>638.93</ele>
        <time>2015-10-17T14:11:31Z</time>
      </trkpt>
      <trkpt lat="43.58878" lon="6.30252">
        <ele>639.41</ele>
        <time>2015-10-17T14:11:33Z</time>
      </trkpt>
      <trkpt lat="43.58885" lon="6.30256">
        <ele>638.93</ele>
        <time>2015-10-17T14:11:42Z</time>
      </trkpt>
      <trkpt lat="43.58894" lon="6.30267">
        <ele>638.93</ele>
        <time>2015-10-17T14:11:57Z</time>
      </trkpt>
      <trkpt lat="43.58895" lon="6.30268">
        <ele>638.93</ele>
        <time>2015-10-17T14:12:13Z</time>
      </trkpt>
      <trkpt lat="43.58898" lon="6.30275">
        <ele>638.93</ele>
        <time>2015-10-17T14:12:30Z</time>
      </trkpt>
      <trkpt lat="43.58903" lon="6.30276">
        <ele>639.41</ele>
        <time>2015-10-17T14:12:42Z</time>
      </trkpt>
      <trkpt lat="43.58905" lon="6.30276">
        <ele>639.41</ele>
        <time>2015-10-17T14:12:45Z</time>
      </trkpt>
      <trkpt lat="43.58916" lon="6.30267">
        <ele>639.41</ele>
        <time>2015-10-17T14:13:00Z</time>
      </trkpt>
      <trkpt lat="43.58921" lon="6.3026">
        <ele>639.41</ele>
        <time>2015-10-17T14:13:10Z</time>
      </trkpt>
      <trkpt lat="43.5893" lon="6.30241">
        <ele>638.93</ele>
        <time>2015-10-17T14:13:25Z</time>
      </trkpt>
      <trkpt lat="43.58932" lon="6.30239">
        <ele>639.89</ele>
        <time>2015-10-17T14:13:47Z</time>
      </trkpt>
      <trkpt lat="43.58932" lon="6.30239">
        <ele>640.38</ele>
        <time>2015-10-17T14:14:05Z</time>
      </trkpt>
      <trkpt lat="43.58933" lon="6.30238">
        <ele>640.38</ele>
        <time>2015-10-17T14:14:28Z</time>
      </trkpt>
      <trkpt lat="43.58935" lon="6.30237">
        <ele>640.38</ele>
        <time>2015-10-17T14:14:42Z</time>
      </trkpt>
      <trkpt lat="43.5894" lon="6.30232">
        <ele>640.38</ele>
        <time>2015-10-17T14:14:56Z</time>
      </trkpt>
      <trkpt lat="43.5894" lon="6.30234">
        <ele>640.86</ele>
        <time>2015-10-17T14:15:07Z</time>
      </trkpt>
      <trkpt lat="43.58942" lon="6.30238">
        <ele>641.34</ele>
        <time>2015-10-17T14:15:22Z</time>
      </trkpt>
      <trkpt lat="43.58945" lon="6.30236">
        <ele>641.34</ele>
        <time>2015-10-17T14:15:40Z</time>
      </trkpt>
      <trkpt lat="43.58946" lon="6.30237">
        <ele>641.34</ele>
        <time>2015-10-17T14:15:41Z</time>
      </trkpt>
      <trkpt lat="43.58952" lon="6.30237">
        <ele>641.34</ele>
        <time>2015-10-17T14:15:48Z</time>
      </trkpt>
      <trkpt lat="43.58958" lon="6.30237">
        <ele>641.82</ele>
        <time>2015-10-17T14:15:52Z</time>
      </trkpt>
      <trkpt lat="43.58966" lon="6.30235">
        <ele>641.82</ele>
        <time>2015-10-17T14:15:57Z</time>
      </trkpt>
      <trkpt lat="43.58992" lon="6.30228">
        <ele>642.78</ele>
        <time>2015-10-17T14:16:14Z</time>
      </trkpt>
      <trkpt lat="43.59004" lon="6.30208">
        <ele>644.7</ele>
        <time>2015-10-17T14:16:29Z</time>
      </trkpt>
      <trkpt lat="43.59012" lon="6.30183">
        <ele>648.07</ele>
        <time>2015-10-17T14:16:42Z</time>
      </trkpt>
      <trkpt lat="43.59014" lon="6.30178">
        <ele>648.55</ele>
        <time>2015-10-17T14:16:45Z</time>
      </trkpt>
      <trkpt lat="43.59019" lon="6.3017">
        <ele>648.55</ele>
        <time>2015-10-17T14:16:51Z</time>
      </trkpt>
      <trkpt lat="43.59034" lon="6.30149">
        <ele>649.51</ele>
        <time>2015-10-17T14:17:06Z</time>
      </trkpt>
      <trkpt lat="43.59055" lon="6.30139">
        <ele>650.47</ele>
        <time>2015-10-17T14:17:20Z</time>
      </trkpt>
      <trkpt lat="43.59078" lon="6.3013">
        <ele>652.87</ele>
        <time>2015-10-17T14:17:37Z</time>
      </trkpt>
      <trkpt lat="43.59087" lon="6.30127">
        <ele>654.31</ele>
        <time>2015-10-17T14:17:45Z</time>
      </trkpt>
      <trkpt lat="43.59093" lon="6.30131">
        <ele>654.31</ele>
        <time>2015-10-17T14:17:50Z</time>
      </trkpt>
      <trkpt lat="43.59121" lon="6.30151">
        <ele>655.76</ele>
        <time>2015-10-17T14:18:09Z</time>
      </trkpt>
      <trkpt lat="43.59148" lon="6.30162">
        <ele>657.68</ele>
        <time>2015-10-17T14:18:26Z</time>
      </trkpt>
      <trkpt lat="43.59173" lon="6.3016">
        <ele>659.12</ele>
        <time>2015-10-17T14:18:42Z</time>
      </trkpt>
      <trkpt lat="43.59199" lon="6.30147">
        <ele>659.6</ele>
        <time>2015-10-17T14:18:58Z</time>
      </trkpt>
      <trkpt lat="43.59219" lon="6.30142">
        <ele>659.6</ele>
        <time>2015-10-17T14:19:12Z</time>
      </trkpt>
      <trkpt lat="43.59245" lon="6.30137">
        <ele>658.64</ele>
        <time>2015-10-17T14:19:27Z</time>
      </trkpt>
      <trkpt lat="43.59266" lon="6.30126">
        <ele>657.2</ele>
        <time>2015-10-17T14:19:41Z</time>
      </trkpt>
      <trkpt lat="43.59289" lon="6.30123">
        <ele>656.24</ele>
        <time>2015-10-17T14:19:56Z</time>
      </trkpt>
      <trkpt lat="43.59323" lon="6.30114">
        <ele>656.24</ele>
        <time>2015-10-17T14:20:16Z</time>
      </trkpt>
      <trkpt lat="43.59354" lon="6.30101">
        <ele>655.28</ele>
        <time>2015-10-17T14:20:34Z</time>
      </trkpt>
      <trkpt lat="43.59359" lon="6.301">
        <ele>653.83</ele>
        <time>2015-10-17T14:20:37Z</time>
      </trkpt>
      <trkpt lat="43.59384" lon="6.30087">
        <ele>652.87</ele>
        <time>2015-10-17T14:20:53Z</time>
      </trkpt>
      <trkpt lat="43.5941" lon="6.30075">
        <ele>652.39</ele>
        <time>2015-10-17T14:21:09Z</time>
      </trkpt>
      <trkpt lat="43.59431" lon="6.30069">
        <ele>652.39</ele>
        <time>2015-10-17T14:21:21Z</time>
      </trkpt>
      <trkpt lat="43.59455" lon="6.30061">
        <ele>653.35</ele>
        <time>2015-10-17T14:21:37Z</time>
      </trkpt>
      <trkpt lat="43.59482" lon="6.3005">
        <ele>655.28</ele>
        <time>2015-10-17T14:21:53Z</time>
      </trkpt>
      <trkpt lat="43.59502" lon="6.30038">
        <ele>657.2</ele>
        <time>2015-10-17T14:22:07Z</time>
      </trkpt>
      <trkpt lat="43.59523" lon="6.3002">
        <ele>658.16</ele>
        <time>2015-10-17T14:22:24Z</time>
      </trkpt>
      <trkpt lat="43.59535" lon="6.30013">
        <ele>657.2</ele>
        <time>2015-10-17T14:22:35Z</time>
      </trkpt>
      <trkpt lat="43.59538" lon="6.30013">
        <ele>657.2</ele>
        <time>2015-10-17T14:22:38Z</time>
      </trkpt>
      <trkpt lat="43.59556" lon="6.29989">
        <ele>655.76</ele>
        <time>2015-10-17T14:22:55Z</time>
      </trkpt>
      <trkpt lat="43.59573" lon="6.29961">
        <ele>656.72</ele>
        <time>2015-10-17T14:23:12Z</time>
      </trkpt>
      <trkpt lat="43.59592" lon="6.29938">
        <ele>656.24</ele>
        <time>2015-10-17T14:23:27Z</time>
      </trkpt>
      <trkpt lat="43.59613" lon="6.29916">
        <ele>655.76</ele>
        <time>2015-10-17T14:23:42Z</time>
      </trkpt>
      <trkpt lat="43.59635" lon="6.29906">
        <ele>655.76</ele>
        <time>2015-10-17T14:23:56Z</time>
      </trkpt>
      <trkpt lat="43.59655" lon="6.29894">
        <ele>655.28</ele>
        <time>2015-10-17T14:24:09Z</time>
      </trkpt>
      <trkpt lat="43.59675" lon="6.29879">
        <ele>656.24</ele>
        <time>2015-10-17T14:24:23Z</time>
      </trkpt>
      <trkpt lat="43.59695" lon="6.29857">
        <ele>656.24</ele>
        <time>2015-10-17T14:24:39Z</time>
      </trkpt>
      <trkpt lat="43.5971" lon="6.29824">
        <ele>655.28</ele>
        <time>2015-10-17T14:24:55Z</time>
      </trkpt>
      <trkpt lat="43.59726" lon="6.29802">
        <ele>655.28</ele>
        <time>2015-10-17T14:25:08Z</time>
      </trkpt>
      <trkpt lat="43.59727" lon="6.29801">
        <ele>655.28</ele>
        <time>2015-10-17T14:25:09Z</time>
      </trkpt>
      <trkpt lat="43.59732" lon="6.29792">
        <ele>655.28</ele>
        <time>2015-10-17T14:25:14Z</time>
      </trkpt>
      <trkpt lat="43.59753" lon="6.29767">
        <ele>655.28</ele>
        <time>2015-10-17T14:25:30Z</time>
      </trkpt>
      <trkpt lat="43.59771" lon="6.29748">
        <ele>655.76</ele>
        <time>2015-10-17T14:25:43Z</time>
      </trkpt>
      <trkpt lat="43.598" lon="6.29732">
        <ele>656.24</ele>
        <time>2015-10-17T14:26:01Z</time>
      </trkpt>
      <trkpt lat="43.59823" lon="6.2972">
        <ele>656.72</ele>
        <time>2015-10-17T14:26:16Z</time>
      </trkpt>
      <trkpt lat="43.59851" lon="6.29715">
        <ele>656.24</ele>
        <time>2015-10-17T14:26:31Z</time>
      </trkpt>
      <trkpt lat="43.59878" lon="6.29708">
        <ele>656.24</ele>
        <time>2015-10-17T14:26:48Z</time>
      </trkpt>
      <trkpt lat="43.59899" lon="6.297">
        <ele>656.24</ele>
        <time>2015-10-17T14:27:01Z</time>
      </trkpt>
      <trkpt lat="43.59932" lon="6.2969">
        <ele>656.24</ele>
        <time>2015-10-17T14:27:20Z</time>
      </trkpt>
      <trkpt lat="43.59953" lon="6.29681">
        <ele>657.2</ele>
        <time>2015-10-17T14:27:33Z</time>
      </trkpt>
      <trkpt lat="43.59975" lon="6.29668">
        <ele>656.24</ele>
        <time>2015-10-17T14:27:46Z</time>
      </trkpt>
      <trkpt lat="43.59993" lon="6.29656">
        <ele>656.24</ele>
        <time>2015-10-17T14:27:58Z</time>
      </trkpt>
      <trkpt lat="43.60014" lon="6.29642">
        <ele>655.76</ele>
        <time>2015-10-17T14:28:11Z</time>
      </trkpt>
      <trkpt lat="43.60034" lon="6.29628">
        <ele>654.8</ele>
        <time>2015-10-17T14:28:24Z</time>
      </trkpt>
      <trkpt lat="43.6005" lon="6.29611">
        <ele>654.31</ele>
        <time>2015-10-17T14:28:36Z</time>
      </trkpt>
      <trkpt lat="43.60068" lon="6.29586">
        <ele>653.35</ele>
        <time>2015-10-17T14:28:52Z</time>
      </trkpt>
      <trkpt lat="43.60081" lon="6.29559">
        <ele>652.39</ele>
        <time>2015-10-17T14:29:05Z</time>
      </trkpt>
      <trkpt lat="43.60092" lon="6.29546">
        <ele>650.95</ele>
        <time>2015-10-17T14:29:13Z</time>
      </trkpt>
      <trkpt lat="43.60112" lon="6.29529">
        <ele>649.03</ele>
        <time>2015-10-17T14:29:26Z</time>
      </trkpt>
      <trkpt lat="43.6013" lon="6.2951">
        <ele>647.1</ele>
        <time>2015-10-17T14:29:39Z</time>
      </trkpt>
      <trkpt lat="43.60139" lon="6.29501">
        <ele>645.66</ele>
        <time>2015-10-17T14:29:46Z</time>
      </trkpt>
      <trkpt lat="43.60147" lon="6.2949">
        <ele>644.22</ele>
        <time>2015-10-17T14:29:53Z</time>
      </trkpt>
      <trkpt lat="43.60168" lon="6.2947">
        <ele>642.3</ele>
        <time>2015-10-17T14:30:08Z</time>
      </trkpt>
      <trkpt lat="43.60187" lon="6.29451">
        <ele>641.34</ele>
        <time>2015-10-17T14:30:22Z</time>
      </trkpt>
      <trkpt lat="43.60199" lon="6.29435">
        <ele>640.86</ele>
        <time>2015-10-17T14:30:32Z</time>
      </trkpt>
      <trkpt lat="43.60207" lon="6.29404">
        <ele>640.38</ele>
        <time>2015-10-17T14:30:45Z</time>
      </trkpt>
      <trkpt lat="43.60213" lon="6.29369">
        <ele>640.38</ele>
        <time>2015-10-17T14:31:00Z</time>
      </trkpt>
      <trkpt lat="43.60221" lon="6.29342">
        <ele>641.34</ele>
        <time>2015-10-17T14:31:13Z</time>
      </trkpt>
      <trkpt lat="43.60238" lon="6.29322">
        <ele>640.86</ele>
        <time>2015-10-17T14:31:26Z</time>
      </trkpt>
      <trkpt lat="43.60255" lon="6.29303">
        <ele>641.34</ele>
        <time>2015-10-17T14:31:39Z</time>
      </trkpt>
      <trkpt lat="43.60264" lon="6.29275">
        <ele>642.78</ele>
        <time>2015-10-17T14:31:52Z</time>
      </trkpt>
      <trkpt lat="43.60262" lon="6.29243">
        <ele>643.26</ele>
        <time>2015-10-17T14:32:06Z</time>
      </trkpt>
      <trkpt lat="43.60261" lon="6.29203">
        <ele>644.22</ele>
        <time>2015-10-17T14:32:24Z</time>
      </trkpt>
      <trkpt lat="43.60258" lon="6.29165">
        <ele>646.62</ele>
        <time>2015-10-17T14:32:38Z</time>
      </trkpt>
      <trkpt lat="43.60258" lon="6.29162">
        <ele>647.1</ele>
        <time>2015-10-17T14:32:39Z</time>
      </trkpt>
      <trkpt lat="43.60266" lon="6.29143">
        <ele>649.03</ele>
        <time>2015-10-17T14:32:47Z</time>
      </trkpt>
      <trkpt lat="43.60288" lon="6.2912">
        <ele>652.39</ele>
        <time>2015-10-17T14:33:00Z</time>
      </trkpt>
      <trkpt lat="43.60299" lon="6.29084">
        <ele>655.76</ele>
        <time>2015-10-17T14:33:15Z</time>
      </trkpt>
      <trkpt lat="43.60303" lon="6.29049">
        <ele>658.16</ele>
        <time>2015-10-17T14:33:27Z</time>
      </trkpt>
      <trkpt lat="43.60306" lon="6.29015">
        <ele>659.6</ele>
        <time>2015-10-17T14:33:40Z</time>
      </trkpt>
      <trkpt lat="43.60307" lon="6.28982">
        <ele>658.64</ele>
        <time>2015-10-17T14:33:52Z</time>
      </trkpt>
      <trkpt lat="43.60303" lon="6.2895">
        <ele>658.64</ele>
        <time>2015-10-17T14:34:05Z</time>
      </trkpt>
      <trkpt lat="43.60299" lon="6.28927">
        <ele>658.16</ele>
        <time>2015-10-17T14:34:16Z</time>
      </trkpt>
      <trkpt lat="43.60298" lon="6.28918">
        <ele>658.16</ele>
        <time>2015-10-17T14:34:20Z</time>
      </trkpt>
      <trkpt lat="43.60295" lon="6.28907">
        <ele>658.64</ele>
        <time>2015-10-17T14:34:25Z</time>
      </trkpt>
      <trkpt lat="43.60285" lon="6.2887">
        <ele>660.08</ele>
        <time>2015-10-17T14:34:41Z</time>
      </trkpt>
      <trkpt lat="43.60282" lon="6.28843">
        <ele>661.04</ele>
        <time>2015-10-17T14:34:52Z</time>
      </trkpt>
      <trkpt lat="43.6028" lon="6.28814">
        <ele>662.49</ele>
        <time>2015-10-17T14:35:05Z</time>
      </trkpt>
      <trkpt lat="43.60275" lon="6.28797">
        <ele>663.45</ele>
        <time>2015-10-17T14:35:13Z</time>
      </trkpt>
      <trkpt lat="43.60269" lon="6.28765">
        <ele>664.41</ele>
        <time>2015-10-17T14:35:27Z</time>
      </trkpt>
      <trkpt lat="43.60275" lon="6.28727">
        <ele>664.41</ele>
        <time>2015-10-17T14:35:43Z</time>
      </trkpt>
      <trkpt lat="43.60282" lon="6.28699">
        <ele>662.01</ele>
        <time>2015-10-17T14:35:56Z</time>
      </trkpt>
      <trkpt lat="43.60292" lon="6.28673">
        <ele>660.56</ele>
        <time>2015-10-17T14:36:09Z</time>
      </trkpt>
      <trkpt lat="43.60308" lon="6.28649">
        <ele>659.12</ele>
        <time>2015-10-17T14:36:23Z</time>
      </trkpt>
      <trkpt lat="43.6033" lon="6.28628">
        <ele>658.64</ele>
        <time>2015-10-17T14:36:38Z</time>
      </trkpt>
      <trkpt lat="43.60349" lon="6.28606">
        <ele>658.16</ele>
        <time>2015-10-17T14:36:54Z</time>
      </trkpt>
      <trkpt lat="43.60373" lon="6.28577">
        <ele>657.2</ele>
        <time>2015-10-17T14:37:11Z</time>
      </trkpt>
      <trkpt lat="43.60391" lon="6.28556">
        <ele>656.72</ele>
        <time>2015-10-17T14:37:24Z</time>
      </trkpt>
      <trkpt lat="43.60412" lon="6.28537">
        <ele>656.72</ele>
        <time>2015-10-17T14:37:38Z</time>
      </trkpt>
      <trkpt lat="43.60428" lon="6.28521">
        <ele>656.72</ele>
        <time>2015-10-17T14:37:49Z</time>
      </trkpt>
      <trkpt lat="43.60447" lon="6.28495">
        <ele>656.24</ele>
        <time>2015-10-17T14:38:04Z</time>
      </trkpt>
      <trkpt lat="43.60459" lon="6.28471">
        <ele>656.24</ele>
        <time>2015-10-17T14:38:16Z</time>
      </trkpt>
      <trkpt lat="43.6046" lon="6.28469">
        <ele>655.76</ele>
        <time>2015-10-17T14:38:17Z</time>
      </trkpt>
      <trkpt lat="43.60473" lon="6.28441">
        <ele>656.72</ele>
        <time>2015-10-17T14:38:33Z</time>
      </trkpt>
      <trkpt lat="43.60479" lon="6.28406">
        <ele>657.68</ele>
        <time>2015-10-17T14:38:46Z</time>
      </trkpt>
      <trkpt lat="43.6049" lon="6.28374">
        <ele>659.12</ele>
        <time>2015-10-17T14:39:00Z</time>
      </trkpt>
      <trkpt lat="43.60506" lon="6.28352">
        <ele>659.12</ele>
        <time>2015-10-17T14:39:14Z</time>
      </trkpt>
      <trkpt lat="43.60521" lon="6.2833">
        <ele>657.68</ele>
        <time>2015-10-17T14:39:28Z</time>
      </trkpt>
      <trkpt lat="43.60534" lon="6.2831">
        <ele>656.72</ele>
        <time>2015-10-17T14:39:39Z</time>
      </trkpt>
      <trkpt lat="43.60555" lon="6.28288">
        <ele>656.24</ele>
        <time>2015-10-17T14:39:54Z</time>
      </trkpt>
      <trkpt lat="43.60568" lon="6.28262">
        <ele>655.28</ele>
        <time>2015-10-17T14:40:09Z</time>
      </trkpt>
      <trkpt lat="43.60578" lon="6.28235">
        <ele>653.35</ele>
        <time>2015-10-17T14:40:19Z</time>
      </trkpt>
      <trkpt lat="43.60584" lon="6.28208">
        <ele>652.87</ele>
        <time>2015-10-17T14:40:29Z</time>
      </trkpt>
      <trkpt lat="43.60583" lon="6.28196">
        <ele>652.39</ele>
        <time>2015-10-17T14:40:36Z</time>
      </trkpt>
      <trkpt lat="43.60581" lon="6.28195">
        <ele>651.91</ele>
        <time>2015-10-17T14:40:38Z</time>
      </trkpt>
      <trkpt lat="43.6056" lon="6.28195">
        <ele>652.87</ele>
        <time>2015-10-17T14:40:53Z</time>
      </trkpt>
      <trkpt lat="43.60545" lon="6.2821">
        <ele>650.47</ele>
        <time>2015-10-17T14:41:06Z</time>
      </trkpt>
      <trkpt lat="43.60536" lon="6.28235">
        <ele>647.1</ele>
        <time>2015-10-17T14:41:19Z</time>
      </trkpt>
      <trkpt lat="43.60522" lon="6.28246">
        <ele>645.66</ele>
        <time>2015-10-17T14:41:29Z</time>
      </trkpt>
      <trkpt lat="43.60505" lon="6.28255">
        <ele>643.26</ele>
        <time>2015-10-17T14:41:40Z</time>
      </trkpt>
      <trkpt lat="43.60499" lon="6.28243">
        <ele>640.86</ele>
        <time>2015-10-17T14:41:48Z</time>
      </trkpt>
      <trkpt lat="43.60501" lon="6.28224">
        <ele>638.45</ele>
        <time>2015-10-17T14:41:57Z</time>
      </trkpt>
      <trkpt lat="43.60502" lon="6.28215">
        <ele>637.97</ele>
        <time>2015-10-17T14:42:01Z</time>
      </trkpt>
      <trkpt lat="43.60492" lon="6.2819">
        <ele>634.13</ele>
        <time>2015-10-17T14:42:14Z</time>
      </trkpt>
      <trkpt lat="43.60483" lon="6.28167">
        <ele>631.72</ele>
        <time>2015-10-17T14:42:26Z</time>
      </trkpt>
      <trkpt lat="43.60481" lon="6.28162">
        <ele>631.24</ele>
        <time>2015-10-17T14:42:29Z</time>
      </trkpt>
      <trkpt lat="43.60481" lon="6.28154">
        <ele>630.76</ele>
        <time>2015-10-17T14:42:33Z</time>
      </trkpt>
      <trkpt lat="43.60476" lon="6.28147">
        <ele>630.76</ele>
        <time>2015-10-17T14:42:37Z</time>
      </trkpt>
      <trkpt lat="43.60478" lon="6.28132">
        <ele>631.24</ele>
        <time>2015-10-17T14:42:43Z</time>
      </trkpt>
      <trkpt lat="43.60485" lon="6.28106">
        <ele>631.24</ele>
        <time>2015-10-17T14:42:56Z</time>
      </trkpt>
      <trkpt lat="43.60485" lon="6.28105">
        <ele>631.72</ele>
        <time>2015-10-17T14:42:57Z</time>
      </trkpt>
      <trkpt lat="43.60486" lon="6.281">
        <ele>631.72</ele>
        <time>2015-10-17T14:43:07Z</time>
      </trkpt>
      <trkpt lat="43.60487" lon="6.28096">
        <ele>631.24</ele>
        <time>2015-10-17T14:43:19Z</time>
      </trkpt>
      <trkpt lat="43.60487" lon="6.28095">
        <ele>631.24</ele>
        <time>2015-10-17T14:43:30Z</time>
      </trkpt>
      <trkpt lat="43.60487" lon="6.28092">
        <ele>630.76</ele>
        <time>2015-10-17T14:43:43Z</time>
      </trkpt>
      <trkpt lat="43.60488" lon="6.28091">
        <ele>631.24</ele>
        <time>2015-10-17T14:43:58Z</time>
      </trkpt>
      <trkpt lat="43.60488" lon="6.28085">
        <ele>630.76</ele>
        <time>2015-10-17T14:44:08Z</time>
      </trkpt>
      <trkpt lat="43.60489" lon="6.28083">
        <ele>630.76</ele>
        <time>2015-10-17T14:44:10Z</time>
      </trkpt>
      <trkpt lat="43.6049" lon="6.28078">
        <ele>630.28</ele>
        <time>2015-10-17T14:44:23Z</time>
      </trkpt>
      <trkpt lat="43.60492" lon="6.28075">
        <ele>629.8</ele>
        <time>2015-10-17T14:44:32Z</time>
      </trkpt>
      <trkpt lat="43.60495" lon="6.28068">
        <ele>629.8</ele>
        <time>2015-10-17T14:44:45Z</time>
      </trkpt>
      <trkpt lat="43.60495" lon="6.28067">
        <ele>629.8</ele>
        <time>2015-10-17T14:44:59Z</time>
      </trkpt>
      <trkpt lat="43.60495" lon="6.28066">
        <ele>630.28</ele>
        <time>2015-10-17T14:45:13Z</time>
      </trkpt>
      <trkpt lat="43.60495" lon="6.28064">
        <ele>629.8</ele>
        <time>2015-10-17T14:45:15Z</time>
      </trkpt>
      <trkpt lat="43.60502" lon="6.28037">
        <ele>630.76</ele>
        <time>2015-10-17T14:45:31Z</time>
      </trkpt>
      <trkpt lat="43.60504" lon="6.28027">
        <ele>631.24</ele>
        <time>2015-10-17T14:45:36Z</time>
      </trkpt>
      <trkpt lat="43.60506" lon="6.28019">
        <ele>631.24</ele>
        <time>2015-10-17T14:45:40Z</time>
      </trkpt>
      <trkpt lat="43.60511" lon="6.27987">
        <ele>632.68</ele>
        <time>2015-10-17T14:45:57Z</time>
      </trkpt>
      <trkpt lat="43.60511" lon="6.27978">
        <ele>632.68</ele>
        <time>2015-10-17T14:46:01Z</time>
      </trkpt>
      <trkpt lat="43.60525" lon="6.27951">
        <ele>634.61</ele>
        <time>2015-10-17T14:46:15Z</time>
      </trkpt>
      <trkpt lat="43.60544" lon="6.27928">
        <ele>637.01</ele>
        <time>2015-10-17T14:46:29Z</time>
      </trkpt>
      <trkpt lat="43.60555" lon="6.27906">
        <ele>638.93</ele>
        <time>2015-10-17T14:46:40Z</time>
      </trkpt>
      <trkpt lat="43.60567" lon="6.27881">
        <ele>640.38</ele>
        <time>2015-10-17T14:46:53Z</time>
      </trkpt>
      <trkpt lat="43.60571" lon="6.27852">
        <ele>641.82</ele>
        <time>2015-10-17T14:47:08Z</time>
      </trkpt>
      <trkpt lat="43.60567" lon="6.27838">
        <ele>642.78</ele>
        <time>2015-10-17T14:47:14Z</time>
      </trkpt>
      <trkpt lat="43.60563" lon="6.27804">
        <ele>642.3</ele>
        <time>2015-10-17T14:47:29Z</time>
      </trkpt>
      <trkpt lat="43.60562" lon="6.27791">
        <ele>642.3</ele>
        <time>2015-10-17T14:47:36Z</time>
      </trkpt>
      <trkpt lat="43.60562" lon="6.27783">
        <ele>641.34</ele>
        <time>2015-10-17T14:47:40Z</time>
      </trkpt>
      <trkpt lat="43.6056" lon="6.27753">
        <ele>641.34</ele>
        <time>2015-10-17T14:47:55Z</time>
      </trkpt>
      <trkpt lat="43.60559" lon="6.27745">
        <ele>640.86</ele>
        <time>2015-10-17T14:47:59Z</time>
      </trkpt>
      <trkpt lat="43.60558" lon="6.27708">
        <ele>639.89</ele>
        <time>2015-10-17T14:48:15Z</time>
      </trkpt>
      <trkpt lat="43.60547" lon="6.27685">
        <ele>638.93</ele>
        <time>2015-10-17T14:48:29Z</time>
      </trkpt>
      <trkpt lat="43.60535" lon="6.27666">
        <ele>637.01</ele>
        <time>2015-10-17T14:48:42Z</time>
      </trkpt>
      <trkpt lat="43.60532" lon="6.27662">
        <ele>636.53</ele>
        <time>2015-10-17T14:48:47Z</time>
      </trkpt>
      <trkpt lat="43.60544" lon="6.27644">
        <ele>636.05</ele>
        <time>2015-10-17T14:48:59Z</time>
      </trkpt>
      <trkpt lat="43.60549" lon="6.27636">
        <ele>636.05</ele>
        <time>2015-10-17T14:49:04Z</time>
      </trkpt>
      <trkpt lat="43.60557" lon="6.27614">
        <ele>635.57</ele>
        <time>2015-10-17T14:49:16Z</time>
      </trkpt>
      <trkpt lat="43.60557" lon="6.27582">
        <ele>635.09</ele>
        <time>2015-10-17T14:49:31Z</time>
      </trkpt>
      <trkpt lat="43.60558" lon="6.27579">
        <ele>634.61</ele>
        <time>2015-10-17T14:49:32Z</time>
      </trkpt>
      <trkpt lat="43.60555" lon="6.27566">
        <ele>634.61</ele>
        <time>2015-10-17T14:49:39Z</time>
      </trkpt>
      <trkpt lat="43.60556" lon="6.27536">
        <ele>634.13</ele>
        <time>2015-10-17T14:49:54Z</time>
      </trkpt>
      <trkpt lat="43.6056" lon="6.27507">
        <ele>632.2</ele>
        <time>2015-10-17T14:50:07Z</time>
      </trkpt>
      <trkpt lat="43.60563" lon="6.27482">
        <ele>629.32</ele>
        <time>2015-10-17T14:50:20Z</time>
      </trkpt>
      <trkpt lat="43.60565" lon="6.27458">
        <ele>626.92</ele>
        <time>2015-10-17T14:50:31Z</time>
      </trkpt>
      <trkpt lat="43.60568" lon="6.27432">
        <ele>624.03</ele>
        <time>2015-10-17T14:50:46Z</time>
      </trkpt>
      <trkpt lat="43.60571" lon="6.27397">
        <ele>624.51</ele>
        <time>2015-10-17T14:51:03Z</time>
      </trkpt>
      <trkpt lat="43.60579" lon="6.27371">
        <ele>624.03</ele>
        <time>2015-10-17T14:51:16Z</time>
      </trkpt>
      <trkpt lat="43.6058" lon="6.27367">
        <ele>623.55</ele>
        <time>2015-10-17T14:51:18Z</time>
      </trkpt>
      <trkpt lat="43.60586" lon="6.27346">
        <ele>622.59</ele>
        <time>2015-10-17T14:51:30Z</time>
      </trkpt>
      <trkpt lat="43.60596" lon="6.27319">
        <ele>620.67</ele>
        <time>2015-10-17T14:51:44Z</time>
      </trkpt>
      <trkpt lat="43.60607" lon="6.27299">
        <ele>618.26</ele>
        <time>2015-10-17T14:51:57Z</time>
      </trkpt>
      <trkpt lat="43.6062" lon="6.27274">
        <ele>617.3</ele>
        <time>2015-10-17T14:52:11Z</time>
      </trkpt>
      <trkpt lat="43.60632" lon="6.27252">
        <ele>614.9</ele>
        <time>2015-10-17T14:52:25Z</time>
      </trkpt>
      <trkpt lat="43.60647" lon="6.27229">
        <ele>613.94</ele>
        <time>2015-10-17T14:52:38Z</time>
      </trkpt>
      <trkpt lat="43.60662" lon="6.272">
        <ele>614.42</ele>
        <time>2015-10-17T14:52:54Z</time>
      </trkpt>
      <trkpt lat="43.60674" lon="6.27173">
        <ele>613.46</ele>
        <time>2015-10-17T14:53:09Z</time>
      </trkpt>
      <trkpt lat="43.6069" lon="6.27155">
        <ele>612.02</ele>
        <time>2015-10-17T14:53:23Z</time>
      </trkpt>
      <trkpt lat="43.60696" lon="6.2715">
        <ele>611.06</ele>
        <time>2015-10-17T14:53:28Z</time>
      </trkpt>
      <trkpt lat="43.60702" lon="6.27146">
        <ele>610.09</ele>
        <time>2015-10-17T14:53:32Z</time>
      </trkpt>
      <trkpt lat="43.60719" lon="6.27148">
        <ele>608.65</ele>
        <time>2015-10-17T14:53:43Z</time>
      </trkpt>
      <trkpt lat="43.60725" lon="6.27146">
        <ele>607.69</ele>
        <time>2015-10-17T14:53:47Z</time>
      </trkpt>
      <trkpt lat="43.60725" lon="6.27121">
        <ele>604.33</ele>
        <time>2015-10-17T14:53:59Z</time>
      </trkpt>
      <trkpt lat="43.60725" lon="6.27119">
        <ele>604.81</ele>
        <time>2015-10-17T14:54:00Z</time>
      </trkpt>
      <trkpt lat="43.60721" lon="6.27088">
        <ele>601.92</ele>
        <time>2015-10-17T14:54:13Z</time>
      </trkpt>
      <trkpt lat="43.60724" lon="6.2706">
        <ele>599.04</ele>
        <time>2015-10-17T14:54:26Z</time>
      </trkpt>
      <trkpt lat="43.60736" lon="6.27059">
        <ele>597.12</ele>
        <time>2015-10-17T14:54:36Z</time>
      </trkpt>
      <trkpt lat="43.60748" lon="6.27065">
        <ele>594.71</ele>
        <time>2015-10-17T14:54:45Z</time>
      </trkpt>
      <trkpt lat="43.60761" lon="6.27051">
        <ele>593.27</ele>
        <time>2015-10-17T14:54:56Z</time>
      </trkpt>
      <trkpt lat="43.60762" lon="6.27035">
        <ele>591.35</ele>
        <time>2015-10-17T14:55:04Z</time>
      </trkpt>
      <trkpt lat="43.60764" lon="6.27016">
        <ele>588.46</ele>
        <time>2015-10-17T14:55:13Z</time>
      </trkpt>
      <trkpt lat="43.60759" lon="6.2701">
        <ele>586.54</ele>
        <time>2015-10-17T14:55:18Z</time>
      </trkpt>
      <trkpt lat="43.60758" lon="6.27007">
        <ele>586.06</ele>
        <time>2015-10-17T14:55:20Z</time>
      </trkpt>
      <trkpt lat="43.60758" lon="6.27002">
        <ele>586.54</ele>
        <time>2015-10-17T14:55:22Z</time>
      </trkpt>
      <trkpt lat="43.60755" lon="6.26992">
        <ele>585.58</ele>
        <time>2015-10-17T14:55:33Z</time>
      </trkpt>
      <trkpt lat="43.60754" lon="6.26995">
        <ele>585.58</ele>
        <time>2015-10-17T14:55:43Z</time>
      </trkpt>
      <trkpt lat="43.60754" lon="6.26995">
        <ele>585.58</ele>
        <time>2015-10-17T14:55:48Z</time>
      </trkpt>
      <trkpt lat="43.60752" lon="6.26989">
        <ele>585.58</ele>
        <time>2015-10-17T14:55:52Z</time>
      </trkpt>
      <trkpt lat="43.60748" lon="6.26982">
        <ele>585.58</ele>
        <time>2015-10-17T14:55:56Z</time>
      </trkpt>
      <trkpt lat="43.60732" lon="6.26961">
        <ele>585.58</ele>
        <time>2015-10-17T14:56:10Z</time>
      </trkpt>
      <trkpt lat="43.6073" lon="6.26958">
        <ele>585.58</ele>
        <time>2015-10-17T14:56:13Z</time>
      </trkpt>
      <trkpt lat="43.6071" lon="6.26955">
        <ele>585.58</ele>
        <time>2015-10-17T14:56:28Z</time>
      </trkpt>
      <trkpt lat="43.60706" lon="6.26957">
        <ele>585.1</ele>
        <time>2015-10-17T14:56:31Z</time>
      </trkpt>
      <trkpt lat="43.60703" lon="6.26955">
        <ele>585.58</ele>
        <time>2015-10-17T14:56:35Z</time>
      </trkpt>
      <trkpt lat="43.60703" lon="6.26949">
        <ele>584.14</ele>
        <time>2015-10-17T14:56:40Z</time>
      </trkpt>
      <trkpt lat="43.60703" lon="6.26944">
        <ele>582.7</ele>
        <time>2015-10-17T14:56:46Z</time>
      </trkpt>
      <trkpt lat="43.60687" lon="6.2693">
        <ele>579.33</ele>
        <time>2015-10-17T14:56:59Z</time>
      </trkpt>
      <trkpt lat="43.60678" lon="6.26917">
        <ele>576.93</ele>
        <time>2015-10-17T14:57:10Z</time>
      </trkpt>
      <trkpt lat="43.60678" lon="6.26908">
        <ele>575.97</ele>
        <time>2015-10-17T14:57:15Z</time>
      </trkpt>
      <trkpt lat="43.60672" lon="6.26901">
        <ele>574.04</ele>
        <time>2015-10-17T14:57:20Z</time>
      </trkpt>
      <trkpt lat="43.60669" lon="6.26899">
        <ele>574.04</ele>
        <time>2015-10-17T14:57:23Z</time>
      </trkpt>
      <trkpt lat="43.60675" lon="6.26886">
        <ele>573.08</ele>
        <time>2015-10-17T14:57:30Z</time>
      </trkpt>
      <trkpt lat="43.60688" lon="6.26857">
        <ele>570.2</ele>
        <time>2015-10-17T14:57:45Z</time>
      </trkpt>
      <trkpt lat="43.60693" lon="6.26835">
        <ele>569.24</ele>
        <time>2015-10-17T14:57:56Z</time>
      </trkpt>
      <trkpt lat="43.607" lon="6.26829">
        <ele>568.76</ele>
        <time>2015-10-17T14:58:02Z</time>
      </trkpt>
      <trkpt lat="43.60721" lon="6.26835">
        <ele>567.32</ele>
        <time>2015-10-17T14:58:17Z</time>
      </trkpt>
      <trkpt lat="43.60747" lon="6.26838">
        <ele>566.83</ele>
        <time>2015-10-17T14:58:33Z</time>
      </trkpt>
      <trkpt lat="43.60768" lon="6.26824">
        <ele>566.83</ele>
        <time>2015-10-17T14:58:47Z</time>
      </trkpt>
      <trkpt lat="43.60792" lon="6.26803">
        <ele>567.32</ele>
        <time>2015-10-17T14:59:04Z</time>
      </trkpt>
      <trkpt lat="43.60808" lon="6.26789">
        <ele>566.83</ele>
        <time>2015-10-17T14:59:16Z</time>
      </trkpt>
      <trkpt lat="43.60829" lon="6.26776">
        <ele>565.87</ele>
        <time>2015-10-17T14:59:29Z</time>
      </trkpt>
      <trkpt lat="43.60842" lon="6.26767">
        <ele>565.39</ele>
        <time>2015-10-17T14:59:38Z</time>
      </trkpt>
      <trkpt lat="43.60851" lon="6.26759">
        <ele>564.91</ele>
        <time>2015-10-17T14:59:44Z</time>
      </trkpt>
      <trkpt lat="43.60864" lon="6.26738">
        <ele>564.91</ele>
        <time>2015-10-17T14:59:56Z</time>
      </trkpt>
      <trkpt lat="43.60877" lon="6.26715">
        <ele>565.87</ele>
        <time>2015-10-17T15:00:09Z</time>
      </trkpt>
      <trkpt lat="43.60894" lon="6.2669">
        <ele>566.83</ele>
        <time>2015-10-17T15:00:24Z</time>
      </trkpt>
      <trkpt lat="43.6091" lon="6.26668">
        <ele>566.83</ele>
        <time>2015-10-17T15:00:38Z</time>
      </trkpt>
      <trkpt lat="43.6093" lon="6.26659">
        <ele>566.83</ele>
        <time>2015-10-17T15:00:50Z</time>
      </trkpt>
      <trkpt lat="43.60936" lon="6.26658">
        <ele>567.32</ele>
        <time>2015-10-17T15:00:54Z</time>
      </trkpt>
      <trkpt lat="43.6096" lon="6.26657">
        <ele>566.83</ele>
        <time>2015-10-17T15:01:09Z</time>
      </trkpt>
      <trkpt lat="43.60977" lon="6.26653">
        <ele>566.35</ele>
        <time>2015-10-17T15:01:20Z</time>
      </trkpt>
      <trkpt lat="43.60982" lon="6.26648">
        <ele>566.35</ele>
        <time>2015-10-17T15:01:24Z</time>
      </trkpt>
      <trkpt lat="43.61002" lon="6.2663">
        <ele>563.47</ele>
        <time>2015-10-17T15:01:39Z</time>
      </trkpt>
      <trkpt lat="43.61009" lon="6.26623">
        <ele>562.99</ele>
        <time>2015-10-17T15:01:44Z</time>
      </trkpt>
      <trkpt lat="43.61012" lon="6.26614">
        <ele>562.51</ele>
        <time>2015-10-17T15:01:49Z</time>
      </trkpt>
      <trkpt lat="43.61018" lon="6.26583">
        <ele>561.07</ele>
        <time>2015-10-17T15:02:03Z</time>
      </trkpt>
      <trkpt lat="43.61026" lon="6.2655">
        <ele>560.59</ele>
        <time>2015-10-17T15:02:18Z</time>
      </trkpt>
      <trkpt lat="43.61034" lon="6.26523">
        <ele>559.62</ele>
        <time>2015-10-17T15:02:31Z</time>
      </trkpt>
      <trkpt lat="43.6103" lon="6.26495">
        <ele>559.14</ele>
        <time>2015-10-17T15:02:42Z</time>
      </trkpt>
      <trkpt lat="43.61014" lon="6.2647">
        <ele>559.14</ele>
        <time>2015-10-17T15:02:57Z</time>
      </trkpt>
      <trkpt lat="43.61012" lon="6.26469">
        <ele>558.66</ele>
        <time>2015-10-17T15:02:58Z</time>
      </trkpt>
      <trkpt lat="43.61013" lon="6.26433">
        <ele>557.22</ele>
        <time>2015-10-17T15:03:14Z</time>
      </trkpt>
      <trkpt lat="43.61012" lon="6.26405">
        <ele>555.3</ele>
        <time>2015-10-17T15:03:27Z</time>
      </trkpt>
      <trkpt lat="43.6101" lon="6.26394">
        <ele>553.86</ele>
        <time>2015-10-17T15:03:33Z</time>
      </trkpt>
      <trkpt lat="43.60997" lon="6.26364">
        <ele>550.97</ele>
        <time>2015-10-17T15:03:48Z</time>
      </trkpt>
      <trkpt lat="43.60979" lon="6.26342">
        <ele>550.01</ele>
        <time>2015-10-17T15:04:01Z</time>
      </trkpt>
      <trkpt lat="43.60963" lon="6.26321">
        <ele>549.05</ele>
        <time>2015-10-17T15:04:15Z</time>
      </trkpt>
      <trkpt lat="43.6094" lon="6.26309">
        <ele>547.13</ele>
        <time>2015-10-17T15:04:28Z</time>
      </trkpt>
      <trkpt lat="43.60919" lon="6.26298">
        <ele>545.2</ele>
        <time>2015-10-17T15:04:42Z</time>
      </trkpt>
      <trkpt lat="43.60904" lon="6.26283">
        <ele>541.84</ele>
        <time>2015-10-17T15:04:53Z</time>
      </trkpt>
      <trkpt lat="43.60903" lon="6.26282">
        <ele>541.84</ele>
        <time>2015-10-17T15:04:54Z</time>
      </trkpt>
      <trkpt lat="43.60899" lon="6.26267">
        <ele>538.96</ele>
        <time>2015-10-17T15:05:00Z</time>
      </trkpt>
      <trkpt lat="43.60893" lon="6.26242">
        <ele>536.07</ele>
        <time>2015-10-17T15:05:12Z</time>
      </trkpt>
      <trkpt lat="43.60882" lon="6.26221">
        <ele>532.71</ele>
        <time>2015-10-17T15:05:22Z</time>
      </trkpt>
      <trkpt lat="43.60874" lon="6.26215">
        <ele>532.23</ele>
        <time>2015-10-17T15:05:27Z</time>
      </trkpt>
      <trkpt lat="43.6086" lon="6.26212">
        <ele>531.75</ele>
        <time>2015-10-17T15:05:38Z</time>
      </trkpt>
      <trkpt lat="43.60857" lon="6.26209">
        <ele>530.3</ele>
        <time>2015-10-17T15:05:49Z</time>
      </trkpt>
      <trkpt lat="43.60854" lon="6.26204">
        <ele>530.79</ele>
        <time>2015-10-17T15:05:59Z</time>
      </trkpt>
      <trkpt lat="43.60853" lon="6.262">
        <ele>529.82</ele>
        <time>2015-10-17T15:06:02Z</time>
      </trkpt>
      <trkpt lat="43.60846" lon="6.26186">
        <ele>528.86</ele>
        <time>2015-10-17T15:06:12Z</time>
      </trkpt>
      <trkpt lat="43.60839" lon="6.26165">
        <ele>527.9</ele>
        <time>2015-10-17T15:06:22Z</time>
      </trkpt>
      <trkpt lat="43.60832" lon="6.26127">
        <ele>525.98</ele>
        <time>2015-10-17T15:06:38Z</time>
      </trkpt>
      <trkpt lat="43.60817" lon="6.26107">
        <ele>523.09</ele>
        <time>2015-10-17T15:06:52Z</time>
      </trkpt>
      <trkpt lat="43.60812" lon="6.26098">
        <ele>521.17</ele>
        <time>2015-10-17T15:06:58Z</time>
      </trkpt>
      <trkpt lat="43.60807" lon="6.26092">
        <ele>519.73</ele>
        <time>2015-10-17T15:07:03Z</time>
      </trkpt>
      <trkpt lat="43.60798" lon="6.26075">
        <ele>517.33</ele>
        <time>2015-10-17T15:07:14Z</time>
      </trkpt>
      <trkpt lat="43.60798" lon="6.26073">
        <ele>516.85</ele>
        <time>2015-10-17T15:07:20Z</time>
      </trkpt>
      <trkpt lat="43.6079" lon="6.26067">
        <ele>515.88</ele>
        <time>2015-10-17T15:07:27Z</time>
      </trkpt>
      <trkpt lat="43.60794" lon="6.26059">
        <ele>514.92</ele>
        <time>2015-10-17T15:07:36Z</time>
      </trkpt>
      <trkpt lat="43.60796" lon="6.26052">
        <ele>513.96</ele>
        <time>2015-10-17T15:07:41Z</time>
      </trkpt>
      <trkpt lat="43.60793" lon="6.26052">
        <ele>513.96</ele>
        <time>2015-10-17T15:07:44Z</time>
      </trkpt>
      <trkpt lat="43.60777" lon="6.26043">
        <ele>514.44</ele>
        <time>2015-10-17T15:07:57Z</time>
      </trkpt>
      <trkpt lat="43.60768" lon="6.26035">
        <ele>515.4</ele>
        <time>2015-10-17T15:08:10Z</time>
      </trkpt>
      <trkpt lat="43.60768" lon="6.26035">
        <ele>514.92</ele>
        <time>2015-10-17T15:08:11Z</time>
      </trkpt>
      <trkpt lat="43.60766" lon="6.26035">
        <ele>515.4</ele>
        <time>2015-10-17T15:08:13Z</time>
      </trkpt>
      <trkpt lat="43.6076" lon="6.26031">
        <ele>514.92</ele>
        <time>2015-10-17T15:08:18Z</time>
      </trkpt>
      <trkpt lat="43.60743" lon="6.26008">
        <ele>514.92</ele>
        <time>2015-10-17T15:08:32Z</time>
      </trkpt>
      <trkpt lat="43.60732" lon="6.25985">
        <ele>514.44</ele>
        <time>2015-10-17T15:08:45Z</time>
      </trkpt>
      <trkpt lat="43.60732" lon="6.25983">
        <ele>514.92</ele>
        <time>2015-10-17T15:08:46Z</time>
      </trkpt>
      <trkpt lat="43.60732" lon="6.25972">
        <ele>515.4</ele>
        <time>2015-10-17T15:08:53Z</time>
      </trkpt>
      <trkpt lat="43.60733" lon="6.25944">
        <ele>518.29</ele>
        <time>2015-10-17T15:09:05Z</time>
      </trkpt>
      <trkpt lat="43.60733" lon="6.25941">
        <ele>518.77</ele>
        <time>2015-10-17T15:09:06Z</time>
      </trkpt>
      <trkpt lat="43.60734" lon="6.25931">
        <ele>520.21</ele>
        <time>2015-10-17T15:09:09Z</time>
      </trkpt>
      <trkpt lat="43.60747" lon="6.25903">
        <ele>522.13</ele>
        <time>2015-10-17T15:09:25Z</time>
      </trkpt>
      <trkpt lat="43.60748" lon="6.259">
        <ele>522.61</ele>
        <time>2015-10-17T15:09:27Z</time>
      </trkpt>
      <trkpt lat="43.60734" lon="6.25892">
        <ele>520.21</ele>
        <time>2015-10-17T15:09:39Z</time>
      </trkpt>
      <trkpt lat="43.60728" lon="6.25891">
        <ele>519.73</ele>
        <time>2015-10-17T15:09:43Z</time>
      </trkpt>
      <trkpt lat="43.60709" lon="6.25873">
        <ele>517.81</ele>
        <time>2015-10-17T15:09:57Z</time>
      </trkpt>
      <trkpt lat="43.60702" lon="6.25844">
        <ele>516.85</ele>
        <time>2015-10-17T15:10:10Z</time>
      </trkpt>
      <trkpt lat="43.60701" lon="6.25807">
        <ele>517.33</ele>
        <time>2015-10-17T15:10:26Z</time>
      </trkpt>
      <trkpt lat="43.60701" lon="6.25805">
        <ele>517.81</ele>
        <time>2015-10-17T15:10:27Z</time>
      </trkpt>
      <trkpt lat="43.60702" lon="6.25776">
        <ele>518.77</ele>
        <time>2015-10-17T15:10:40Z</time>
      </trkpt>
      <trkpt lat="43.607" lon="6.25744">
        <ele>519.73</ele>
        <time>2015-10-17T15:10:55Z</time>
      </trkpt>
      <trkpt lat="43.60698" lon="6.25717">
        <ele>520.21</ele>
        <time>2015-10-17T15:11:07Z</time>
      </trkpt>
      <trkpt lat="43.60698" lon="6.25714">
        <ele>520.21</ele>
        <time>2015-10-17T15:11:08Z</time>
      </trkpt>
      <trkpt lat="43.60689" lon="6.25688">
        <ele>520.21</ele>
        <time>2015-10-17T15:11:22Z</time>
      </trkpt>
      <trkpt lat="43.60678" lon="6.25657">
        <ele>520.21</ele>
        <time>2015-10-17T15:11:38Z</time>
      </trkpt>
      <trkpt lat="43.60671" lon="6.25636">
        <ele>519.25</ele>
        <time>2015-10-17T15:11:49Z</time>
      </trkpt>
      <trkpt lat="43.60663" lon="6.25621">
        <ele>518.77</ele>
        <time>2015-10-17T15:11:57Z</time>
      </trkpt>
      <trkpt lat="43.60654" lon="6.25607">
        <ele>518.29</ele>
        <time>2015-10-17T15:12:05Z</time>
      </trkpt>
      <trkpt lat="43.60648" lon="6.25597">
        <ele>518.29</ele>
        <time>2015-10-17T15:12:11Z</time>
      </trkpt>
      <trkpt lat="43.60638" lon="6.25583">
        <ele>518.77</ele>
        <time>2015-10-17T15:12:20Z</time>
      </trkpt>
      <trkpt lat="43.60624" lon="6.25554">
        <ele>518.29</ele>
        <time>2015-10-17T15:12:34Z</time>
      </trkpt>
      <trkpt lat="43.60612" lon="6.25534">
        <ele>517.81</ele>
        <time>2015-10-17T15:12:46Z</time>
      </trkpt>
      <trkpt lat="43.60599" lon="6.25513">
        <ele>514.92</ele>
        <time>2015-10-17T15:12:59Z</time>
      </trkpt>
      <trkpt lat="43.60589" lon="6.25489">
        <ele>513</ele>
        <time>2015-10-17T15:13:12Z</time>
      </trkpt>
      <trkpt lat="43.60588" lon="6.25487">
        <ele>513</ele>
        <time>2015-10-17T15:13:13Z</time>
      </trkpt>
      <trkpt lat="43.60582" lon="6.25487">
        <ele>512.04</ele>
        <time>2015-10-17T15:13:18Z</time>
      </trkpt>
      <trkpt lat="43.60569" lon="6.25514">
        <ele>509.64</ele>
        <time>2015-10-17T15:13:32Z</time>
      </trkpt>
      <trkpt lat="43.60565" lon="6.2552">
        <ele>508.67</ele>
        <time>2015-10-17T15:13:36Z</time>
      </trkpt>
      <trkpt lat="43.60553" lon="6.25538">
        <ele>505.79</ele>
        <time>2015-10-17T15:13:48Z</time>
      </trkpt>
      <trkpt lat="43.60541" lon="6.2556">
        <ele>504.35</ele>
        <time>2015-10-17T15:14:01Z</time>
      </trkpt>
      <trkpt lat="43.60536" lon="6.25571">
        <ele>502.91</ele>
        <time>2015-10-17T15:14:07Z</time>
      </trkpt>
      <trkpt lat="43.60519" lon="6.25585">
        <ele>501.46</ele>
        <time>2015-10-17T15:14:19Z</time>
      </trkpt>
      <trkpt lat="43.60503" lon="6.25599">
        <ele>499.54</ele>
        <time>2015-10-17T15:14:31Z</time>
      </trkpt>
      <trkpt lat="43.6051" lon="6.25623">
        <ele>497.62</ele>
        <time>2015-10-17T15:14:44Z</time>
      </trkpt>
      <trkpt lat="43.6051" lon="6.25625">
        <ele>497.14</ele>
        <time>2015-10-17T15:14:45Z</time>
      </trkpt>
      <trkpt lat="43.60505" lon="6.25628">
        <ele>496.18</ele>
        <time>2015-10-17T15:14:49Z</time>
      </trkpt>
      <trkpt lat="43.60484" lon="6.25617">
        <ele>495.7</ele>
        <time>2015-10-17T15:15:02Z</time>
      </trkpt>
      <trkpt lat="43.60479" lon="6.25607">
        <ele>495.22</ele>
        <time>2015-10-17T15:15:14Z</time>
      </trkpt>
      <trkpt lat="43.60479" lon="6.25606">
        <ele>494.74</ele>
        <time>2015-10-17T15:15:18Z</time>
      </trkpt>
      <trkpt lat="43.60476" lon="6.25601">
        <ele>494.74</ele>
        <time>2015-10-17T15:15:28Z</time>
      </trkpt>
      <trkpt lat="43.60474" lon="6.25596">
        <ele>495.7</ele>
        <time>2015-10-17T15:15:39Z</time>
      </trkpt>
      <trkpt lat="43.60474" lon="6.25596">
        <ele>494.74</ele>
        <time>2015-10-17T15:15:42Z</time>
      </trkpt>
      <trkpt lat="43.60472" lon="6.25589">
        <ele>494.74</ele>
        <time>2015-10-17T15:15:55Z</time>
      </trkpt>
      <trkpt lat="43.6047" lon="6.25586">
        <ele>494.74</ele>
        <time>2015-10-17T15:16:00Z</time>
      </trkpt>
      <trkpt lat="43.60463" lon="6.25565">
        <ele>493.77</ele>
        <time>2015-10-17T15:16:10Z</time>
      </trkpt>
      <trkpt lat="43.60447" lon="6.25537">
        <ele>492.81</ele>
        <time>2015-10-17T15:16:27Z</time>
      </trkpt>
      <trkpt lat="43.60442" lon="6.25528">
        <ele>492.33</ele>
        <time>2015-10-17T15:16:32Z</time>
      </trkpt>
      <trkpt lat="43.60433" lon="6.25496">
        <ele>490.89</ele>
        <time>2015-10-17T15:16:47Z</time>
      </trkpt>
      <trkpt lat="43.60423" lon="6.25471">
        <ele>489.93</ele>
        <time>2015-10-17T15:17:00Z</time>
      </trkpt>
      <trkpt lat="43.60416" lon="6.25447">
        <ele>490.41</ele>
        <time>2015-10-17T15:17:11Z</time>
      </trkpt>
      <trkpt lat="43.60404" lon="6.25424">
        <ele>491.37</ele>
        <time>2015-10-17T15:17:23Z</time>
      </trkpt>
      <trkpt lat="43.60401" lon="6.25418">
        <ele>491.37</ele>
        <time>2015-10-17T15:17:27Z</time>
      </trkpt>
      <trkpt lat="43.60398" lon="6.25401">
        <ele>489.93</ele>
        <time>2015-10-17T15:17:37Z</time>
      </trkpt>
      <trkpt lat="43.60399" lon="6.25397">
        <ele>489.45</ele>
        <time>2015-10-17T15:17:40Z</time>
      </trkpt>
      <trkpt lat="43.604" lon="6.25394">
        <ele>488.97</ele>
        <time>2015-10-17T15:17:42Z</time>
      </trkpt>
      <trkpt lat="43.60406" lon="6.25377">
        <ele>486.56</ele>
        <time>2015-10-17T15:17:50Z</time>
      </trkpt>
      <trkpt lat="43.60416" lon="6.25369">
        <ele>486.56</ele>
        <time>2015-10-17T15:17:56Z</time>
      </trkpt>
      <trkpt lat="43.60437" lon="6.25356">
        <ele>488.49</ele>
        <time>2015-10-17T15:18:11Z</time>
      </trkpt>
      <trkpt lat="43.60445" lon="6.25351">
        <ele>488.97</ele>
        <time>2015-10-17T15:18:24Z</time>
      </trkpt>
      <trkpt lat="43.60446" lon="6.2535">
        <ele>488.97</ele>
        <time>2015-10-17T15:18:28Z</time>
      </trkpt>
      <trkpt lat="43.60453" lon="6.25346">
        <ele>488.49</ele>
        <time>2015-10-17T15:18:36Z</time>
      </trkpt>
      <trkpt lat="43.60458" lon="6.25344">
        <ele>488.01</ele>
        <time>2015-10-17T15:18:43Z</time>
      </trkpt>
      <trkpt lat="43.6046" lon="6.25341">
        <ele>488.01</ele>
        <time>2015-10-17T15:18:47Z</time>
      </trkpt>
      <trkpt lat="43.6046" lon="6.25335">
        <ele>489.45</ele>
        <time>2015-10-17T15:18:50Z</time>
      </trkpt>
      <trkpt lat="43.60459" lon="6.25334">
        <ele>489.45</ele>
        <time>2015-10-17T15:18:52Z</time>
      </trkpt>
      <trkpt lat="43.60453" lon="6.2533">
        <ele>488.01</ele>
        <time>2015-10-17T15:19:03Z</time>
      </trkpt>
      <trkpt lat="43.60446" lon="6.25329">
        <ele>487.05</ele>
        <time>2015-10-17T15:19:13Z</time>
      </trkpt>
      <trkpt lat="43.60434" lon="6.25332">
        <ele>485.6</ele>
        <time>2015-10-17T15:19:22Z</time>
      </trkpt>
      <trkpt lat="43.60429" lon="6.25322">
        <ele>483.2</ele>
        <time>2015-10-17T15:19:29Z</time>
      </trkpt>
      <trkpt lat="43.60425" lon="6.25321">
        <ele>482.24</ele>
        <time>2015-10-17T15:19:34Z</time>
      </trkpt>
      <trkpt lat="43.60423" lon="6.25318">
        <ele>481.28</ele>
        <time>2015-10-17T15:19:37Z</time>
      </trkpt>
      <trkpt lat="43.60425" lon="6.25304">
        <ele>480.8</ele>
        <time>2015-10-17T15:19:45Z</time>
      </trkpt>
      <trkpt lat="43.60423" lon="6.25298">
        <ele>479.84</ele>
        <time>2015-10-17T15:19:50Z</time>
      </trkpt>
      <trkpt lat="43.60423" lon="6.25285">
        <ele>480.8</ele>
        <time>2015-10-17T15:19:56Z</time>
      </trkpt>
      <trkpt lat="43.60423" lon="6.25281">
        <ele>480.8</ele>
        <time>2015-10-17T15:19:58Z</time>
      </trkpt>
      <trkpt lat="43.6042" lon="6.25277">
        <ele>482.24</ele>
        <time>2015-10-17T15:20:00Z</time>
      </trkpt>
      <trkpt lat="43.60418" lon="6.25269">
        <ele>483.2</ele>
        <time>2015-10-17T15:20:04Z</time>
      </trkpt>
      <trkpt lat="43.60418" lon="6.25245">
        <ele>483.2</ele>
        <time>2015-10-17T15:20:17Z</time>
      </trkpt>
      <trkpt lat="43.60421" lon="6.25232">
        <ele>482.24</ele>
        <time>2015-10-17T15:20:25Z</time>
      </trkpt>
      <trkpt lat="43.60421" lon="6.25229">
        <ele>481.76</ele>
        <time>2015-10-17T15:20:27Z</time>
      </trkpt>
      <trkpt lat="43.60421" lon="6.25224">
        <ele>481.76</ele>
        <time>2015-10-17T15:20:30Z</time>
      </trkpt>
      <trkpt lat="43.60412" lon="6.25207">
        <ele>481.28</ele>
        <time>2015-10-17T15:20:40Z</time>
      </trkpt>
      <trkpt lat="43.60406" lon="6.25196">
        <ele>480.8</ele>
        <time>2015-10-17T15:20:47Z</time>
      </trkpt>
      <trkpt lat="43.60404" lon="6.25185">
        <ele>479.35</ele>
        <time>2015-10-17T15:20:53Z</time>
      </trkpt>
      <trkpt lat="43.60404" lon="6.25178">
        <ele>477.91</ele>
        <time>2015-10-17T15:20:57Z</time>
      </trkpt>
      <trkpt lat="43.60403" lon="6.25175">
        <ele>476.95</ele>
        <time>2015-10-17T15:20:59Z</time>
      </trkpt>
      <trkpt lat="43.60392" lon="6.25166">
        <ele>476.95</ele>
        <time>2015-10-17T15:21:06Z</time>
      </trkpt>
      <trkpt lat="43.60389" lon="6.25152">
        <ele>477.91</ele>
        <time>2015-10-17T15:21:13Z</time>
      </trkpt>
      <trkpt lat="43.60385" lon="6.25147">
        <ele>478.39</ele>
        <time>2015-10-17T15:21:26Z</time>
      </trkpt>
      <trkpt lat="43.60384" lon="6.25144">
        <ele>478.39</ele>
        <time>2015-10-17T15:21:28Z</time>
      </trkpt>
      <trkpt lat="43.60382" lon="6.2514">
        <ele>478.87</ele>
        <time>2015-10-17T15:21:31Z</time>
      </trkpt>
      <trkpt lat="43.60377" lon="6.25134">
        <ele>478.87</ele>
        <time>2015-10-17T15:21:35Z</time>
      </trkpt>
      <trkpt lat="43.60372" lon="6.25129">
        <ele>479.35</ele>
        <time>2015-10-17T15:21:39Z</time>
      </trkpt>
      <trkpt lat="43.6036" lon="6.25112">
        <ele>481.28</ele>
        <time>2015-10-17T15:21:52Z</time>
      </trkpt>
      <trkpt lat="43.60358" lon="6.25111">
        <ele>479.84</ele>
        <time>2015-10-17T15:21:54Z</time>
      </trkpt>
      <trkpt lat="43.60353" lon="6.25109">
        <ele>481.76</ele>
        <time>2015-10-17T15:21:59Z</time>
      </trkpt>
      <trkpt lat="43.60348" lon="6.25111">
        <ele>481.76</ele>
        <time>2015-10-17T15:22:05Z</time>
      </trkpt>
      <trkpt lat="43.60332" lon="6.25114">
        <ele>481.28</ele>
        <time>2015-10-17T15:22:16Z</time>
      </trkpt>
      <trkpt lat="43.60312" lon="6.25114">
        <ele>478.87</ele>
        <time>2015-10-17T15:22:30Z</time>
      </trkpt>
      <trkpt lat="43.60292" lon="6.25106">
        <ele>477.91</ele>
        <time>2015-10-17T15:22:45Z</time>
      </trkpt>
      <trkpt lat="43.60278" lon="6.25104">
        <ele>477.43</ele>
        <time>2015-10-17T15:22:56Z</time>
      </trkpt>
      <trkpt lat="43.60262" lon="6.25104">
        <ele>476.47</ele>
        <time>2015-10-17T15:23:09Z</time>
      </trkpt>
      <trkpt lat="43.60243" lon="6.25098">
        <ele>474.07</ele>
        <time>2015-10-17T15:23:22Z</time>
      </trkpt>
      <trkpt lat="43.60224" lon="6.25091">
        <ele>470.7</ele>
        <time>2015-10-17T15:23:36Z</time>
      </trkpt>
      <trkpt lat="43.60208" lon="6.25097">
        <ele>470.22</ele>
        <time>2015-10-17T15:23:48Z</time>
      </trkpt>
      <trkpt lat="43.60197" lon="6.25111">
        <ele>471.18</ele>
        <time>2015-10-17T15:24:01Z</time>
      </trkpt>
      <trkpt lat="43.60174" lon="6.25113">
        <ele>470.22</ele>
        <time>2015-10-17T15:24:16Z</time>
      </trkpt>
      <trkpt lat="43.60155" lon="6.25098">
        <ele>470.22</ele>
        <time>2015-10-17T15:24:28Z</time>
      </trkpt>
      <trkpt lat="43.60147" lon="6.25075">
        <ele>472.14</ele>
        <time>2015-10-17T15:24:40Z</time>
      </trkpt>
      <trkpt lat="43.60136" lon="6.25048">
        <ele>474.55</ele>
        <time>2015-10-17T15:24:56Z</time>
      </trkpt>
      <trkpt lat="43.60116" lon="6.25031">
        <ele>475.51</ele>
        <time>2015-10-17T15:25:12Z</time>
      </trkpt>
      <trkpt lat="43.60097" lon="6.25032">
        <ele>475.99</ele>
        <time>2015-10-17T15:25:25Z</time>
      </trkpt>
      <trkpt lat="43.60077" lon="6.25041">
        <ele>476.95</ele>
        <time>2015-10-17T15:25:38Z</time>
      </trkpt>
      <trkpt lat="43.6007" lon="6.25045">
        <ele>476.95</ele>
        <time>2015-10-17T15:25:44Z</time>
      </trkpt>
      <trkpt lat="43.60053" lon="6.25066">
        <ele>477.43</ele>
        <time>2015-10-17T15:25:58Z</time>
      </trkpt>
      <trkpt lat="43.60038" lon="6.25085">
        <ele>477.91</ele>
        <time>2015-10-17T15:26:12Z</time>
      </trkpt>
      <trkpt lat="43.60033" lon="6.25087">
        <ele>477.43</ele>
        <time>2015-10-17T15:26:23Z</time>
      </trkpt>
      <trkpt lat="43.60033" lon="6.25087">
        <ele>476.95</ele>
        <time>2015-10-17T15:26:24Z</time>
      </trkpt>
      <trkpt lat="43.6003" lon="6.25091">
        <ele>476.47</ele>
        <time>2015-10-17T15:26:28Z</time>
      </trkpt>
      <trkpt lat="43.60027" lon="6.25096">
        <ele>476.47</ele>
        <time>2015-10-17T15:26:32Z</time>
      </trkpt>
      <trkpt lat="43.60025" lon="6.25098">
        <ele>476.47</ele>
        <time>2015-10-17T15:26:37Z</time>
      </trkpt>
      <trkpt lat="43.6002" lon="6.25099">
        <ele>475.51</ele>
        <time>2015-10-17T15:26:45Z</time>
      </trkpt>
      <trkpt lat="43.60017" lon="6.251">
        <ele>475.51</ele>
        <time>2015-10-17T15:26:47Z</time>
      </trkpt>
      <trkpt lat="43.6001" lon="6.25102">
        <ele>475.99</ele>
        <time>2015-10-17T15:26:51Z</time>
      </trkpt>
      <trkpt lat="43.60007" lon="6.25104">
        <ele>475.99</ele>
        <time>2015-10-17T15:26:53Z</time>
      </trkpt>
      <trkpt lat="43.60004" lon="6.25107">
        <ele>476.47</ele>
        <time>2015-10-17T15:26:56Z</time>
      </trkpt>
      <trkpt lat="43.60002" lon="6.2511">
        <ele>476.47</ele>
        <time>2015-10-17T15:26:59Z</time>
      </trkpt>
      <trkpt lat="43.5999" lon="6.25115">
        <ele>475.51</ele>
        <time>2015-10-17T15:27:12Z</time>
      </trkpt>
      <trkpt lat="43.59987" lon="6.25116">
        <ele>474.07</ele>
        <time>2015-10-17T15:27:20Z</time>
      </trkpt>
      <trkpt lat="43.5998" lon="6.25116">
        <ele>473.11</ele>
        <time>2015-10-17T15:27:25Z</time>
      </trkpt>
      <trkpt lat="43.59977" lon="6.25114">
        <ele>472.63</ele>
        <time>2015-10-17T15:27:27Z</time>
      </trkpt>
      <trkpt lat="43.59975" lon="6.25104">
        <ele>471.66</ele>
        <time>2015-10-17T15:27:33Z</time>
      </trkpt>
      <trkpt lat="43.59972" lon="6.25076">
        <ele>469.26</ele>
        <time>2015-10-17T15:27:49Z</time>
      </trkpt>
      <trkpt lat="43.59972" lon="6.25072">
        <ele>468.78</ele>
        <time>2015-10-17T15:27:51Z</time>
      </trkpt>
      <trkpt lat="43.59971" lon="6.25068">
        <ele>468.3</ele>
        <time>2015-10-17T15:27:54Z</time>
      </trkpt>
      <trkpt lat="43.5997" lon="6.25064">
        <ele>467.34</ele>
        <time>2015-10-17T15:27:56Z</time>
      </trkpt>
      <trkpt lat="43.59968" lon="6.25042">
        <ele>464.93</ele>
        <time>2015-10-17T15:28:06Z</time>
      </trkpt>
      <trkpt lat="43.59965" lon="6.25036">
        <ele>463.01</ele>
        <time>2015-10-17T15:28:17Z</time>
      </trkpt>
      <trkpt lat="43.59964" lon="6.25035">
        <ele>463.49</ele>
        <time>2015-10-17T15:28:30Z</time>
      </trkpt>
      <trkpt lat="43.59964" lon="6.25035">
        <ele>463.01</ele>
        <time>2015-10-17T15:28:41Z</time>
      </trkpt>
      <trkpt lat="43.59962" lon="6.25038">
        <ele>462.05</ele>
        <time>2015-10-17T15:28:45Z</time>
      </trkpt>
      <trkpt lat="43.5995" lon="6.2505">
        <ele>459.65</ele>
        <time>2015-10-17T15:28:58Z</time>
      </trkpt>
      <trkpt lat="43.59946" lon="6.25054">
        <ele>459.17</ele>
        <time>2015-10-17T15:29:02Z</time>
      </trkpt>
      <trkpt lat="43.5994" lon="6.25061">
        <ele>458.69</ele>
        <time>2015-10-17T15:29:18Z</time>
      </trkpt>
      <trkpt lat="43.5994" lon="6.25062">
        <ele>458.21</ele>
        <time>2015-10-17T15:29:19Z</time>
      </trkpt>
      <trkpt lat="43.59944" lon="6.25079">
        <ele>458.69</ele>
        <time>2015-10-17T15:29:33Z</time>
      </trkpt>
      <trkpt lat="43.59944" lon="6.25079">
        <ele>458.69</ele>
        <time>2015-10-17T15:29:49Z</time>
      </trkpt>
      <trkpt lat="43.59943" lon="6.25078">
        <ele>458.69</ele>
        <time>2015-10-17T15:30:02Z</time>
      </trkpt>
      <trkpt lat="43.59942" lon="6.25079">
        <ele>458.69</ele>
        <time>2015-10-17T15:30:16Z</time>
      </trkpt>
      <trkpt lat="43.59942" lon="6.25078">
        <ele>459.17</ele>
        <time>2015-10-17T15:30:30Z</time>
      </trkpt>
      <trkpt lat="43.59943" lon="6.25078">
        <ele>459.17</ele>
        <time>2015-10-17T15:30:46Z</time>
      </trkpt>
      <trkpt lat="43.59943" lon="6.25077">
        <ele>458.21</ele>
        <time>2015-10-17T15:30:59Z</time>
      </trkpt>
      <trkpt lat="43.59943" lon="6.25076">
        <ele>458.69</ele>
        <time>2015-10-17T15:31:14Z</time>
      </trkpt>
      <trkpt lat="43.59944" lon="6.25078">
        <ele>458.69</ele>
        <time>2015-10-17T15:31:20Z</time>
      </trkpt>
      <trkpt lat="43.59942" lon="6.25078">
        <ele>458.21</ele>
        <time>2015-10-17T15:31:23Z</time>
      </trkpt>
      <trkpt lat="43.59943" lon="6.2508">
        <ele>458.21</ele>
        <time>2015-10-17T15:31:35Z</time>
      </trkpt>
      <trkpt lat="43.59942" lon="6.2508">
        <ele>458.21</ele>
        <time>2015-10-17T15:31:36Z</time>
      </trkpt>
      <trkpt lat="43.59944" lon="6.25077">
        <ele>458.21</ele>
        <time>2015-10-17T15:31:44Z</time>
      </trkpt>
      <trkpt lat="43.59943" lon="6.25078">
        <ele>458.21</ele>
        <time>2015-10-17T15:31:59Z</time>
      </trkpt>
      <trkpt lat="43.59942" lon="6.25079">
        <ele>458.21</ele>
        <time>2015-10-17T15:32:16Z</time>
      </trkpt>
      <trkpt lat="43.59942" lon="6.25079">
        <ele>458.21</ele>
        <time>2015-10-17T15:32:29Z</time>
      </trkpt>
      <trkpt lat="43.59942" lon="6.25079">
        <ele>457.72</ele>
        <time>2015-10-17T15:32:46Z</time>
      </trkpt>
      <trkpt lat="43.59942" lon="6.25079">
        <ele>457.24</ele>
        <time>2015-10-17T15:32:57Z</time>
      </trkpt>
      <trkpt lat="43.59944" lon="6.2508">
        <ele>457.72</ele>
        <time>2015-10-17T15:33:09Z</time>
      </trkpt>
      <trkpt lat="43.59943" lon="6.2508">
        <ele>457.24</ele>
        <time>2015-10-17T15:33:25Z</time>
      </trkpt>
      <trkpt lat="43.59941" lon="6.2508">
        <ele>457.72</ele>
        <time>2015-10-17T15:33:43Z</time>
      </trkpt>
      <trkpt lat="43.5994" lon="6.25075">
        <ele>457.72</ele>
        <time>2015-10-17T15:33:57Z</time>
      </trkpt>
      <trkpt lat="43.59941" lon="6.25076">
        <ele>457.72</ele>
        <time>2015-10-17T15:34:08Z</time>
      </trkpt>
      <trkpt lat="43.59941" lon="6.25076">
        <ele>457.72</ele>
        <time>2015-10-17T15:34:22Z</time>
      </trkpt>
      <trkpt lat="43.59941" lon="6.25077">
        <ele>457.24</ele>
        <time>2015-10-17T15:34:34Z</time>
      </trkpt>
      <trkpt lat="43.59941" lon="6.25077">
        <ele>457.24</ele>
        <time>2015-10-17T15:34:49Z</time>
      </trkpt>
      <trkpt lat="43.59943" lon="6.25078">
        <ele>457.24</ele>
        <time>2015-10-17T15:35:04Z</time>
      </trkpt>
      <trkpt lat="43.59943" lon="6.25078">
        <ele>457.24</ele>
        <time>2015-10-17T15:35:16Z</time>
      </trkpt>
      <trkpt lat="43.59941" lon="6.25078">
        <ele>456.76</ele>
        <time>2015-10-17T15:35:32Z</time>
      </trkpt>
      <trkpt lat="43.59941" lon="6.25077">
        <ele>457.24</ele>
        <time>2015-10-17T15:35:40Z</time>
      </trkpt>
      <trkpt lat="43.59941" lon="6.2508">
        <ele>457.24</ele>
        <time>2015-10-17T15:35:53Z</time>
      </trkpt>
      <trkpt lat="43.59939" lon="6.2508">
        <ele>456.76</ele>
        <time>2015-10-17T15:36:07Z</time>
      </trkpt>
      <trkpt lat="43.59941" lon="6.25079">
        <ele>456.76</ele>
        <time>2015-10-17T15:36:20Z</time>
      </trkpt>
      <trkpt lat="43.59942" lon="6.25078">
        <ele>456.76</ele>
        <time>2015-10-17T15:36:32Z</time>
      </trkpt>
      <trkpt lat="43.59944" lon="6.25078">
        <ele>456.76</ele>
        <time>2015-10-17T15:36:45Z</time>
      </trkpt>
      <trkpt lat="43.59942" lon="6.25078">
        <ele>456.28</ele>
        <time>2015-10-17T15:37:06Z</time>
      </trkpt>
      <trkpt lat="43.5994" lon="6.25073">
        <ele>456.76</ele>
        <time>2015-10-17T15:37:11Z</time>
      </trkpt>
      <trkpt lat="43.5994" lon="6.25065">
        <ele>456.28</ele>
        <time>2015-10-17T15:37:15Z</time>
      </trkpt>
      <trkpt lat="43.59938" lon="6.2506">
        <ele>456.28</ele>
        <time>2015-10-17T15:37:29Z</time>
      </trkpt>
      <trkpt lat="43.59937" lon="6.25058">
        <ele>456.28</ele>
        <time>2015-10-17T15:37:34Z</time>
      </trkpt>
      <trkpt lat="43.59921" lon="6.2505">
        <ele>454.36</ele>
        <time>2015-10-17T15:37:46Z</time>
      </trkpt>
      <trkpt lat="43.59911" lon="6.25038">
        <ele>453.88</ele>
        <time>2015-10-17T15:37:57Z</time>
      </trkpt>
      <trkpt lat="43.59904" lon="6.2503">
        <ele>453.4</ele>
        <time>2015-10-17T15:38:04Z</time>
      </trkpt>
      <trkpt lat="43.59903" lon="6.25028">
        <ele>453.4</ele>
        <time>2015-10-17T15:38:06Z</time>
      </trkpt>
      <trkpt lat="43.59906" lon="6.25021">
        <ele>453.4</ele>
        <time>2015-10-17T15:38:13Z</time>
      </trkpt>
      <trkpt lat="43.59904" lon="6.25025">
        <ele>453.4</ele>
        <time>2015-10-17T15:38:18Z</time>
      </trkpt>
      <trkpt lat="43.59913" lon="6.25038">
        <ele>453.88</ele>
        <time>2015-10-17T15:38:30Z</time>
      </trkpt>
      <trkpt lat="43.59915" lon="6.25041">
        <ele>454.36</ele>
        <time>2015-10-17T15:38:33Z</time>
      </trkpt>
      <trkpt lat="43.59917" lon="6.25042">
        <ele>454.36</ele>
        <time>2015-10-17T15:38:35Z</time>
      </trkpt>
      <trkpt lat="43.59924" lon="6.25051">
        <ele>454.84</ele>
        <time>2015-10-17T15:38:48Z</time>
      </trkpt>
      <trkpt lat="43.59927" lon="6.25053">
        <ele>455.32</ele>
        <time>2015-10-17T15:38:54Z</time>
      </trkpt>
      <trkpt lat="43.59938" lon="6.25059">
        <ele>456.28</ele>
        <time>2015-10-17T15:39:05Z</time>
      </trkpt>
      <trkpt lat="43.59941" lon="6.2507">
        <ele>456.28</ele>
        <time>2015-10-17T15:39:12Z</time>
      </trkpt>
      <trkpt lat="43.5994" lon="6.25077">
        <ele>456.28</ele>
        <time>2015-10-17T15:39:23Z</time>
      </trkpt>
      <trkpt lat="43.5994" lon="6.25076">
        <ele>456.76</ele>
        <time>2015-10-17T15:39:37Z</time>
      </trkpt>
      <trkpt lat="43.59942" lon="6.25077">
        <ele>456.76</ele>
        <time>2015-10-17T15:39:50Z</time>
      </trkpt>
      <trkpt lat="43.59941" lon="6.25079">
        <ele>457.24</ele>
        <time>2015-10-17T15:40:05Z</time>
      </trkpt>
      <trkpt lat="43.59941" lon="6.25079">
        <ele>456.28</ele>
        <time>2015-10-17T15:40:26Z</time>
      </trkpt>
      <trkpt lat="43.59941" lon="6.25078">
        <ele>457.24</ele>
        <time>2015-10-17T15:40:39Z</time>
      </trkpt>
      <trkpt lat="43.5994" lon="6.25078">
        <ele>457.24</ele>
        <time>2015-10-17T15:40:54Z</time>
      </trkpt>
      <trkpt lat="43.5994" lon="6.25077">
        <ele>457.24</ele>
        <time>2015-10-17T15:41:07Z</time>
      </trkpt>
      <trkpt lat="43.59942" lon="6.25078">
        <ele>457.72</ele>
        <time>2015-10-17T15:41:25Z</time>
      </trkpt>
      <trkpt lat="43.59941" lon="6.2508">
        <ele>456.76</ele>
        <time>2015-10-17T15:41:38Z</time>
      </trkpt>
      <trkpt lat="43.59941" lon="6.25078">
        <ele>457.72</ele>
        <time>2015-10-17T15:41:51Z</time>
      </trkpt>
      <trkpt lat="43.59943" lon="6.25077">
        <ele>457.24</ele>
        <time>2015-10-17T15:42:02Z</time>
      </trkpt>
      <trkpt lat="43.59942" lon="6.25077">
        <ele>457.72</ele>
        <time>2015-10-17T15:42:15Z</time>
      </trkpt>
      <trkpt lat="43.59941" lon="6.25078">
        <ele>457.72</ele>
        <time>2015-10-17T15:42:34Z</time>
      </trkpt>
      <trkpt lat="43.59941" lon="6.25078">
        <ele>457.72</ele>
        <time>2015-10-17T15:42:48Z</time>
      </trkpt>
      <trkpt lat="43.59941" lon="6.25078">
        <ele>457.72</ele>
        <time>2015-10-17T15:43:03Z</time>
      </trkpt>
      <trkpt lat="43.59941" lon="6.25078">
        <ele>457.72</ele>
        <time>2015-10-17T15:43:12Z</time>
      </trkpt>
      <trkpt lat="43.59941" lon="6.25076">
        <ele>457.72</ele>
        <time>2015-10-17T15:43:24Z</time>
      </trkpt>
      <trkpt lat="43.5994" lon="6.25079">
        <ele>457.72</ele>
        <time>2015-10-17T15:43:37Z</time>
      </trkpt>
      <trkpt lat="43.5994" lon="6.25077">
        <ele>457.72</ele>
        <time>2015-10-17T15:43:49Z</time>
      </trkpt>
      <trkpt lat="43.5994" lon="6.25078">
        <ele>457.72</ele>
        <time>2015-10-17T15:44:04Z</time>
      </trkpt>
      <trkpt lat="43.5994" lon="6.25078">
        <ele>457.72</ele>
        <time>2015-10-17T15:44:08Z</time>
      </trkpt>
      <trkpt lat="43.5994" lon="6.2508">
        <ele>457.72</ele>
        <time>2015-10-17T15:44:20Z</time>
      </trkpt>
      <trkpt lat="43.5994" lon="6.2508">
        <ele>457.72</ele>
        <time>2015-10-17T15:44:39Z</time>
      </trkpt>
      <trkpt lat="43.59939" lon="6.25079">
        <ele>457.24</ele>
        <time>2015-10-17T15:44:53Z</time>
      </trkpt>
      <trkpt lat="43.59941" lon="6.25078">
        <ele>457.72</ele>
        <time>2015-10-17T15:45:06Z</time>
      </trkpt>
      <trkpt lat="43.59942" lon="6.25079">
        <ele>457.24</ele>
        <time>2015-10-17T15:45:21Z</time>
      </trkpt>
      <trkpt lat="43.59942" lon="6.25079">
        <ele>457.72</ele>
        <time>2015-10-17T15:45:36Z</time>
      </trkpt>
      <trkpt lat="43.59942" lon="6.25078">
        <ele>456.76</ele>
        <time>2015-10-17T15:45:50Z</time>
      </trkpt>
      <trkpt lat="43.59942" lon="6.25078">
        <ele>457.24</ele>
        <time>2015-10-17T15:46:05Z</time>
      </trkpt>
      <trkpt lat="43.59941" lon="6.25076">
        <ele>457.24</ele>
        <time>2015-10-17T15:46:12Z</time>
      </trkpt>
      <trkpt lat="43.59942" lon="6.25072">
        <ele>457.24</ele>
        <time>2015-10-17T15:46:26Z</time>
      </trkpt>
      <trkpt lat="43.59938" lon="6.25064">
        <ele>456.28</ele>
        <time>2015-10-17T15:46:44Z</time>
      </trkpt>
      <trkpt lat="43.59938" lon="6.25064">
        <ele>456.28</ele>
        <time>2015-10-17T15:47:05Z</time>
      </trkpt>
      <trkpt lat="43.59938" lon="6.25065">
        <ele>456.76</ele>
        <time>2015-10-17T15:47:11Z</time>
      </trkpt>
      <trkpt lat="43.5994" lon="6.25077">
        <ele>457.24</ele>
        <time>2015-10-17T15:47:22Z</time>
      </trkpt>
      <trkpt lat="43.59947" lon="6.25076">
        <ele>456.76</ele>
        <time>2015-10-17T15:47:39Z</time>
      </trkpt>
      <trkpt lat="43.59946" lon="6.25078">
        <ele>457.24</ele>
        <time>2015-10-17T15:47:55Z</time>
      </trkpt>
      <trkpt lat="43.59945" lon="6.25078">
        <ele>457.24</ele>
        <time>2015-10-17T15:48:02Z</time>
      </trkpt>
      <trkpt lat="43.59945" lon="6.25073">
        <ele>456.76</ele>
        <time>2015-10-17T15:48:13Z</time>
      </trkpt>
      <trkpt lat="43.59945" lon="6.25073">
        <ele>456.76</ele>
        <time>2015-10-17T15:48:27Z</time>
      </trkpt>
      <trkpt lat="43.59945" lon="6.25074">
        <ele>458.21</ele>
        <time>2015-10-17T15:48:39Z</time>
      </trkpt>
      <trkpt lat="43.59944" lon="6.25074">
        <ele>456.76</ele>
        <time>2015-10-17T15:48:53Z</time>
      </trkpt>
      <trkpt lat="43.59944" lon="6.25074">
        <ele>456.28</ele>
        <time>2015-10-17T15:49:11Z</time>
      </trkpt>
      <trkpt lat="43.5994" lon="6.25064">
        <ele>456.76</ele>
        <time>2015-10-17T15:49:27Z</time>
      </trkpt>
      <trkpt lat="43.59939" lon="6.2506">
        <ele>456.28</ele>
        <time>2015-10-17T15:49:42Z</time>
      </trkpt>
      <trkpt lat="43.59939" lon="6.25064">
        <ele>456.28</ele>
        <time>2015-10-17T15:49:53Z</time>
      </trkpt>
      <trkpt lat="43.5994" lon="6.25066">
        <ele>456.76</ele>
        <time>2015-10-17T15:50:07Z</time>
      </trkpt>
      <trkpt lat="43.5994" lon="6.25067">
        <ele>456.76</ele>
        <time>2015-10-17T15:50:16Z</time>
      </trkpt>
      <trkpt lat="43.59942" lon="6.25072">
        <ele>456.76</ele>
        <time>2015-10-17T15:50:20Z</time>
      </trkpt>
      <trkpt lat="43.59945" lon="6.25075">
        <ele>457.24</ele>
        <time>2015-10-17T15:50:35Z</time>
      </trkpt>
      <trkpt lat="43.59945" lon="6.25076">
        <ele>456.76</ele>
        <time>2015-10-17T15:50:38Z</time>
      </trkpt>
      <trkpt lat="43.59942" lon="6.25065">
        <ele>457.24</ele>
        <time>2015-10-17T15:50:45Z</time>
      </trkpt>
      <trkpt lat="43.5993" lon="6.25053">
        <ele>455.8</ele>
        <time>2015-10-17T15:50:55Z</time>
      </trkpt>
      <trkpt lat="43.59923" lon="6.25048">
        <ele>454.84</ele>
        <time>2015-10-17T15:51:00Z</time>
      </trkpt>
      <trkpt lat="43.59912" lon="6.25038">
        <ele>454.36</ele>
        <time>2015-10-17T15:51:10Z</time>
      </trkpt>
      <trkpt lat="43.59909" lon="6.25036">
        <ele>454.36</ele>
        <time>2015-10-17T15:51:15Z</time>
      </trkpt>
      <trkpt lat="43.59907" lon="6.25034">
        <ele>453.88</ele>
        <time>2015-10-17T15:51:17Z</time>
      </trkpt>
      <trkpt lat="43.59898" lon="6.25023">
        <ele>453.4</ele>
        <time>2015-10-17T15:51:25Z</time>
      </trkpt>
      <trkpt lat="43.59897" lon="6.2502">
        <ele>452.44</ele>
        <time>2015-10-17T15:51:31Z</time>
      </trkpt>
      <trkpt lat="43.59896" lon="6.24994">
        <ele>451.96</ele>
        <time>2015-10-17T15:51:45Z</time>
      </trkpt>
      <trkpt lat="43.59901" lon="6.24976">
        <ele>451.96</ele>
        <time>2015-10-17T15:51:57Z</time>
      </trkpt>
      <trkpt lat="43.59901" lon="6.24975">
        <ele>451.96</ele>
        <time>2015-10-17T15:51:58Z</time>
      </trkpt>
      <trkpt lat="43.59907" lon="6.24942">
        <ele>451.48</ele>
        <time>2015-10-17T15:52:14Z</time>
      </trkpt>
      <trkpt lat="43.59909" lon="6.24937">
        <ele>451</ele>
        <time>2015-10-17T15:52:17Z</time>
      </trkpt>
      <trkpt lat="43.59909" lon="6.24933">
        <ele>451</ele>
        <time>2015-10-17T15:52:20Z</time>
      </trkpt>
      <trkpt lat="43.59909" lon="6.24929">
        <ele>450.52</ele>
        <time>2015-10-17T15:52:24Z</time>
      </trkpt>
      <trkpt lat="43.5991" lon="6.24923">
        <ele>450.52</ele>
        <time>2015-10-17T15:52:28Z</time>
      </trkpt>
      <trkpt lat="43.5991" lon="6.24919">
        <ele>450.52</ele>
        <time>2015-10-17T15:52:43Z</time>
      </trkpt>
      <trkpt lat="43.59909" lon="6.24919">
        <ele>450.52</ele>
        <time>2015-10-17T15:52:57Z</time>
      </trkpt>
      <trkpt lat="43.59909" lon="6.24919">
        <ele>450.52</ele>
        <time>2015-10-17T15:53:17Z</time>
      </trkpt>
      <trkpt lat="43.59909" lon="6.24919">
        <ele>450.52</ele>
        <time>2015-10-17T15:53:42Z</time>
      </trkpt>
      <trkpt lat="43.59909" lon="6.24919">
        <ele>455.32</ele>
        <time>2015-10-17T15:53:43Z</time>
      </trkpt>
      <trkpt lat="43.59909" lon="6.24919">
        <ele>450.52</ele>
        <time>2015-10-17T15:53:44Z</time>
      </trkpt>
      <trkpt lat="43.59909" lon="6.24919">
        <ele>448.59</ele>
        <time>2015-10-17T15:54:08Z</time>
      </trkpt>
      <trkpt lat="43.59909" lon="6.24919">
        <ele>451.48</ele>
        <time>2015-10-17T15:54:09Z</time>
      </trkpt>
      <trkpt lat="43.59908" lon="6.24918">
        <ele>449.55</ele>
        <time>2015-10-17T15:54:28Z</time>
      </trkpt>
      <trkpt lat="43.59908" lon="6.24918">
        <ele>450.03</ele>
        <time>2015-10-17T15:54:34Z</time>
      </trkpt>
      <trkpt lat="43.59909" lon="6.24915">
        <ele>449.55</ele>
        <time>2015-10-17T15:54:36Z</time>
      </trkpt>
      <trkpt lat="43.59913" lon="6.24905">
        <ele>449.07</ele>
        <time>2015-10-17T15:54:51Z</time>
      </trkpt>
      <trkpt lat="43.59912" lon="6.24904">
        <ele>449.07</ele>
        <time>2015-10-17T15:55:10Z</time>
      </trkpt>
      <trkpt lat="43.59911" lon="6.24905">
        <ele>449.07</ele>
        <time>2015-10-17T15:55:16Z</time>
      </trkpt>
      <trkpt lat="43.59909" lon="6.24909">
        <ele>449.07</ele>
        <time>2015-10-17T15:55:20Z</time>
      </trkpt>
      <trkpt lat="43.59903" lon="6.24918">
        <ele>449.07</ele>
        <time>2015-10-17T15:55:26Z</time>
      </trkpt>
      <trkpt lat="43.59894" lon="6.24949">
        <ele>449.55</ele>
        <time>2015-10-17T15:55:42Z</time>
      </trkpt>
      <trkpt lat="43.59885" lon="6.24976">
        <ele>449.55</ele>
        <time>2015-10-17T15:55:52Z</time>
      </trkpt>
      <trkpt lat="43.59881" lon="6.24986">
        <ele>450.03</ele>
        <time>2015-10-17T15:56:02Z</time>
      </trkpt>
      <trkpt lat="43.5988" lon="6.24986">
        <ele>449.55</ele>
        <time>2015-10-17T15:56:16Z</time>
      </trkpt>
      <trkpt lat="43.59882" lon="6.24989">
        <ele>449.55</ele>
        <time>2015-10-17T15:56:19Z</time>
      </trkpt>
      <trkpt lat="43.59881" lon="6.24992">
        <ele>450.03</ele>
        <time>2015-10-17T15:56:29Z</time>
      </trkpt>
      <trkpt lat="43.59881" lon="6.24993">
        <ele>449.55</ele>
        <time>2015-10-17T15:56:35Z</time>
      </trkpt>
      <trkpt lat="43.59874" lon="6.24993">
        <ele>449.07</ele>
        <time>2015-10-17T15:56:40Z</time>
      </trkpt>
      <trkpt lat="43.59871" lon="6.2499">
        <ele>448.59</ele>
        <time>2015-10-17T15:56:51Z</time>
      </trkpt>
      <trkpt lat="43.59879" lon="6.24981">
        <ele>449.55</ele>
        <time>2015-10-17T15:56:58Z</time>
      </trkpt>
      <trkpt lat="43.59881" lon="6.24978">
        <ele>445.71</ele>
        <time>2015-10-17T15:57:00Z</time>
      </trkpt>
      <trkpt lat="43.59882" lon="6.24977">
        <ele>452.92</ele>
        <time>2015-10-17T15:57:01Z</time>
      </trkpt>
      <trkpt lat="43.59883" lon="6.24975">
        <ele>449.07</ele>
        <time>2015-10-17T15:57:02Z</time>
      </trkpt>
      <trkpt lat="43.59884" lon="6.24972">
        <ele>449.55</ele>
        <time>2015-10-17T15:57:04Z</time>
      </trkpt>
      <trkpt lat="43.59891" lon="6.24958">
        <ele>450.03</ele>
        <time>2015-10-17T15:57:13Z</time>
      </trkpt>
      <trkpt lat="43.59893" lon="6.24955">
        <ele>450.03</ele>
        <time>2015-10-17T15:57:24Z</time>
      </trkpt>
      <trkpt lat="43.59901" lon="6.24929">
        <ele>450.03</ele>
        <time>2015-10-17T15:57:43Z</time>
      </trkpt>
      <trkpt lat="43.59902" lon="6.24922">
        <ele>449.55</ele>
        <time>2015-10-17T15:58:01Z</time>
      </trkpt>
      <trkpt lat="43.59901" lon="6.24922">
        <ele>450.03</ele>
        <time>2015-10-17T15:58:31Z</time>
      </trkpt>
      <trkpt lat="43.59901" lon="6.24922">
        <ele>450.03</ele>
        <time>2015-10-17T15:59:02Z</time>
      </trkpt>
    </trkseg>
  </trk>
</gpx>